<?xml version="1.0" encoding="UTF-8" standalone="no" ?>
<gpx xmlns="http://www.topografix.com/GPX/1/1" xmlns:xsi="http://www.w3.org/2001/XMLSchema-instance" xsi:schemaLocation="http://www.topografix.com/GPX/1/1 http://www.topografix.com/GPX/1/1/gpx.xsd" version="1.1" creator="VisuGPX - https://www.visugpx.com">
  <metadata>
    <name>quessoy</name>
  </metadata>
  <trk>
    <name><![CDATA[22 avr. 2019]]></name>
    <trkseg>
      <trkpt lat="48.23932" lon="-2.88251">
        <ele>202</ele>
        <time>2019-04-22T07:32:17Z</time>
      </trkpt>
      <trkpt lat="48.23932" lon="-2.88251">
        <ele>202</ele>
        <time>2019-04-22T07:32:17Z</time>
      </trkpt>
      <trkpt lat="48.23931" lon="-2.8825">
        <ele>204</ele>
        <time>2019-04-22T07:32:18Z</time>
      </trkpt>
      <trkpt lat="48.23935" lon="-2.8825">
        <ele>205</ele>
        <time>2019-04-22T07:32:37Z</time>
      </trkpt>
      <trkpt lat="48.23939" lon="-2.88254">
        <ele>202</ele>
        <time>2019-04-22T07:32:41Z</time>
      </trkpt>
      <trkpt lat="48.23945" lon="-2.88257">
        <ele>201</ele>
        <time>2019-04-22T07:32:46Z</time>
      </trkpt>
      <trkpt lat="48.23948" lon="-2.88264">
        <ele>199</ele>
        <time>2019-04-22T07:32:51Z</time>
      </trkpt>
      <trkpt lat="48.23951" lon="-2.88268">
        <ele>199</ele>
        <time>2019-04-22T07:32:55Z</time>
      </trkpt>
      <trkpt lat="48.23956" lon="-2.88267">
        <ele>199</ele>
        <time>2019-04-22T07:32:59Z</time>
      </trkpt>
      <trkpt lat="48.23961" lon="-2.88265">
        <ele>198</ele>
        <time>2019-04-22T07:33:03Z</time>
      </trkpt>
      <trkpt lat="48.2397" lon="-2.88273">
        <ele>195</ele>
        <time>2019-04-22T07:33:10Z</time>
      </trkpt>
      <trkpt lat="48.23972" lon="-2.8828">
        <ele>195</ele>
        <time>2019-04-22T07:33:13Z</time>
      </trkpt>
      <trkpt lat="48.23972" lon="-2.88288">
        <ele>195</ele>
        <time>2019-04-22T07:33:18Z</time>
      </trkpt>
      <trkpt lat="48.23977" lon="-2.88302">
        <ele>193</ele>
        <time>2019-04-22T07:33:29Z</time>
      </trkpt>
      <trkpt lat="48.23972" lon="-2.88315">
        <ele>192</ele>
        <time>2019-04-22T07:33:36Z</time>
      </trkpt>
      <trkpt lat="48.23966" lon="-2.88317">
        <ele>191</ele>
        <time>2019-04-22T07:33:48Z</time>
      </trkpt>
      <trkpt lat="48.23969" lon="-2.88323">
        <ele>192</ele>
        <time>2019-04-22T07:33:58Z</time>
      </trkpt>
      <trkpt lat="48.23974" lon="-2.88327">
        <ele>192</ele>
        <time>2019-04-22T07:34:01Z</time>
      </trkpt>
      <trkpt lat="48.23984" lon="-2.88344">
        <ele>190</ele>
        <time>2019-04-22T07:34:13Z</time>
      </trkpt>
      <trkpt lat="48.23989" lon="-2.88347">
        <ele>189</ele>
        <time>2019-04-22T07:34:17Z</time>
      </trkpt>
      <trkpt lat="48.23999" lon="-2.88354">
        <ele>185</ele>
        <time>2019-04-22T07:34:24Z</time>
      </trkpt>
      <trkpt lat="48.24002" lon="-2.8836">
        <ele>184</ele>
        <time>2019-04-22T07:34:30Z</time>
      </trkpt>
      <trkpt lat="48.24007" lon="-2.8836">
        <ele>184</ele>
        <time>2019-04-22T07:34:34Z</time>
      </trkpt>
      <trkpt lat="48.24013" lon="-2.88364">
        <ele>183</ele>
        <time>2019-04-22T07:34:37Z</time>
      </trkpt>
      <trkpt lat="48.24023" lon="-2.8837">
        <ele>182</ele>
        <time>2019-04-22T07:34:43Z</time>
      </trkpt>
      <trkpt lat="48.24032" lon="-2.88373">
        <ele>181</ele>
        <time>2019-04-22T07:34:50Z</time>
      </trkpt>
      <trkpt lat="48.24038" lon="-2.88373">
        <ele>182</ele>
        <time>2019-04-22T07:34:53Z</time>
      </trkpt>
      <trkpt lat="48.24053" lon="-2.88367">
        <ele>181</ele>
        <time>2019-04-22T07:35:04Z</time>
      </trkpt>
      <trkpt lat="48.24058" lon="-2.88368">
        <ele>180</ele>
        <time>2019-04-22T07:35:07Z</time>
      </trkpt>
      <trkpt lat="48.24062" lon="-2.88373">
        <ele>180</ele>
        <time>2019-04-22T07:35:10Z</time>
      </trkpt>
      <trkpt lat="48.24068" lon="-2.88385">
        <ele>179</ele>
        <time>2019-04-22T07:35:16Z</time>
      </trkpt>
      <trkpt lat="48.24067" lon="-2.88393">
        <ele>178</ele>
        <time>2019-04-22T07:35:20Z</time>
      </trkpt>
      <trkpt lat="48.24075" lon="-2.88405">
        <ele>176</ele>
        <time>2019-04-22T07:35:27Z</time>
      </trkpt>
      <trkpt lat="48.24074" lon="-2.88413">
        <ele>176</ele>
        <time>2019-04-22T07:35:30Z</time>
      </trkpt>
      <trkpt lat="48.2407" lon="-2.88419">
        <ele>175</ele>
        <time>2019-04-22T07:35:33Z</time>
      </trkpt>
      <trkpt lat="48.2407" lon="-2.88442">
        <ele>173</ele>
        <time>2019-04-22T07:35:42Z</time>
      </trkpt>
      <trkpt lat="48.24071" lon="-2.88451">
        <ele>173</ele>
        <time>2019-04-22T07:35:47Z</time>
      </trkpt>
      <trkpt lat="48.24071" lon="-2.88462">
        <ele>174</ele>
        <time>2019-04-22T07:35:53Z</time>
      </trkpt>
      <trkpt lat="48.24073" lon="-2.8847">
        <ele>174</ele>
        <time>2019-04-22T07:35:57Z</time>
      </trkpt>
      <trkpt lat="48.24077" lon="-2.88475">
        <ele>176</ele>
        <time>2019-04-22T07:36:01Z</time>
      </trkpt>
      <trkpt lat="48.24076" lon="-2.88492">
        <ele>177</ele>
        <time>2019-04-22T07:36:08Z</time>
      </trkpt>
      <trkpt lat="48.24073" lon="-2.88498">
        <ele>177</ele>
        <time>2019-04-22T07:36:10Z</time>
      </trkpt>
      <trkpt lat="48.24071" lon="-2.88504">
        <ele>177</ele>
        <time>2019-04-22T07:36:13Z</time>
      </trkpt>
      <trkpt lat="48.24069" lon="-2.88511">
        <ele>177</ele>
        <time>2019-04-22T07:36:16Z</time>
      </trkpt>
      <trkpt lat="48.24071" lon="-2.88519">
        <ele>178</ele>
        <time>2019-04-22T07:36:19Z</time>
      </trkpt>
      <trkpt lat="48.24068" lon="-2.88526">
        <ele>178</ele>
        <time>2019-04-22T07:36:23Z</time>
      </trkpt>
      <trkpt lat="48.24061" lon="-2.88538">
        <ele>178</ele>
        <time>2019-04-22T07:36:28Z</time>
      </trkpt>
      <trkpt lat="48.24062" lon="-2.88546">
        <ele>177</ele>
        <time>2019-04-22T07:36:32Z</time>
      </trkpt>
      <trkpt lat="48.24063" lon="-2.88555">
        <ele>175</ele>
        <time>2019-04-22T07:36:36Z</time>
      </trkpt>
      <trkpt lat="48.24063" lon="-2.88562">
        <ele>174</ele>
        <time>2019-04-22T07:36:40Z</time>
      </trkpt>
      <trkpt lat="48.24064" lon="-2.8857">
        <ele>173</ele>
        <time>2019-04-22T07:36:44Z</time>
      </trkpt>
      <trkpt lat="48.24067" lon="-2.88575">
        <ele>173</ele>
        <time>2019-04-22T07:36:46Z</time>
      </trkpt>
      <trkpt lat="48.24071" lon="-2.8858">
        <ele>173</ele>
        <time>2019-04-22T07:36:48Z</time>
      </trkpt>
      <trkpt lat="48.24068" lon="-2.8859">
        <ele>173</ele>
        <time>2019-04-22T07:36:52Z</time>
      </trkpt>
      <trkpt lat="48.24076" lon="-2.88603">
        <ele>175</ele>
        <time>2019-04-22T07:36:58Z</time>
      </trkpt>
      <trkpt lat="48.24079" lon="-2.88608">
        <ele>175</ele>
        <time>2019-04-22T07:37:00Z</time>
      </trkpt>
      <trkpt lat="48.24079" lon="-2.88615">
        <ele>176</ele>
        <time>2019-04-22T07:37:03Z</time>
      </trkpt>
      <trkpt lat="48.24074" lon="-2.88622">
        <ele>176</ele>
        <time>2019-04-22T07:37:05Z</time>
      </trkpt>
      <trkpt lat="48.24073" lon="-2.88631">
        <ele>178</ele>
        <time>2019-04-22T07:37:07Z</time>
      </trkpt>
      <trkpt lat="48.24078" lon="-2.88629">
        <ele>179</ele>
        <time>2019-04-22T07:37:17Z</time>
      </trkpt>
      <trkpt lat="48.24084" lon="-2.88629">
        <ele>178</ele>
        <time>2019-04-22T07:37:20Z</time>
      </trkpt>
      <trkpt lat="48.24088" lon="-2.88634">
        <ele>177</ele>
        <time>2019-04-22T07:37:24Z</time>
      </trkpt>
      <trkpt lat="48.24093" lon="-2.88639">
        <ele>177</ele>
        <time>2019-04-22T07:37:29Z</time>
      </trkpt>
      <trkpt lat="48.24102" lon="-2.88654">
        <ele>176</ele>
        <time>2019-04-22T07:37:34Z</time>
      </trkpt>
      <trkpt lat="48.24106" lon="-2.88661">
        <ele>176</ele>
        <time>2019-04-22T07:37:37Z</time>
      </trkpt>
      <trkpt lat="48.24109" lon="-2.88667">
        <ele>176</ele>
        <time>2019-04-22T07:37:42Z</time>
      </trkpt>
      <trkpt lat="48.24113" lon="-2.88672">
        <ele>176</ele>
        <time>2019-04-22T07:37:51Z</time>
      </trkpt>
      <trkpt lat="48.24119" lon="-2.88674">
        <ele>176</ele>
        <time>2019-04-22T07:37:56Z</time>
      </trkpt>
      <trkpt lat="48.24124" lon="-2.88674">
        <ele>177</ele>
        <time>2019-04-22T07:38:00Z</time>
      </trkpt>
      <trkpt lat="48.24129" lon="-2.88678">
        <ele>177</ele>
        <time>2019-04-22T07:38:03Z</time>
      </trkpt>
      <trkpt lat="48.24137" lon="-2.88688">
        <ele>178</ele>
        <time>2019-04-22T07:38:18Z</time>
      </trkpt>
      <trkpt lat="48.24142" lon="-2.88693">
        <ele>177</ele>
        <time>2019-04-22T07:38:21Z</time>
      </trkpt>
      <trkpt lat="48.24146" lon="-2.88697">
        <ele>177</ele>
        <time>2019-04-22T07:38:26Z</time>
      </trkpt>
      <trkpt lat="48.2415" lon="-2.88691">
        <ele>179</ele>
        <time>2019-04-22T07:38:55Z</time>
      </trkpt>
      <trkpt lat="48.24149" lon="-2.88682">
        <ele>180</ele>
        <time>2019-04-22T07:38:58Z</time>
      </trkpt>
      <trkpt lat="48.24148" lon="-2.88681">
        <ele>184</ele>
        <time>2019-04-22T07:39:42Z</time>
      </trkpt>
      <trkpt lat="48.24149" lon="-2.88689">
        <ele>183</ele>
        <time>2019-04-22T07:40:07Z</time>
      </trkpt>
      <trkpt lat="48.24151" lon="-2.88695">
        <ele>183</ele>
        <time>2019-04-22T07:40:16Z</time>
      </trkpt>
      <trkpt lat="48.24157" lon="-2.887">
        <ele>183</ele>
        <time>2019-04-22T07:40:19Z</time>
      </trkpt>
      <trkpt lat="48.24158" lon="-2.88708">
        <ele>182</ele>
        <time>2019-04-22T07:40:22Z</time>
      </trkpt>
      <trkpt lat="48.24163" lon="-2.88713">
        <ele>181</ele>
        <time>2019-04-22T07:40:27Z</time>
      </trkpt>
      <trkpt lat="48.2417" lon="-2.88716">
        <ele>180</ele>
        <time>2019-04-22T07:40:29Z</time>
      </trkpt>
      <trkpt lat="48.24179" lon="-2.88728">
        <ele>177</ele>
        <time>2019-04-22T07:40:34Z</time>
      </trkpt>
      <trkpt lat="48.24183" lon="-2.88733">
        <ele>176</ele>
        <time>2019-04-22T07:40:37Z</time>
      </trkpt>
      <trkpt lat="48.24203" lon="-2.88746">
        <ele>171</ele>
        <time>2019-04-22T07:40:50Z</time>
      </trkpt>
      <trkpt lat="48.24236" lon="-2.88756">
        <ele>166</ele>
        <time>2019-04-22T07:41:07Z</time>
      </trkpt>
      <trkpt lat="48.2424" lon="-2.88761">
        <ele>166</ele>
        <time>2019-04-22T07:41:12Z</time>
      </trkpt>
      <trkpt lat="48.24248" lon="-2.8877">
        <ele>168</ele>
        <time>2019-04-22T07:41:20Z</time>
      </trkpt>
      <trkpt lat="48.24254" lon="-2.88781">
        <ele>169</ele>
        <time>2019-04-22T07:41:29Z</time>
      </trkpt>
      <trkpt lat="48.24257" lon="-2.88786">
        <ele>170</ele>
        <time>2019-04-22T07:41:33Z</time>
      </trkpt>
      <trkpt lat="48.24269" lon="-2.8879">
        <ele>169</ele>
        <time>2019-04-22T07:41:39Z</time>
      </trkpt>
      <trkpt lat="48.24274" lon="-2.88792">
        <ele>169</ele>
        <time>2019-04-22T07:41:42Z</time>
      </trkpt>
      <trkpt lat="48.24306" lon="-2.88801">
        <ele>168</ele>
        <time>2019-04-22T07:42:03Z</time>
      </trkpt>
      <trkpt lat="48.24311" lon="-2.888">
        <ele>168</ele>
        <time>2019-04-22T07:42:06Z</time>
      </trkpt>
      <trkpt lat="48.24317" lon="-2.88799">
        <ele>167</ele>
        <time>2019-04-22T07:42:10Z</time>
      </trkpt>
      <trkpt lat="48.24322" lon="-2.88801">
        <ele>167</ele>
        <time>2019-04-22T07:42:13Z</time>
      </trkpt>
      <trkpt lat="48.24326" lon="-2.88804">
        <ele>166</ele>
        <time>2019-04-22T07:42:17Z</time>
      </trkpt>
      <trkpt lat="48.24327" lon="-2.88822">
        <ele>164</ele>
        <time>2019-04-22T07:42:26Z</time>
      </trkpt>
      <trkpt lat="48.24338" lon="-2.88894">
        <ele>167</ele>
        <time>2019-04-22T07:42:46Z</time>
      </trkpt>
      <trkpt lat="48.24338" lon="-2.88901">
        <ele>168</ele>
        <time>2019-04-22T07:42:48Z</time>
      </trkpt>
      <trkpt lat="48.24338" lon="-2.88911">
        <ele>170</ele>
        <time>2019-04-22T07:42:51Z</time>
      </trkpt>
      <trkpt lat="48.24345" lon="-2.88924">
        <ele>173</ele>
        <time>2019-04-22T07:42:59Z</time>
      </trkpt>
      <trkpt lat="48.24345" lon="-2.88941">
        <ele>175</ele>
        <time>2019-04-22T07:43:06Z</time>
      </trkpt>
      <trkpt lat="48.2435" lon="-2.8897">
        <ele>179</ele>
        <time>2019-04-22T07:43:22Z</time>
      </trkpt>
      <trkpt lat="48.24347" lon="-2.88977">
        <ele>179</ele>
        <time>2019-04-22T07:43:25Z</time>
      </trkpt>
      <trkpt lat="48.24344" lon="-2.88983">
        <ele>179</ele>
        <time>2019-04-22T07:43:27Z</time>
      </trkpt>
      <trkpt lat="48.24347" lon="-2.88991">
        <ele>178</ele>
        <time>2019-04-22T07:43:32Z</time>
      </trkpt>
      <trkpt lat="48.24347" lon="-2.88998">
        <ele>177</ele>
        <time>2019-04-22T07:43:35Z</time>
      </trkpt>
      <trkpt lat="48.24349" lon="-2.89005">
        <ele>176</ele>
        <time>2019-04-22T07:43:38Z</time>
      </trkpt>
      <trkpt lat="48.2435" lon="-2.89013">
        <ele>176</ele>
        <time>2019-04-22T07:43:41Z</time>
      </trkpt>
      <trkpt lat="48.24353" lon="-2.8902">
        <ele>176</ele>
        <time>2019-04-22T07:43:45Z</time>
      </trkpt>
      <trkpt lat="48.2436" lon="-2.89041">
        <ele>178</ele>
        <time>2019-04-22T07:43:55Z</time>
      </trkpt>
      <trkpt lat="48.24362" lon="-2.89058">
        <ele>180</ele>
        <time>2019-04-22T07:44:03Z</time>
      </trkpt>
      <trkpt lat="48.24362" lon="-2.89066">
        <ele>180</ele>
        <time>2019-04-22T07:44:07Z</time>
      </trkpt>
      <trkpt lat="48.24363" lon="-2.89074">
        <ele>180</ele>
        <time>2019-04-22T07:44:11Z</time>
      </trkpt>
      <trkpt lat="48.24362" lon="-2.89081">
        <ele>180</ele>
        <time>2019-04-22T07:44:14Z</time>
      </trkpt>
      <trkpt lat="48.24359" lon="-2.89088">
        <ele>179</ele>
        <time>2019-04-22T07:44:18Z</time>
      </trkpt>
      <trkpt lat="48.24359" lon="-2.89112">
        <ele>180</ele>
        <time>2019-04-22T07:44:33Z</time>
      </trkpt>
      <trkpt lat="48.24361" lon="-2.8913">
        <ele>181</ele>
        <time>2019-04-22T07:44:38Z</time>
      </trkpt>
      <trkpt lat="48.24361" lon="-2.89139">
        <ele>181</ele>
        <time>2019-04-22T07:44:40Z</time>
      </trkpt>
      <trkpt lat="48.24363" lon="-2.89147">
        <ele>181</ele>
        <time>2019-04-22T07:44:42Z</time>
      </trkpt>
      <trkpt lat="48.24367" lon="-2.89155">
        <ele>181</ele>
        <time>2019-04-22T07:44:44Z</time>
      </trkpt>
      <trkpt lat="48.24376" lon="-2.89233">
        <ele>181</ele>
        <time>2019-04-22T07:45:00Z</time>
      </trkpt>
      <trkpt lat="48.24371" lon="-2.89268">
        <ele>181</ele>
        <time>2019-04-22T07:45:05Z</time>
      </trkpt>
      <trkpt lat="48.24375" lon="-2.893">
        <ele>182</ele>
        <time>2019-04-22T07:45:12Z</time>
      </trkpt>
      <trkpt lat="48.24378" lon="-2.89315">
        <ele>184</ele>
        <time>2019-04-22T07:45:16Z</time>
      </trkpt>
      <trkpt lat="48.24382" lon="-2.89321">
        <ele>185</ele>
        <time>2019-04-22T07:45:19Z</time>
      </trkpt>
      <trkpt lat="48.24404" lon="-2.8932">
        <ele>188</ele>
        <time>2019-04-22T07:45:30Z</time>
      </trkpt>
      <trkpt lat="48.24417" lon="-2.89312">
        <ele>188</ele>
        <time>2019-04-22T07:45:34Z</time>
      </trkpt>
      <trkpt lat="48.24443" lon="-2.89286">
        <ele>189</ele>
        <time>2019-04-22T07:45:44Z</time>
      </trkpt>
      <trkpt lat="48.24494" lon="-2.89246">
        <ele>189</ele>
        <time>2019-04-22T07:46:05Z</time>
      </trkpt>
      <trkpt lat="48.24499" lon="-2.89245">
        <ele>188</ele>
        <time>2019-04-22T07:46:11Z</time>
      </trkpt>
      <trkpt lat="48.24507" lon="-2.89254">
        <ele>188</ele>
        <time>2019-04-22T07:46:16Z</time>
      </trkpt>
      <trkpt lat="48.24516" lon="-2.8927">
        <ele>189</ele>
        <time>2019-04-22T07:46:20Z</time>
      </trkpt>
      <trkpt lat="48.24528" lon="-2.89286">
        <ele>189</ele>
        <time>2019-04-22T07:46:24Z</time>
      </trkpt>
      <trkpt lat="48.24546" lon="-2.89325">
        <ele>189</ele>
        <time>2019-04-22T07:46:34Z</time>
      </trkpt>
      <trkpt lat="48.24586" lon="-2.89379">
        <ele>191</ele>
        <time>2019-04-22T07:46:48Z</time>
      </trkpt>
      <trkpt lat="48.24592" lon="-2.89386">
        <ele>192</ele>
        <time>2019-04-22T07:46:50Z</time>
      </trkpt>
      <trkpt lat="48.24597" lon="-2.89393">
        <ele>192</ele>
        <time>2019-04-22T07:46:52Z</time>
      </trkpt>
      <trkpt lat="48.24601" lon="-2.89399">
        <ele>193</ele>
        <time>2019-04-22T07:46:54Z</time>
      </trkpt>
      <trkpt lat="48.24604" lon="-2.89405">
        <ele>194</ele>
        <time>2019-04-22T07:46:57Z</time>
      </trkpt>
      <trkpt lat="48.24611" lon="-2.89418">
        <ele>200</ele>
        <time>2019-04-22T07:47:03Z</time>
      </trkpt>
      <trkpt lat="48.24613" lon="-2.89424">
        <ele>201</ele>
        <time>2019-04-22T07:47:06Z</time>
      </trkpt>
      <trkpt lat="48.2462" lon="-2.89447">
        <ele>207</ele>
        <time>2019-04-22T07:47:15Z</time>
      </trkpt>
      <trkpt lat="48.24629" lon="-2.89459">
        <ele>210</ele>
        <time>2019-04-22T07:47:20Z</time>
      </trkpt>
      <trkpt lat="48.24633" lon="-2.89463">
        <ele>210</ele>
        <time>2019-04-22T07:47:22Z</time>
      </trkpt>
      <trkpt lat="48.24636" lon="-2.8947">
        <ele>212</ele>
        <time>2019-04-22T07:47:26Z</time>
      </trkpt>
      <trkpt lat="48.24646" lon="-2.89472">
        <ele>213</ele>
        <time>2019-04-22T07:47:31Z</time>
      </trkpt>
      <trkpt lat="48.24651" lon="-2.89473">
        <ele>213</ele>
        <time>2019-04-22T07:47:33Z</time>
      </trkpt>
      <trkpt lat="48.24657" lon="-2.89486">
        <ele>211</ele>
        <time>2019-04-22T07:47:39Z</time>
      </trkpt>
      <trkpt lat="48.24666" lon="-2.89506">
        <ele>210</ele>
        <time>2019-04-22T07:47:46Z</time>
      </trkpt>
      <trkpt lat="48.2467" lon="-2.89514">
        <ele>210</ele>
        <time>2019-04-22T07:47:49Z</time>
      </trkpt>
      <trkpt lat="48.24678" lon="-2.89526">
        <ele>211</ele>
        <time>2019-04-22T07:47:53Z</time>
      </trkpt>
      <trkpt lat="48.24747" lon="-2.89595">
        <ele>217</ele>
        <time>2019-04-22T07:48:21Z</time>
      </trkpt>
      <trkpt lat="48.2475" lon="-2.89603">
        <ele>217</ele>
        <time>2019-04-22T07:48:23Z</time>
      </trkpt>
      <trkpt lat="48.24755" lon="-2.89608">
        <ele>217</ele>
        <time>2019-04-22T07:48:26Z</time>
      </trkpt>
      <trkpt lat="48.2476" lon="-2.89611">
        <ele>217</ele>
        <time>2019-04-22T07:48:30Z</time>
      </trkpt>
      <trkpt lat="48.24767" lon="-2.89628">
        <ele>219</ele>
        <time>2019-04-22T07:48:43Z</time>
      </trkpt>
      <trkpt lat="48.24762" lon="-2.89636">
        <ele>220</ele>
        <time>2019-04-22T07:48:46Z</time>
      </trkpt>
      <trkpt lat="48.24757" lon="-2.89639">
        <ele>220</ele>
        <time>2019-04-22T07:48:48Z</time>
      </trkpt>
      <trkpt lat="48.24744" lon="-2.89645">
        <ele>221</ele>
        <time>2019-04-22T07:48:52Z</time>
      </trkpt>
      <trkpt lat="48.24716" lon="-2.8967">
        <ele>223</ele>
        <time>2019-04-22T07:49:00Z</time>
      </trkpt>
      <trkpt lat="48.24693" lon="-2.89675">
        <ele>222</ele>
        <time>2019-04-22T07:49:06Z</time>
      </trkpt>
      <trkpt lat="48.24644" lon="-2.89678">
        <ele>218</ele>
        <time>2019-04-22T07:49:16Z</time>
      </trkpt>
      <trkpt lat="48.24623" lon="-2.89687">
        <ele>217</ele>
        <time>2019-04-22T07:49:21Z</time>
      </trkpt>
      <trkpt lat="48.24614" lon="-2.89696">
        <ele>218</ele>
        <time>2019-04-22T07:49:25Z</time>
      </trkpt>
      <trkpt lat="48.24608" lon="-2.89698">
        <ele>218</ele>
        <time>2019-04-22T07:49:27Z</time>
      </trkpt>
      <trkpt lat="48.24603" lon="-2.89699">
        <ele>218</ele>
        <time>2019-04-22T07:49:29Z</time>
      </trkpt>
      <trkpt lat="48.24603" lon="-2.89706">
        <ele>218</ele>
        <time>2019-04-22T07:49:32Z</time>
      </trkpt>
      <trkpt lat="48.24598" lon="-2.89711">
        <ele>218</ele>
        <time>2019-04-22T07:49:38Z</time>
      </trkpt>
      <trkpt lat="48.24593" lon="-2.89714">
        <ele>218</ele>
        <time>2019-04-22T07:49:40Z</time>
      </trkpt>
      <trkpt lat="48.24589" lon="-2.89721">
        <ele>218</ele>
        <time>2019-04-22T07:49:43Z</time>
      </trkpt>
      <trkpt lat="48.24583" lon="-2.89727">
        <ele>219</ele>
        <time>2019-04-22T07:49:45Z</time>
      </trkpt>
      <trkpt lat="48.24576" lon="-2.89739">
        <ele>220</ele>
        <time>2019-04-22T07:50:05Z</time>
      </trkpt>
      <trkpt lat="48.24573" lon="-2.89747">
        <ele>220</ele>
        <time>2019-04-22T07:50:09Z</time>
      </trkpt>
      <trkpt lat="48.24564" lon="-2.89774">
        <ele>222</ele>
        <time>2019-04-22T07:50:15Z</time>
      </trkpt>
      <trkpt lat="48.2456" lon="-2.89783">
        <ele>222</ele>
        <time>2019-04-22T07:50:17Z</time>
      </trkpt>
      <trkpt lat="48.24535" lon="-2.89836">
        <ele>225</ele>
        <time>2019-04-22T07:50:30Z</time>
      </trkpt>
      <trkpt lat="48.24531" lon="-2.89841">
        <ele>226</ele>
        <time>2019-04-22T07:50:32Z</time>
      </trkpt>
      <trkpt lat="48.24524" lon="-2.89852">
        <ele>231</ele>
        <time>2019-04-22T07:50:53Z</time>
      </trkpt>
      <trkpt lat="48.24519" lon="-2.89869">
        <ele>232</ele>
        <time>2019-04-22T07:51:01Z</time>
      </trkpt>
      <trkpt lat="48.2451" lon="-2.89892">
        <ele>235</ele>
        <time>2019-04-22T07:51:08Z</time>
      </trkpt>
      <trkpt lat="48.24507" lon="-2.89907">
        <ele>239</ele>
        <time>2019-04-22T07:51:15Z</time>
      </trkpt>
      <trkpt lat="48.24504" lon="-2.89913">
        <ele>240</ele>
        <time>2019-04-22T07:51:19Z</time>
      </trkpt>
      <trkpt lat="48.245" lon="-2.89917">
        <ele>241</ele>
        <time>2019-04-22T07:51:22Z</time>
      </trkpt>
      <trkpt lat="48.24495" lon="-2.8992">
        <ele>242</ele>
        <time>2019-04-22T07:51:25Z</time>
      </trkpt>
      <trkpt lat="48.2449" lon="-2.89923">
        <ele>243</ele>
        <time>2019-04-22T07:51:29Z</time>
      </trkpt>
      <trkpt lat="48.24485" lon="-2.89926">
        <ele>243</ele>
        <time>2019-04-22T07:51:34Z</time>
      </trkpt>
      <trkpt lat="48.24474" lon="-2.8993">
        <ele>241</ele>
        <time>2019-04-22T07:51:41Z</time>
      </trkpt>
      <trkpt lat="48.2447" lon="-2.89933">
        <ele>240</ele>
        <time>2019-04-22T07:51:46Z</time>
      </trkpt>
      <trkpt lat="48.24461" lon="-2.89942">
        <ele>239</ele>
        <time>2019-04-22T07:51:50Z</time>
      </trkpt>
      <trkpt lat="48.24457" lon="-2.89946">
        <ele>238</ele>
        <time>2019-04-22T07:51:52Z</time>
      </trkpt>
      <trkpt lat="48.24452" lon="-2.8995">
        <ele>238</ele>
        <time>2019-04-22T07:51:55Z</time>
      </trkpt>
      <trkpt lat="48.24447" lon="-2.89951">
        <ele>237</ele>
        <time>2019-04-22T07:51:59Z</time>
      </trkpt>
      <trkpt lat="48.24442" lon="-2.89953">
        <ele>235</ele>
        <time>2019-04-22T07:52:03Z</time>
      </trkpt>
      <trkpt lat="48.24437" lon="-2.89957">
        <ele>233</ele>
        <time>2019-04-22T07:52:07Z</time>
      </trkpt>
      <trkpt lat="48.24426" lon="-2.89961">
        <ele>231</ele>
        <time>2019-04-22T07:52:13Z</time>
      </trkpt>
      <trkpt lat="48.24422" lon="-2.89964">
        <ele>231</ele>
        <time>2019-04-22T07:52:16Z</time>
      </trkpt>
      <trkpt lat="48.24417" lon="-2.89964">
        <ele>230</ele>
        <time>2019-04-22T07:52:19Z</time>
      </trkpt>
      <trkpt lat="48.24408" lon="-2.89973">
        <ele>229</ele>
        <time>2019-04-22T07:52:25Z</time>
      </trkpt>
      <trkpt lat="48.24403" lon="-2.89977">
        <ele>228</ele>
        <time>2019-04-22T07:52:32Z</time>
      </trkpt>
      <trkpt lat="48.24385" lon="-2.89981">
        <ele>228</ele>
        <time>2019-04-22T07:52:40Z</time>
      </trkpt>
      <trkpt lat="48.24373" lon="-2.8998">
        <ele>228</ele>
        <time>2019-04-22T07:52:46Z</time>
      </trkpt>
      <trkpt lat="48.24368" lon="-2.8998">
        <ele>228</ele>
        <time>2019-04-22T07:52:49Z</time>
      </trkpt>
      <trkpt lat="48.24363" lon="-2.89977">
        <ele>228</ele>
        <time>2019-04-22T07:52:52Z</time>
      </trkpt>
      <trkpt lat="48.2436" lon="-2.89971">
        <ele>229</ele>
        <time>2019-04-22T07:52:56Z</time>
      </trkpt>
      <trkpt lat="48.24354" lon="-2.8995">
        <ele>227</ele>
        <time>2019-04-22T07:53:07Z</time>
      </trkpt>
      <trkpt lat="48.24353" lon="-2.89937">
        <ele>224</ele>
        <time>2019-04-22T07:53:14Z</time>
      </trkpt>
      <trkpt lat="48.24351" lon="-2.89928">
        <ele>222</ele>
        <time>2019-04-22T07:53:17Z</time>
      </trkpt>
      <trkpt lat="48.24346" lon="-2.89927">
        <ele>222</ele>
        <time>2019-04-22T07:53:21Z</time>
      </trkpt>
      <trkpt lat="48.24321" lon="-2.89938">
        <ele>218</ele>
        <time>2019-04-22T07:53:29Z</time>
      </trkpt>
      <trkpt lat="48.24307" lon="-2.8994">
        <ele>217</ele>
        <time>2019-04-22T07:53:33Z</time>
      </trkpt>
      <trkpt lat="48.24287" lon="-2.89946">
        <ele>216</ele>
        <time>2019-04-22T07:53:39Z</time>
      </trkpt>
      <trkpt lat="48.24261" lon="-2.89951">
        <ele>215</ele>
        <time>2019-04-22T07:53:47Z</time>
      </trkpt>
      <trkpt lat="48.24235" lon="-2.89958">
        <ele>215</ele>
        <time>2019-04-22T07:53:55Z</time>
      </trkpt>
      <trkpt lat="48.24216" lon="-2.89957">
        <ele>216</ele>
        <time>2019-04-22T07:54:01Z</time>
      </trkpt>
      <trkpt lat="48.2421" lon="-2.89958">
        <ele>216</ele>
        <time>2019-04-22T07:54:03Z</time>
      </trkpt>
      <trkpt lat="48.24205" lon="-2.89964">
        <ele>217</ele>
        <time>2019-04-22T07:54:05Z</time>
      </trkpt>
      <trkpt lat="48.24205" lon="-2.89971">
        <ele>217</ele>
        <time>2019-04-22T07:54:07Z</time>
      </trkpt>
      <trkpt lat="48.24206" lon="-2.89977">
        <ele>218</ele>
        <time>2019-04-22T07:54:10Z</time>
      </trkpt>
      <trkpt lat="48.24212" lon="-2.90003">
        <ele>219</ele>
        <time>2019-04-22T07:54:17Z</time>
      </trkpt>
      <trkpt lat="48.24238" lon="-2.90053">
        <ele>221</ele>
        <time>2019-04-22T07:54:31Z</time>
      </trkpt>
      <trkpt lat="48.24244" lon="-2.90058">
        <ele>223</ele>
        <time>2019-04-22T07:54:34Z</time>
      </trkpt>
      <trkpt lat="48.24248" lon="-2.90064">
        <ele>224</ele>
        <time>2019-04-22T07:54:36Z</time>
      </trkpt>
      <trkpt lat="48.24252" lon="-2.90068">
        <ele>227</ele>
        <time>2019-04-22T07:54:38Z</time>
      </trkpt>
      <trkpt lat="48.24256" lon="-2.90073">
        <ele>228</ele>
        <time>2019-04-22T07:54:42Z</time>
      </trkpt>
      <trkpt lat="48.24259" lon="-2.90079">
        <ele>230</ele>
        <time>2019-04-22T07:54:47Z</time>
      </trkpt>
      <trkpt lat="48.24267" lon="-2.90089">
        <ele>231</ele>
        <time>2019-04-22T07:54:57Z</time>
      </trkpt>
      <trkpt lat="48.2427" lon="-2.90095">
        <ele>231</ele>
        <time>2019-04-22T07:55:02Z</time>
      </trkpt>
      <trkpt lat="48.24276" lon="-2.90108">
        <ele>232</ele>
        <time>2019-04-22T07:55:11Z</time>
      </trkpt>
      <trkpt lat="48.2428" lon="-2.90124">
        <ele>235</ele>
        <time>2019-04-22T07:55:17Z</time>
      </trkpt>
      <trkpt lat="48.24282" lon="-2.90132">
        <ele>235</ele>
        <time>2019-04-22T07:55:21Z</time>
      </trkpt>
      <trkpt lat="48.24286" lon="-2.90136">
        <ele>236</ele>
        <time>2019-04-22T07:55:25Z</time>
      </trkpt>
      <trkpt lat="48.24289" lon="-2.90141">
        <ele>237</ele>
        <time>2019-04-22T07:55:29Z</time>
      </trkpt>
      <trkpt lat="48.24292" lon="-2.90157">
        <ele>239</ele>
        <time>2019-04-22T07:55:37Z</time>
      </trkpt>
      <trkpt lat="48.24293" lon="-2.90164">
        <ele>241</ele>
        <time>2019-04-22T07:55:41Z</time>
      </trkpt>
      <trkpt lat="48.24296" lon="-2.90171">
        <ele>241</ele>
        <time>2019-04-22T07:55:45Z</time>
      </trkpt>
      <trkpt lat="48.24304" lon="-2.90193">
        <ele>246</ele>
        <time>2019-04-22T07:55:58Z</time>
      </trkpt>
      <trkpt lat="48.24307" lon="-2.90199">
        <ele>247</ele>
        <time>2019-04-22T07:56:02Z</time>
      </trkpt>
      <trkpt lat="48.24313" lon="-2.90211">
        <ele>249</ele>
        <time>2019-04-22T07:56:09Z</time>
      </trkpt>
      <trkpt lat="48.24316" lon="-2.90218">
        <ele>249</ele>
        <time>2019-04-22T07:56:13Z</time>
      </trkpt>
      <trkpt lat="48.24318" lon="-2.90223">
        <ele>250</ele>
        <time>2019-04-22T07:56:17Z</time>
      </trkpt>
      <trkpt lat="48.24326" lon="-2.90235">
        <ele>250</ele>
        <time>2019-04-22T07:56:25Z</time>
      </trkpt>
      <trkpt lat="48.24329" lon="-2.90241">
        <ele>250</ele>
        <time>2019-04-22T07:56:29Z</time>
      </trkpt>
      <trkpt lat="48.24332" lon="-2.90249">
        <ele>250</ele>
        <time>2019-04-22T07:56:34Z</time>
      </trkpt>
      <trkpt lat="48.24338" lon="-2.90262">
        <ele>251</ele>
        <time>2019-04-22T07:56:41Z</time>
      </trkpt>
      <trkpt lat="48.24339" lon="-2.90269">
        <ele>251</ele>
        <time>2019-04-22T07:56:44Z</time>
      </trkpt>
      <trkpt lat="48.24331" lon="-2.90279">
        <ele>253</ele>
        <time>2019-04-22T07:56:52Z</time>
      </trkpt>
      <trkpt lat="48.24326" lon="-2.9028">
        <ele>253</ele>
        <time>2019-04-22T07:56:56Z</time>
      </trkpt>
      <trkpt lat="48.24321" lon="-2.90281">
        <ele>253</ele>
        <time>2019-04-22T07:56:59Z</time>
      </trkpt>
      <trkpt lat="48.24316" lon="-2.90283">
        <ele>254</ele>
        <time>2019-04-22T07:57:02Z</time>
      </trkpt>
      <trkpt lat="48.24312" lon="-2.90284">
        <ele>255</ele>
        <time>2019-04-22T07:57:05Z</time>
      </trkpt>
      <trkpt lat="48.24301" lon="-2.90285">
        <ele>256</ele>
        <time>2019-04-22T07:57:12Z</time>
      </trkpt>
      <trkpt lat="48.24296" lon="-2.90286">
        <ele>257</ele>
        <time>2019-04-22T07:57:15Z</time>
      </trkpt>
      <trkpt lat="48.24291" lon="-2.90287">
        <ele>257</ele>
        <time>2019-04-22T07:57:18Z</time>
      </trkpt>
      <trkpt lat="48.24282" lon="-2.90292">
        <ele>256</ele>
        <time>2019-04-22T07:57:24Z</time>
      </trkpt>
      <trkpt lat="48.24275" lon="-2.90292">
        <ele>257</ele>
        <time>2019-04-22T07:57:27Z</time>
      </trkpt>
      <trkpt lat="48.24264" lon="-2.90296">
        <ele>256</ele>
        <time>2019-04-22T07:57:33Z</time>
      </trkpt>
      <trkpt lat="48.24258" lon="-2.90297">
        <ele>255</ele>
        <time>2019-04-22T07:57:36Z</time>
      </trkpt>
      <trkpt lat="48.24248" lon="-2.90298">
        <ele>254</ele>
        <time>2019-04-22T07:57:43Z</time>
      </trkpt>
      <trkpt lat="48.24243" lon="-2.903">
        <ele>254</ele>
        <time>2019-04-22T07:57:48Z</time>
      </trkpt>
      <trkpt lat="48.24238" lon="-2.90302">
        <ele>254</ele>
        <time>2019-04-22T07:57:51Z</time>
      </trkpt>
      <trkpt lat="48.24233" lon="-2.90302">
        <ele>253</ele>
        <time>2019-04-22T07:57:55Z</time>
      </trkpt>
      <trkpt lat="48.24222" lon="-2.90305">
        <ele>250</ele>
        <time>2019-04-22T07:58:03Z</time>
      </trkpt>
      <trkpt lat="48.24217" lon="-2.90306">
        <ele>250</ele>
        <time>2019-04-22T07:58:07Z</time>
      </trkpt>
      <trkpt lat="48.24213" lon="-2.90308">
        <ele>249</ele>
        <time>2019-04-22T07:58:10Z</time>
      </trkpt>
      <trkpt lat="48.24209" lon="-2.90311">
        <ele>248</ele>
        <time>2019-04-22T07:58:16Z</time>
      </trkpt>
      <trkpt lat="48.2419" lon="-2.90324">
        <ele>244</ele>
        <time>2019-04-22T07:58:31Z</time>
      </trkpt>
      <trkpt lat="48.24186" lon="-2.90327">
        <ele>244</ele>
        <time>2019-04-22T07:58:35Z</time>
      </trkpt>
      <trkpt lat="48.24176" lon="-2.90335">
        <ele>243</ele>
        <time>2019-04-22T07:58:40Z</time>
      </trkpt>
      <trkpt lat="48.24156" lon="-2.90339">
        <ele>245</ele>
        <time>2019-04-22T07:58:55Z</time>
      </trkpt>
      <trkpt lat="48.2415" lon="-2.90338">
        <ele>245</ele>
        <time>2019-04-22T07:58:58Z</time>
      </trkpt>
      <trkpt lat="48.24129" lon="-2.90335">
        <ele>245</ele>
        <time>2019-04-22T07:59:10Z</time>
      </trkpt>
      <trkpt lat="48.24124" lon="-2.90334">
        <ele>245</ele>
        <time>2019-04-22T07:59:13Z</time>
      </trkpt>
      <trkpt lat="48.24109" lon="-2.90334">
        <ele>243</ele>
        <time>2019-04-22T07:59:21Z</time>
      </trkpt>
      <trkpt lat="48.24104" lon="-2.90333">
        <ele>243</ele>
        <time>2019-04-22T07:59:25Z</time>
      </trkpt>
      <trkpt lat="48.24034" lon="-2.90324">
        <ele>236</ele>
        <time>2019-04-22T07:59:54Z</time>
      </trkpt>
      <trkpt lat="48.23941" lon="-2.90296">
        <ele>231</ele>
        <time>2019-04-22T08:00:24Z</time>
      </trkpt>
      <trkpt lat="48.23882" lon="-2.90289">
        <ele>228</ele>
        <time>2019-04-22T08:00:44Z</time>
      </trkpt>
      <trkpt lat="48.23875" lon="-2.90288">
        <ele>228</ele>
        <time>2019-04-22T08:00:46Z</time>
      </trkpt>
      <trkpt lat="48.2387" lon="-2.90294">
        <ele>228</ele>
        <time>2019-04-22T08:00:48Z</time>
      </trkpt>
      <trkpt lat="48.23859" lon="-2.90471">
        <ele>233</ele>
        <time>2019-04-22T08:01:18Z</time>
      </trkpt>
      <trkpt lat="48.23857" lon="-2.90484">
        <ele>234</ele>
        <time>2019-04-22T08:01:20Z</time>
      </trkpt>
      <trkpt lat="48.23855" lon="-2.90514">
        <ele>236</ele>
        <time>2019-04-22T08:01:26Z</time>
      </trkpt>
      <trkpt lat="48.23855" lon="-2.90522">
        <ele>237</ele>
        <time>2019-04-22T08:01:28Z</time>
      </trkpt>
      <trkpt lat="48.2386" lon="-2.90526">
        <ele>238</ele>
        <time>2019-04-22T08:01:30Z</time>
      </trkpt>
      <trkpt lat="48.23924" lon="-2.90542">
        <ele>242</ele>
        <time>2019-04-22T08:01:54Z</time>
      </trkpt>
      <trkpt lat="48.23962" lon="-2.90553">
        <ele>245</ele>
        <time>2019-04-22T08:02:03Z</time>
      </trkpt>
      <trkpt lat="48.23978" lon="-2.90564">
        <ele>247</ele>
        <time>2019-04-22T08:02:10Z</time>
      </trkpt>
      <trkpt lat="48.23984" lon="-2.90566">
        <ele>248</ele>
        <time>2019-04-22T08:02:12Z</time>
      </trkpt>
      <trkpt lat="48.24003" lon="-2.90581">
        <ele>249</ele>
        <time>2019-04-22T08:02:18Z</time>
      </trkpt>
      <trkpt lat="48.2403" lon="-2.90616">
        <ele>250</ele>
        <time>2019-04-22T08:02:30Z</time>
      </trkpt>
      <trkpt lat="48.24034" lon="-2.90621">
        <ele>251</ele>
        <time>2019-04-22T08:02:33Z</time>
      </trkpt>
      <trkpt lat="48.24039" lon="-2.90626">
        <ele>252</ele>
        <time>2019-04-22T08:02:37Z</time>
      </trkpt>
      <trkpt lat="48.24042" lon="-2.90632">
        <ele>254</ele>
        <time>2019-04-22T08:02:40Z</time>
      </trkpt>
      <trkpt lat="48.24045" lon="-2.90638">
        <ele>255</ele>
        <time>2019-04-22T08:02:43Z</time>
      </trkpt>
      <trkpt lat="48.24047" lon="-2.90645">
        <ele>257</ele>
        <time>2019-04-22T08:02:47Z</time>
      </trkpt>
      <trkpt lat="48.24039" lon="-2.90654">
        <ele>259</ele>
        <time>2019-04-22T08:02:56Z</time>
      </trkpt>
      <trkpt lat="48.24034" lon="-2.90658">
        <ele>260</ele>
        <time>2019-04-22T08:02:58Z</time>
      </trkpt>
      <trkpt lat="48.24029" lon="-2.90662">
        <ele>261</ele>
        <time>2019-04-22T08:03:00Z</time>
      </trkpt>
      <trkpt lat="48.24025" lon="-2.90669">
        <ele>262</ele>
        <time>2019-04-22T08:03:04Z</time>
      </trkpt>
      <trkpt lat="48.24021" lon="-2.90675">
        <ele>264</ele>
        <time>2019-04-22T08:03:10Z</time>
      </trkpt>
      <trkpt lat="48.24019" lon="-2.90682">
        <ele>264</ele>
        <time>2019-04-22T08:03:17Z</time>
      </trkpt>
      <trkpt lat="48.24015" lon="-2.90685">
        <ele>264</ele>
        <time>2019-04-22T08:03:21Z</time>
      </trkpt>
      <trkpt lat="48.24003" lon="-2.90716">
        <ele>261</ele>
        <time>2019-04-22T08:03:40Z</time>
      </trkpt>
      <trkpt lat="48.24001" lon="-2.90723">
        <ele>261</ele>
        <time>2019-04-22T08:03:44Z</time>
      </trkpt>
      <trkpt lat="48.23997" lon="-2.90737">
        <ele>259</ele>
        <time>2019-04-22T08:03:50Z</time>
      </trkpt>
      <trkpt lat="48.23996" lon="-2.90745">
        <ele>259</ele>
        <time>2019-04-22T08:03:53Z</time>
      </trkpt>
      <trkpt lat="48.23997" lon="-2.90752">
        <ele>259</ele>
        <time>2019-04-22T08:03:56Z</time>
      </trkpt>
      <trkpt lat="48.24001" lon="-2.9076">
        <ele>258</ele>
        <time>2019-04-22T08:03:59Z</time>
      </trkpt>
      <trkpt lat="48.24007" lon="-2.90764">
        <ele>258</ele>
        <time>2019-04-22T08:04:02Z</time>
      </trkpt>
      <trkpt lat="48.24014" lon="-2.90775">
        <ele>257</ele>
        <time>2019-04-22T08:04:09Z</time>
      </trkpt>
      <trkpt lat="48.24016" lon="-2.90782">
        <ele>259</ele>
        <time>2019-04-22T08:04:14Z</time>
      </trkpt>
      <trkpt lat="48.24013" lon="-2.9079">
        <ele>263</ele>
        <time>2019-04-22T08:04:18Z</time>
      </trkpt>
      <trkpt lat="48.24009" lon="-2.90795">
        <ele>265</ele>
        <time>2019-04-22T08:04:21Z</time>
      </trkpt>
      <trkpt lat="48.24007" lon="-2.90803">
        <ele>267</ele>
        <time>2019-04-22T08:04:24Z</time>
      </trkpt>
      <trkpt lat="48.24006" lon="-2.90811">
        <ele>268</ele>
        <time>2019-04-22T08:04:28Z</time>
      </trkpt>
      <trkpt lat="48.24001" lon="-2.90825">
        <ele>269</ele>
        <time>2019-04-22T08:04:34Z</time>
      </trkpt>
      <trkpt lat="48.24002" lon="-2.90835">
        <ele>270</ele>
        <time>2019-04-22T08:04:38Z</time>
      </trkpt>
      <trkpt lat="48.24003" lon="-2.90842">
        <ele>271</ele>
        <time>2019-04-22T08:04:42Z</time>
      </trkpt>
      <trkpt lat="48.24001" lon="-2.9085">
        <ele>271</ele>
        <time>2019-04-22T08:04:46Z</time>
      </trkpt>
      <trkpt lat="48.23997" lon="-2.90855">
        <ele>271</ele>
        <time>2019-04-22T08:04:49Z</time>
      </trkpt>
      <trkpt lat="48.23992" lon="-2.90869">
        <ele>271</ele>
        <time>2019-04-22T08:04:59Z</time>
      </trkpt>
      <trkpt lat="48.23989" lon="-2.90874">
        <ele>270</ele>
        <time>2019-04-22T08:05:03Z</time>
      </trkpt>
      <trkpt lat="48.23985" lon="-2.9088">
        <ele>268</ele>
        <time>2019-04-22T08:05:08Z</time>
      </trkpt>
      <trkpt lat="48.2398" lon="-2.9088">
        <ele>267</ele>
        <time>2019-04-22T08:05:12Z</time>
      </trkpt>
      <trkpt lat="48.23976" lon="-2.90874">
        <ele>265</ele>
        <time>2019-04-22T08:05:16Z</time>
      </trkpt>
      <trkpt lat="48.23969" lon="-2.90864">
        <ele>264</ele>
        <time>2019-04-22T08:05:22Z</time>
      </trkpt>
      <trkpt lat="48.23965" lon="-2.90859">
        <ele>264</ele>
        <time>2019-04-22T08:05:26Z</time>
      </trkpt>
      <trkpt lat="48.23961" lon="-2.90853">
        <ele>264</ele>
        <time>2019-04-22T08:05:30Z</time>
      </trkpt>
      <trkpt lat="48.23934" lon="-2.90823">
        <ele>260</ele>
        <time>2019-04-22T08:05:47Z</time>
      </trkpt>
      <trkpt lat="48.2385" lon="-2.9077">
        <ele>250</ele>
        <time>2019-04-22T08:06:15Z</time>
      </trkpt>
      <trkpt lat="48.23842" lon="-2.90768">
        <ele>249</ele>
        <time>2019-04-22T08:06:17Z</time>
      </trkpt>
      <trkpt lat="48.23835" lon="-2.90768">
        <ele>247</ele>
        <time>2019-04-22T08:06:19Z</time>
      </trkpt>
      <trkpt lat="48.23828" lon="-2.90772">
        <ele>247</ele>
        <time>2019-04-22T08:06:21Z</time>
      </trkpt>
      <trkpt lat="48.23823" lon="-2.9078">
        <ele>247</ele>
        <time>2019-04-22T08:06:23Z</time>
      </trkpt>
      <trkpt lat="48.2384" lon="-2.90975">
        <ele>257</ele>
        <time>2019-04-22T08:06:51Z</time>
      </trkpt>
      <trkpt lat="48.23857" lon="-2.91042">
        <ele>259</ele>
        <time>2019-04-22T08:07:05Z</time>
      </trkpt>
      <trkpt lat="48.2386" lon="-2.9105">
        <ele>259</ele>
        <time>2019-04-22T08:07:07Z</time>
      </trkpt>
      <trkpt lat="48.23863" lon="-2.91058">
        <ele>259</ele>
        <time>2019-04-22T08:07:09Z</time>
      </trkpt>
      <trkpt lat="48.23865" lon="-2.91068">
        <ele>260</ele>
        <time>2019-04-22T08:07:11Z</time>
      </trkpt>
      <trkpt lat="48.23873" lon="-2.91101">
        <ele>260</ele>
        <time>2019-04-22T08:07:19Z</time>
      </trkpt>
      <trkpt lat="48.23887" lon="-2.91148">
        <ele>263</ele>
        <time>2019-04-22T08:07:29Z</time>
      </trkpt>
      <trkpt lat="48.23893" lon="-2.91163">
        <ele>264</ele>
        <time>2019-04-22T08:07:33Z</time>
      </trkpt>
      <trkpt lat="48.239" lon="-2.91178">
        <ele>266</ele>
        <time>2019-04-22T08:07:38Z</time>
      </trkpt>
      <trkpt lat="48.23909" lon="-2.91187">
        <ele>268</ele>
        <time>2019-04-22T08:07:42Z</time>
      </trkpt>
      <trkpt lat="48.23914" lon="-2.91189">
        <ele>269</ele>
        <time>2019-04-22T08:07:44Z</time>
      </trkpt>
      <trkpt lat="48.2392" lon="-2.91187">
        <ele>270</ele>
        <time>2019-04-22T08:07:47Z</time>
      </trkpt>
      <trkpt lat="48.23929" lon="-2.91148">
        <ele>273</ele>
        <time>2019-04-22T08:07:56Z</time>
      </trkpt>
      <trkpt lat="48.23983" lon="-2.91025">
        <ele>284</ele>
        <time>2019-04-22T08:08:26Z</time>
      </trkpt>
      <trkpt lat="48.23996" lon="-2.90984">
        <ele>286</ele>
        <time>2019-04-22T08:08:36Z</time>
      </trkpt>
      <trkpt lat="48.24001" lon="-2.90978">
        <ele>287</ele>
        <time>2019-04-22T08:08:39Z</time>
      </trkpt>
      <trkpt lat="48.24006" lon="-2.90975">
        <ele>288</ele>
        <time>2019-04-22T08:08:41Z</time>
      </trkpt>
      <trkpt lat="48.24034" lon="-2.90954">
        <ele>291</ele>
        <time>2019-04-22T08:08:49Z</time>
      </trkpt>
      <trkpt lat="48.24041" lon="-2.90952">
        <ele>292</ele>
        <time>2019-04-22T08:08:51Z</time>
      </trkpt>
      <trkpt lat="48.24048" lon="-2.9095">
        <ele>292</ele>
        <time>2019-04-22T08:08:53Z</time>
      </trkpt>
      <trkpt lat="48.24053" lon="-2.90947">
        <ele>292</ele>
        <time>2019-04-22T08:08:55Z</time>
      </trkpt>
      <trkpt lat="48.24059" lon="-2.90947">
        <ele>293</ele>
        <time>2019-04-22T08:08:58Z</time>
      </trkpt>
      <trkpt lat="48.24064" lon="-2.9095">
        <ele>293</ele>
        <time>2019-04-22T08:09:00Z</time>
      </trkpt>
      <trkpt lat="48.24069" lon="-2.90952">
        <ele>294</ele>
        <time>2019-04-22T08:09:03Z</time>
      </trkpt>
      <trkpt lat="48.24108" lon="-2.90973">
        <ele>297</ele>
        <time>2019-04-22T08:09:16Z</time>
      </trkpt>
      <trkpt lat="48.24141" lon="-2.91003">
        <ele>301</ele>
        <time>2019-04-22T08:09:30Z</time>
      </trkpt>
      <trkpt lat="48.24152" lon="-2.91008">
        <ele>300</ele>
        <time>2019-04-22T08:09:34Z</time>
      </trkpt>
      <trkpt lat="48.24158" lon="-2.9101">
        <ele>300</ele>
        <time>2019-04-22T08:09:36Z</time>
      </trkpt>
      <trkpt lat="48.24163" lon="-2.91013">
        <ele>299</ele>
        <time>2019-04-22T08:09:38Z</time>
      </trkpt>
      <trkpt lat="48.24173" lon="-2.91023">
        <ele>300</ele>
        <time>2019-04-22T08:09:42Z</time>
      </trkpt>
      <trkpt lat="48.24178" lon="-2.91031">
        <ele>300</ele>
        <time>2019-04-22T08:09:44Z</time>
      </trkpt>
      <trkpt lat="48.24185" lon="-2.91046">
        <ele>302</ele>
        <time>2019-04-22T08:09:48Z</time>
      </trkpt>
      <trkpt lat="48.24189" lon="-2.9105">
        <ele>302</ele>
        <time>2019-04-22T08:09:50Z</time>
      </trkpt>
      <trkpt lat="48.24194" lon="-2.91053">
        <ele>302</ele>
        <time>2019-04-22T08:09:52Z</time>
      </trkpt>
      <trkpt lat="48.24199" lon="-2.91056">
        <ele>303</ele>
        <time>2019-04-22T08:09:55Z</time>
      </trkpt>
      <trkpt lat="48.24203" lon="-2.91056">
        <ele>303</ele>
        <time>2019-04-22T08:09:59Z</time>
      </trkpt>
      <trkpt lat="48.24211" lon="-2.91066">
        <ele>304</ele>
        <time>2019-04-22T08:10:07Z</time>
      </trkpt>
      <trkpt lat="48.24214" lon="-2.91074">
        <ele>303</ele>
        <time>2019-04-22T08:10:11Z</time>
      </trkpt>
      <trkpt lat="48.24216" lon="-2.91082">
        <ele>302</ele>
        <time>2019-04-22T08:10:15Z</time>
      </trkpt>
      <trkpt lat="48.24218" lon="-2.91089">
        <ele>300</ele>
        <time>2019-04-22T08:10:19Z</time>
      </trkpt>
      <trkpt lat="48.2422" lon="-2.91096">
        <ele>299</ele>
        <time>2019-04-22T08:10:22Z</time>
      </trkpt>
      <trkpt lat="48.24229" lon="-2.91106">
        <ele>296</ele>
        <time>2019-04-22T08:10:27Z</time>
      </trkpt>
      <trkpt lat="48.24246" lon="-2.91109">
        <ele>292</ele>
        <time>2019-04-22T08:10:37Z</time>
      </trkpt>
      <trkpt lat="48.24249" lon="-2.91115">
        <ele>290</ele>
        <time>2019-04-22T08:10:42Z</time>
      </trkpt>
      <trkpt lat="48.24248" lon="-2.91123">
        <ele>289</ele>
        <time>2019-04-22T08:10:47Z</time>
      </trkpt>
      <trkpt lat="48.24247" lon="-2.91131">
        <ele>286</ele>
        <time>2019-04-22T08:10:52Z</time>
      </trkpt>
      <trkpt lat="48.24247" lon="-2.91138">
        <ele>286</ele>
        <time>2019-04-22T08:10:55Z</time>
      </trkpt>
      <trkpt lat="48.24242" lon="-2.91211">
        <ele>286</ele>
        <time>2019-04-22T08:11:27Z</time>
      </trkpt>
      <trkpt lat="48.24242" lon="-2.91238">
        <ele>284</ele>
        <time>2019-04-22T08:11:40Z</time>
      </trkpt>
      <trkpt lat="48.24244" lon="-2.91254">
        <ele>282</ele>
        <time>2019-04-22T08:11:46Z</time>
      </trkpt>
      <trkpt lat="48.24244" lon="-2.91263">
        <ele>282</ele>
        <time>2019-04-22T08:11:51Z</time>
      </trkpt>
      <trkpt lat="48.24239" lon="-2.91268">
        <ele>282</ele>
        <time>2019-04-22T08:11:53Z</time>
      </trkpt>
      <trkpt lat="48.24236" lon="-2.91274">
        <ele>282</ele>
        <time>2019-04-22T08:11:58Z</time>
      </trkpt>
      <trkpt lat="48.24241" lon="-2.91277">
        <ele>282</ele>
        <time>2019-04-22T08:12:09Z</time>
      </trkpt>
      <trkpt lat="48.24248" lon="-2.91264">
        <ele>281</ele>
        <time>2019-04-22T08:12:26Z</time>
      </trkpt>
      <trkpt lat="48.24256" lon="-2.91256">
        <ele>279</ele>
        <time>2019-04-22T08:12:31Z</time>
      </trkpt>
      <trkpt lat="48.24261" lon="-2.91254">
        <ele>278</ele>
        <time>2019-04-22T08:12:34Z</time>
      </trkpt>
      <trkpt lat="48.24296" lon="-2.91235">
        <ele>276</ele>
        <time>2019-04-22T08:12:57Z</time>
      </trkpt>
      <trkpt lat="48.24301" lon="-2.91232">
        <ele>275</ele>
        <time>2019-04-22T08:13:00Z</time>
      </trkpt>
      <trkpt lat="48.24317" lon="-2.91225">
        <ele>272</ele>
        <time>2019-04-22T08:13:10Z</time>
      </trkpt>
      <trkpt lat="48.24344" lon="-2.91214">
        <ele>270</ele>
        <time>2019-04-22T08:13:20Z</time>
      </trkpt>
      <trkpt lat="48.24393" lon="-2.91196">
        <ele>269</ele>
        <time>2019-04-22T08:13:35Z</time>
      </trkpt>
      <trkpt lat="48.24441" lon="-2.91179">
        <ele>273</ele>
        <time>2019-04-22T08:13:48Z</time>
      </trkpt>
      <trkpt lat="48.24447" lon="-2.91176">
        <ele>273</ele>
        <time>2019-04-22T08:13:50Z</time>
      </trkpt>
      <trkpt lat="48.24453" lon="-2.91173">
        <ele>273</ele>
        <time>2019-04-22T08:13:52Z</time>
      </trkpt>
      <trkpt lat="48.24468" lon="-2.91169">
        <ele>275</ele>
        <time>2019-04-22T08:14:00Z</time>
      </trkpt>
      <trkpt lat="48.24479" lon="-2.91163">
        <ele>275</ele>
        <time>2019-04-22T08:14:06Z</time>
      </trkpt>
      <trkpt lat="48.24484" lon="-2.91163">
        <ele>275</ele>
        <time>2019-04-22T08:14:09Z</time>
      </trkpt>
      <trkpt lat="48.24488" lon="-2.91166">
        <ele>276</ele>
        <time>2019-04-22T08:14:14Z</time>
      </trkpt>
      <trkpt lat="48.24491" lon="-2.91173">
        <ele>276</ele>
        <time>2019-04-22T08:14:19Z</time>
      </trkpt>
      <trkpt lat="48.2449" lon="-2.91181">
        <ele>275</ele>
        <time>2019-04-22T08:14:23Z</time>
      </trkpt>
      <trkpt lat="48.24487" lon="-2.91187">
        <ele>275</ele>
        <time>2019-04-22T08:14:27Z</time>
      </trkpt>
      <trkpt lat="48.24482" lon="-2.91191">
        <ele>274</ele>
        <time>2019-04-22T08:14:31Z</time>
      </trkpt>
      <trkpt lat="48.24477" lon="-2.91193">
        <ele>274</ele>
        <time>2019-04-22T08:14:37Z</time>
      </trkpt>
      <trkpt lat="48.24468" lon="-2.91201">
        <ele>275</ele>
        <time>2019-04-22T08:14:44Z</time>
      </trkpt>
      <trkpt lat="48.24459" lon="-2.91206">
        <ele>274</ele>
        <time>2019-04-22T08:14:50Z</time>
      </trkpt>
      <trkpt lat="48.24454" lon="-2.91206">
        <ele>274</ele>
        <time>2019-04-22T08:14:54Z</time>
      </trkpt>
      <trkpt lat="48.2445" lon="-2.9121">
        <ele>273</ele>
        <time>2019-04-22T08:14:58Z</time>
      </trkpt>
      <trkpt lat="48.24445" lon="-2.91214">
        <ele>273</ele>
        <time>2019-04-22T08:15:02Z</time>
      </trkpt>
      <trkpt lat="48.24441" lon="-2.91213">
        <ele>273</ele>
        <time>2019-04-22T08:15:05Z</time>
      </trkpt>
      <trkpt lat="48.24436" lon="-2.91211">
        <ele>273</ele>
        <time>2019-04-22T08:15:09Z</time>
      </trkpt>
      <trkpt lat="48.24427" lon="-2.91219">
        <ele>274</ele>
        <time>2019-04-22T08:15:15Z</time>
      </trkpt>
      <trkpt lat="48.24423" lon="-2.91222">
        <ele>275</ele>
        <time>2019-04-22T08:15:18Z</time>
      </trkpt>
      <trkpt lat="48.24418" lon="-2.91222">
        <ele>275</ele>
        <time>2019-04-22T08:15:21Z</time>
      </trkpt>
      <trkpt lat="48.24414" lon="-2.91219">
        <ele>276</ele>
        <time>2019-04-22T08:15:25Z</time>
      </trkpt>
      <trkpt lat="48.24407" lon="-2.91223">
        <ele>276</ele>
        <time>2019-04-22T08:15:29Z</time>
      </trkpt>
      <trkpt lat="48.24403" lon="-2.91228">
        <ele>276</ele>
        <time>2019-04-22T08:15:31Z</time>
      </trkpt>
      <trkpt lat="48.244" lon="-2.91234">
        <ele>276</ele>
        <time>2019-04-22T08:15:34Z</time>
      </trkpt>
      <trkpt lat="48.24397" lon="-2.9124">
        <ele>276</ele>
        <time>2019-04-22T08:15:37Z</time>
      </trkpt>
      <trkpt lat="48.24393" lon="-2.91245">
        <ele>276</ele>
        <time>2019-04-22T08:15:40Z</time>
      </trkpt>
      <trkpt lat="48.24384" lon="-2.91251">
        <ele>275</ele>
        <time>2019-04-22T08:15:46Z</time>
      </trkpt>
      <trkpt lat="48.24374" lon="-2.91258">
        <ele>274</ele>
        <time>2019-04-22T08:15:52Z</time>
      </trkpt>
      <trkpt lat="48.24369" lon="-2.91263">
        <ele>273</ele>
        <time>2019-04-22T08:15:55Z</time>
      </trkpt>
      <trkpt lat="48.24365" lon="-2.91269">
        <ele>271</ele>
        <time>2019-04-22T08:15:59Z</time>
      </trkpt>
      <trkpt lat="48.24361" lon="-2.91272">
        <ele>271</ele>
        <time>2019-04-22T08:16:03Z</time>
      </trkpt>
      <trkpt lat="48.24344" lon="-2.91282">
        <ele>267</ele>
        <time>2019-04-22T08:16:13Z</time>
      </trkpt>
      <trkpt lat="48.24336" lon="-2.91291">
        <ele>267</ele>
        <time>2019-04-22T08:16:17Z</time>
      </trkpt>
      <trkpt lat="48.24331" lon="-2.91294">
        <ele>267</ele>
        <time>2019-04-22T08:16:20Z</time>
      </trkpt>
      <trkpt lat="48.24326" lon="-2.91297">
        <ele>267</ele>
        <time>2019-04-22T08:16:23Z</time>
      </trkpt>
      <trkpt lat="48.24323" lon="-2.91302">
        <ele>267</ele>
        <time>2019-04-22T08:16:25Z</time>
      </trkpt>
      <trkpt lat="48.2432" lon="-2.91308">
        <ele>267</ele>
        <time>2019-04-22T08:16:27Z</time>
      </trkpt>
      <trkpt lat="48.2429" lon="-2.91328">
        <ele>266</ele>
        <time>2019-04-22T08:16:40Z</time>
      </trkpt>
      <trkpt lat="48.24285" lon="-2.91332">
        <ele>265</ele>
        <time>2019-04-22T08:16:42Z</time>
      </trkpt>
      <trkpt lat="48.24282" lon="-2.91337">
        <ele>265</ele>
        <time>2019-04-22T08:16:44Z</time>
      </trkpt>
      <trkpt lat="48.24278" lon="-2.9134">
        <ele>265</ele>
        <time>2019-04-22T08:16:46Z</time>
      </trkpt>
      <trkpt lat="48.24272" lon="-2.91345">
        <ele>266</ele>
        <time>2019-04-22T08:16:49Z</time>
      </trkpt>
      <trkpt lat="48.24262" lon="-2.91349">
        <ele>267</ele>
        <time>2019-04-22T08:16:55Z</time>
      </trkpt>
      <trkpt lat="48.24257" lon="-2.91351">
        <ele>267</ele>
        <time>2019-04-22T08:16:58Z</time>
      </trkpt>
      <trkpt lat="48.24254" lon="-2.91356">
        <ele>268</ele>
        <time>2019-04-22T08:17:02Z</time>
      </trkpt>
      <trkpt lat="48.24246" lon="-2.91367">
        <ele>268</ele>
        <time>2019-04-22T08:17:10Z</time>
      </trkpt>
      <trkpt lat="48.24241" lon="-2.91368">
        <ele>267</ele>
        <time>2019-04-22T08:17:14Z</time>
      </trkpt>
      <trkpt lat="48.24213" lon="-2.91382">
        <ele>263</ele>
        <time>2019-04-22T08:17:31Z</time>
      </trkpt>
      <trkpt lat="48.2418" lon="-2.91403">
        <ele>262</ele>
        <time>2019-04-22T08:17:43Z</time>
      </trkpt>
      <trkpt lat="48.2413" lon="-2.91425">
        <ele>261</ele>
        <time>2019-04-22T08:17:57Z</time>
      </trkpt>
      <trkpt lat="48.24124" lon="-2.9143">
        <ele>261</ele>
        <time>2019-04-22T08:17:59Z</time>
      </trkpt>
      <trkpt lat="48.241" lon="-2.91443">
        <ele>262</ele>
        <time>2019-04-22T08:18:07Z</time>
      </trkpt>
      <trkpt lat="48.24089" lon="-2.91455">
        <ele>263</ele>
        <time>2019-04-22T08:18:11Z</time>
      </trkpt>
      <trkpt lat="48.24076" lon="-2.91466">
        <ele>264</ele>
        <time>2019-04-22T08:18:15Z</time>
      </trkpt>
      <trkpt lat="48.2407" lon="-2.9147">
        <ele>265</ele>
        <time>2019-04-22T08:18:17Z</time>
      </trkpt>
      <trkpt lat="48.24047" lon="-2.91455">
        <ele>267</ele>
        <time>2019-04-22T08:18:25Z</time>
      </trkpt>
      <trkpt lat="48.24041" lon="-2.91455">
        <ele>267</ele>
        <time>2019-04-22T08:18:28Z</time>
      </trkpt>
      <trkpt lat="48.24022" lon="-2.91464">
        <ele>269</ele>
        <time>2019-04-22T08:18:48Z</time>
      </trkpt>
      <trkpt lat="48.24017" lon="-2.91467">
        <ele>270</ele>
        <time>2019-04-22T08:18:50Z</time>
      </trkpt>
      <trkpt lat="48.24012" lon="-2.91469">
        <ele>270</ele>
        <time>2019-04-22T08:18:52Z</time>
      </trkpt>
      <trkpt lat="48.24001" lon="-2.91474">
        <ele>270</ele>
        <time>2019-04-22T08:18:58Z</time>
      </trkpt>
      <trkpt lat="48.23997" lon="-2.91478">
        <ele>270</ele>
        <time>2019-04-22T08:19:01Z</time>
      </trkpt>
      <trkpt lat="48.23992" lon="-2.9148">
        <ele>270</ele>
        <time>2019-04-22T08:19:04Z</time>
      </trkpt>
      <trkpt lat="48.23982" lon="-2.91485">
        <ele>271</ele>
        <time>2019-04-22T08:19:11Z</time>
      </trkpt>
      <trkpt lat="48.23977" lon="-2.91486">
        <ele>272</ele>
        <time>2019-04-22T08:19:16Z</time>
      </trkpt>
      <trkpt lat="48.23972" lon="-2.91488">
        <ele>273</ele>
        <time>2019-04-22T08:19:19Z</time>
      </trkpt>
      <trkpt lat="48.23938" lon="-2.91508">
        <ele>270</ele>
        <time>2019-04-22T08:19:37Z</time>
      </trkpt>
      <trkpt lat="48.23924" lon="-2.91513">
        <ele>268</ele>
        <time>2019-04-22T08:19:41Z</time>
      </trkpt>
      <trkpt lat="48.23913" lon="-2.91515">
        <ele>267</ele>
        <time>2019-04-22T08:19:43Z</time>
      </trkpt>
      <trkpt lat="48.23907" lon="-2.91516">
        <ele>266</ele>
        <time>2019-04-22T08:19:45Z</time>
      </trkpt>
      <trkpt lat="48.23901" lon="-2.91517">
        <ele>266</ele>
        <time>2019-04-22T08:19:47Z</time>
      </trkpt>
      <trkpt lat="48.23896" lon="-2.91521">
        <ele>266</ele>
        <time>2019-04-22T08:19:50Z</time>
      </trkpt>
      <trkpt lat="48.23892" lon="-2.91523">
        <ele>266</ele>
        <time>2019-04-22T08:19:53Z</time>
      </trkpt>
      <trkpt lat="48.23868" lon="-2.91529">
        <ele>264</ele>
        <time>2019-04-22T08:20:02Z</time>
      </trkpt>
      <trkpt lat="48.23863" lon="-2.9153">
        <ele>263</ele>
        <time>2019-04-22T08:20:05Z</time>
      </trkpt>
      <trkpt lat="48.23859" lon="-2.9153">
        <ele>263</ele>
        <time>2019-04-22T08:20:09Z</time>
      </trkpt>
      <trkpt lat="48.23854" lon="-2.91532">
        <ele>264</ele>
        <time>2019-04-22T08:20:13Z</time>
      </trkpt>
      <trkpt lat="48.23841" lon="-2.91546">
        <ele>265</ele>
        <time>2019-04-22T08:20:24Z</time>
      </trkpt>
      <trkpt lat="48.23836" lon="-2.91548">
        <ele>264</ele>
        <time>2019-04-22T08:20:27Z</time>
      </trkpt>
      <trkpt lat="48.23833" lon="-2.91553">
        <ele>264</ele>
        <time>2019-04-22T08:20:30Z</time>
      </trkpt>
      <trkpt lat="48.23833" lon="-2.91561">
        <ele>263</ele>
        <time>2019-04-22T08:20:34Z</time>
      </trkpt>
      <trkpt lat="48.23826" lon="-2.91575">
        <ele>262</ele>
        <time>2019-04-22T08:20:40Z</time>
      </trkpt>
      <trkpt lat="48.23822" lon="-2.91579">
        <ele>263</ele>
        <time>2019-04-22T08:20:44Z</time>
      </trkpt>
      <trkpt lat="48.23817" lon="-2.91579">
        <ele>262</ele>
        <time>2019-04-22T08:20:48Z</time>
      </trkpt>
      <trkpt lat="48.23812" lon="-2.91583">
        <ele>262</ele>
        <time>2019-04-22T08:20:54Z</time>
      </trkpt>
      <trkpt lat="48.23815" lon="-2.91589">
        <ele>261</ele>
        <time>2019-04-22T08:20:59Z</time>
      </trkpt>
      <trkpt lat="48.23819" lon="-2.91596">
        <ele>258</ele>
        <time>2019-04-22T08:21:03Z</time>
      </trkpt>
      <trkpt lat="48.23834" lon="-2.91621">
        <ele>255</ele>
        <time>2019-04-22T08:21:15Z</time>
      </trkpt>
      <trkpt lat="48.23839" lon="-2.91624">
        <ele>255</ele>
        <time>2019-04-22T08:21:18Z</time>
      </trkpt>
      <trkpt lat="48.23853" lon="-2.91637">
        <ele>255</ele>
        <time>2019-04-22T08:21:28Z</time>
      </trkpt>
      <trkpt lat="48.23862" lon="-2.91645">
        <ele>253</ele>
        <time>2019-04-22T08:21:35Z</time>
      </trkpt>
      <trkpt lat="48.23867" lon="-2.91647">
        <ele>252</ele>
        <time>2019-04-22T08:21:38Z</time>
      </trkpt>
      <trkpt lat="48.2388" lon="-2.9166">
        <ele>250</ele>
        <time>2019-04-22T08:21:49Z</time>
      </trkpt>
      <trkpt lat="48.23898" lon="-2.91672">
        <ele>249</ele>
        <time>2019-04-22T08:22:03Z</time>
      </trkpt>
      <trkpt lat="48.23902" lon="-2.91678">
        <ele>248</ele>
        <time>2019-04-22T08:22:07Z</time>
      </trkpt>
      <trkpt lat="48.23915" lon="-2.91688">
        <ele>247</ele>
        <time>2019-04-22T08:22:16Z</time>
      </trkpt>
      <trkpt lat="48.2392" lon="-2.91691">
        <ele>246</ele>
        <time>2019-04-22T08:22:20Z</time>
      </trkpt>
      <trkpt lat="48.23955" lon="-2.91705">
        <ele>243</ele>
        <time>2019-04-22T08:22:43Z</time>
      </trkpt>
      <trkpt lat="48.2396" lon="-2.91706">
        <ele>242</ele>
        <time>2019-04-22T08:22:47Z</time>
      </trkpt>
      <trkpt lat="48.23965" lon="-2.91706">
        <ele>241</ele>
        <time>2019-04-22T08:22:53Z</time>
      </trkpt>
      <trkpt lat="48.2398" lon="-2.91706">
        <ele>239</ele>
        <time>2019-04-22T08:23:04Z</time>
      </trkpt>
      <trkpt lat="48.23984" lon="-2.91706">
        <ele>238</ele>
        <time>2019-04-22T08:23:07Z</time>
      </trkpt>
      <trkpt lat="48.23988" lon="-2.91711">
        <ele>237</ele>
        <time>2019-04-22T08:23:13Z</time>
      </trkpt>
      <trkpt lat="48.23988" lon="-2.91719">
        <ele>240</ele>
        <time>2019-04-22T08:23:20Z</time>
      </trkpt>
      <trkpt lat="48.23993" lon="-2.91723">
        <ele>240</ele>
        <time>2019-04-22T08:23:24Z</time>
      </trkpt>
      <trkpt lat="48.23994" lon="-2.9173">
        <ele>238</ele>
        <time>2019-04-22T08:23:29Z</time>
      </trkpt>
      <trkpt lat="48.23994" lon="-2.91739">
        <ele>237</ele>
        <time>2019-04-22T08:23:35Z</time>
      </trkpt>
      <trkpt lat="48.2399" lon="-2.91743">
        <ele>237</ele>
        <time>2019-04-22T08:23:39Z</time>
      </trkpt>
      <trkpt lat="48.23974" lon="-2.91755">
        <ele>238</ele>
        <time>2019-04-22T08:23:47Z</time>
      </trkpt>
      <trkpt lat="48.2395" lon="-2.91787">
        <ele>240</ele>
        <time>2019-04-22T08:23:57Z</time>
      </trkpt>
      <trkpt lat="48.23904" lon="-2.9183">
        <ele>240</ele>
        <time>2019-04-22T08:24:15Z</time>
      </trkpt>
      <trkpt lat="48.23891" lon="-2.91843">
        <ele>239</ele>
        <time>2019-04-22T08:24:18Z</time>
      </trkpt>
      <trkpt lat="48.23888" lon="-2.91848">
        <ele>239</ele>
        <time>2019-04-22T08:24:20Z</time>
      </trkpt>
      <trkpt lat="48.23884" lon="-2.91855">
        <ele>239</ele>
        <time>2019-04-22T08:24:23Z</time>
      </trkpt>
      <trkpt lat="48.23884" lon="-2.91889">
        <ele>240</ele>
        <time>2019-04-22T08:24:34Z</time>
      </trkpt>
      <trkpt lat="48.23884" lon="-2.91896">
        <ele>240</ele>
        <time>2019-04-22T08:24:37Z</time>
      </trkpt>
      <trkpt lat="48.23884" lon="-2.91904">
        <ele>238</ele>
        <time>2019-04-22T08:24:41Z</time>
      </trkpt>
      <trkpt lat="48.23885" lon="-2.91912">
        <ele>237</ele>
        <time>2019-04-22T08:24:44Z</time>
      </trkpt>
      <trkpt lat="48.23886" lon="-2.9192">
        <ele>236</ele>
        <time>2019-04-22T08:24:48Z</time>
      </trkpt>
      <trkpt lat="48.23885" lon="-2.91927">
        <ele>234</ele>
        <time>2019-04-22T08:24:54Z</time>
      </trkpt>
      <trkpt lat="48.23885" lon="-2.91936">
        <ele>233</ele>
        <time>2019-04-22T08:24:59Z</time>
      </trkpt>
      <trkpt lat="48.23884" lon="-2.91945">
        <ele>231</ele>
        <time>2019-04-22T08:25:03Z</time>
      </trkpt>
      <trkpt lat="48.23882" lon="-2.91952">
        <ele>231</ele>
        <time>2019-04-22T08:25:06Z</time>
      </trkpt>
      <trkpt lat="48.23877" lon="-2.91974">
        <ele>226</ele>
        <time>2019-04-22T08:25:17Z</time>
      </trkpt>
      <trkpt lat="48.23875" lon="-2.92006">
        <ele>224</ele>
        <time>2019-04-22T08:25:28Z</time>
      </trkpt>
      <trkpt lat="48.23875" lon="-2.92015">
        <ele>223</ele>
        <time>2019-04-22T08:25:32Z</time>
      </trkpt>
      <trkpt lat="48.2388" lon="-2.92017">
        <ele>224</ele>
        <time>2019-04-22T08:25:37Z</time>
      </trkpt>
      <trkpt lat="48.23989" lon="-2.91886">
        <ele>217</ele>
        <time>2019-04-22T08:26:07Z</time>
      </trkpt>
      <trkpt lat="48.24056" lon="-2.91821">
        <ele>222</ele>
        <time>2019-04-22T08:26:21Z</time>
      </trkpt>
      <trkpt lat="48.24074" lon="-2.9181">
        <ele>223</ele>
        <time>2019-04-22T08:26:24Z</time>
      </trkpt>
      <trkpt lat="48.24132" lon="-2.91747">
        <ele>227</ele>
        <time>2019-04-22T08:26:55Z</time>
      </trkpt>
      <trkpt lat="48.24147" lon="-2.91739">
        <ele>227</ele>
        <time>2019-04-22T08:27:07Z</time>
      </trkpt>
      <trkpt lat="48.24157" lon="-2.91728">
        <ele>227</ele>
        <time>2019-04-22T08:27:11Z</time>
      </trkpt>
      <trkpt lat="48.24207" lon="-2.91693">
        <ele>229</ele>
        <time>2019-04-22T08:27:21Z</time>
      </trkpt>
      <trkpt lat="48.24218" lon="-2.91682">
        <ele>229</ele>
        <time>2019-04-22T08:27:23Z</time>
      </trkpt>
      <trkpt lat="48.24249" lon="-2.9166">
        <ele>230</ele>
        <time>2019-04-22T08:27:28Z</time>
      </trkpt>
      <trkpt lat="48.24386" lon="-2.91539">
        <ele>240</ele>
        <time>2019-04-22T08:27:58Z</time>
      </trkpt>
      <trkpt lat="48.24451" lon="-2.91478">
        <ele>248</ele>
        <time>2019-04-22T08:28:15Z</time>
      </trkpt>
      <trkpt lat="48.24548" lon="-2.91371">
        <ele>260</ele>
        <time>2019-04-22T08:28:43Z</time>
      </trkpt>
      <trkpt lat="48.24588" lon="-2.91333">
        <ele>260</ele>
        <time>2019-04-22T08:28:55Z</time>
      </trkpt>
      <trkpt lat="48.24661" lon="-2.91258">
        <ele>264</ele>
        <time>2019-04-22T08:29:17Z</time>
      </trkpt>
      <trkpt lat="48.24678" lon="-2.91249">
        <ele>263</ele>
        <time>2019-04-22T08:29:21Z</time>
      </trkpt>
      <trkpt lat="48.24691" lon="-2.91246">
        <ele>262</ele>
        <time>2019-04-22T08:29:24Z</time>
      </trkpt>
      <trkpt lat="48.24724" lon="-2.91235">
        <ele>266</ele>
        <time>2019-04-22T08:29:34Z</time>
      </trkpt>
      <trkpt lat="48.24767" lon="-2.91202">
        <ele>271</ele>
        <time>2019-04-22T08:29:52Z</time>
      </trkpt>
      <trkpt lat="48.24769" lon="-2.91193">
        <ele>271</ele>
        <time>2019-04-22T08:29:55Z</time>
      </trkpt>
      <trkpt lat="48.24769" lon="-2.91184">
        <ele>272</ele>
        <time>2019-04-22T08:29:58Z</time>
      </trkpt>
      <trkpt lat="48.24766" lon="-2.91177">
        <ele>272</ele>
        <time>2019-04-22T08:30:01Z</time>
      </trkpt>
      <trkpt lat="48.2476" lon="-2.91163">
        <ele>272</ele>
        <time>2019-04-22T08:30:08Z</time>
      </trkpt>
      <trkpt lat="48.24751" lon="-2.91154">
        <ele>272</ele>
        <time>2019-04-22T08:30:15Z</time>
      </trkpt>
      <trkpt lat="48.24742" lon="-2.91144">
        <ele>274</ele>
        <time>2019-04-22T08:30:22Z</time>
      </trkpt>
      <trkpt lat="48.24738" lon="-2.91141">
        <ele>274</ele>
        <time>2019-04-22T08:30:25Z</time>
      </trkpt>
      <trkpt lat="48.2473" lon="-2.91134">
        <ele>273</ele>
        <time>2019-04-22T08:30:31Z</time>
      </trkpt>
      <trkpt lat="48.24725" lon="-2.91129">
        <ele>273</ele>
        <time>2019-04-22T08:30:34Z</time>
      </trkpt>
      <trkpt lat="48.24715" lon="-2.91123">
        <ele>272</ele>
        <time>2019-04-22T08:30:41Z</time>
      </trkpt>
      <trkpt lat="48.24705" lon="-2.91123">
        <ele>272</ele>
        <time>2019-04-22T08:30:47Z</time>
      </trkpt>
      <trkpt lat="48.24684" lon="-2.91125">
        <ele>273</ele>
        <time>2019-04-22T08:31:00Z</time>
      </trkpt>
      <trkpt lat="48.24642" lon="-2.91129">
        <ele>271</ele>
        <time>2019-04-22T08:31:13Z</time>
      </trkpt>
      <trkpt lat="48.24607" lon="-2.91134">
        <ele>272</ele>
        <time>2019-04-22T08:31:22Z</time>
      </trkpt>
      <trkpt lat="48.24582" lon="-2.91136">
        <ele>273</ele>
        <time>2019-04-22T08:31:31Z</time>
      </trkpt>
      <trkpt lat="48.2457" lon="-2.91133">
        <ele>273</ele>
        <time>2019-04-22T08:31:34Z</time>
      </trkpt>
      <trkpt lat="48.24566" lon="-2.91131">
        <ele>274</ele>
        <time>2019-04-22T08:31:35Z</time>
      </trkpt>
      <trkpt lat="48.24543" lon="-2.91105">
        <ele>275</ele>
        <time>2019-04-22T08:31:42Z</time>
      </trkpt>
      <trkpt lat="48.2446" lon="-2.91021">
        <ele>280</ele>
        <time>2019-04-22T08:32:12Z</time>
      </trkpt>
      <trkpt lat="48.24456" lon="-2.91016">
        <ele>281</ele>
        <time>2019-04-22T08:32:15Z</time>
      </trkpt>
      <trkpt lat="48.24437" lon="-2.90993">
        <ele>286</ele>
        <time>2019-04-22T08:32:31Z</time>
      </trkpt>
      <trkpt lat="48.24415" lon="-2.90973">
        <ele>288</ele>
        <time>2019-04-22T08:32:48Z</time>
      </trkpt>
      <trkpt lat="48.24356" lon="-2.90912">
        <ele>290</ele>
        <time>2019-04-22T08:33:19Z</time>
      </trkpt>
      <trkpt lat="48.2434" lon="-2.90895">
        <ele>290</ele>
        <time>2019-04-22T08:33:25Z</time>
      </trkpt>
      <trkpt lat="48.24333" lon="-2.90886">
        <ele>289</ele>
        <time>2019-04-22T08:33:33Z</time>
      </trkpt>
      <trkpt lat="48.24324" lon="-2.90876">
        <ele>289</ele>
        <time>2019-04-22T08:33:40Z</time>
      </trkpt>
      <trkpt lat="48.2432" lon="-2.90869">
        <ele>289</ele>
        <time>2019-04-22T08:33:43Z</time>
      </trkpt>
      <trkpt lat="48.24317" lon="-2.90864">
        <ele>289</ele>
        <time>2019-04-22T08:33:47Z</time>
      </trkpt>
      <trkpt lat="48.24304" lon="-2.9084">
        <ele>292</ele>
        <time>2019-04-22T08:33:59Z</time>
      </trkpt>
      <trkpt lat="48.24302" lon="-2.90833">
        <ele>294</ele>
        <time>2019-04-22T08:34:04Z</time>
      </trkpt>
      <trkpt lat="48.24293" lon="-2.90825">
        <ele>296</ele>
        <time>2019-04-22T08:34:12Z</time>
      </trkpt>
      <trkpt lat="48.24287" lon="-2.90823">
        <ele>298</ele>
        <time>2019-04-22T08:34:17Z</time>
      </trkpt>
      <trkpt lat="48.24282" lon="-2.90822">
        <ele>299</ele>
        <time>2019-04-22T08:34:20Z</time>
      </trkpt>
      <trkpt lat="48.24277" lon="-2.90823">
        <ele>299</ele>
        <time>2019-04-22T08:35:13Z</time>
      </trkpt>
      <trkpt lat="48.24274" lon="-2.90827">
        <ele>299</ele>
        <time>2019-04-22T08:35:18Z</time>
      </trkpt>
      <trkpt lat="48.24273" lon="-2.90834">
        <ele>300</ele>
        <time>2019-04-22T08:35:42Z</time>
      </trkpt>
      <trkpt lat="48.24268" lon="-2.90835">
        <ele>300</ele>
        <time>2019-04-22T08:35:59Z</time>
      </trkpt>
      <trkpt lat="48.24264" lon="-2.9084">
        <ele>299</ele>
        <time>2019-04-22T08:36:10Z</time>
      </trkpt>
      <trkpt lat="48.24259" lon="-2.90842">
        <ele>299</ele>
        <time>2019-04-22T08:36:29Z</time>
      </trkpt>
      <trkpt lat="48.24253" lon="-2.90839">
        <ele>300</ele>
        <time>2019-04-22T08:36:34Z</time>
      </trkpt>
      <trkpt lat="48.24248" lon="-2.90841">
        <ele>300</ele>
        <time>2019-04-22T08:36:37Z</time>
      </trkpt>
      <trkpt lat="48.24232" lon="-2.90847">
        <ele>301</ele>
        <time>2019-04-22T08:36:52Z</time>
      </trkpt>
      <trkpt lat="48.24235" lon="-2.90839">
        <ele>301</ele>
        <time>2019-04-22T08:37:25Z</time>
      </trkpt>
      <trkpt lat="48.24241" lon="-2.90836">
        <ele>301</ele>
        <time>2019-04-22T08:37:29Z</time>
      </trkpt>
      <trkpt lat="48.24245" lon="-2.90836">
        <ele>298</ele>
        <time>2019-04-22T08:37:36Z</time>
      </trkpt>
      <trkpt lat="48.24246" lon="-2.90828">
        <ele>297</ele>
        <time>2019-04-22T08:37:41Z</time>
      </trkpt>
      <trkpt lat="48.2425" lon="-2.90831">
        <ele>296</ele>
        <time>2019-04-22T08:38:46Z</time>
      </trkpt>
      <trkpt lat="48.24256" lon="-2.90835">
        <ele>297</ele>
        <time>2019-04-22T08:38:49Z</time>
      </trkpt>
      <trkpt lat="48.24261" lon="-2.90837">
        <ele>298</ele>
        <time>2019-04-22T08:38:52Z</time>
      </trkpt>
      <trkpt lat="48.24252" lon="-2.90836">
        <ele>298</ele>
        <time>2019-04-22T08:43:58Z</time>
      </trkpt>
      <trkpt lat="48.24252" lon="-2.90836">
        <ele>298</ele>
        <time>2019-04-22T08:43:59Z</time>
      </trkpt>
      <trkpt lat="48.24247" lon="-2.90838">
        <ele>299</ele>
        <time>2019-04-22T08:44:46Z</time>
      </trkpt>
      <trkpt lat="48.24237" lon="-2.90841">
        <ele>299</ele>
        <time>2019-04-22T08:44:53Z</time>
      </trkpt>
      <trkpt lat="48.24238" lon="-2.90835">
        <ele>295</ele>
        <time>2019-04-22T08:47:17Z</time>
      </trkpt>
      <trkpt lat="48.24241" lon="-2.90829">
        <ele>294</ele>
        <time>2019-04-22T08:47:24Z</time>
      </trkpt>
      <trkpt lat="48.24241" lon="-2.90822">
        <ele>294</ele>
        <time>2019-04-22T08:47:35Z</time>
      </trkpt>
      <trkpt lat="48.24245" lon="-2.90818">
        <ele>295</ele>
        <time>2019-04-22T08:48:31Z</time>
      </trkpt>
      <trkpt lat="48.2425" lon="-2.90813">
        <ele>294</ele>
        <time>2019-04-22T08:48:36Z</time>
      </trkpt>
      <trkpt lat="48.24254" lon="-2.90808">
        <ele>294</ele>
        <time>2019-04-22T08:48:40Z</time>
      </trkpt>
      <trkpt lat="48.24257" lon="-2.90802">
        <ele>294</ele>
        <time>2019-04-22T08:48:44Z</time>
      </trkpt>
      <trkpt lat="48.2426" lon="-2.90784">
        <ele>291</ele>
        <time>2019-04-22T08:48:51Z</time>
      </trkpt>
      <trkpt lat="48.24261" lon="-2.90776">
        <ele>291</ele>
        <time>2019-04-22T08:48:54Z</time>
      </trkpt>
      <trkpt lat="48.24256" lon="-2.90762">
        <ele>291</ele>
        <time>2019-04-22T08:49:00Z</time>
      </trkpt>
      <trkpt lat="48.24253" lon="-2.90755">
        <ele>291</ele>
        <time>2019-04-22T08:49:03Z</time>
      </trkpt>
      <trkpt lat="48.24251" lon="-2.90747">
        <ele>291</ele>
        <time>2019-04-22T08:49:06Z</time>
      </trkpt>
      <trkpt lat="48.2425" lon="-2.90741">
        <ele>291</ele>
        <time>2019-04-22T08:49:09Z</time>
      </trkpt>
      <trkpt lat="48.24252" lon="-2.90734">
        <ele>291</ele>
        <time>2019-04-22T08:49:13Z</time>
      </trkpt>
      <trkpt lat="48.24256" lon="-2.9072">
        <ele>292</ele>
        <time>2019-04-22T08:49:21Z</time>
      </trkpt>
      <trkpt lat="48.24266" lon="-2.90675">
        <ele>290</ele>
        <time>2019-04-22T08:49:37Z</time>
      </trkpt>
      <trkpt lat="48.24268" lon="-2.90668">
        <ele>289</ele>
        <time>2019-04-22T08:49:39Z</time>
      </trkpt>
      <trkpt lat="48.2427" lon="-2.9066">
        <ele>289</ele>
        <time>2019-04-22T08:49:41Z</time>
      </trkpt>
      <trkpt lat="48.24271" lon="-2.90651">
        <ele>289</ele>
        <time>2019-04-22T08:49:43Z</time>
      </trkpt>
      <trkpt lat="48.24272" lon="-2.90644">
        <ele>288</ele>
        <time>2019-04-22T08:49:46Z</time>
      </trkpt>
      <trkpt lat="48.24275" lon="-2.90638">
        <ele>288</ele>
        <time>2019-04-22T08:49:49Z</time>
      </trkpt>
      <trkpt lat="48.24279" lon="-2.90636">
        <ele>288</ele>
        <time>2019-04-22T08:49:54Z</time>
      </trkpt>
      <trkpt lat="48.24285" lon="-2.90636">
        <ele>287</ele>
        <time>2019-04-22T08:49:58Z</time>
      </trkpt>
      <trkpt lat="48.2429" lon="-2.90635">
        <ele>286</ele>
        <time>2019-04-22T08:50:02Z</time>
      </trkpt>
      <trkpt lat="48.24298" lon="-2.90608">
        <ele>283</ele>
        <time>2019-04-22T08:50:16Z</time>
      </trkpt>
      <trkpt lat="48.24301" lon="-2.90602">
        <ele>284</ele>
        <time>2019-04-22T08:50:20Z</time>
      </trkpt>
      <trkpt lat="48.24302" lon="-2.90585">
        <ele>287</ele>
        <time>2019-04-22T08:50:28Z</time>
      </trkpt>
      <trkpt lat="48.24304" lon="-2.90563">
        <ele>287</ele>
        <time>2019-04-22T08:50:38Z</time>
      </trkpt>
      <trkpt lat="48.24306" lon="-2.90556">
        <ele>287</ele>
        <time>2019-04-22T08:50:41Z</time>
      </trkpt>
      <trkpt lat="48.24306" lon="-2.90549">
        <ele>287</ele>
        <time>2019-04-22T08:50:45Z</time>
      </trkpt>
      <trkpt lat="48.24308" lon="-2.90541">
        <ele>287</ele>
        <time>2019-04-22T08:50:51Z</time>
      </trkpt>
      <trkpt lat="48.24312" lon="-2.90527">
        <ele>286</ele>
        <time>2019-04-22T08:51:00Z</time>
      </trkpt>
      <trkpt lat="48.24317" lon="-2.90505">
        <ele>282</ele>
        <time>2019-04-22T08:51:11Z</time>
      </trkpt>
      <trkpt lat="48.24334" lon="-2.90482">
        <ele>280</ele>
        <time>2019-04-22T08:51:23Z</time>
      </trkpt>
      <trkpt lat="48.24338" lon="-2.90474">
        <ele>280</ele>
        <time>2019-04-22T08:51:26Z</time>
      </trkpt>
      <trkpt lat="48.2434" lon="-2.90466">
        <ele>280</ele>
        <time>2019-04-22T08:51:29Z</time>
      </trkpt>
      <trkpt lat="48.24358" lon="-2.90434">
        <ele>277</ele>
        <time>2019-04-22T08:51:44Z</time>
      </trkpt>
      <trkpt lat="48.24361" lon="-2.90428">
        <ele>275</ele>
        <time>2019-04-22T08:51:48Z</time>
      </trkpt>
      <trkpt lat="48.24367" lon="-2.90427">
        <ele>274</ele>
        <time>2019-04-22T08:51:52Z</time>
      </trkpt>
      <trkpt lat="48.24373" lon="-2.90429">
        <ele>273</ele>
        <time>2019-04-22T08:51:55Z</time>
      </trkpt>
      <trkpt lat="48.24378" lon="-2.90431">
        <ele>272</ele>
        <time>2019-04-22T08:51:58Z</time>
      </trkpt>
      <trkpt lat="48.24386" lon="-2.90419">
        <ele>270</ele>
        <time>2019-04-22T08:52:04Z</time>
      </trkpt>
      <trkpt lat="48.2439" lon="-2.90413">
        <ele>269</ele>
        <time>2019-04-22T08:52:07Z</time>
      </trkpt>
      <trkpt lat="48.24397" lon="-2.904">
        <ele>269</ele>
        <time>2019-04-22T08:52:13Z</time>
      </trkpt>
      <trkpt lat="48.24405" lon="-2.90381">
        <ele>269</ele>
        <time>2019-04-22T08:52:22Z</time>
      </trkpt>
      <trkpt lat="48.24417" lon="-2.90352">
        <ele>268</ele>
        <time>2019-04-22T08:52:34Z</time>
      </trkpt>
      <trkpt lat="48.24419" lon="-2.90346">
        <ele>266</ele>
        <time>2019-04-22T08:52:37Z</time>
      </trkpt>
      <trkpt lat="48.24437" lon="-2.90339">
        <ele>264</ele>
        <time>2019-04-22T08:52:43Z</time>
      </trkpt>
      <trkpt lat="48.2446" lon="-2.9033">
        <ele>262</ele>
        <time>2019-04-22T08:52:49Z</time>
      </trkpt>
      <trkpt lat="48.24489" lon="-2.90311">
        <ele>261</ele>
        <time>2019-04-22T08:52:57Z</time>
      </trkpt>
      <trkpt lat="48.24502" lon="-2.90304">
        <ele>260</ele>
        <time>2019-04-22T08:53:01Z</time>
      </trkpt>
      <trkpt lat="48.24508" lon="-2.90299">
        <ele>260</ele>
        <time>2019-04-22T08:53:03Z</time>
      </trkpt>
      <trkpt lat="48.24515" lon="-2.9029">
        <ele>261</ele>
        <time>2019-04-22T08:53:05Z</time>
      </trkpt>
      <trkpt lat="48.24518" lon="-2.90279">
        <ele>262</ele>
        <time>2019-04-22T08:53:07Z</time>
      </trkpt>
      <trkpt lat="48.24518" lon="-2.90269">
        <ele>262</ele>
        <time>2019-04-22T08:53:09Z</time>
      </trkpt>
      <trkpt lat="48.24515" lon="-2.90255">
        <ele>265</ele>
        <time>2019-04-22T08:53:15Z</time>
      </trkpt>
      <trkpt lat="48.24513" lon="-2.90242">
        <ele>267</ele>
        <time>2019-04-22T08:53:21Z</time>
      </trkpt>
      <trkpt lat="48.24511" lon="-2.90234">
        <ele>269</ele>
        <time>2019-04-22T08:53:25Z</time>
      </trkpt>
      <trkpt lat="48.24512" lon="-2.90226">
        <ele>270</ele>
        <time>2019-04-22T08:53:29Z</time>
      </trkpt>
      <trkpt lat="48.24539" lon="-2.90215">
        <ele>271</ele>
        <time>2019-04-22T08:53:46Z</time>
      </trkpt>
      <trkpt lat="48.24545" lon="-2.90215">
        <ele>270</ele>
        <time>2019-04-22T08:53:49Z</time>
      </trkpt>
      <trkpt lat="48.24558" lon="-2.90211">
        <ele>268</ele>
        <time>2019-04-22T08:53:55Z</time>
      </trkpt>
      <trkpt lat="48.24576" lon="-2.9021">
        <ele>267</ele>
        <time>2019-04-22T08:54:01Z</time>
      </trkpt>
      <trkpt lat="48.24593" lon="-2.90205">
        <ele>266</ele>
        <time>2019-04-22T08:54:08Z</time>
      </trkpt>
      <trkpt lat="48.24598" lon="-2.90202">
        <ele>266</ele>
        <time>2019-04-22T08:54:11Z</time>
      </trkpt>
      <trkpt lat="48.24602" lon="-2.90196">
        <ele>267</ele>
        <time>2019-04-22T08:54:14Z</time>
      </trkpt>
      <trkpt lat="48.24607" lon="-2.90191">
        <ele>268</ele>
        <time>2019-04-22T08:54:18Z</time>
      </trkpt>
      <trkpt lat="48.24616" lon="-2.90184">
        <ele>271</ele>
        <time>2019-04-22T08:54:24Z</time>
      </trkpt>
      <trkpt lat="48.24623" lon="-2.90183">
        <ele>273</ele>
        <time>2019-04-22T08:54:27Z</time>
      </trkpt>
      <trkpt lat="48.24628" lon="-2.9018">
        <ele>274</ele>
        <time>2019-04-22T08:54:30Z</time>
      </trkpt>
      <trkpt lat="48.24634" lon="-2.90179">
        <ele>276</ele>
        <time>2019-04-22T08:54:33Z</time>
      </trkpt>
      <trkpt lat="48.2464" lon="-2.90179">
        <ele>277</ele>
        <time>2019-04-22T08:54:36Z</time>
      </trkpt>
      <trkpt lat="48.24645" lon="-2.90179">
        <ele>277</ele>
        <time>2019-04-22T08:54:39Z</time>
      </trkpt>
      <trkpt lat="48.24651" lon="-2.90177">
        <ele>278</ele>
        <time>2019-04-22T08:54:43Z</time>
      </trkpt>
      <trkpt lat="48.24654" lon="-2.90172">
        <ele>279</ele>
        <time>2019-04-22T08:54:47Z</time>
      </trkpt>
      <trkpt lat="48.24654" lon="-2.90165">
        <ele>281</ele>
        <time>2019-04-22T08:54:53Z</time>
      </trkpt>
      <trkpt lat="48.2465" lon="-2.90158">
        <ele>282</ele>
        <time>2019-04-22T08:54:56Z</time>
      </trkpt>
      <trkpt lat="48.2465" lon="-2.90151">
        <ele>282</ele>
        <time>2019-04-22T08:55:00Z</time>
      </trkpt>
      <trkpt lat="48.2465" lon="-2.90134">
        <ele>280</ele>
        <time>2019-04-22T08:55:07Z</time>
      </trkpt>
      <trkpt lat="48.2465" lon="-2.90127">
        <ele>279</ele>
        <time>2019-04-22T08:55:12Z</time>
      </trkpt>
      <trkpt lat="48.24653" lon="-2.90121">
        <ele>278</ele>
        <time>2019-04-22T08:55:16Z</time>
      </trkpt>
      <trkpt lat="48.24649" lon="-2.90107">
        <ele>276</ele>
        <time>2019-04-22T08:55:21Z</time>
      </trkpt>
      <trkpt lat="48.24636" lon="-2.9006">
        <ele>274</ele>
        <time>2019-04-22T08:55:43Z</time>
      </trkpt>
      <trkpt lat="48.24632" lon="-2.90046">
        <ele>271</ele>
        <time>2019-04-22T08:55:53Z</time>
      </trkpt>
      <trkpt lat="48.24634" lon="-2.9004">
        <ele>270</ele>
        <time>2019-04-22T08:55:56Z</time>
      </trkpt>
      <trkpt lat="48.24638" lon="-2.90025">
        <ele>269</ele>
        <time>2019-04-22T08:56:05Z</time>
      </trkpt>
      <trkpt lat="48.24643" lon="-2.90021">
        <ele>269</ele>
        <time>2019-04-22T08:56:10Z</time>
      </trkpt>
      <trkpt lat="48.24654" lon="-2.90025">
        <ele>268</ele>
        <time>2019-04-22T08:56:17Z</time>
      </trkpt>
      <trkpt lat="48.24726" lon="-2.90007">
        <ele>273</ele>
        <time>2019-04-22T08:56:48Z</time>
      </trkpt>
      <trkpt lat="48.24732" lon="-2.90006">
        <ele>274</ele>
        <time>2019-04-22T08:56:52Z</time>
      </trkpt>
      <trkpt lat="48.24737" lon="-2.90004">
        <ele>274</ele>
        <time>2019-04-22T08:56:56Z</time>
      </trkpt>
      <trkpt lat="48.24742" lon="-2.90002">
        <ele>274</ele>
        <time>2019-04-22T08:57:00Z</time>
      </trkpt>
      <trkpt lat="48.24748" lon="-2.9">
        <ele>274</ele>
        <time>2019-04-22T08:57:08Z</time>
      </trkpt>
      <trkpt lat="48.24753" lon="-2.89997">
        <ele>273</ele>
        <time>2019-04-22T08:57:11Z</time>
      </trkpt>
      <trkpt lat="48.24759" lon="-2.89994">
        <ele>273</ele>
        <time>2019-04-22T08:57:19Z</time>
      </trkpt>
      <trkpt lat="48.24765" lon="-2.89991">
        <ele>274</ele>
        <time>2019-04-22T08:57:21Z</time>
      </trkpt>
      <trkpt lat="48.24796" lon="-2.89981">
        <ele>275</ele>
        <time>2019-04-22T08:57:54Z</time>
      </trkpt>
      <trkpt lat="48.24813" lon="-2.89976">
        <ele>273</ele>
        <time>2019-04-22T08:58:04Z</time>
      </trkpt>
      <trkpt lat="48.2482" lon="-2.89975">
        <ele>271</ele>
        <time>2019-04-22T08:58:07Z</time>
      </trkpt>
      <trkpt lat="48.24829" lon="-2.89967">
        <ele>270</ele>
        <time>2019-04-22T08:58:11Z</time>
      </trkpt>
      <trkpt lat="48.24829" lon="-2.8996">
        <ele>270</ele>
        <time>2019-04-22T08:58:15Z</time>
      </trkpt>
      <trkpt lat="48.24826" lon="-2.89956">
        <ele>270</ele>
        <time>2019-04-22T08:58:18Z</time>
      </trkpt>
      <trkpt lat="48.24824" lon="-2.89948">
        <ele>269</ele>
        <time>2019-04-22T08:58:22Z</time>
      </trkpt>
      <trkpt lat="48.24825" lon="-2.8994">
        <ele>269</ele>
        <time>2019-04-22T08:58:26Z</time>
      </trkpt>
      <trkpt lat="48.24829" lon="-2.89934">
        <ele>269</ele>
        <time>2019-04-22T08:58:30Z</time>
      </trkpt>
      <trkpt lat="48.24833" lon="-2.8993">
        <ele>269</ele>
        <time>2019-04-22T08:58:35Z</time>
      </trkpt>
      <trkpt lat="48.24838" lon="-2.89926">
        <ele>268</ele>
        <time>2019-04-22T08:58:39Z</time>
      </trkpt>
      <trkpt lat="48.24846" lon="-2.89918">
        <ele>267</ele>
        <time>2019-04-22T08:58:46Z</time>
      </trkpt>
      <trkpt lat="48.2485" lon="-2.89913">
        <ele>266</ele>
        <time>2019-04-22T08:58:50Z</time>
      </trkpt>
      <trkpt lat="48.24855" lon="-2.89908">
        <ele>266</ele>
        <time>2019-04-22T08:58:54Z</time>
      </trkpt>
      <trkpt lat="48.24856" lon="-2.899">
        <ele>266</ele>
        <time>2019-04-22T08:58:59Z</time>
      </trkpt>
      <trkpt lat="48.24853" lon="-2.89893">
        <ele>264</ele>
        <time>2019-04-22T08:59:03Z</time>
      </trkpt>
      <trkpt lat="48.24849" lon="-2.89888">
        <ele>263</ele>
        <time>2019-04-22T08:59:06Z</time>
      </trkpt>
      <trkpt lat="48.24847" lon="-2.89881">
        <ele>262</ele>
        <time>2019-04-22T08:59:09Z</time>
      </trkpt>
      <trkpt lat="48.24849" lon="-2.89873">
        <ele>260</ele>
        <time>2019-04-22T08:59:13Z</time>
      </trkpt>
      <trkpt lat="48.2485" lon="-2.89866">
        <ele>258</ele>
        <time>2019-04-22T08:59:16Z</time>
      </trkpt>
      <trkpt lat="48.24848" lon="-2.89856">
        <ele>257</ele>
        <time>2019-04-22T08:59:19Z</time>
      </trkpt>
      <trkpt lat="48.24839" lon="-2.89836">
        <ele>254</ele>
        <time>2019-04-22T08:59:27Z</time>
      </trkpt>
      <trkpt lat="48.24838" lon="-2.89828">
        <ele>253</ele>
        <time>2019-04-22T08:59:30Z</time>
      </trkpt>
      <trkpt lat="48.24839" lon="-2.89821">
        <ele>253</ele>
        <time>2019-04-22T08:59:33Z</time>
      </trkpt>
      <trkpt lat="48.2484" lon="-2.89813">
        <ele>252</ele>
        <time>2019-04-22T08:59:37Z</time>
      </trkpt>
      <trkpt lat="48.24836" lon="-2.89808">
        <ele>252</ele>
        <time>2019-04-22T08:59:41Z</time>
      </trkpt>
      <trkpt lat="48.2483" lon="-2.89806">
        <ele>252</ele>
        <time>2019-04-22T08:59:48Z</time>
      </trkpt>
      <trkpt lat="48.24825" lon="-2.89807">
        <ele>253</ele>
        <time>2019-04-22T08:59:51Z</time>
      </trkpt>
      <trkpt lat="48.24816" lon="-2.89809">
        <ele>253</ele>
        <time>2019-04-22T08:59:55Z</time>
      </trkpt>
      <trkpt lat="48.24795" lon="-2.89817">
        <ele>253</ele>
        <time>2019-04-22T09:00:01Z</time>
      </trkpt>
      <trkpt lat="48.24775" lon="-2.89821">
        <ele>253</ele>
        <time>2019-04-22T09:00:05Z</time>
      </trkpt>
      <trkpt lat="48.24748" lon="-2.8982">
        <ele>251</ele>
        <time>2019-04-22T09:00:13Z</time>
      </trkpt>
      <trkpt lat="48.24734" lon="-2.89823">
        <ele>252</ele>
        <time>2019-04-22T09:00:17Z</time>
      </trkpt>
      <trkpt lat="48.24727" lon="-2.89824">
        <ele>252</ele>
        <time>2019-04-22T09:00:19Z</time>
      </trkpt>
      <trkpt lat="48.24722" lon="-2.89825">
        <ele>253</ele>
        <time>2019-04-22T09:00:21Z</time>
      </trkpt>
      <trkpt lat="48.24705" lon="-2.89839">
        <ele>256</ele>
        <time>2019-04-22T09:00:31Z</time>
      </trkpt>
      <trkpt lat="48.24702" lon="-2.89843">
        <ele>257</ele>
        <time>2019-04-22T09:00:35Z</time>
      </trkpt>
      <trkpt lat="48.24697" lon="-2.89844">
        <ele>258</ele>
        <time>2019-04-22T09:00:38Z</time>
      </trkpt>
      <trkpt lat="48.24691" lon="-2.89845">
        <ele>258</ele>
        <time>2019-04-22T09:00:42Z</time>
      </trkpt>
      <trkpt lat="48.24673" lon="-2.89842">
        <ele>258</ele>
        <time>2019-04-22T09:00:49Z</time>
      </trkpt>
      <trkpt lat="48.24668" lon="-2.89839">
        <ele>259</ele>
        <time>2019-04-22T09:00:52Z</time>
      </trkpt>
      <trkpt lat="48.24659" lon="-2.89819">
        <ele>257</ele>
        <time>2019-04-22T09:01:01Z</time>
      </trkpt>
      <trkpt lat="48.24644" lon="-2.89788">
        <ele>250</ele>
        <time>2019-04-22T09:01:15Z</time>
      </trkpt>
      <trkpt lat="48.24639" lon="-2.89784">
        <ele>247</ele>
        <time>2019-04-22T09:01:18Z</time>
      </trkpt>
      <trkpt lat="48.24632" lon="-2.89775">
        <ele>243</ele>
        <time>2019-04-22T09:01:25Z</time>
      </trkpt>
      <trkpt lat="48.2462" lon="-2.89747">
        <ele>237</ele>
        <time>2019-04-22T09:01:33Z</time>
      </trkpt>
      <trkpt lat="48.24617" lon="-2.89739">
        <ele>236</ele>
        <time>2019-04-22T09:01:36Z</time>
      </trkpt>
      <trkpt lat="48.24616" lon="-2.89732">
        <ele>235</ele>
        <time>2019-04-22T09:01:38Z</time>
      </trkpt>
      <trkpt lat="48.24613" lon="-2.89724">
        <ele>235</ele>
        <time>2019-04-22T09:01:41Z</time>
      </trkpt>
      <trkpt lat="48.2461" lon="-2.89718">
        <ele>236</ele>
        <time>2019-04-22T09:01:43Z</time>
      </trkpt>
      <trkpt lat="48.24613" lon="-2.89709">
        <ele>236</ele>
        <time>2019-04-22T09:01:47Z</time>
      </trkpt>
      <trkpt lat="48.24621" lon="-2.89696">
        <ele>237</ele>
        <time>2019-04-22T09:01:52Z</time>
      </trkpt>
      <trkpt lat="48.24628" lon="-2.89694">
        <ele>237</ele>
        <time>2019-04-22T09:01:54Z</time>
      </trkpt>
      <trkpt lat="48.2464" lon="-2.89696">
        <ele>236</ele>
        <time>2019-04-22T09:01:57Z</time>
      </trkpt>
      <trkpt lat="48.2477" lon="-2.89661">
        <ele>226</ele>
        <time>2019-04-22T09:02:22Z</time>
      </trkpt>
      <trkpt lat="48.24786" lon="-2.89639">
        <ele>225</ele>
        <time>2019-04-22T09:02:29Z</time>
      </trkpt>
      <trkpt lat="48.24799" lon="-2.89635">
        <ele>225</ele>
        <time>2019-04-22T09:02:35Z</time>
      </trkpt>
      <trkpt lat="48.24817" lon="-2.89622">
        <ele>225</ele>
        <time>2019-04-22T09:02:40Z</time>
      </trkpt>
      <trkpt lat="48.24826" lon="-2.89598">
        <ele>225</ele>
        <time>2019-04-22T09:02:46Z</time>
      </trkpt>
      <trkpt lat="48.24823" lon="-2.89569">
        <ele>223</ele>
        <time>2019-04-22T09:02:52Z</time>
      </trkpt>
      <trkpt lat="48.24824" lon="-2.8956">
        <ele>222</ele>
        <time>2019-04-22T09:02:54Z</time>
      </trkpt>
      <trkpt lat="48.24825" lon="-2.89552">
        <ele>222</ele>
        <time>2019-04-22T09:02:56Z</time>
      </trkpt>
      <trkpt lat="48.24827" lon="-2.89543">
        <ele>222</ele>
        <time>2019-04-22T09:02:58Z</time>
      </trkpt>
      <trkpt lat="48.24831" lon="-2.89537">
        <ele>222</ele>
        <time>2019-04-22T09:03:00Z</time>
      </trkpt>
      <trkpt lat="48.24838" lon="-2.89519">
        <ele>221</ele>
        <time>2019-04-22T09:03:04Z</time>
      </trkpt>
      <trkpt lat="48.24858" lon="-2.89484">
        <ele>220</ele>
        <time>2019-04-22T09:03:13Z</time>
      </trkpt>
      <trkpt lat="48.24884" lon="-2.8946">
        <ele>219</ele>
        <time>2019-04-22T09:03:21Z</time>
      </trkpt>
      <trkpt lat="48.24892" lon="-2.89451">
        <ele>219</ele>
        <time>2019-04-22T09:03:23Z</time>
      </trkpt>
      <trkpt lat="48.249" lon="-2.89445">
        <ele>219</ele>
        <time>2019-04-22T09:03:25Z</time>
      </trkpt>
      <trkpt lat="48.24906" lon="-2.89443">
        <ele>219</ele>
        <time>2019-04-22T09:03:27Z</time>
      </trkpt>
      <trkpt lat="48.24935" lon="-2.89455">
        <ele>222</ele>
        <time>2019-04-22T09:03:35Z</time>
      </trkpt>
      <trkpt lat="48.24942" lon="-2.89459">
        <ele>223</ele>
        <time>2019-04-22T09:03:37Z</time>
      </trkpt>
      <trkpt lat="48.24945" lon="-2.89466">
        <ele>226</ele>
        <time>2019-04-22T09:03:39Z</time>
      </trkpt>
      <trkpt lat="48.2495" lon="-2.89462">
        <ele>228</ele>
        <time>2019-04-22T09:03:42Z</time>
      </trkpt>
      <trkpt lat="48.24956" lon="-2.89461">
        <ele>231</ele>
        <time>2019-04-22T09:03:45Z</time>
      </trkpt>
      <trkpt lat="48.2496" lon="-2.89463">
        <ele>232</ele>
        <time>2019-04-22T09:03:46Z</time>
      </trkpt>
      <trkpt lat="48.24966" lon="-2.8947">
        <ele>235</ele>
        <time>2019-04-22T09:03:48Z</time>
      </trkpt>
      <trkpt lat="48.2497" lon="-2.89479">
        <ele>237</ele>
        <time>2019-04-22T09:03:50Z</time>
      </trkpt>
      <trkpt lat="48.24974" lon="-2.89488">
        <ele>241</ele>
        <time>2019-04-22T09:03:52Z</time>
      </trkpt>
      <trkpt lat="48.24978" lon="-2.89494">
        <ele>243</ele>
        <time>2019-04-22T09:03:54Z</time>
      </trkpt>
      <trkpt lat="48.24983" lon="-2.89495">
        <ele>244</ele>
        <time>2019-04-22T09:03:56Z</time>
      </trkpt>
      <trkpt lat="48.24985" lon="-2.89505">
        <ele>246</ele>
        <time>2019-04-22T09:03:58Z</time>
      </trkpt>
      <trkpt lat="48.24986" lon="-2.89514">
        <ele>248</ele>
        <time>2019-04-22T09:04:00Z</time>
      </trkpt>
      <trkpt lat="48.24991" lon="-2.89518">
        <ele>253</ele>
        <time>2019-04-22T09:04:04Z</time>
      </trkpt>
      <trkpt lat="48.24997" lon="-2.89516">
        <ele>254</ele>
        <time>2019-04-22T09:04:11Z</time>
      </trkpt>
      <trkpt lat="48.2501" lon="-2.89527">
        <ele>257</ele>
        <time>2019-04-22T09:04:18Z</time>
      </trkpt>
      <trkpt lat="48.2505" lon="-2.89559">
        <ele>262</ele>
        <time>2019-04-22T09:04:32Z</time>
      </trkpt>
      <trkpt lat="48.25055" lon="-2.89567">
        <ele>261</ele>
        <time>2019-04-22T09:04:34Z</time>
      </trkpt>
      <trkpt lat="48.25059" lon="-2.89572">
        <ele>260</ele>
        <time>2019-04-22T09:04:37Z</time>
      </trkpt>
      <trkpt lat="48.25069" lon="-2.89563">
        <ele>262</ele>
        <time>2019-04-22T09:04:42Z</time>
      </trkpt>
      <trkpt lat="48.2507" lon="-2.89555">
        <ele>264</ele>
        <time>2019-04-22T09:04:45Z</time>
      </trkpt>
      <trkpt lat="48.25068" lon="-2.89547">
        <ele>265</ele>
        <time>2019-04-22T09:04:48Z</time>
      </trkpt>
      <trkpt lat="48.25068" lon="-2.89538">
        <ele>266</ele>
        <time>2019-04-22T09:04:52Z</time>
      </trkpt>
      <trkpt lat="48.25071" lon="-2.89529">
        <ele>267</ele>
        <time>2019-04-22T09:04:56Z</time>
      </trkpt>
      <trkpt lat="48.25075" lon="-2.89524">
        <ele>267</ele>
        <time>2019-04-22T09:04:58Z</time>
      </trkpt>
      <trkpt lat="48.251" lon="-2.89506">
        <ele>262</ele>
        <time>2019-04-22T09:05:08Z</time>
      </trkpt>
      <trkpt lat="48.25105" lon="-2.89502">
        <ele>262</ele>
        <time>2019-04-22T09:05:10Z</time>
      </trkpt>
      <trkpt lat="48.25155" lon="-2.89473">
        <ele>262</ele>
        <time>2019-04-22T09:05:26Z</time>
      </trkpt>
      <trkpt lat="48.2516" lon="-2.89468">
        <ele>262</ele>
        <time>2019-04-22T09:05:29Z</time>
      </trkpt>
      <trkpt lat="48.25195" lon="-2.89419">
        <ele>267</ele>
        <time>2019-04-22T09:05:58Z</time>
      </trkpt>
      <trkpt lat="48.25192" lon="-2.89412">
        <ele>269</ele>
        <time>2019-04-22T09:06:02Z</time>
      </trkpt>
      <trkpt lat="48.2518" lon="-2.8938">
        <ele>271</ele>
        <time>2019-04-22T09:06:14Z</time>
      </trkpt>
      <trkpt lat="48.25175" lon="-2.89371">
        <ele>271</ele>
        <time>2019-04-22T09:06:16Z</time>
      </trkpt>
      <trkpt lat="48.25162" lon="-2.8935">
        <ele>270</ele>
        <time>2019-04-22T09:06:22Z</time>
      </trkpt>
      <trkpt lat="48.25155" lon="-2.8934">
        <ele>269</ele>
        <time>2019-04-22T09:06:26Z</time>
      </trkpt>
      <trkpt lat="48.25104" lon="-2.89237">
        <ele>267</ele>
        <time>2019-04-22T09:06:46Z</time>
      </trkpt>
      <trkpt lat="48.25102" lon="-2.8923">
        <ele>267</ele>
        <time>2019-04-22T09:06:47Z</time>
      </trkpt>
      <trkpt lat="48.25101" lon="-2.89214">
        <ele>267</ele>
        <time>2019-04-22T09:06:49Z</time>
      </trkpt>
      <trkpt lat="48.25103" lon="-2.89205">
        <ele>267</ele>
        <time>2019-04-22T09:06:51Z</time>
      </trkpt>
      <trkpt lat="48.25104" lon="-2.89194">
        <ele>268</ele>
        <time>2019-04-22T09:06:53Z</time>
      </trkpt>
      <trkpt lat="48.25111" lon="-2.89177">
        <ele>268</ele>
        <time>2019-04-22T09:06:57Z</time>
      </trkpt>
      <trkpt lat="48.25115" lon="-2.89168">
        <ele>268</ele>
        <time>2019-04-22T09:06:59Z</time>
      </trkpt>
      <trkpt lat="48.25121" lon="-2.89168">
        <ele>267</ele>
        <time>2019-04-22T09:07:01Z</time>
      </trkpt>
      <trkpt lat="48.25194" lon="-2.89281">
        <ele>268</ele>
        <time>2019-04-22T09:07:20Z</time>
      </trkpt>
      <trkpt lat="48.25204" lon="-2.893">
        <ele>268</ele>
        <time>2019-04-22T09:07:23Z</time>
      </trkpt>
      <trkpt lat="48.25254" lon="-2.89378">
        <ele>272</ele>
        <time>2019-04-22T09:07:41Z</time>
      </trkpt>
      <trkpt lat="48.25259" lon="-2.89386">
        <ele>273</ele>
        <time>2019-04-22T09:07:43Z</time>
      </trkpt>
      <trkpt lat="48.25264" lon="-2.89387">
        <ele>276</ele>
        <time>2019-04-22T09:07:46Z</time>
      </trkpt>
      <trkpt lat="48.25269" lon="-2.89384">
        <ele>278</ele>
        <time>2019-04-22T09:07:49Z</time>
      </trkpt>
      <trkpt lat="48.25302" lon="-2.89354">
        <ele>281</ele>
        <time>2019-04-22T09:07:59Z</time>
      </trkpt>
      <trkpt lat="48.25309" lon="-2.89345">
        <ele>282</ele>
        <time>2019-04-22T09:08:01Z</time>
      </trkpt>
      <trkpt lat="48.25313" lon="-2.8934">
        <ele>282</ele>
        <time>2019-04-22T09:08:02Z</time>
      </trkpt>
      <trkpt lat="48.25312" lon="-2.89329">
        <ele>282</ele>
        <time>2019-04-22T09:08:04Z</time>
      </trkpt>
      <trkpt lat="48.25243" lon="-2.89231">
        <ele>286</ele>
        <time>2019-04-22T09:08:24Z</time>
      </trkpt>
      <trkpt lat="48.25234" lon="-2.89215">
        <ele>287</ele>
        <time>2019-04-22T09:08:28Z</time>
      </trkpt>
      <trkpt lat="48.25225" lon="-2.89202">
        <ele>288</ele>
        <time>2019-04-22T09:08:32Z</time>
      </trkpt>
      <trkpt lat="48.25221" lon="-2.89195">
        <ele>288</ele>
        <time>2019-04-22T09:08:34Z</time>
      </trkpt>
      <trkpt lat="48.25174" lon="-2.89129">
        <ele>285</ele>
        <time>2019-04-22T09:08:53Z</time>
      </trkpt>
      <trkpt lat="48.25166" lon="-2.89116">
        <ele>283</ele>
        <time>2019-04-22T09:08:59Z</time>
      </trkpt>
      <trkpt lat="48.2516" lon="-2.8911">
        <ele>282</ele>
        <time>2019-04-22T09:09:01Z</time>
      </trkpt>
      <trkpt lat="48.25154" lon="-2.89106">
        <ele>280</ele>
        <time>2019-04-22T09:09:03Z</time>
      </trkpt>
      <trkpt lat="48.25149" lon="-2.89101">
        <ele>280</ele>
        <time>2019-04-22T09:09:06Z</time>
      </trkpt>
      <trkpt lat="48.25148" lon="-2.89094">
        <ele>279</ele>
        <time>2019-04-22T09:09:11Z</time>
      </trkpt>
      <trkpt lat="48.25153" lon="-2.89082">
        <ele>279</ele>
        <time>2019-04-22T09:09:19Z</time>
      </trkpt>
      <trkpt lat="48.25156" lon="-2.89075">
        <ele>278</ele>
        <time>2019-04-22T09:09:22Z</time>
      </trkpt>
      <trkpt lat="48.2516" lon="-2.89069">
        <ele>278</ele>
        <time>2019-04-22T09:09:26Z</time>
      </trkpt>
      <trkpt lat="48.25163" lon="-2.89063">
        <ele>277</ele>
        <time>2019-04-22T09:09:29Z</time>
      </trkpt>
      <trkpt lat="48.25169" lon="-2.89049">
        <ele>277</ele>
        <time>2019-04-22T09:09:37Z</time>
      </trkpt>
      <trkpt lat="48.25172" lon="-2.89042">
        <ele>277</ele>
        <time>2019-04-22T09:09:41Z</time>
      </trkpt>
      <trkpt lat="48.25187" lon="-2.89017">
        <ele>277</ele>
        <time>2019-04-22T09:09:54Z</time>
      </trkpt>
      <trkpt lat="48.25194" lon="-2.89003">
        <ele>277</ele>
        <time>2019-04-22T09:09:59Z</time>
      </trkpt>
      <trkpt lat="48.25201" lon="-2.88991">
        <ele>277</ele>
        <time>2019-04-22T09:10:04Z</time>
      </trkpt>
      <trkpt lat="48.25254" lon="-2.88889">
        <ele>278</ele>
        <time>2019-04-22T09:10:25Z</time>
      </trkpt>
      <trkpt lat="48.25256" lon="-2.8888">
        <ele>277</ele>
        <time>2019-04-22T09:10:27Z</time>
      </trkpt>
      <trkpt lat="48.25244" lon="-2.88842">
        <ele>273</ele>
        <time>2019-04-22T09:10:40Z</time>
      </trkpt>
      <trkpt lat="48.25228" lon="-2.88819">
        <ele>269</ele>
        <time>2019-04-22T09:10:52Z</time>
      </trkpt>
      <trkpt lat="48.25224" lon="-2.88816">
        <ele>269</ele>
        <time>2019-04-22T09:10:56Z</time>
      </trkpt>
      <trkpt lat="48.2522" lon="-2.88811">
        <ele>268</ele>
        <time>2019-04-22T09:11:00Z</time>
      </trkpt>
      <trkpt lat="48.25208" lon="-2.88811">
        <ele>267</ele>
        <time>2019-04-22T09:11:06Z</time>
      </trkpt>
      <trkpt lat="48.25205" lon="-2.88816">
        <ele>266</ele>
        <time>2019-04-22T09:11:10Z</time>
      </trkpt>
      <trkpt lat="48.25184" lon="-2.8884">
        <ele>265</ele>
        <time>2019-04-22T09:11:27Z</time>
      </trkpt>
      <trkpt lat="48.2518" lon="-2.88843">
        <ele>264</ele>
        <time>2019-04-22T09:11:30Z</time>
      </trkpt>
      <trkpt lat="48.25174" lon="-2.88847">
        <ele>263</ele>
        <time>2019-04-22T09:11:35Z</time>
      </trkpt>
      <trkpt lat="48.25162" lon="-2.88863">
        <ele>262</ele>
        <time>2019-04-22T09:11:43Z</time>
      </trkpt>
      <trkpt lat="48.25158" lon="-2.88868">
        <ele>262</ele>
        <time>2019-04-22T09:11:45Z</time>
      </trkpt>
      <trkpt lat="48.25153" lon="-2.88873">
        <ele>263</ele>
        <time>2019-04-22T09:11:47Z</time>
      </trkpt>
      <trkpt lat="48.25148" lon="-2.88875">
        <ele>263</ele>
        <time>2019-04-22T09:11:49Z</time>
      </trkpt>
      <trkpt lat="48.25137" lon="-2.88879">
        <ele>264</ele>
        <time>2019-04-22T09:11:54Z</time>
      </trkpt>
      <trkpt lat="48.25128" lon="-2.88888">
        <ele>264</ele>
        <time>2019-04-22T09:11:58Z</time>
      </trkpt>
      <trkpt lat="48.25123" lon="-2.88893">
        <ele>264</ele>
        <time>2019-04-22T09:12:01Z</time>
      </trkpt>
      <trkpt lat="48.25119" lon="-2.88897">
        <ele>265</ele>
        <time>2019-04-22T09:12:05Z</time>
      </trkpt>
      <trkpt lat="48.25114" lon="-2.88902">
        <ele>265</ele>
        <time>2019-04-22T09:12:09Z</time>
      </trkpt>
      <trkpt lat="48.25109" lon="-2.88907">
        <ele>265</ele>
        <time>2019-04-22T09:12:13Z</time>
      </trkpt>
      <trkpt lat="48.25104" lon="-2.88911">
        <ele>264</ele>
        <time>2019-04-22T09:12:16Z</time>
      </trkpt>
      <trkpt lat="48.25099" lon="-2.88914">
        <ele>264</ele>
        <time>2019-04-22T09:12:19Z</time>
      </trkpt>
      <trkpt lat="48.2509" lon="-2.88921">
        <ele>262</ele>
        <time>2019-04-22T09:12:23Z</time>
      </trkpt>
      <trkpt lat="48.25024" lon="-2.89094">
        <ele>252</ele>
        <time>2019-04-22T09:12:50Z</time>
      </trkpt>
      <trkpt lat="48.25015" lon="-2.89132">
        <ele>249</ele>
        <time>2019-04-22T09:12:56Z</time>
      </trkpt>
      <trkpt lat="48.25012" lon="-2.89142">
        <ele>249</ele>
        <time>2019-04-22T09:12:58Z</time>
      </trkpt>
      <trkpt lat="48.25008" lon="-2.89149">
        <ele>249</ele>
        <time>2019-04-22T09:13:00Z</time>
      </trkpt>
      <trkpt lat="48.25002" lon="-2.89165">
        <ele>249</ele>
        <time>2019-04-22T09:13:04Z</time>
      </trkpt>
      <trkpt lat="48.2499" lon="-2.89181">
        <ele>252</ele>
        <time>2019-04-22T09:13:11Z</time>
      </trkpt>
      <trkpt lat="48.24973" lon="-2.89215">
        <ele>256</ele>
        <time>2019-04-22T09:13:31Z</time>
      </trkpt>
      <trkpt lat="48.24969" lon="-2.89221">
        <ele>255</ele>
        <time>2019-04-22T09:13:35Z</time>
      </trkpt>
      <trkpt lat="48.24954" lon="-2.89243">
        <ele>253</ele>
        <time>2019-04-22T09:13:50Z</time>
      </trkpt>
      <trkpt lat="48.24948" lon="-2.89255">
        <ele>251</ele>
        <time>2019-04-22T09:13:57Z</time>
      </trkpt>
      <trkpt lat="48.24945" lon="-2.89262">
        <ele>250</ele>
        <time>2019-04-22T09:14:01Z</time>
      </trkpt>
      <trkpt lat="48.2494" lon="-2.89265">
        <ele>250</ele>
        <time>2019-04-22T09:14:05Z</time>
      </trkpt>
      <trkpt lat="48.24936" lon="-2.89251">
        <ele>249</ele>
        <time>2019-04-22T09:14:11Z</time>
      </trkpt>
      <trkpt lat="48.24934" lon="-2.89234">
        <ele>248</ele>
        <time>2019-04-22T09:14:17Z</time>
      </trkpt>
      <trkpt lat="48.24936" lon="-2.89226">
        <ele>247</ele>
        <time>2019-04-22T09:14:20Z</time>
      </trkpt>
      <trkpt lat="48.24935" lon="-2.89219">
        <ele>246</ele>
        <time>2019-04-22T09:14:23Z</time>
      </trkpt>
      <trkpt lat="48.24933" lon="-2.89212">
        <ele>243</ele>
        <time>2019-04-22T09:14:26Z</time>
      </trkpt>
      <trkpt lat="48.24933" lon="-2.89204">
        <ele>242</ele>
        <time>2019-04-22T09:14:29Z</time>
      </trkpt>
      <trkpt lat="48.24933" lon="-2.89197">
        <ele>239</ele>
        <time>2019-04-22T09:14:32Z</time>
      </trkpt>
      <trkpt lat="48.24933" lon="-2.8919">
        <ele>238</ele>
        <time>2019-04-22T09:14:35Z</time>
      </trkpt>
      <trkpt lat="48.24933" lon="-2.89171">
        <ele>233</ele>
        <time>2019-04-22T09:14:41Z</time>
      </trkpt>
      <trkpt lat="48.24936" lon="-2.89153">
        <ele>231</ele>
        <time>2019-04-22T09:14:45Z</time>
      </trkpt>
      <trkpt lat="48.24941" lon="-2.89145">
        <ele>230</ele>
        <time>2019-04-22T09:14:47Z</time>
      </trkpt>
      <trkpt lat="48.24945" lon="-2.89137">
        <ele>229</ele>
        <time>2019-04-22T09:14:49Z</time>
      </trkpt>
      <trkpt lat="48.24967" lon="-2.89087">
        <ele>227</ele>
        <time>2019-04-22T09:14:57Z</time>
      </trkpt>
      <trkpt lat="48.25001" lon="-2.89019">
        <ele>225</ele>
        <time>2019-04-22T09:15:05Z</time>
      </trkpt>
      <trkpt lat="48.25017" lon="-2.8896">
        <ele>221</ele>
        <time>2019-04-22T09:15:14Z</time>
      </trkpt>
      <trkpt lat="48.25049" lon="-2.88889">
        <ele>218</ele>
        <time>2019-04-22T09:15:25Z</time>
      </trkpt>
      <trkpt lat="48.25071" lon="-2.88864">
        <ele>217</ele>
        <time>2019-04-22T09:15:31Z</time>
      </trkpt>
      <trkpt lat="48.25078" lon="-2.88853">
        <ele>216</ele>
        <time>2019-04-22T09:15:33Z</time>
      </trkpt>
      <trkpt lat="48.2508" lon="-2.88841">
        <ele>215</ele>
        <time>2019-04-22T09:15:35Z</time>
      </trkpt>
      <trkpt lat="48.25083" lon="-2.88831">
        <ele>214</ele>
        <time>2019-04-22T09:15:37Z</time>
      </trkpt>
      <trkpt lat="48.25087" lon="-2.88824">
        <ele>213</ele>
        <time>2019-04-22T09:15:39Z</time>
      </trkpt>
      <trkpt lat="48.25096" lon="-2.88811">
        <ele>211</ele>
        <time>2019-04-22T09:15:45Z</time>
      </trkpt>
      <trkpt lat="48.25106" lon="-2.88799">
        <ele>212</ele>
        <time>2019-04-22T09:15:49Z</time>
      </trkpt>
      <trkpt lat="48.2514" lon="-2.8877">
        <ele>210</ele>
        <time>2019-04-22T09:16:01Z</time>
      </trkpt>
      <trkpt lat="48.25146" lon="-2.88759">
        <ele>210</ele>
        <time>2019-04-22T09:16:04Z</time>
      </trkpt>
      <trkpt lat="48.2515" lon="-2.88751">
        <ele>209</ele>
        <time>2019-04-22T09:16:06Z</time>
      </trkpt>
      <trkpt lat="48.25154" lon="-2.88747">
        <ele>209</ele>
        <time>2019-04-22T09:16:08Z</time>
      </trkpt>
      <trkpt lat="48.2516" lon="-2.88738">
        <ele>209</ele>
        <time>2019-04-22T09:16:11Z</time>
      </trkpt>
      <trkpt lat="48.25171" lon="-2.88728">
        <ele>209</ele>
        <time>2019-04-22T09:16:15Z</time>
      </trkpt>
      <trkpt lat="48.25176" lon="-2.8872">
        <ele>209</ele>
        <time>2019-04-22T09:16:18Z</time>
      </trkpt>
      <trkpt lat="48.25183" lon="-2.88718">
        <ele>210</ele>
        <time>2019-04-22T09:16:22Z</time>
      </trkpt>
      <trkpt lat="48.25188" lon="-2.88714">
        <ele>214</ele>
        <time>2019-04-22T09:16:27Z</time>
      </trkpt>
      <trkpt lat="48.25192" lon="-2.88709">
        <ele>215</ele>
        <time>2019-04-22T09:16:29Z</time>
      </trkpt>
      <trkpt lat="48.25201" lon="-2.88697">
        <ele>218</ele>
        <time>2019-04-22T09:16:34Z</time>
      </trkpt>
      <trkpt lat="48.25205" lon="-2.88693">
        <ele>220</ele>
        <time>2019-04-22T09:16:36Z</time>
      </trkpt>
      <trkpt lat="48.25218" lon="-2.88678">
        <ele>223</ele>
        <time>2019-04-22T09:16:44Z</time>
      </trkpt>
      <trkpt lat="48.25221" lon="-2.88674">
        <ele>224</ele>
        <time>2019-04-22T09:16:47Z</time>
      </trkpt>
      <trkpt lat="48.25225" lon="-2.88667">
        <ele>225</ele>
        <time>2019-04-22T09:16:50Z</time>
      </trkpt>
      <trkpt lat="48.25227" lon="-2.88658">
        <ele>225</ele>
        <time>2019-04-22T09:16:53Z</time>
      </trkpt>
      <trkpt lat="48.25228" lon="-2.88652">
        <ele>226</ele>
        <time>2019-04-22T09:16:55Z</time>
      </trkpt>
      <trkpt lat="48.25232" lon="-2.88645">
        <ele>226</ele>
        <time>2019-04-22T09:16:58Z</time>
      </trkpt>
      <trkpt lat="48.25244" lon="-2.88638">
        <ele>224</ele>
        <time>2019-04-22T09:17:03Z</time>
      </trkpt>
      <trkpt lat="48.25249" lon="-2.88632">
        <ele>223</ele>
        <time>2019-04-22T09:17:05Z</time>
      </trkpt>
      <trkpt lat="48.25252" lon="-2.88624">
        <ele>223</ele>
        <time>2019-04-22T09:17:07Z</time>
      </trkpt>
      <trkpt lat="48.25256" lon="-2.8861">
        <ele>224</ele>
        <time>2019-04-22T09:17:11Z</time>
      </trkpt>
      <trkpt lat="48.25247" lon="-2.88589">
        <ele>226</ele>
        <time>2019-04-22T09:17:21Z</time>
      </trkpt>
      <trkpt lat="48.25249" lon="-2.88582">
        <ele>225</ele>
        <time>2019-04-22T09:17:26Z</time>
      </trkpt>
      <trkpt lat="48.25265" lon="-2.88566">
        <ele>223</ele>
        <time>2019-04-22T09:17:41Z</time>
      </trkpt>
      <trkpt lat="48.25274" lon="-2.88559">
        <ele>223</ele>
        <time>2019-04-22T09:17:47Z</time>
      </trkpt>
      <trkpt lat="48.25279" lon="-2.88557">
        <ele>223</ele>
        <time>2019-04-22T09:17:53Z</time>
      </trkpt>
      <trkpt lat="48.25284" lon="-2.88555">
        <ele>223</ele>
        <time>2019-04-22T09:17:55Z</time>
      </trkpt>
      <trkpt lat="48.25293" lon="-2.88546">
        <ele>222</ele>
        <time>2019-04-22T09:17:59Z</time>
      </trkpt>
      <trkpt lat="48.25298" lon="-2.8854">
        <ele>223</ele>
        <time>2019-04-22T09:18:02Z</time>
      </trkpt>
      <trkpt lat="48.25301" lon="-2.88534">
        <ele>223</ele>
        <time>2019-04-22T09:18:06Z</time>
      </trkpt>
      <trkpt lat="48.25304" lon="-2.88527">
        <ele>223</ele>
        <time>2019-04-22T09:18:11Z</time>
      </trkpt>
      <trkpt lat="48.25321" lon="-2.88524">
        <ele>223</ele>
        <time>2019-04-22T09:18:20Z</time>
      </trkpt>
      <trkpt lat="48.25337" lon="-2.88514">
        <ele>222</ele>
        <time>2019-04-22T09:18:27Z</time>
      </trkpt>
      <trkpt lat="48.25353" lon="-2.88505">
        <ele>224</ele>
        <time>2019-04-22T09:18:40Z</time>
      </trkpt>
      <trkpt lat="48.25357" lon="-2.88502">
        <ele>224</ele>
        <time>2019-04-22T09:18:43Z</time>
      </trkpt>
      <trkpt lat="48.25363" lon="-2.88498">
        <ele>225</ele>
        <time>2019-04-22T09:18:47Z</time>
      </trkpt>
      <trkpt lat="48.25367" lon="-2.88493">
        <ele>225</ele>
        <time>2019-04-22T09:18:51Z</time>
      </trkpt>
      <trkpt lat="48.2538" lon="-2.88457">
        <ele>227</ele>
        <time>2019-04-22T09:19:08Z</time>
      </trkpt>
      <trkpt lat="48.25389" lon="-2.88448">
        <ele>229</ele>
        <time>2019-04-22T09:19:19Z</time>
      </trkpt>
      <trkpt lat="48.25394" lon="-2.88445">
        <ele>230</ele>
        <time>2019-04-22T09:19:23Z</time>
      </trkpt>
      <trkpt lat="48.25399" lon="-2.88443">
        <ele>230</ele>
        <time>2019-04-22T09:19:26Z</time>
      </trkpt>
      <trkpt lat="48.25404" lon="-2.8844">
        <ele>230</ele>
        <time>2019-04-22T09:19:30Z</time>
      </trkpt>
      <trkpt lat="48.2541" lon="-2.88437">
        <ele>230</ele>
        <time>2019-04-22T09:19:32Z</time>
      </trkpt>
      <trkpt lat="48.25415" lon="-2.88435">
        <ele>229</ele>
        <time>2019-04-22T09:19:34Z</time>
      </trkpt>
      <trkpt lat="48.25419" lon="-2.88429">
        <ele>229</ele>
        <time>2019-04-22T09:19:37Z</time>
      </trkpt>
      <trkpt lat="48.25423" lon="-2.88423">
        <ele>227</ele>
        <time>2019-04-22T09:19:42Z</time>
      </trkpt>
      <trkpt lat="48.25427" lon="-2.88419">
        <ele>227</ele>
        <time>2019-04-22T09:19:45Z</time>
      </trkpt>
      <trkpt lat="48.25431" lon="-2.88413">
        <ele>226</ele>
        <time>2019-04-22T09:19:48Z</time>
      </trkpt>
      <trkpt lat="48.25437" lon="-2.88409">
        <ele>226</ele>
        <time>2019-04-22T09:19:51Z</time>
      </trkpt>
      <trkpt lat="48.25443" lon="-2.88394">
        <ele>225</ele>
        <time>2019-04-22T09:19:58Z</time>
      </trkpt>
      <trkpt lat="48.25447" lon="-2.8839">
        <ele>225</ele>
        <time>2019-04-22T09:20:11Z</time>
      </trkpt>
      <trkpt lat="48.25452" lon="-2.88387">
        <ele>225</ele>
        <time>2019-04-22T09:20:14Z</time>
      </trkpt>
      <trkpt lat="48.25456" lon="-2.88382">
        <ele>226</ele>
        <time>2019-04-22T09:20:18Z</time>
      </trkpt>
      <trkpt lat="48.25469" lon="-2.88362">
        <ele>230</ele>
        <time>2019-04-22T09:20:46Z</time>
      </trkpt>
      <trkpt lat="48.25473" lon="-2.88354">
        <ele>230</ele>
        <time>2019-04-22T09:20:48Z</time>
      </trkpt>
      <trkpt lat="48.2548" lon="-2.88341">
        <ele>229</ele>
        <time>2019-04-22T09:20:53Z</time>
      </trkpt>
      <trkpt lat="48.25477" lon="-2.88335">
        <ele>228</ele>
        <time>2019-04-22T09:20:58Z</time>
      </trkpt>
      <trkpt lat="48.25465" lon="-2.88303">
        <ele>222</ele>
        <time>2019-04-22T09:21:17Z</time>
      </trkpt>
      <trkpt lat="48.25462" lon="-2.88299">
        <ele>220</ele>
        <time>2019-04-22T09:21:22Z</time>
      </trkpt>
      <trkpt lat="48.25458" lon="-2.88293">
        <ele>218</ele>
        <time>2019-04-22T09:21:32Z</time>
      </trkpt>
      <trkpt lat="48.25459" lon="-2.88286">
        <ele>217</ele>
        <time>2019-04-22T09:21:37Z</time>
      </trkpt>
      <trkpt lat="48.25478" lon="-2.8826">
        <ele>215</ele>
        <time>2019-04-22T09:21:46Z</time>
      </trkpt>
      <trkpt lat="48.25492" lon="-2.8825">
        <ele>213</ele>
        <time>2019-04-22T09:21:50Z</time>
      </trkpt>
      <trkpt lat="48.25515" lon="-2.88216">
        <ele>209</ele>
        <time>2019-04-22T09:21:57Z</time>
      </trkpt>
      <trkpt lat="48.25615" lon="-2.8815">
        <ele>204</ele>
        <time>2019-04-22T09:22:27Z</time>
      </trkpt>
      <trkpt lat="48.25623" lon="-2.88142">
        <ele>204</ele>
        <time>2019-04-22T09:22:29Z</time>
      </trkpt>
      <trkpt lat="48.25629" lon="-2.88134">
        <ele>204</ele>
        <time>2019-04-22T09:22:31Z</time>
      </trkpt>
      <trkpt lat="48.25638" lon="-2.88113">
        <ele>204</ele>
        <time>2019-04-22T09:22:38Z</time>
      </trkpt>
      <trkpt lat="48.25642" lon="-2.88107">
        <ele>203</ele>
        <time>2019-04-22T09:22:40Z</time>
      </trkpt>
      <trkpt lat="48.25648" lon="-2.88103">
        <ele>203</ele>
        <time>2019-04-22T09:22:42Z</time>
      </trkpt>
      <trkpt lat="48.25653" lon="-2.88097">
        <ele>203</ele>
        <time>2019-04-22T09:22:44Z</time>
      </trkpt>
      <trkpt lat="48.25667" lon="-2.88087">
        <ele>204</ele>
        <time>2019-04-22T09:22:48Z</time>
      </trkpt>
      <trkpt lat="48.25712" lon="-2.88065">
        <ele>205</ele>
        <time>2019-04-22T09:22:58Z</time>
      </trkpt>
      <trkpt lat="48.25734" lon="-2.88035">
        <ele>206</ele>
        <time>2019-04-22T09:23:06Z</time>
      </trkpt>
      <trkpt lat="48.25736" lon="-2.88028">
        <ele>207</ele>
        <time>2019-04-22T09:23:08Z</time>
      </trkpt>
      <trkpt lat="48.25738" lon="-2.88022">
        <ele>207</ele>
        <time>2019-04-22T09:23:11Z</time>
      </trkpt>
      <trkpt lat="48.25747" lon="-2.88001">
        <ele>206</ele>
        <time>2019-04-22T09:23:18Z</time>
      </trkpt>
      <trkpt lat="48.25768" lon="-2.87976">
        <ele>206</ele>
        <time>2019-04-22T09:23:29Z</time>
      </trkpt>
      <trkpt lat="48.25794" lon="-2.87923">
        <ele>205</ele>
        <time>2019-04-22T09:23:57Z</time>
      </trkpt>
      <trkpt lat="48.25797" lon="-2.87915">
        <ele>205</ele>
        <time>2019-04-22T09:24:00Z</time>
      </trkpt>
      <trkpt lat="48.25802" lon="-2.87894">
        <ele>207</ele>
        <time>2019-04-22T09:24:10Z</time>
      </trkpt>
      <trkpt lat="48.25806" lon="-2.87872">
        <ele>206</ele>
        <time>2019-04-22T09:24:20Z</time>
      </trkpt>
      <trkpt lat="48.25822" lon="-2.87832">
        <ele>199</ele>
        <time>2019-04-22T09:24:42Z</time>
      </trkpt>
      <trkpt lat="48.25826" lon="-2.87824">
        <ele>197</ele>
        <time>2019-04-22T09:24:46Z</time>
      </trkpt>
      <trkpt lat="48.2583" lon="-2.87821">
        <ele>196</ele>
        <time>2019-04-22T09:24:49Z</time>
      </trkpt>
      <trkpt lat="48.25852" lon="-2.87789">
        <ele>197</ele>
        <time>2019-04-22T09:25:08Z</time>
      </trkpt>
      <trkpt lat="48.25867" lon="-2.87777">
        <ele>198</ele>
        <time>2019-04-22T09:25:17Z</time>
      </trkpt>
      <trkpt lat="48.2587" lon="-2.8777">
        <ele>198</ele>
        <time>2019-04-22T09:25:21Z</time>
      </trkpt>
      <trkpt lat="48.25869" lon="-2.87762">
        <ele>199</ele>
        <time>2019-04-22T09:25:24Z</time>
      </trkpt>
      <trkpt lat="48.2587" lon="-2.87754">
        <ele>199</ele>
        <time>2019-04-22T09:25:28Z</time>
      </trkpt>
      <trkpt lat="48.2589" lon="-2.87727">
        <ele>198</ele>
        <time>2019-04-22T09:25:45Z</time>
      </trkpt>
      <trkpt lat="48.25898" lon="-2.87717">
        <ele>198</ele>
        <time>2019-04-22T09:25:53Z</time>
      </trkpt>
      <trkpt lat="48.25908" lon="-2.87701">
        <ele>198</ele>
        <time>2019-04-22T09:26:03Z</time>
      </trkpt>
      <trkpt lat="48.25916" lon="-2.87674">
        <ele>197</ele>
        <time>2019-04-22T09:26:16Z</time>
      </trkpt>
      <trkpt lat="48.25918" lon="-2.87665">
        <ele>196</ele>
        <time>2019-04-22T09:26:20Z</time>
      </trkpt>
      <trkpt lat="48.25946" lon="-2.87602">
        <ele>190</ele>
        <time>2019-04-22T09:26:51Z</time>
      </trkpt>
      <trkpt lat="48.25961" lon="-2.87573">
        <ele>188</ele>
        <time>2019-04-22T09:27:06Z</time>
      </trkpt>
      <trkpt lat="48.25968" lon="-2.87563">
        <ele>189</ele>
        <time>2019-04-22T09:27:15Z</time>
      </trkpt>
      <trkpt lat="48.25971" lon="-2.87556">
        <ele>188</ele>
        <time>2019-04-22T09:27:20Z</time>
      </trkpt>
      <trkpt lat="48.25979" lon="-2.87548">
        <ele>186</ele>
        <time>2019-04-22T09:27:26Z</time>
      </trkpt>
      <trkpt lat="48.25984" lon="-2.87546">
        <ele>186</ele>
        <time>2019-04-22T09:27:29Z</time>
      </trkpt>
      <trkpt lat="48.25989" lon="-2.87541">
        <ele>186</ele>
        <time>2019-04-22T09:27:33Z</time>
      </trkpt>
      <trkpt lat="48.25995" lon="-2.87538">
        <ele>186</ele>
        <time>2019-04-22T09:27:37Z</time>
      </trkpt>
      <trkpt lat="48.2601" lon="-2.8753">
        <ele>184</ele>
        <time>2019-04-22T09:27:48Z</time>
      </trkpt>
      <trkpt lat="48.26021" lon="-2.87526">
        <ele>183</ele>
        <time>2019-04-22T09:27:54Z</time>
      </trkpt>
      <trkpt lat="48.26027" lon="-2.87523">
        <ele>182</ele>
        <time>2019-04-22T09:27:57Z</time>
      </trkpt>
      <trkpt lat="48.26032" lon="-2.87521">
        <ele>182</ele>
        <time>2019-04-22T09:27:59Z</time>
      </trkpt>
      <trkpt lat="48.26047" lon="-2.87518">
        <ele>183</ele>
        <time>2019-04-22T09:28:11Z</time>
      </trkpt>
      <trkpt lat="48.26052" lon="-2.87516">
        <ele>183</ele>
        <time>2019-04-22T09:28:13Z</time>
      </trkpt>
      <trkpt lat="48.26075" lon="-2.87516">
        <ele>178</ele>
        <time>2019-04-22T09:28:21Z</time>
      </trkpt>
      <trkpt lat="48.26096" lon="-2.87514">
        <ele>178</ele>
        <time>2019-04-22T09:28:34Z</time>
      </trkpt>
      <trkpt lat="48.26107" lon="-2.87509">
        <ele>181</ele>
        <time>2019-04-22T09:28:42Z</time>
      </trkpt>
      <trkpt lat="48.26116" lon="-2.87501">
        <ele>183</ele>
        <time>2019-04-22T09:28:52Z</time>
      </trkpt>
      <trkpt lat="48.26122" lon="-2.87499">
        <ele>182</ele>
        <time>2019-04-22T09:28:55Z</time>
      </trkpt>
      <trkpt lat="48.26124" lon="-2.87495">
        <ele>181</ele>
        <time>2019-04-22T09:29:11Z</time>
      </trkpt>
      <trkpt lat="48.26125" lon="-2.87487">
        <ele>180</ele>
        <time>2019-04-22T09:29:14Z</time>
      </trkpt>
      <trkpt lat="48.26125" lon="-2.87479">
        <ele>179</ele>
        <time>2019-04-22T09:29:17Z</time>
      </trkpt>
      <trkpt lat="48.26128" lon="-2.87473">
        <ele>179</ele>
        <time>2019-04-22T09:29:20Z</time>
      </trkpt>
      <trkpt lat="48.26136" lon="-2.87465">
        <ele>180</ele>
        <time>2019-04-22T09:29:27Z</time>
      </trkpt>
      <trkpt lat="48.26179" lon="-2.8746">
        <ele>180</ele>
        <time>2019-04-22T09:29:50Z</time>
      </trkpt>
      <trkpt lat="48.26199" lon="-2.87451">
        <ele>182</ele>
        <time>2019-04-22T09:30:01Z</time>
      </trkpt>
      <trkpt lat="48.26208" lon="-2.87442">
        <ele>184</ele>
        <time>2019-04-22T09:30:08Z</time>
      </trkpt>
      <trkpt lat="48.26212" lon="-2.87437">
        <ele>185</ele>
        <time>2019-04-22T09:30:12Z</time>
      </trkpt>
      <trkpt lat="48.26212" lon="-2.87429">
        <ele>185</ele>
        <time>2019-04-22T09:30:16Z</time>
      </trkpt>
      <trkpt lat="48.26204" lon="-2.87351">
        <ele>180</ele>
        <time>2019-04-22T09:30:47Z</time>
      </trkpt>
      <trkpt lat="48.26202" lon="-2.87336">
        <ele>178</ele>
        <time>2019-04-22T09:30:55Z</time>
      </trkpt>
      <trkpt lat="48.26201" lon="-2.87328">
        <ele>178</ele>
        <time>2019-04-22T09:30:58Z</time>
      </trkpt>
      <trkpt lat="48.26199" lon="-2.87321">
        <ele>177</ele>
        <time>2019-04-22T09:31:01Z</time>
      </trkpt>
      <trkpt lat="48.26193" lon="-2.873">
        <ele>176</ele>
        <time>2019-04-22T09:31:11Z</time>
      </trkpt>
      <trkpt lat="48.26184" lon="-2.87273">
        <ele>167</ele>
        <time>2019-04-22T09:31:26Z</time>
      </trkpt>
      <trkpt lat="48.26182" lon="-2.87266">
        <ele>165</ele>
        <time>2019-04-22T09:31:29Z</time>
      </trkpt>
      <trkpt lat="48.26178" lon="-2.87259">
        <ele>165</ele>
        <time>2019-04-22T09:31:33Z</time>
      </trkpt>
      <trkpt lat="48.26176" lon="-2.87252">
        <ele>164</ele>
        <time>2019-04-22T09:31:36Z</time>
      </trkpt>
      <trkpt lat="48.2617" lon="-2.87239">
        <ele>164</ele>
        <time>2019-04-22T09:31:42Z</time>
      </trkpt>
      <trkpt lat="48.26168" lon="-2.87232">
        <ele>163</ele>
        <time>2019-04-22T09:31:45Z</time>
      </trkpt>
      <trkpt lat="48.2615" lon="-2.87167">
        <ele>157</ele>
        <time>2019-04-22T09:32:15Z</time>
      </trkpt>
      <trkpt lat="48.26145" lon="-2.87151">
        <ele>158</ele>
        <time>2019-04-22T09:32:21Z</time>
      </trkpt>
      <trkpt lat="48.26143" lon="-2.87143">
        <ele>158</ele>
        <time>2019-04-22T09:32:25Z</time>
      </trkpt>
      <trkpt lat="48.26146" lon="-2.87127">
        <ele>156</ele>
        <time>2019-04-22T09:32:34Z</time>
      </trkpt>
      <trkpt lat="48.26149" lon="-2.87122">
        <ele>155</ele>
        <time>2019-04-22T09:32:38Z</time>
      </trkpt>
      <trkpt lat="48.26154" lon="-2.87118">
        <ele>155</ele>
        <time>2019-04-22T09:32:41Z</time>
      </trkpt>
      <trkpt lat="48.26159" lon="-2.87113">
        <ele>155</ele>
        <time>2019-04-22T09:32:45Z</time>
      </trkpt>
      <trkpt lat="48.26169" lon="-2.87106">
        <ele>155</ele>
        <time>2019-04-22T09:32:51Z</time>
      </trkpt>
      <trkpt lat="48.26186" lon="-2.87085">
        <ele>154</ele>
        <time>2019-04-22T09:33:02Z</time>
      </trkpt>
      <trkpt lat="48.26194" lon="-2.87073">
        <ele>154</ele>
        <time>2019-04-22T09:33:09Z</time>
      </trkpt>
      <trkpt lat="48.26198" lon="-2.87058">
        <ele>154</ele>
        <time>2019-04-22T09:33:16Z</time>
      </trkpt>
      <trkpt lat="48.262" lon="-2.87051">
        <ele>153</ele>
        <time>2019-04-22T09:33:19Z</time>
      </trkpt>
      <trkpt lat="48.26202" lon="-2.87045">
        <ele>153</ele>
        <time>2019-04-22T09:33:22Z</time>
      </trkpt>
      <trkpt lat="48.26219" lon="-2.87007">
        <ele>156</ele>
        <time>2019-04-22T09:33:40Z</time>
      </trkpt>
      <trkpt lat="48.26227" lon="-2.86995">
        <ele>155</ele>
        <time>2019-04-22T09:33:47Z</time>
      </trkpt>
      <trkpt lat="48.26235" lon="-2.86956">
        <ele>156</ele>
        <time>2019-04-22T09:34:03Z</time>
      </trkpt>
      <trkpt lat="48.26238" lon="-2.86941">
        <ele>157</ele>
        <time>2019-04-22T09:34:10Z</time>
      </trkpt>
      <trkpt lat="48.26241" lon="-2.86924">
        <ele>156</ele>
        <time>2019-04-22T09:34:17Z</time>
      </trkpt>
      <trkpt lat="48.26246" lon="-2.86901">
        <ele>153</ele>
        <time>2019-04-22T09:34:27Z</time>
      </trkpt>
      <trkpt lat="48.26249" lon="-2.86893">
        <ele>151</ele>
        <time>2019-04-22T09:34:31Z</time>
      </trkpt>
      <trkpt lat="48.26252" lon="-2.86871">
        <ele>150</ele>
        <time>2019-04-22T09:34:41Z</time>
      </trkpt>
      <trkpt lat="48.26252" lon="-2.86863">
        <ele>152</ele>
        <time>2019-04-22T09:34:45Z</time>
      </trkpt>
      <trkpt lat="48.26254" lon="-2.86855">
        <ele>152</ele>
        <time>2019-04-22T09:34:48Z</time>
      </trkpt>
      <trkpt lat="48.26258" lon="-2.86842">
        <ele>154</ele>
        <time>2019-04-22T09:34:54Z</time>
      </trkpt>
      <trkpt lat="48.26258" lon="-2.86836">
        <ele>154</ele>
        <time>2019-04-22T09:34:58Z</time>
      </trkpt>
      <trkpt lat="48.26253" lon="-2.86834">
        <ele>154</ele>
        <time>2019-04-22T09:35:03Z</time>
      </trkpt>
      <trkpt lat="48.26247" lon="-2.86836">
        <ele>155</ele>
        <time>2019-04-22T09:35:07Z</time>
      </trkpt>
      <trkpt lat="48.26243" lon="-2.86842">
        <ele>155</ele>
        <time>2019-04-22T09:35:10Z</time>
      </trkpt>
      <trkpt lat="48.26235" lon="-2.86864">
        <ele>152</ele>
        <time>2019-04-22T09:35:17Z</time>
      </trkpt>
      <trkpt lat="48.26232" lon="-2.8687">
        <ele>151</ele>
        <time>2019-04-22T09:35:19Z</time>
      </trkpt>
      <trkpt lat="48.26224" lon="-2.86886">
        <ele>151</ele>
        <time>2019-04-22T09:35:23Z</time>
      </trkpt>
      <trkpt lat="48.26192" lon="-2.86923">
        <ele>151</ele>
        <time>2019-04-22T09:35:33Z</time>
      </trkpt>
      <trkpt lat="48.26184" lon="-2.86935">
        <ele>151</ele>
        <time>2019-04-22T09:35:37Z</time>
      </trkpt>
      <trkpt lat="48.26158" lon="-2.87011">
        <ele>148</ele>
        <time>2019-04-22T09:35:52Z</time>
      </trkpt>
      <trkpt lat="48.26155" lon="-2.87016">
        <ele>148</ele>
        <time>2019-04-22T09:35:53Z</time>
      </trkpt>
      <trkpt lat="48.2611" lon="-2.87052">
        <ele>148</ele>
        <time>2019-04-22T09:36:09Z</time>
      </trkpt>
      <trkpt lat="48.26104" lon="-2.87054">
        <ele>147</ele>
        <time>2019-04-22T09:36:11Z</time>
      </trkpt>
      <trkpt lat="48.26098" lon="-2.87053">
        <ele>147</ele>
        <time>2019-04-22T09:36:14Z</time>
      </trkpt>
      <trkpt lat="48.26091" lon="-2.8705">
        <ele>146</ele>
        <time>2019-04-22T09:36:17Z</time>
      </trkpt>
      <trkpt lat="48.2608" lon="-2.87046">
        <ele>147</ele>
        <time>2019-04-22T09:36:23Z</time>
      </trkpt>
      <trkpt lat="48.26075" lon="-2.87046">
        <ele>147</ele>
        <time>2019-04-22T09:36:25Z</time>
      </trkpt>
      <trkpt lat="48.26067" lon="-2.87047">
        <ele>148</ele>
        <time>2019-04-22T09:36:27Z</time>
      </trkpt>
      <trkpt lat="48.25979" lon="-2.871">
        <ele>149</ele>
        <time>2019-04-22T09:36:53Z</time>
      </trkpt>
      <trkpt lat="48.25974" lon="-2.87105">
        <ele>149</ele>
        <time>2019-04-22T09:36:55Z</time>
      </trkpt>
      <trkpt lat="48.25968" lon="-2.87109">
        <ele>149</ele>
        <time>2019-04-22T09:36:57Z</time>
      </trkpt>
      <trkpt lat="48.2595" lon="-2.87117">
        <ele>150</ele>
        <time>2019-04-22T09:37:03Z</time>
      </trkpt>
      <trkpt lat="48.25926" lon="-2.87119">
        <ele>151</ele>
        <time>2019-04-22T09:37:09Z</time>
      </trkpt>
      <trkpt lat="48.25894" lon="-2.87123">
        <ele>151</ele>
        <time>2019-04-22T09:37:17Z</time>
      </trkpt>
      <trkpt lat="48.25876" lon="-2.8713">
        <ele>152</ele>
        <time>2019-04-22T09:37:23Z</time>
      </trkpt>
      <trkpt lat="48.25864" lon="-2.87132">
        <ele>152</ele>
        <time>2019-04-22T09:37:28Z</time>
      </trkpt>
      <trkpt lat="48.2586" lon="-2.87133">
        <ele>152</ele>
        <time>2019-04-22T09:37:30Z</time>
      </trkpt>
      <trkpt lat="48.25815" lon="-2.87129">
        <ele>151</ele>
        <time>2019-04-22T09:37:57Z</time>
      </trkpt>
      <trkpt lat="48.258" lon="-2.87136">
        <ele>153</ele>
        <time>2019-04-22T09:38:09Z</time>
      </trkpt>
      <trkpt lat="48.25734" lon="-2.87147">
        <ele>154</ele>
        <time>2019-04-22T09:38:32Z</time>
      </trkpt>
      <trkpt lat="48.25714" lon="-2.87159">
        <ele>154</ele>
        <time>2019-04-22T09:38:44Z</time>
      </trkpt>
      <trkpt lat="48.25708" lon="-2.87163">
        <ele>153</ele>
        <time>2019-04-22T09:38:49Z</time>
      </trkpt>
      <trkpt lat="48.25702" lon="-2.87167">
        <ele>153</ele>
        <time>2019-04-22T09:38:51Z</time>
      </trkpt>
      <trkpt lat="48.25697" lon="-2.87169">
        <ele>153</ele>
        <time>2019-04-22T09:38:53Z</time>
      </trkpt>
      <trkpt lat="48.25675" lon="-2.87159">
        <ele>152</ele>
        <time>2019-04-22T09:39:02Z</time>
      </trkpt>
      <trkpt lat="48.25652" lon="-2.87148">
        <ele>152</ele>
        <time>2019-04-22T09:39:08Z</time>
      </trkpt>
      <trkpt lat="48.25574" lon="-2.87137">
        <ele>153</ele>
        <time>2019-04-22T09:39:26Z</time>
      </trkpt>
      <trkpt lat="48.2556" lon="-2.87127">
        <ele>153</ele>
        <time>2019-04-22T09:39:30Z</time>
      </trkpt>
      <trkpt lat="48.25554" lon="-2.87121">
        <ele>151</ele>
        <time>2019-04-22T09:39:32Z</time>
      </trkpt>
      <trkpt lat="48.25523" lon="-2.87088">
        <ele>147</ele>
        <time>2019-04-22T09:39:42Z</time>
      </trkpt>
      <trkpt lat="48.25503" lon="-2.87067">
        <ele>148</ele>
        <time>2019-04-22T09:39:47Z</time>
      </trkpt>
      <trkpt lat="48.2547" lon="-2.87053">
        <ele>148</ele>
        <time>2019-04-22T09:39:56Z</time>
      </trkpt>
      <trkpt lat="48.25463" lon="-2.87049">
        <ele>148</ele>
        <time>2019-04-22T09:39:58Z</time>
      </trkpt>
      <trkpt lat="48.25434" lon="-2.87038">
        <ele>148</ele>
        <time>2019-04-22T09:40:06Z</time>
      </trkpt>
      <trkpt lat="48.25414" lon="-2.87026">
        <ele>145</ele>
        <time>2019-04-22T09:40:11Z</time>
      </trkpt>
      <trkpt lat="48.25396" lon="-2.87021">
        <ele>146</ele>
        <time>2019-04-22T09:40:15Z</time>
      </trkpt>
      <trkpt lat="48.25345" lon="-2.87039">
        <ele>145</ele>
        <time>2019-04-22T09:40:28Z</time>
      </trkpt>
      <trkpt lat="48.25307" lon="-2.87075">
        <ele>143</ele>
        <time>2019-04-22T09:40:40Z</time>
      </trkpt>
      <trkpt lat="48.25293" lon="-2.87086">
        <ele>144</ele>
        <time>2019-04-22T09:40:44Z</time>
      </trkpt>
      <trkpt lat="48.25273" lon="-2.87113">
        <ele>146</ele>
        <time>2019-04-22T09:40:50Z</time>
      </trkpt>
      <trkpt lat="48.25254" lon="-2.8715">
        <ele>146</ele>
        <time>2019-04-22T09:40:58Z</time>
      </trkpt>
      <trkpt lat="48.25248" lon="-2.87159">
        <ele>146</ele>
        <time>2019-04-22T09:41:00Z</time>
      </trkpt>
      <trkpt lat="48.25241" lon="-2.87167">
        <ele>146</ele>
        <time>2019-04-22T09:41:02Z</time>
      </trkpt>
      <trkpt lat="48.25234" lon="-2.87172">
        <ele>146</ele>
        <time>2019-04-22T09:41:04Z</time>
      </trkpt>
      <trkpt lat="48.25215" lon="-2.87172">
        <ele>148</ele>
        <time>2019-04-22T09:41:10Z</time>
      </trkpt>
      <trkpt lat="48.25161" lon="-2.87148">
        <ele>151</ele>
        <time>2019-04-22T09:41:26Z</time>
      </trkpt>
      <trkpt lat="48.25125" lon="-2.87119">
        <ele>152</ele>
        <time>2019-04-22T09:41:36Z</time>
      </trkpt>
      <trkpt lat="48.25118" lon="-2.87115">
        <ele>152</ele>
        <time>2019-04-22T09:41:38Z</time>
      </trkpt>
      <trkpt lat="48.25111" lon="-2.87113">
        <ele>152</ele>
        <time>2019-04-22T09:41:40Z</time>
      </trkpt>
      <trkpt lat="48.25106" lon="-2.87111">
        <ele>153</ele>
        <time>2019-04-22T09:41:42Z</time>
      </trkpt>
      <trkpt lat="48.25099" lon="-2.8711">
        <ele>153</ele>
        <time>2019-04-22T09:41:44Z</time>
      </trkpt>
      <trkpt lat="48.25092" lon="-2.87111">
        <ele>153</ele>
        <time>2019-04-22T09:41:46Z</time>
      </trkpt>
      <trkpt lat="48.25086" lon="-2.87113">
        <ele>153</ele>
        <time>2019-04-22T09:41:48Z</time>
      </trkpt>
      <trkpt lat="48.25075" lon="-2.87118">
        <ele>153</ele>
        <time>2019-04-22T09:41:52Z</time>
      </trkpt>
      <trkpt lat="48.2507" lon="-2.87117">
        <ele>153</ele>
        <time>2019-04-22T09:41:58Z</time>
      </trkpt>
      <trkpt lat="48.25067" lon="-2.87111">
        <ele>153</ele>
        <time>2019-04-22T09:42:02Z</time>
      </trkpt>
      <trkpt lat="48.25063" lon="-2.87107">
        <ele>154</ele>
        <time>2019-04-22T09:42:06Z</time>
      </trkpt>
      <trkpt lat="48.25062" lon="-2.87097">
        <ele>154</ele>
        <time>2019-04-22T09:42:10Z</time>
      </trkpt>
      <trkpt lat="48.25073" lon="-2.87033">
        <ele>151</ele>
        <time>2019-04-22T09:42:35Z</time>
      </trkpt>
      <trkpt lat="48.25078" lon="-2.86969">
        <ele>140</ele>
        <time>2019-04-22T09:43:05Z</time>
      </trkpt>
      <trkpt lat="48.25079" lon="-2.86899">
        <ele>133</ele>
        <time>2019-04-22T09:43:35Z</time>
      </trkpt>
      <trkpt lat="48.25078" lon="-2.86877">
        <ele>132</ele>
        <time>2019-04-22T09:43:44Z</time>
      </trkpt>
      <trkpt lat="48.25074" lon="-2.86818">
        <ele>128</ele>
        <time>2019-04-22T09:44:08Z</time>
      </trkpt>
      <trkpt lat="48.25071" lon="-2.8675">
        <ele>123</ele>
        <time>2019-04-22T09:44:39Z</time>
      </trkpt>
      <trkpt lat="48.25068" lon="-2.86681">
        <ele>116</ele>
        <time>2019-04-22T09:45:09Z</time>
      </trkpt>
      <trkpt lat="48.25065" lon="-2.86622">
        <ele>115</ele>
        <time>2019-04-22T09:45:34Z</time>
      </trkpt>
      <trkpt lat="48.25063" lon="-2.86615">
        <ele>115</ele>
        <time>2019-04-22T09:45:37Z</time>
      </trkpt>
      <trkpt lat="48.2505" lon="-2.86587">
        <ele>118</ele>
        <time>2019-04-22T09:45:49Z</time>
      </trkpt>
      <trkpt lat="48.25039" lon="-2.8655">
        <ele>117</ele>
        <time>2019-04-22T09:46:08Z</time>
      </trkpt>
      <trkpt lat="48.25039" lon="-2.86543">
        <ele>116</ele>
        <time>2019-04-22T09:46:12Z</time>
      </trkpt>
      <trkpt lat="48.25039" lon="-2.86524">
        <ele>115</ele>
        <time>2019-04-22T09:46:19Z</time>
      </trkpt>
      <trkpt lat="48.2504" lon="-2.86517">
        <ele>114</ele>
        <time>2019-04-22T09:46:22Z</time>
      </trkpt>
      <trkpt lat="48.25042" lon="-2.86509">
        <ele>114</ele>
        <time>2019-04-22T09:46:25Z</time>
      </trkpt>
      <trkpt lat="48.25044" lon="-2.86502">
        <ele>114</ele>
        <time>2019-04-22T09:46:28Z</time>
      </trkpt>
      <trkpt lat="48.25048" lon="-2.86484">
        <ele>114</ele>
        <time>2019-04-22T09:46:35Z</time>
      </trkpt>
      <trkpt lat="48.25043" lon="-2.86444">
        <ele>111</ele>
        <time>2019-04-22T09:46:53Z</time>
      </trkpt>
      <trkpt lat="48.25047" lon="-2.86424">
        <ele>112</ele>
        <time>2019-04-22T09:47:02Z</time>
      </trkpt>
      <trkpt lat="48.25049" lon="-2.86418">
        <ele>113</ele>
        <time>2019-04-22T09:47:05Z</time>
      </trkpt>
      <trkpt lat="48.2505" lon="-2.86409">
        <ele>113</ele>
        <time>2019-04-22T09:47:08Z</time>
      </trkpt>
      <trkpt lat="48.2505" lon="-2.86401">
        <ele>114</ele>
        <time>2019-04-22T09:47:11Z</time>
      </trkpt>
      <trkpt lat="48.25052" lon="-2.86379">
        <ele>113</ele>
        <time>2019-04-22T09:47:18Z</time>
      </trkpt>
      <trkpt lat="48.25053" lon="-2.86371">
        <ele>113</ele>
        <time>2019-04-22T09:47:20Z</time>
      </trkpt>
      <trkpt lat="48.25054" lon="-2.86362">
        <ele>113</ele>
        <time>2019-04-22T09:47:22Z</time>
      </trkpt>
      <trkpt lat="48.25073" lon="-2.86299">
        <ele>111</ele>
        <time>2019-04-22T09:47:32Z</time>
      </trkpt>
      <trkpt lat="48.2509" lon="-2.8618">
        <ele>104</ele>
        <time>2019-04-22T09:47:48Z</time>
      </trkpt>
      <trkpt lat="48.25091" lon="-2.8617">
        <ele>103</ele>
        <time>2019-04-22T09:47:50Z</time>
      </trkpt>
      <trkpt lat="48.25077" lon="-2.86134">
        <ele>100</ele>
        <time>2019-04-22T09:47:56Z</time>
      </trkpt>
      <trkpt lat="48.25072" lon="-2.86104">
        <ele>99</ele>
        <time>2019-04-22T09:48:01Z</time>
      </trkpt>
      <trkpt lat="48.25072" lon="-2.86071">
        <ele>100</ele>
        <time>2019-04-22T09:48:07Z</time>
      </trkpt>
      <trkpt lat="48.25071" lon="-2.86062">
        <ele>100</ele>
        <time>2019-04-22T09:48:10Z</time>
      </trkpt>
      <trkpt lat="48.25067" lon="-2.86055">
        <ele>101</ele>
        <time>2019-04-22T09:48:12Z</time>
      </trkpt>
      <trkpt lat="48.25062" lon="-2.86048">
        <ele>104</ele>
        <time>2019-04-22T09:48:13Z</time>
      </trkpt>
      <trkpt lat="48.25055" lon="-2.86044">
        <ele>106</ele>
        <time>2019-04-22T09:48:14Z</time>
      </trkpt>
      <trkpt lat="48.25011" lon="-2.86061">
        <ele>114</ele>
        <time>2019-04-22T09:48:22Z</time>
      </trkpt>
      <trkpt lat="48.24978" lon="-2.86072">
        <ele>116</ele>
        <time>2019-04-22T09:48:29Z</time>
      </trkpt>
      <trkpt lat="48.24974" lon="-2.86075">
        <ele>116</ele>
        <time>2019-04-22T09:48:30Z</time>
      </trkpt>
      <trkpt lat="48.24926" lon="-2.86147">
        <ele>114</ele>
        <time>2019-04-22T09:48:44Z</time>
      </trkpt>
      <trkpt lat="48.24911" lon="-2.86154">
        <ele>115</ele>
        <time>2019-04-22T09:48:48Z</time>
      </trkpt>
      <trkpt lat="48.24883" lon="-2.86149">
        <ele>113</ele>
        <time>2019-04-22T09:48:56Z</time>
      </trkpt>
      <trkpt lat="48.24876" lon="-2.86145">
        <ele>113</ele>
        <time>2019-04-22T09:48:58Z</time>
      </trkpt>
      <trkpt lat="48.24869" lon="-2.86144">
        <ele>112</ele>
        <time>2019-04-22T09:49:00Z</time>
      </trkpt>
      <trkpt lat="48.24863" lon="-2.86148">
        <ele>113</ele>
        <time>2019-04-22T09:49:02Z</time>
      </trkpt>
      <trkpt lat="48.24842" lon="-2.86181">
        <ele>114</ele>
        <time>2019-04-22T09:49:09Z</time>
      </trkpt>
      <trkpt lat="48.24825" lon="-2.86199">
        <ele>116</ele>
        <time>2019-04-22T09:49:15Z</time>
      </trkpt>
      <trkpt lat="48.24818" lon="-2.86211">
        <ele>118</ele>
        <time>2019-04-22T09:49:19Z</time>
      </trkpt>
      <trkpt lat="48.24813" lon="-2.86217">
        <ele>118</ele>
        <time>2019-04-22T09:49:25Z</time>
      </trkpt>
      <trkpt lat="48.2481" lon="-2.86223">
        <ele>119</ele>
        <time>2019-04-22T09:49:46Z</time>
      </trkpt>
      <trkpt lat="48.24798" lon="-2.86224">
        <ele>117</ele>
        <time>2019-04-22T09:49:52Z</time>
      </trkpt>
      <trkpt lat="48.24797" lon="-2.86231">
        <ele>115</ele>
        <time>2019-04-22T09:50:00Z</time>
      </trkpt>
      <trkpt lat="48.24841" lon="-2.86337">
        <ele>116</ele>
        <time>2019-04-22T09:50:25Z</time>
      </trkpt>
      <trkpt lat="48.24854" lon="-2.8638">
        <ele>118</ele>
        <time>2019-04-22T09:50:35Z</time>
      </trkpt>
      <trkpt lat="48.24898" lon="-2.86448">
        <ele>115</ele>
        <time>2019-04-22T09:50:53Z</time>
      </trkpt>
      <trkpt lat="48.25004" lon="-2.86547">
        <ele>118</ele>
        <time>2019-04-22T09:51:24Z</time>
      </trkpt>
      <trkpt lat="48.25042" lon="-2.86584">
        <ele>123</ele>
        <time>2019-04-22T09:51:45Z</time>
      </trkpt>
      <trkpt lat="48.25051" lon="-2.86592">
        <ele>124</ele>
        <time>2019-04-22T09:52:29Z</time>
      </trkpt>
      <trkpt lat="48.25056" lon="-2.86595">
        <ele>124</ele>
        <time>2019-04-22T09:52:47Z</time>
      </trkpt>
      <trkpt lat="48.25059" lon="-2.86601">
        <ele>124</ele>
        <time>2019-04-22T09:52:51Z</time>
      </trkpt>
      <trkpt lat="48.25065" lon="-2.86656">
        <ele>122</ele>
        <time>2019-04-22T09:53:18Z</time>
      </trkpt>
      <trkpt lat="48.25065" lon="-2.86664">
        <ele>122</ele>
        <time>2019-04-22T09:53:22Z</time>
      </trkpt>
      <trkpt lat="48.25065" lon="-2.86704">
        <ele>120</ele>
        <time>2019-04-22T09:53:38Z</time>
      </trkpt>
      <trkpt lat="48.25065" lon="-2.86711">
        <ele>120</ele>
        <time>2019-04-22T09:53:41Z</time>
      </trkpt>
      <trkpt lat="48.25071" lon="-2.86773">
        <ele>125</ele>
        <time>2019-04-22T09:54:07Z</time>
      </trkpt>
      <trkpt lat="48.25072" lon="-2.86788">
        <ele>128</ele>
        <time>2019-04-22T09:54:13Z</time>
      </trkpt>
      <trkpt lat="48.25074" lon="-2.86828">
        <ele>131</ele>
        <time>2019-04-22T09:54:26Z</time>
      </trkpt>
      <trkpt lat="48.25075" lon="-2.86842">
        <ele>132</ele>
        <time>2019-04-22T09:54:31Z</time>
      </trkpt>
      <trkpt lat="48.25076" lon="-2.86856">
        <ele>134</ele>
        <time>2019-04-22T09:54:39Z</time>
      </trkpt>
      <trkpt lat="48.25074" lon="-2.8685">
        <ele>134</ele>
        <time>2019-04-22T09:55:00Z</time>
      </trkpt>
      <trkpt lat="48.25074" lon="-2.86842">
        <ele>135</ele>
        <time>2019-04-22T09:55:17Z</time>
      </trkpt>
      <trkpt lat="48.25077" lon="-2.86835">
        <ele>134</ele>
        <time>2019-04-22T09:55:22Z</time>
      </trkpt>
      <trkpt lat="48.25076" lon="-2.86827">
        <ele>133</ele>
        <time>2019-04-22T09:55:25Z</time>
      </trkpt>
      <trkpt lat="48.25077" lon="-2.86812">
        <ele>131</ele>
        <time>2019-04-22T09:55:32Z</time>
      </trkpt>
      <trkpt lat="48.25077" lon="-2.86797">
        <ele>128</ele>
        <time>2019-04-22T09:55:39Z</time>
      </trkpt>
      <trkpt lat="48.25077" lon="-2.8679">
        <ele>127</ele>
        <time>2019-04-22T09:55:43Z</time>
      </trkpt>
      <trkpt lat="48.25072" lon="-2.86736">
        <ele>123</ele>
        <time>2019-04-22T09:56:13Z</time>
      </trkpt>
      <trkpt lat="48.2507" lon="-2.86695">
        <ele>120</ele>
        <time>2019-04-22T09:56:28Z</time>
      </trkpt>
      <trkpt lat="48.25068" lon="-2.86685">
        <ele>120</ele>
        <time>2019-04-22T09:56:30Z</time>
      </trkpt>
      <trkpt lat="48.25065" lon="-2.86626">
        <ele>118</ele>
        <time>2019-04-22T09:56:42Z</time>
      </trkpt>
      <trkpt lat="48.25063" lon="-2.86616">
        <ele>117</ele>
        <time>2019-04-22T09:56:44Z</time>
      </trkpt>
      <trkpt lat="48.25054" lon="-2.86597">
        <ele>117</ele>
        <time>2019-04-22T09:56:48Z</time>
      </trkpt>
      <trkpt lat="48.24919" lon="-2.86483">
        <ele>111</ele>
        <time>2019-04-22T09:57:18Z</time>
      </trkpt>
      <trkpt lat="48.24899" lon="-2.86464">
        <ele>111</ele>
        <time>2019-04-22T09:57:23Z</time>
      </trkpt>
      <trkpt lat="48.24869" lon="-2.8641">
        <ele>109</ele>
        <time>2019-04-22T09:57:34Z</time>
      </trkpt>
      <trkpt lat="48.24865" lon="-2.86405">
        <ele>108</ele>
        <time>2019-04-22T09:57:36Z</time>
      </trkpt>
      <trkpt lat="48.2486" lon="-2.86401">
        <ele>108</ele>
        <time>2019-04-22T09:57:38Z</time>
      </trkpt>
      <trkpt lat="48.2486" lon="-2.86412">
        <ele>108</ele>
        <time>2019-04-22T09:57:42Z</time>
      </trkpt>
      <trkpt lat="48.24915" lon="-2.8651">
        <ele>108</ele>
        <time>2019-04-22T09:57:58Z</time>
      </trkpt>
      <trkpt lat="48.24917" lon="-2.86523">
        <ele>109</ele>
        <time>2019-04-22T09:58:00Z</time>
      </trkpt>
      <trkpt lat="48.24861" lon="-2.86756">
        <ele>119</ele>
        <time>2019-04-22T09:58:31Z</time>
      </trkpt>
      <trkpt lat="48.24858" lon="-2.86769">
        <ele>121</ele>
        <time>2019-04-22T09:58:36Z</time>
      </trkpt>
      <trkpt lat="48.24858" lon="-2.86776">
        <ele>122</ele>
        <time>2019-04-22T09:58:52Z</time>
      </trkpt>
      <trkpt lat="48.2486" lon="-2.86784">
        <ele>124</ele>
        <time>2019-04-22T09:58:55Z</time>
      </trkpt>
      <trkpt lat="48.24863" lon="-2.8679">
        <ele>125</ele>
        <time>2019-04-22T09:59:01Z</time>
      </trkpt>
      <trkpt lat="48.24865" lon="-2.86798">
        <ele>125</ele>
        <time>2019-04-22T09:59:26Z</time>
      </trkpt>
      <trkpt lat="48.24865" lon="-2.86805">
        <ele>125</ele>
        <time>2019-04-22T09:59:29Z</time>
      </trkpt>
      <trkpt lat="48.24863" lon="-2.86813">
        <ele>124</ele>
        <time>2019-04-22T09:59:32Z</time>
      </trkpt>
      <trkpt lat="48.24855" lon="-2.86873">
        <ele>122</ele>
        <time>2019-04-22T09:59:47Z</time>
      </trkpt>
      <trkpt lat="48.24847" lon="-2.86894">
        <ele>120</ele>
        <time>2019-04-22T09:59:50Z</time>
      </trkpt>
      <trkpt lat="48.24827" lon="-2.86938">
        <ele>118</ele>
        <time>2019-04-22T09:59:57Z</time>
      </trkpt>
      <trkpt lat="48.24817" lon="-2.86972">
        <ele>117</ele>
        <time>2019-04-22T10:00:18Z</time>
      </trkpt>
      <trkpt lat="48.24816" lon="-2.86987">
        <ele>119</ele>
        <time>2019-04-22T10:00:26Z</time>
      </trkpt>
      <trkpt lat="48.24814" lon="-2.87008">
        <ele>121</ele>
        <time>2019-04-22T10:00:36Z</time>
      </trkpt>
      <trkpt lat="48.24812" lon="-2.87015">
        <ele>122</ele>
        <time>2019-04-22T10:00:38Z</time>
      </trkpt>
      <trkpt lat="48.24811" lon="-2.87022">
        <ele>122</ele>
        <time>2019-04-22T10:00:41Z</time>
      </trkpt>
      <trkpt lat="48.2481" lon="-2.87029">
        <ele>125</ele>
        <time>2019-04-22T10:00:45Z</time>
      </trkpt>
      <trkpt lat="48.24812" lon="-2.87037">
        <ele>126</ele>
        <time>2019-04-22T10:00:49Z</time>
      </trkpt>
      <trkpt lat="48.24811" lon="-2.87045">
        <ele>127</ele>
        <time>2019-04-22T10:00:52Z</time>
      </trkpt>
      <trkpt lat="48.2481" lon="-2.87054">
        <ele>127</ele>
        <time>2019-04-22T10:00:55Z</time>
      </trkpt>
      <trkpt lat="48.24812" lon="-2.8706">
        <ele>127</ele>
        <time>2019-04-22T10:00:57Z</time>
      </trkpt>
      <trkpt lat="48.24814" lon="-2.87067">
        <ele>127</ele>
        <time>2019-04-22T10:01:00Z</time>
      </trkpt>
      <trkpt lat="48.24814" lon="-2.87078">
        <ele>128</ele>
        <time>2019-04-22T10:01:04Z</time>
      </trkpt>
      <trkpt lat="48.24818" lon="-2.87092">
        <ele>128</ele>
        <time>2019-04-22T10:01:08Z</time>
      </trkpt>
      <trkpt lat="48.24824" lon="-2.87105">
        <ele>127</ele>
        <time>2019-04-22T10:01:13Z</time>
      </trkpt>
      <trkpt lat="48.24826" lon="-2.87112">
        <ele>127</ele>
        <time>2019-04-22T10:01:16Z</time>
      </trkpt>
      <trkpt lat="48.2483" lon="-2.87119">
        <ele>126</ele>
        <time>2019-04-22T10:01:18Z</time>
      </trkpt>
      <trkpt lat="48.24834" lon="-2.87125">
        <ele>125</ele>
        <time>2019-04-22T10:01:20Z</time>
      </trkpt>
      <trkpt lat="48.24839" lon="-2.8713">
        <ele>124</ele>
        <time>2019-04-22T10:01:22Z</time>
      </trkpt>
      <trkpt lat="48.2485" lon="-2.87142">
        <ele>124</ele>
        <time>2019-04-22T10:01:27Z</time>
      </trkpt>
      <trkpt lat="48.24854" lon="-2.87146">
        <ele>124</ele>
        <time>2019-04-22T10:01:29Z</time>
      </trkpt>
      <trkpt lat="48.24861" lon="-2.87157">
        <ele>124</ele>
        <time>2019-04-22T10:01:39Z</time>
      </trkpt>
      <trkpt lat="48.24866" lon="-2.87165">
        <ele>124</ele>
        <time>2019-04-22T10:01:42Z</time>
      </trkpt>
      <trkpt lat="48.24879" lon="-2.87187">
        <ele>126</ele>
        <time>2019-04-22T10:01:53Z</time>
      </trkpt>
      <trkpt lat="48.24883" lon="-2.87202">
        <ele>129</ele>
        <time>2019-04-22T10:02:01Z</time>
      </trkpt>
      <trkpt lat="48.24888" lon="-2.87209">
        <ele>131</ele>
        <time>2019-04-22T10:02:05Z</time>
      </trkpt>
      <trkpt lat="48.24889" lon="-2.87217">
        <ele>132</ele>
        <time>2019-04-22T10:02:09Z</time>
      </trkpt>
      <trkpt lat="48.24889" lon="-2.87227">
        <ele>133</ele>
        <time>2019-04-22T10:02:11Z</time>
      </trkpt>
      <trkpt lat="48.24897" lon="-2.87241">
        <ele>137</ele>
        <time>2019-04-22T10:02:17Z</time>
      </trkpt>
      <trkpt lat="48.24899" lon="-2.87248">
        <ele>140</ele>
        <time>2019-04-22T10:02:22Z</time>
      </trkpt>
      <trkpt lat="48.24902" lon="-2.87264">
        <ele>142</ele>
        <time>2019-04-22T10:02:29Z</time>
      </trkpt>
      <trkpt lat="48.24907" lon="-2.87271">
        <ele>143</ele>
        <time>2019-04-22T10:02:32Z</time>
      </trkpt>
      <trkpt lat="48.24921" lon="-2.87284">
        <ele>145</ele>
        <time>2019-04-22T10:02:41Z</time>
      </trkpt>
      <trkpt lat="48.24928" lon="-2.87296">
        <ele>146</ele>
        <time>2019-04-22T10:02:50Z</time>
      </trkpt>
      <trkpt lat="48.24945" lon="-2.87315">
        <ele>143</ele>
        <time>2019-04-22T10:03:04Z</time>
      </trkpt>
      <trkpt lat="48.24948" lon="-2.87321">
        <ele>142</ele>
        <time>2019-04-22T10:03:08Z</time>
      </trkpt>
      <trkpt lat="48.24959" lon="-2.87325">
        <ele>141</ele>
        <time>2019-04-22T10:03:16Z</time>
      </trkpt>
      <trkpt lat="48.24964" lon="-2.87329">
        <ele>140</ele>
        <time>2019-04-22T10:03:20Z</time>
      </trkpt>
      <trkpt lat="48.24976" lon="-2.87332">
        <ele>141</ele>
        <time>2019-04-22T10:03:28Z</time>
      </trkpt>
      <trkpt lat="48.24991" lon="-2.87338">
        <ele>142</ele>
        <time>2019-04-22T10:03:37Z</time>
      </trkpt>
      <trkpt lat="48.25007" lon="-2.8734">
        <ele>140</ele>
        <time>2019-04-22T10:03:48Z</time>
      </trkpt>
      <trkpt lat="48.25016" lon="-2.87346">
        <ele>139</ele>
        <time>2019-04-22T10:03:56Z</time>
      </trkpt>
      <trkpt lat="48.25023" lon="-2.87358">
        <ele>140</ele>
        <time>2019-04-22T10:04:03Z</time>
      </trkpt>
      <trkpt lat="48.25024" lon="-2.87366">
        <ele>142</ele>
        <time>2019-04-22T10:04:06Z</time>
      </trkpt>
      <trkpt lat="48.25022" lon="-2.8738">
        <ele>143</ele>
        <time>2019-04-22T10:04:12Z</time>
      </trkpt>
      <trkpt lat="48.2502" lon="-2.87404">
        <ele>145</ele>
        <time>2019-04-22T10:04:23Z</time>
      </trkpt>
      <trkpt lat="48.25017" lon="-2.87417">
        <ele>146</ele>
        <time>2019-04-22T10:04:29Z</time>
      </trkpt>
      <trkpt lat="48.25016" lon="-2.87424">
        <ele>146</ele>
        <time>2019-04-22T10:04:33Z</time>
      </trkpt>
      <trkpt lat="48.25015" lon="-2.87432">
        <ele>146</ele>
        <time>2019-04-22T10:04:36Z</time>
      </trkpt>
      <trkpt lat="48.25014" lon="-2.87448">
        <ele>147</ele>
        <time>2019-04-22T10:04:42Z</time>
      </trkpt>
      <trkpt lat="48.25014" lon="-2.87456">
        <ele>146</ele>
        <time>2019-04-22T10:04:45Z</time>
      </trkpt>
      <trkpt lat="48.25018" lon="-2.87459">
        <ele>146</ele>
        <time>2019-04-22T10:04:53Z</time>
      </trkpt>
      <trkpt lat="48.25022" lon="-2.87463">
        <ele>145</ele>
        <time>2019-04-22T10:04:57Z</time>
      </trkpt>
      <trkpt lat="48.25023" lon="-2.8747">
        <ele>145</ele>
        <time>2019-04-22T10:05:01Z</time>
      </trkpt>
      <trkpt lat="48.25021" lon="-2.87477">
        <ele>146</ele>
        <time>2019-04-22T10:05:04Z</time>
      </trkpt>
      <trkpt lat="48.2502" lon="-2.87484">
        <ele>146</ele>
        <time>2019-04-22T10:05:07Z</time>
      </trkpt>
      <trkpt lat="48.25005" lon="-2.87501">
        <ele>147</ele>
        <time>2019-04-22T10:05:14Z</time>
      </trkpt>
      <trkpt lat="48.24994" lon="-2.87512">
        <ele>148</ele>
        <time>2019-04-22T10:05:18Z</time>
      </trkpt>
      <trkpt lat="48.24871" lon="-2.87616">
        <ele>151</ele>
        <time>2019-04-22T10:05:47Z</time>
      </trkpt>
      <trkpt lat="48.24861" lon="-2.87622">
        <ele>151</ele>
        <time>2019-04-22T10:05:52Z</time>
      </trkpt>
      <trkpt lat="48.2479" lon="-2.87688">
        <ele>150</ele>
        <time>2019-04-22T10:06:17Z</time>
      </trkpt>
      <trkpt lat="48.24766" lon="-2.87702">
        <ele>153</ele>
        <time>2019-04-22T10:06:37Z</time>
      </trkpt>
      <trkpt lat="48.2476" lon="-2.87701">
        <ele>152</ele>
        <time>2019-04-22T10:06:41Z</time>
      </trkpt>
      <trkpt lat="48.24755" lon="-2.87702">
        <ele>151</ele>
        <time>2019-04-22T10:06:44Z</time>
      </trkpt>
      <trkpt lat="48.24746" lon="-2.87706">
        <ele>151</ele>
        <time>2019-04-22T10:06:48Z</time>
      </trkpt>
      <trkpt lat="48.24742" lon="-2.87708">
        <ele>150</ele>
        <time>2019-04-22T10:06:51Z</time>
      </trkpt>
      <trkpt lat="48.24737" lon="-2.87709">
        <ele>151</ele>
        <time>2019-04-22T10:06:55Z</time>
      </trkpt>
      <trkpt lat="48.24727" lon="-2.87711">
        <ele>151</ele>
        <time>2019-04-22T10:07:01Z</time>
      </trkpt>
      <trkpt lat="48.24716" lon="-2.87713">
        <ele>151</ele>
        <time>2019-04-22T10:07:08Z</time>
      </trkpt>
      <trkpt lat="48.24711" lon="-2.87711">
        <ele>152</ele>
        <time>2019-04-22T10:07:12Z</time>
      </trkpt>
      <trkpt lat="48.24706" lon="-2.87713">
        <ele>152</ele>
        <time>2019-04-22T10:07:17Z</time>
      </trkpt>
      <trkpt lat="48.247" lon="-2.87715">
        <ele>152</ele>
        <time>2019-04-22T10:07:19Z</time>
      </trkpt>
      <trkpt lat="48.24664" lon="-2.87715">
        <ele>151</ele>
        <time>2019-04-22T10:07:31Z</time>
      </trkpt>
      <trkpt lat="48.24652" lon="-2.87719">
        <ele>150</ele>
        <time>2019-04-22T10:07:35Z</time>
      </trkpt>
      <trkpt lat="48.24644" lon="-2.87717">
        <ele>149</ele>
        <time>2019-04-22T10:07:37Z</time>
      </trkpt>
      <trkpt lat="48.24639" lon="-2.87717">
        <ele>149</ele>
        <time>2019-04-22T10:07:39Z</time>
      </trkpt>
      <trkpt lat="48.24633" lon="-2.87721">
        <ele>149</ele>
        <time>2019-04-22T10:07:42Z</time>
      </trkpt>
      <trkpt lat="48.24612" lon="-2.87727">
        <ele>150</ele>
        <time>2019-04-22T10:07:47Z</time>
      </trkpt>
      <trkpt lat="48.24587" lon="-2.87757">
        <ele>149</ele>
        <time>2019-04-22T10:07:54Z</time>
      </trkpt>
      <trkpt lat="48.24583" lon="-2.87763">
        <ele>149</ele>
        <time>2019-04-22T10:07:56Z</time>
      </trkpt>
      <trkpt lat="48.24578" lon="-2.87778">
        <ele>148</ele>
        <time>2019-04-22T10:08:00Z</time>
      </trkpt>
      <trkpt lat="48.24574" lon="-2.87782">
        <ele>148</ele>
        <time>2019-04-22T10:08:03Z</time>
      </trkpt>
      <trkpt lat="48.2457" lon="-2.87784">
        <ele>149</ele>
        <time>2019-04-22T10:08:05Z</time>
      </trkpt>
      <trkpt lat="48.24572" lon="-2.87776">
        <ele>151</ele>
        <time>2019-04-22T10:08:52Z</time>
      </trkpt>
      <trkpt lat="48.24586" lon="-2.87751">
        <ele>150</ele>
        <time>2019-04-22T10:09:02Z</time>
      </trkpt>
      <trkpt lat="48.24588" lon="-2.87744">
        <ele>151</ele>
        <time>2019-04-22T10:09:04Z</time>
      </trkpt>
      <trkpt lat="48.24596" lon="-2.87731">
        <ele>151</ele>
        <time>2019-04-22T10:09:08Z</time>
      </trkpt>
      <trkpt lat="48.24599" lon="-2.87722">
        <ele>151</ele>
        <time>2019-04-22T10:09:10Z</time>
      </trkpt>
      <trkpt lat="48.24603" lon="-2.87702">
        <ele>151</ele>
        <time>2019-04-22T10:09:14Z</time>
      </trkpt>
      <trkpt lat="48.24605" lon="-2.87674">
        <ele>150</ele>
        <time>2019-04-22T10:09:20Z</time>
      </trkpt>
      <trkpt lat="48.24605" lon="-2.87519">
        <ele>154</ele>
        <time>2019-04-22T10:09:51Z</time>
      </trkpt>
      <trkpt lat="48.24607" lon="-2.87509">
        <ele>154</ele>
        <time>2019-04-22T10:09:53Z</time>
      </trkpt>
      <trkpt lat="48.24622" lon="-2.87464">
        <ele>154</ele>
        <time>2019-04-22T10:10:03Z</time>
      </trkpt>
      <trkpt lat="48.24624" lon="-2.87455">
        <ele>154</ele>
        <time>2019-04-22T10:10:05Z</time>
      </trkpt>
      <trkpt lat="48.24627" lon="-2.87414">
        <ele>151</ele>
        <time>2019-04-22T10:10:13Z</time>
      </trkpt>
      <trkpt lat="48.24634" lon="-2.87377">
        <ele>150</ele>
        <time>2019-04-22T10:10:23Z</time>
      </trkpt>
      <trkpt lat="48.24637" lon="-2.87368">
        <ele>150</ele>
        <time>2019-04-22T10:10:27Z</time>
      </trkpt>
      <trkpt lat="48.24646" lon="-2.87316">
        <ele>149</ele>
        <time>2019-04-22T10:10:37Z</time>
      </trkpt>
      <trkpt lat="48.24648" lon="-2.87296">
        <ele>148</ele>
        <time>2019-04-22T10:10:41Z</time>
      </trkpt>
      <trkpt lat="48.24691" lon="-2.87203">
        <ele>146</ele>
        <time>2019-04-22T10:11:04Z</time>
      </trkpt>
      <trkpt lat="48.24694" lon="-2.87194">
        <ele>146</ele>
        <time>2019-04-22T10:11:06Z</time>
      </trkpt>
      <trkpt lat="48.24696" lon="-2.87187">
        <ele>146</ele>
        <time>2019-04-22T10:11:08Z</time>
      </trkpt>
      <trkpt lat="48.24693" lon="-2.87171">
        <ele>146</ele>
        <time>2019-04-22T10:11:13Z</time>
      </trkpt>
      <trkpt lat="48.24682" lon="-2.87153">
        <ele>144</ele>
        <time>2019-04-22T10:11:20Z</time>
      </trkpt>
      <trkpt lat="48.24664" lon="-2.87137">
        <ele>145</ele>
        <time>2019-04-22T10:11:31Z</time>
      </trkpt>
      <trkpt lat="48.24622" lon="-2.87119">
        <ele>145</ele>
        <time>2019-04-22T10:11:46Z</time>
      </trkpt>
      <trkpt lat="48.24608" lon="-2.87116">
        <ele>145</ele>
        <time>2019-04-22T10:11:50Z</time>
      </trkpt>
      <trkpt lat="48.24579" lon="-2.87126">
        <ele>145</ele>
        <time>2019-04-22T10:12:00Z</time>
      </trkpt>
      <trkpt lat="48.24544" lon="-2.87169">
        <ele>144</ele>
        <time>2019-04-22T10:12:11Z</time>
      </trkpt>
      <trkpt lat="48.24513" lon="-2.87214">
        <ele>147</ele>
        <time>2019-04-22T10:12:23Z</time>
      </trkpt>
      <trkpt lat="48.24508" lon="-2.87219">
        <ele>148</ele>
        <time>2019-04-22T10:12:25Z</time>
      </trkpt>
      <trkpt lat="48.24496" lon="-2.87223">
        <ele>149</ele>
        <time>2019-04-22T10:12:29Z</time>
      </trkpt>
      <trkpt lat="48.24429" lon="-2.87211">
        <ele>153</ele>
        <time>2019-04-22T10:12:49Z</time>
      </trkpt>
      <trkpt lat="48.24418" lon="-2.87214">
        <ele>154</ele>
        <time>2019-04-22T10:12:53Z</time>
      </trkpt>
      <trkpt lat="48.2439" lon="-2.87215">
        <ele>155</ele>
        <time>2019-04-22T10:13:03Z</time>
      </trkpt>
      <trkpt lat="48.24384" lon="-2.87216">
        <ele>155</ele>
        <time>2019-04-22T10:13:05Z</time>
      </trkpt>
      <trkpt lat="48.24379" lon="-2.87219">
        <ele>156</ele>
        <time>2019-04-22T10:13:07Z</time>
      </trkpt>
      <trkpt lat="48.24374" lon="-2.87223">
        <ele>156</ele>
        <time>2019-04-22T10:13:11Z</time>
      </trkpt>
      <trkpt lat="48.2436" lon="-2.87229">
        <ele>157</ele>
        <time>2019-04-22T10:13:20Z</time>
      </trkpt>
      <trkpt lat="48.24357" lon="-2.87234">
        <ele>156</ele>
        <time>2019-04-22T10:13:24Z</time>
      </trkpt>
      <trkpt lat="48.24356" lon="-2.87242">
        <ele>156</ele>
        <time>2019-04-22T10:13:29Z</time>
      </trkpt>
      <trkpt lat="48.24346" lon="-2.87242">
        <ele>154</ele>
        <time>2019-04-22T10:13:38Z</time>
      </trkpt>
      <trkpt lat="48.24351" lon="-2.87239">
        <ele>154</ele>
        <time>2019-04-22T10:13:53Z</time>
      </trkpt>
      <trkpt lat="48.24354" lon="-2.87234">
        <ele>153</ele>
        <time>2019-04-22T10:13:57Z</time>
      </trkpt>
      <trkpt lat="48.24356" lon="-2.87226">
        <ele>151</ele>
        <time>2019-04-22T10:14:02Z</time>
      </trkpt>
      <trkpt lat="48.24352" lon="-2.87221">
        <ele>151</ele>
        <time>2019-04-22T10:14:07Z</time>
      </trkpt>
      <trkpt lat="48.24342" lon="-2.8722">
        <ele>150</ele>
        <time>2019-04-22T10:14:12Z</time>
      </trkpt>
      <trkpt lat="48.24331" lon="-2.87224">
        <ele>149</ele>
        <time>2019-04-22T10:14:17Z</time>
      </trkpt>
      <trkpt lat="48.24305" lon="-2.87256">
        <ele>147</ele>
        <time>2019-04-22T10:14:27Z</time>
      </trkpt>
      <trkpt lat="48.24291" lon="-2.87268">
        <ele>147</ele>
        <time>2019-04-22T10:14:33Z</time>
      </trkpt>
      <trkpt lat="48.24254" lon="-2.87287">
        <ele>145</ele>
        <time>2019-04-22T10:14:43Z</time>
      </trkpt>
      <trkpt lat="48.24235" lon="-2.87302">
        <ele>145</ele>
        <time>2019-04-22T10:14:49Z</time>
      </trkpt>
      <trkpt lat="48.24212" lon="-2.87332">
        <ele>145</ele>
        <time>2019-04-22T10:14:57Z</time>
      </trkpt>
      <trkpt lat="48.24208" lon="-2.8734">
        <ele>145</ele>
        <time>2019-04-22T10:14:59Z</time>
      </trkpt>
      <trkpt lat="48.24195" lon="-2.8739">
        <ele>143</ele>
        <time>2019-04-22T10:15:13Z</time>
      </trkpt>
      <trkpt lat="48.24186" lon="-2.87419">
        <ele>142</ele>
        <time>2019-04-22T10:15:19Z</time>
      </trkpt>
      <trkpt lat="48.24177" lon="-2.8743">
        <ele>142</ele>
        <time>2019-04-22T10:15:23Z</time>
      </trkpt>
      <trkpt lat="48.24121" lon="-2.87458">
        <ele>144</ele>
        <time>2019-04-22T10:15:38Z</time>
      </trkpt>
      <trkpt lat="48.24089" lon="-2.87487">
        <ele>147</ele>
        <time>2019-04-22T10:15:48Z</time>
      </trkpt>
      <trkpt lat="48.24083" lon="-2.87489">
        <ele>149</ele>
        <time>2019-04-22T10:15:51Z</time>
      </trkpt>
      <trkpt lat="48.24078" lon="-2.87491">
        <ele>149</ele>
        <time>2019-04-22T10:15:54Z</time>
      </trkpt>
      <trkpt lat="48.24068" lon="-2.87483">
        <ele>151</ele>
        <time>2019-04-22T10:16:03Z</time>
      </trkpt>
      <trkpt lat="48.24064" lon="-2.87484">
        <ele>152</ele>
        <time>2019-04-22T10:16:07Z</time>
      </trkpt>
      <trkpt lat="48.24041" lon="-2.87506">
        <ele>152</ele>
        <time>2019-04-22T10:16:23Z</time>
      </trkpt>
      <trkpt lat="48.24037" lon="-2.87511">
        <ele>152</ele>
        <time>2019-04-22T10:16:27Z</time>
      </trkpt>
      <trkpt lat="48.24029" lon="-2.87522">
        <ele>151</ele>
        <time>2019-04-22T10:16:37Z</time>
      </trkpt>
      <trkpt lat="48.24022" lon="-2.87533">
        <ele>149</ele>
        <time>2019-04-22T10:16:43Z</time>
      </trkpt>
      <trkpt lat="48.24008" lon="-2.8755">
        <ele>148</ele>
        <time>2019-04-22T10:16:55Z</time>
      </trkpt>
      <trkpt lat="48.24003" lon="-2.87552">
        <ele>147</ele>
        <time>2019-04-22T10:16:59Z</time>
      </trkpt>
      <trkpt lat="48.23994" lon="-2.87556">
        <ele>147</ele>
        <time>2019-04-22T10:17:04Z</time>
      </trkpt>
      <trkpt lat="48.23989" lon="-2.87555">
        <ele>147</ele>
        <time>2019-04-22T10:17:07Z</time>
      </trkpt>
      <trkpt lat="48.23968" lon="-2.87523">
        <ele>143</ele>
        <time>2019-04-22T10:17:29Z</time>
      </trkpt>
      <trkpt lat="48.23965" lon="-2.87517">
        <ele>143</ele>
        <time>2019-04-22T10:17:32Z</time>
      </trkpt>
      <trkpt lat="48.2395" lon="-2.87498">
        <ele>144</ele>
        <time>2019-04-22T10:17:44Z</time>
      </trkpt>
      <trkpt lat="48.23946" lon="-2.87495">
        <ele>144</ele>
        <time>2019-04-22T10:17:48Z</time>
      </trkpt>
      <trkpt lat="48.23941" lon="-2.87493">
        <ele>144</ele>
        <time>2019-04-22T10:17:54Z</time>
      </trkpt>
      <trkpt lat="48.2394" lon="-2.87501">
        <ele>145</ele>
        <time>2019-04-22T10:17:58Z</time>
      </trkpt>
      <trkpt lat="48.23944" lon="-2.87519">
        <ele>146</ele>
        <time>2019-04-22T10:18:04Z</time>
      </trkpt>
      <trkpt lat="48.23964" lon="-2.87554">
        <ele>146</ele>
        <time>2019-04-22T10:18:14Z</time>
      </trkpt>
      <trkpt lat="48.2398" lon="-2.87572">
        <ele>147</ele>
        <time>2019-04-22T10:18:20Z</time>
      </trkpt>
      <trkpt lat="48.23985" lon="-2.87578">
        <ele>147</ele>
        <time>2019-04-22T10:18:22Z</time>
      </trkpt>
      <trkpt lat="48.24005" lon="-2.87583">
        <ele>147</ele>
        <time>2019-04-22T10:18:28Z</time>
      </trkpt>
      <trkpt lat="48.24012" lon="-2.87588">
        <ele>147</ele>
        <time>2019-04-22T10:18:30Z</time>
      </trkpt>
      <trkpt lat="48.2406" lon="-2.87725">
        <ele>156</ele>
        <time>2019-04-22T10:19:01Z</time>
      </trkpt>
      <trkpt lat="48.24093" lon="-2.87822">
        <ele>168</ele>
        <time>2019-04-22T10:19:32Z</time>
      </trkpt>
      <trkpt lat="48.24097" lon="-2.87835">
        <ele>169</ele>
        <time>2019-04-22T10:19:38Z</time>
      </trkpt>
      <trkpt lat="48.24105" lon="-2.87873">
        <ele>172</ele>
        <time>2019-04-22T10:19:59Z</time>
      </trkpt>
      <trkpt lat="48.24131" lon="-2.8793">
        <ele>179</ele>
        <time>2019-04-22T10:20:30Z</time>
      </trkpt>
      <trkpt lat="48.24134" lon="-2.87936">
        <ele>179</ele>
        <time>2019-04-22T10:20:34Z</time>
      </trkpt>
      <trkpt lat="48.24143" lon="-2.87955">
        <ele>181</ele>
        <time>2019-04-22T10:20:44Z</time>
      </trkpt>
      <trkpt lat="48.24145" lon="-2.87961">
        <ele>182</ele>
        <time>2019-04-22T10:20:47Z</time>
      </trkpt>
      <trkpt lat="48.24147" lon="-2.87969">
        <ele>183</ele>
        <time>2019-04-22T10:20:51Z</time>
      </trkpt>
      <trkpt lat="48.2415" lon="-2.87975">
        <ele>184</ele>
        <time>2019-04-22T10:20:54Z</time>
      </trkpt>
      <trkpt lat="48.24152" lon="-2.87981">
        <ele>184</ele>
        <time>2019-04-22T10:20:57Z</time>
      </trkpt>
      <trkpt lat="48.2415" lon="-2.87996">
        <ele>185</ele>
        <time>2019-04-22T10:21:04Z</time>
      </trkpt>
      <trkpt lat="48.24142" lon="-2.88007">
        <ele>185</ele>
        <time>2019-04-22T10:21:12Z</time>
      </trkpt>
      <trkpt lat="48.24133" lon="-2.88012">
        <ele>185</ele>
        <time>2019-04-22T10:21:19Z</time>
      </trkpt>
      <trkpt lat="48.24128" lon="-2.88012">
        <ele>185</ele>
        <time>2019-04-22T10:21:23Z</time>
      </trkpt>
      <trkpt lat="48.24098" lon="-2.88033">
        <ele>179</ele>
        <time>2019-04-22T10:21:45Z</time>
      </trkpt>
      <trkpt lat="48.24093" lon="-2.88037">
        <ele>179</ele>
        <time>2019-04-22T10:21:48Z</time>
      </trkpt>
      <trkpt lat="48.24079" lon="-2.88045">
        <ele>181</ele>
        <time>2019-04-22T10:21:58Z</time>
      </trkpt>
      <trkpt lat="48.24074" lon="-2.88051">
        <ele>182</ele>
        <time>2019-04-22T10:22:02Z</time>
      </trkpt>
      <trkpt lat="48.24043" lon="-2.88077">
        <ele>184</ele>
        <time>2019-04-22T10:22:28Z</time>
      </trkpt>
      <trkpt lat="48.24039" lon="-2.88082">
        <ele>183</ele>
        <time>2019-04-22T10:22:31Z</time>
      </trkpt>
      <trkpt lat="48.2403" lon="-2.8809">
        <ele>182</ele>
        <time>2019-04-22T10:22:38Z</time>
      </trkpt>
      <trkpt lat="48.24025" lon="-2.88093">
        <ele>182</ele>
        <time>2019-04-22T10:22:42Z</time>
      </trkpt>
      <trkpt lat="48.24021" lon="-2.88096">
        <ele>182</ele>
        <time>2019-04-22T10:22:46Z</time>
      </trkpt>
      <trkpt lat="48.24015" lon="-2.88097">
        <ele>182</ele>
        <time>2019-04-22T10:22:50Z</time>
      </trkpt>
      <trkpt lat="48.2401" lon="-2.88102">
        <ele>182</ele>
        <time>2019-04-22T10:22:54Z</time>
      </trkpt>
      <trkpt lat="48.24006" lon="-2.88107">
        <ele>182</ele>
        <time>2019-04-22T10:22:58Z</time>
      </trkpt>
      <trkpt lat="48.24002" lon="-2.88111">
        <ele>182</ele>
        <time>2019-04-22T10:23:02Z</time>
      </trkpt>
      <trkpt lat="48.23997" lon="-2.88116">
        <ele>183</ele>
        <time>2019-04-22T10:23:06Z</time>
      </trkpt>
      <trkpt lat="48.23988" lon="-2.88127">
        <ele>183</ele>
        <time>2019-04-22T10:23:12Z</time>
      </trkpt>
      <trkpt lat="48.23985" lon="-2.88133">
        <ele>183</ele>
        <time>2019-04-22T10:23:15Z</time>
      </trkpt>
      <trkpt lat="48.23983" lon="-2.88139">
        <ele>183</ele>
        <time>2019-04-22T10:23:18Z</time>
      </trkpt>
      <trkpt lat="48.23975" lon="-2.88146">
        <ele>183</ele>
        <time>2019-04-22T10:23:24Z</time>
      </trkpt>
      <trkpt lat="48.23949" lon="-2.88156">
        <ele>184</ele>
        <time>2019-04-22T10:23:45Z</time>
      </trkpt>
      <trkpt lat="48.23944" lon="-2.8816">
        <ele>183</ele>
        <time>2019-04-22T10:23:49Z</time>
      </trkpt>
      <trkpt lat="48.23908" lon="-2.88188">
        <ele>185</ele>
        <time>2019-04-22T10:24:15Z</time>
      </trkpt>
      <trkpt lat="48.23895" lon="-2.88201">
        <ele>188</ele>
        <time>2019-04-22T10:24:26Z</time>
      </trkpt>
      <trkpt lat="48.23891" lon="-2.88203">
        <ele>188</ele>
        <time>2019-04-22T10:24:30Z</time>
      </trkpt>
      <trkpt lat="48.23886" lon="-2.88207">
        <ele>189</ele>
        <time>2019-04-22T10:25:25Z</time>
      </trkpt>
      <trkpt lat="48.2387" lon="-2.88234">
        <ele>191</ele>
        <time>2019-04-22T10:25:55Z</time>
      </trkpt>
      <trkpt lat="48.23874" lon="-2.88239">
        <ele>192</ele>
        <time>2019-04-22T10:26:01Z</time>
      </trkpt>
      <trkpt lat="48.23884" lon="-2.88234">
        <ele>190</ele>
        <time>2019-04-22T10:26:08Z</time>
      </trkpt>
      <trkpt lat="48.2389" lon="-2.88235">
        <ele>190</ele>
        <time>2019-04-22T10:26:11Z</time>
      </trkpt>
      <trkpt lat="48.23895" lon="-2.88237">
        <ele>190</ele>
        <time>2019-04-22T10:26:14Z</time>
      </trkpt>
      <trkpt lat="48.239" lon="-2.88238">
        <ele>190</ele>
        <time>2019-04-22T10:26:17Z</time>
      </trkpt>
      <trkpt lat="48.23905" lon="-2.88241">
        <ele>191</ele>
        <time>2019-04-22T10:26:20Z</time>
      </trkpt>
      <trkpt lat="48.23911" lon="-2.88242">
        <ele>193</ele>
        <time>2019-04-22T10:26:26Z</time>
      </trkpt>
      <trkpt lat="48.23916" lon="-2.88241">
        <ele>194</ele>
        <time>2019-04-22T10:26:31Z</time>
      </trkpt>
      <trkpt lat="48.23921" lon="-2.8824">
        <ele>195</ele>
        <time>2019-04-22T10:26:38Z</time>
      </trkpt>
      <trkpt lat="48.23925" lon="-2.88243">
        <ele>194</ele>
        <time>2019-04-22T10:26:44Z</time>
      </trkpt>
      <trkpt lat="48.23934" lon="-2.88249">
        <ele>191</ele>
        <time>2019-04-22T10:26:52Z</time>
      </trkpt>
      <trkpt lat="48.2393" lon="-2.88252">
        <ele>190</ele>
        <time>2019-04-22T10:27:09Z</time>
      </trkpt>
      <trkpt lat="48.23925" lon="-2.88251">
        <ele>190</ele>
        <time>2019-04-22T10:27:13Z</time>
      </trkpt>
    </trkseg>
  </trk>
  <trk>
    <name><![CDATA[rando Quessoy 30 mars 2019]]></name>
    <trkseg>
      <trkpt lat="48.43991" lon="-2.64965">
        <ele>81</ele>
        <time>2019-03-30T13:44:59Z</time>
      </trkpt>
      <trkpt lat="48.43991" lon="-2.64965">
        <ele>81</ele>
        <time>2019-03-30T13:45:00Z</time>
      </trkpt>
      <trkpt lat="48.43994" lon="-2.64971">
        <ele>80</ele>
        <time>2019-03-30T13:45:24Z</time>
      </trkpt>
      <trkpt lat="48.43994" lon="-2.64979">
        <ele>79</ele>
        <time>2019-03-30T13:45:28Z</time>
      </trkpt>
      <trkpt lat="48.43985" lon="-2.64992">
        <ele>79</ele>
        <time>2019-03-30T13:45:35Z</time>
      </trkpt>
      <trkpt lat="48.43981" lon="-2.64998">
        <ele>79</ele>
        <time>2019-03-30T13:45:38Z</time>
      </trkpt>
      <trkpt lat="48.43979" lon="-2.65004">
        <ele>77</ele>
        <time>2019-03-30T13:45:42Z</time>
      </trkpt>
      <trkpt lat="48.4397" lon="-2.65014">
        <ele>77</ele>
        <time>2019-03-30T13:45:47Z</time>
      </trkpt>
      <trkpt lat="48.43959" lon="-2.6504">
        <ele>74</ele>
        <time>2019-03-30T13:46:02Z</time>
      </trkpt>
      <trkpt lat="48.43955" lon="-2.65054">
        <ele>72</ele>
        <time>2019-03-30T13:46:11Z</time>
      </trkpt>
      <trkpt lat="48.43947" lon="-2.65073">
        <ele>72</ele>
        <time>2019-03-30T13:46:25Z</time>
      </trkpt>
      <trkpt lat="48.43935" lon="-2.65098">
        <ele>72</ele>
        <time>2019-03-30T13:46:42Z</time>
      </trkpt>
      <trkpt lat="48.43931" lon="-2.65103">
        <ele>73</ele>
        <time>2019-03-30T13:46:47Z</time>
      </trkpt>
      <trkpt lat="48.43925" lon="-2.65114">
        <ele>74</ele>
        <time>2019-03-30T13:46:55Z</time>
      </trkpt>
      <trkpt lat="48.43922" lon="-2.65121">
        <ele>77</ele>
        <time>2019-03-30T13:47:00Z</time>
      </trkpt>
      <trkpt lat="48.43894" lon="-2.65152">
        <ele>81</ele>
        <time>2019-03-30T13:47:30Z</time>
      </trkpt>
      <trkpt lat="48.4389" lon="-2.65157">
        <ele>83</ele>
        <time>2019-03-30T13:47:35Z</time>
      </trkpt>
      <trkpt lat="48.43882" lon="-2.65167">
        <ele>85</ele>
        <time>2019-03-30T13:47:43Z</time>
      </trkpt>
      <trkpt lat="48.43878" lon="-2.65173">
        <ele>86</ele>
        <time>2019-03-30T13:47:47Z</time>
      </trkpt>
      <trkpt lat="48.43874" lon="-2.65176">
        <ele>86</ele>
        <time>2019-03-30T13:47:52Z</time>
      </trkpt>
      <trkpt lat="48.43853" lon="-2.65204">
        <ele>87</ele>
        <time>2019-03-30T13:48:14Z</time>
      </trkpt>
      <trkpt lat="48.43852" lon="-2.65211">
        <ele>89</ele>
        <time>2019-03-30T13:48:19Z</time>
      </trkpt>
      <trkpt lat="48.43851" lon="-2.65219">
        <ele>90</ele>
        <time>2019-03-30T13:48:24Z</time>
      </trkpt>
      <trkpt lat="48.43852" lon="-2.65227">
        <ele>88</ele>
        <time>2019-03-30T13:48:29Z</time>
      </trkpt>
      <trkpt lat="48.43853" lon="-2.65236">
        <ele>87</ele>
        <time>2019-03-30T13:48:33Z</time>
      </trkpt>
      <trkpt lat="48.43853" lon="-2.65242">
        <ele>85</ele>
        <time>2019-03-30T13:48:37Z</time>
      </trkpt>
      <trkpt lat="48.43853" lon="-2.6525">
        <ele>85</ele>
        <time>2019-03-30T13:48:41Z</time>
      </trkpt>
      <trkpt lat="48.43854" lon="-2.65258">
        <ele>84</ele>
        <time>2019-03-30T13:48:45Z</time>
      </trkpt>
      <trkpt lat="48.43852" lon="-2.65266">
        <ele>83</ele>
        <time>2019-03-30T13:48:50Z</time>
      </trkpt>
      <trkpt lat="48.43852" lon="-2.65282">
        <ele>82</ele>
        <time>2019-03-30T13:49:01Z</time>
      </trkpt>
      <trkpt lat="48.4385" lon="-2.65289">
        <ele>82</ele>
        <time>2019-03-30T13:49:06Z</time>
      </trkpt>
      <trkpt lat="48.43823" lon="-2.65311">
        <ele>83</ele>
        <time>2019-03-30T13:49:38Z</time>
      </trkpt>
      <trkpt lat="48.43815" lon="-2.6532">
        <ele>84</ele>
        <time>2019-03-30T13:49:44Z</time>
      </trkpt>
      <trkpt lat="48.43812" lon="-2.65324">
        <ele>86</ele>
        <time>2019-03-30T13:49:47Z</time>
      </trkpt>
      <trkpt lat="48.43808" lon="-2.6533">
        <ele>87</ele>
        <time>2019-03-30T13:49:51Z</time>
      </trkpt>
      <trkpt lat="48.43803" lon="-2.65335">
        <ele>89</ele>
        <time>2019-03-30T13:49:55Z</time>
      </trkpt>
      <trkpt lat="48.43799" lon="-2.65339">
        <ele>89</ele>
        <time>2019-03-30T13:49:58Z</time>
      </trkpt>
      <trkpt lat="48.43781" lon="-2.65366">
        <ele>89</ele>
        <time>2019-03-30T13:50:21Z</time>
      </trkpt>
      <trkpt lat="48.43776" lon="-2.65367">
        <ele>89</ele>
        <time>2019-03-30T13:50:27Z</time>
      </trkpt>
      <trkpt lat="48.43765" lon="-2.65363">
        <ele>88</ele>
        <time>2019-03-30T13:50:36Z</time>
      </trkpt>
      <trkpt lat="48.4376" lon="-2.65361">
        <ele>88</ele>
        <time>2019-03-30T13:50:41Z</time>
      </trkpt>
      <trkpt lat="48.43755" lon="-2.65361">
        <ele>88</ele>
        <time>2019-03-30T13:50:47Z</time>
      </trkpt>
      <trkpt lat="48.43745" lon="-2.65354">
        <ele>88</ele>
        <time>2019-03-30T13:50:56Z</time>
      </trkpt>
      <trkpt lat="48.43741" lon="-2.65351">
        <ele>88</ele>
        <time>2019-03-30T13:51:00Z</time>
      </trkpt>
      <trkpt lat="48.43736" lon="-2.65351">
        <ele>88</ele>
        <time>2019-03-30T13:51:04Z</time>
      </trkpt>
      <trkpt lat="48.43725" lon="-2.65349">
        <ele>87</ele>
        <time>2019-03-30T13:51:14Z</time>
      </trkpt>
      <trkpt lat="48.43721" lon="-2.65346">
        <ele>87</ele>
        <time>2019-03-30T13:51:19Z</time>
      </trkpt>
      <trkpt lat="48.43717" lon="-2.65342">
        <ele>87</ele>
        <time>2019-03-30T13:51:23Z</time>
      </trkpt>
      <trkpt lat="48.43712" lon="-2.65339">
        <ele>88</ele>
        <time>2019-03-30T13:51:27Z</time>
      </trkpt>
      <trkpt lat="48.43708" lon="-2.65335">
        <ele>88</ele>
        <time>2019-03-30T13:51:31Z</time>
      </trkpt>
      <trkpt lat="48.43677" lon="-2.65313">
        <ele>89</ele>
        <time>2019-03-30T13:52:02Z</time>
      </trkpt>
      <trkpt lat="48.43668" lon="-2.65308">
        <ele>89</ele>
        <time>2019-03-30T13:52:10Z</time>
      </trkpt>
      <trkpt lat="48.43657" lon="-2.65294">
        <ele>88</ele>
        <time>2019-03-30T13:52:21Z</time>
      </trkpt>
      <trkpt lat="48.43653" lon="-2.65289">
        <ele>88</ele>
        <time>2019-03-30T13:52:25Z</time>
      </trkpt>
      <trkpt lat="48.43649" lon="-2.65286">
        <ele>87</ele>
        <time>2019-03-30T13:52:29Z</time>
      </trkpt>
      <trkpt lat="48.43642" lon="-2.65275">
        <ele>87</ele>
        <time>2019-03-30T13:52:37Z</time>
      </trkpt>
      <trkpt lat="48.43639" lon="-2.6527">
        <ele>87</ele>
        <time>2019-03-30T13:52:42Z</time>
      </trkpt>
      <trkpt lat="48.43636" lon="-2.65264">
        <ele>87</ele>
        <time>2019-03-30T13:52:46Z</time>
      </trkpt>
      <trkpt lat="48.43626" lon="-2.65246">
        <ele>89</ele>
        <time>2019-03-30T13:53:01Z</time>
      </trkpt>
      <trkpt lat="48.43612" lon="-2.65225">
        <ele>92</ele>
        <time>2019-03-30T13:53:17Z</time>
      </trkpt>
      <trkpt lat="48.43602" lon="-2.65218">
        <ele>94</ele>
        <time>2019-03-30T13:53:25Z</time>
      </trkpt>
      <trkpt lat="48.43597" lon="-2.65217">
        <ele>95</ele>
        <time>2019-03-30T13:53:29Z</time>
      </trkpt>
      <trkpt lat="48.43593" lon="-2.65219">
        <ele>95</ele>
        <time>2019-03-30T13:53:34Z</time>
      </trkpt>
      <trkpt lat="48.43589" lon="-2.65224">
        <ele>96</ele>
        <time>2019-03-30T13:53:39Z</time>
      </trkpt>
      <trkpt lat="48.43584" lon="-2.65226">
        <ele>96</ele>
        <time>2019-03-30T13:54:32Z</time>
      </trkpt>
      <trkpt lat="48.43581" lon="-2.65222">
        <ele>96</ele>
        <time>2019-03-30T13:56:00Z</time>
      </trkpt>
      <trkpt lat="48.43576" lon="-2.6522">
        <ele>94</ele>
        <time>2019-03-30T13:56:19Z</time>
      </trkpt>
      <trkpt lat="48.43571" lon="-2.65223">
        <ele>94</ele>
        <time>2019-03-30T13:56:56Z</time>
      </trkpt>
      <trkpt lat="48.43566" lon="-2.65223">
        <ele>96</ele>
        <time>2019-03-30T13:57:00Z</time>
      </trkpt>
      <trkpt lat="48.43556" lon="-2.6522">
        <ele>95</ele>
        <time>2019-03-30T13:57:07Z</time>
      </trkpt>
      <trkpt lat="48.43525" lon="-2.65225">
        <ele>92</ele>
        <time>2019-03-30T13:57:28Z</time>
      </trkpt>
      <trkpt lat="48.43504" lon="-2.65232">
        <ele>89</ele>
        <time>2019-03-30T13:57:43Z</time>
      </trkpt>
      <trkpt lat="48.43499" lon="-2.65233">
        <ele>88</ele>
        <time>2019-03-30T13:57:46Z</time>
      </trkpt>
      <trkpt lat="48.43479" lon="-2.65248">
        <ele>87</ele>
        <time>2019-03-30T13:57:55Z</time>
      </trkpt>
      <trkpt lat="48.43474" lon="-2.65244">
        <ele>86</ele>
        <time>2019-03-30T13:58:01Z</time>
      </trkpt>
      <trkpt lat="48.43454" lon="-2.65244">
        <ele>84</ele>
        <time>2019-03-30T13:58:17Z</time>
      </trkpt>
      <trkpt lat="48.43444" lon="-2.65248">
        <ele>85</ele>
        <time>2019-03-30T13:58:26Z</time>
      </trkpt>
      <trkpt lat="48.43409" lon="-2.65261">
        <ele>89</ele>
        <time>2019-03-30T13:58:49Z</time>
      </trkpt>
      <trkpt lat="48.43403" lon="-2.65264">
        <ele>91</ele>
        <time>2019-03-30T13:58:53Z</time>
      </trkpt>
      <trkpt lat="48.43399" lon="-2.65266">
        <ele>92</ele>
        <time>2019-03-30T13:58:56Z</time>
      </trkpt>
      <trkpt lat="48.43372" lon="-2.65261">
        <ele>94</ele>
        <time>2019-03-30T13:59:14Z</time>
      </trkpt>
      <trkpt lat="48.43368" lon="-2.65258">
        <ele>94</ele>
        <time>2019-03-30T13:59:19Z</time>
      </trkpt>
      <trkpt lat="48.43364" lon="-2.65254">
        <ele>94</ele>
        <time>2019-03-30T13:59:22Z</time>
      </trkpt>
      <trkpt lat="48.4336" lon="-2.65249">
        <ele>93</ele>
        <time>2019-03-30T13:59:26Z</time>
      </trkpt>
      <trkpt lat="48.43334" lon="-2.6521">
        <ele>96</ele>
        <time>2019-03-30T13:59:48Z</time>
      </trkpt>
      <trkpt lat="48.43315" lon="-2.65182">
        <ele>95</ele>
        <time>2019-03-30T14:00:06Z</time>
      </trkpt>
      <trkpt lat="48.43301" lon="-2.65172">
        <ele>94</ele>
        <time>2019-03-30T14:00:16Z</time>
      </trkpt>
      <trkpt lat="48.43296" lon="-2.65169">
        <ele>93</ele>
        <time>2019-03-30T14:00:20Z</time>
      </trkpt>
      <trkpt lat="48.43291" lon="-2.6517">
        <ele>93</ele>
        <time>2019-03-30T14:00:24Z</time>
      </trkpt>
      <trkpt lat="48.43282" lon="-2.65166">
        <ele>92</ele>
        <time>2019-03-30T14:00:32Z</time>
      </trkpt>
      <trkpt lat="48.43277" lon="-2.65165">
        <ele>92</ele>
        <time>2019-03-30T14:00:35Z</time>
      </trkpt>
      <trkpt lat="48.43268" lon="-2.65169">
        <ele>91</ele>
        <time>2019-03-30T14:00:42Z</time>
      </trkpt>
      <trkpt lat="48.43263" lon="-2.65169">
        <ele>90</ele>
        <time>2019-03-30T14:00:45Z</time>
      </trkpt>
      <trkpt lat="48.43248" lon="-2.65168">
        <ele>88</ele>
        <time>2019-03-30T14:00:57Z</time>
      </trkpt>
      <trkpt lat="48.43242" lon="-2.65169">
        <ele>88</ele>
        <time>2019-03-30T14:01:01Z</time>
      </trkpt>
      <trkpt lat="48.43238" lon="-2.65172">
        <ele>88</ele>
        <time>2019-03-30T14:01:04Z</time>
      </trkpt>
      <trkpt lat="48.43232" lon="-2.65174">
        <ele>88</ele>
        <time>2019-03-30T14:01:07Z</time>
      </trkpt>
      <trkpt lat="48.43218" lon="-2.65174">
        <ele>88</ele>
        <time>2019-03-30T14:01:21Z</time>
      </trkpt>
      <trkpt lat="48.43213" lon="-2.65172">
        <ele>88</ele>
        <time>2019-03-30T14:01:34Z</time>
      </trkpt>
      <trkpt lat="48.43208" lon="-2.65168">
        <ele>89</ele>
        <time>2019-03-30T14:01:37Z</time>
      </trkpt>
      <trkpt lat="48.43198" lon="-2.6517">
        <ele>89</ele>
        <time>2019-03-30T14:01:44Z</time>
      </trkpt>
      <trkpt lat="48.43183" lon="-2.65165">
        <ele>87</ele>
        <time>2019-03-30T14:01:54Z</time>
      </trkpt>
      <trkpt lat="48.43178" lon="-2.65167">
        <ele>86</ele>
        <time>2019-03-30T14:01:58Z</time>
      </trkpt>
      <trkpt lat="48.43168" lon="-2.65167">
        <ele>85</ele>
        <time>2019-03-30T14:02:05Z</time>
      </trkpt>
      <trkpt lat="48.43148" lon="-2.65156">
        <ele>84</ele>
        <time>2019-03-30T14:02:21Z</time>
      </trkpt>
      <trkpt lat="48.43128" lon="-2.65141">
        <ele>85</ele>
        <time>2019-03-30T14:02:35Z</time>
      </trkpt>
      <trkpt lat="48.43123" lon="-2.65141">
        <ele>85</ele>
        <time>2019-03-30T14:02:38Z</time>
      </trkpt>
      <trkpt lat="48.4312" lon="-2.65147">
        <ele>84</ele>
        <time>2019-03-30T14:02:41Z</time>
      </trkpt>
      <trkpt lat="48.4309" lon="-2.65132">
        <ele>82</ele>
        <time>2019-03-30T14:03:00Z</time>
      </trkpt>
      <trkpt lat="48.43085" lon="-2.65129">
        <ele>81</ele>
        <time>2019-03-30T14:03:05Z</time>
      </trkpt>
      <trkpt lat="48.43074" lon="-2.65124">
        <ele>79</ele>
        <time>2019-03-30T14:03:12Z</time>
      </trkpt>
      <trkpt lat="48.43053" lon="-2.65116">
        <ele>75</ele>
        <time>2019-03-30T14:03:28Z</time>
      </trkpt>
      <trkpt lat="48.43011" lon="-2.65103">
        <ele>77</ele>
        <time>2019-03-30T14:03:59Z</time>
      </trkpt>
      <trkpt lat="48.42987" lon="-2.65089">
        <ele>79</ele>
        <time>2019-03-30T14:04:19Z</time>
      </trkpt>
      <trkpt lat="48.42983" lon="-2.65086">
        <ele>79</ele>
        <time>2019-03-30T14:04:22Z</time>
      </trkpt>
      <trkpt lat="48.42967" lon="-2.65082">
        <ele>78</ele>
        <time>2019-03-30T14:04:33Z</time>
      </trkpt>
      <trkpt lat="48.42922" lon="-2.65071">
        <ele>78</ele>
        <time>2019-03-30T14:05:05Z</time>
      </trkpt>
      <trkpt lat="48.42895" lon="-2.65065">
        <ele>80</ele>
        <time>2019-03-30T14:05:24Z</time>
      </trkpt>
      <trkpt lat="48.4289" lon="-2.65064">
        <ele>81</ele>
        <time>2019-03-30T14:05:28Z</time>
      </trkpt>
      <trkpt lat="48.42885" lon="-2.65068">
        <ele>81</ele>
        <time>2019-03-30T14:05:32Z</time>
      </trkpt>
      <trkpt lat="48.42879" lon="-2.65068">
        <ele>82</ele>
        <time>2019-03-30T14:05:38Z</time>
      </trkpt>
      <trkpt lat="48.42874" lon="-2.65065">
        <ele>83</ele>
        <time>2019-03-30T14:05:43Z</time>
      </trkpt>
      <trkpt lat="48.4287" lon="-2.65061">
        <ele>82</ele>
        <time>2019-03-30T14:05:45Z</time>
      </trkpt>
      <trkpt lat="48.42865" lon="-2.65062">
        <ele>81</ele>
        <time>2019-03-30T14:05:48Z</time>
      </trkpt>
      <trkpt lat="48.4286" lon="-2.65065">
        <ele>81</ele>
        <time>2019-03-30T14:05:50Z</time>
      </trkpt>
      <trkpt lat="48.42818" lon="-2.65062">
        <ele>78</ele>
        <time>2019-03-30T14:06:22Z</time>
      </trkpt>
      <trkpt lat="48.42813" lon="-2.65062">
        <ele>78</ele>
        <time>2019-03-30T14:06:25Z</time>
      </trkpt>
      <trkpt lat="48.42808" lon="-2.65061">
        <ele>77</ele>
        <time>2019-03-30T14:06:29Z</time>
      </trkpt>
      <trkpt lat="48.42803" lon="-2.65059">
        <ele>77</ele>
        <time>2019-03-30T14:06:33Z</time>
      </trkpt>
      <trkpt lat="48.42797" lon="-2.65059">
        <ele>77</ele>
        <time>2019-03-30T14:06:36Z</time>
      </trkpt>
      <trkpt lat="48.42758" lon="-2.65048">
        <ele>66</ele>
        <time>2019-03-30T14:07:06Z</time>
      </trkpt>
      <trkpt lat="48.42757" lon="-2.65041">
        <ele>65</ele>
        <time>2019-03-30T14:07:23Z</time>
      </trkpt>
      <trkpt lat="48.42757" lon="-2.65034">
        <ele>63</ele>
        <time>2019-03-30T14:07:26Z</time>
      </trkpt>
      <trkpt lat="48.4276" lon="-2.65027">
        <ele>63</ele>
        <time>2019-03-30T14:07:30Z</time>
      </trkpt>
      <trkpt lat="48.4277" lon="-2.6501">
        <ele>65</ele>
        <time>2019-03-30T14:07:40Z</time>
      </trkpt>
      <trkpt lat="48.42776" lon="-2.64997">
        <ele>65</ele>
        <time>2019-03-30T14:07:48Z</time>
      </trkpt>
      <trkpt lat="48.42782" lon="-2.64982">
        <ele>66</ele>
        <time>2019-03-30T14:07:56Z</time>
      </trkpt>
      <trkpt lat="48.42784" lon="-2.64974">
        <ele>66</ele>
        <time>2019-03-30T14:08:00Z</time>
      </trkpt>
      <trkpt lat="48.42788" lon="-2.64969">
        <ele>66</ele>
        <time>2019-03-30T14:08:03Z</time>
      </trkpt>
      <trkpt lat="48.42796" lon="-2.64958">
        <ele>69</ele>
        <time>2019-03-30T14:08:10Z</time>
      </trkpt>
      <trkpt lat="48.42814" lon="-2.64918">
        <ele>69</ele>
        <time>2019-03-30T14:08:31Z</time>
      </trkpt>
      <trkpt lat="48.42823" lon="-2.64899">
        <ele>68</ele>
        <time>2019-03-30T14:08:43Z</time>
      </trkpt>
      <trkpt lat="48.42826" lon="-2.64895">
        <ele>69</ele>
        <time>2019-03-30T14:08:47Z</time>
      </trkpt>
      <trkpt lat="48.4283" lon="-2.64888">
        <ele>69</ele>
        <time>2019-03-30T14:08:51Z</time>
      </trkpt>
      <trkpt lat="48.42841" lon="-2.64864">
        <ele>71</ele>
        <time>2019-03-30T14:09:04Z</time>
      </trkpt>
      <trkpt lat="48.42844" lon="-2.64857">
        <ele>71</ele>
        <time>2019-03-30T14:09:08Z</time>
      </trkpt>
      <trkpt lat="48.42858" lon="-2.64833">
        <ele>72</ele>
        <time>2019-03-30T14:09:25Z</time>
      </trkpt>
      <trkpt lat="48.42862" lon="-2.64826">
        <ele>72</ele>
        <time>2019-03-30T14:09:29Z</time>
      </trkpt>
      <trkpt lat="48.42864" lon="-2.64818">
        <ele>72</ele>
        <time>2019-03-30T14:09:33Z</time>
      </trkpt>
      <trkpt lat="48.4286" lon="-2.64803">
        <ele>73</ele>
        <time>2019-03-30T14:09:41Z</time>
      </trkpt>
      <trkpt lat="48.42858" lon="-2.64796">
        <ele>74</ele>
        <time>2019-03-30T14:09:45Z</time>
      </trkpt>
      <trkpt lat="48.42856" lon="-2.6479">
        <ele>74</ele>
        <time>2019-03-30T14:09:48Z</time>
      </trkpt>
      <trkpt lat="48.42853" lon="-2.6477">
        <ele>76</ele>
        <time>2019-03-30T14:09:57Z</time>
      </trkpt>
      <trkpt lat="48.42844" lon="-2.64751">
        <ele>75</ele>
        <time>2019-03-30T14:10:07Z</time>
      </trkpt>
      <trkpt lat="48.4284" lon="-2.64744">
        <ele>75</ele>
        <time>2019-03-30T14:10:10Z</time>
      </trkpt>
      <trkpt lat="48.42842" lon="-2.64737">
        <ele>75</ele>
        <time>2019-03-30T14:10:13Z</time>
      </trkpt>
      <trkpt lat="48.42841" lon="-2.64729">
        <ele>74</ele>
        <time>2019-03-30T14:10:17Z</time>
      </trkpt>
      <trkpt lat="48.42837" lon="-2.64723">
        <ele>74</ele>
        <time>2019-03-30T14:10:20Z</time>
      </trkpt>
      <trkpt lat="48.42829" lon="-2.64711">
        <ele>74</ele>
        <time>2019-03-30T14:10:25Z</time>
      </trkpt>
      <trkpt lat="48.42824" lon="-2.64691">
        <ele>73</ele>
        <time>2019-03-30T14:10:37Z</time>
      </trkpt>
      <trkpt lat="48.42815" lon="-2.64674">
        <ele>72</ele>
        <time>2019-03-30T14:10:49Z</time>
      </trkpt>
      <trkpt lat="48.42814" lon="-2.64667">
        <ele>70</ele>
        <time>2019-03-30T14:10:52Z</time>
      </trkpt>
      <trkpt lat="48.42812" lon="-2.6466">
        <ele>70</ele>
        <time>2019-03-30T14:10:56Z</time>
      </trkpt>
      <trkpt lat="48.42805" lon="-2.64647">
        <ele>69</ele>
        <time>2019-03-30T14:11:04Z</time>
      </trkpt>
      <trkpt lat="48.42801" lon="-2.64643">
        <ele>69</ele>
        <time>2019-03-30T14:11:08Z</time>
      </trkpt>
      <trkpt lat="48.42801" lon="-2.64629">
        <ele>69</ele>
        <time>2019-03-30T14:11:17Z</time>
      </trkpt>
      <trkpt lat="48.42795" lon="-2.64614">
        <ele>68</ele>
        <time>2019-03-30T14:11:25Z</time>
      </trkpt>
      <trkpt lat="48.42782" lon="-2.64588">
        <ele>67</ele>
        <time>2019-03-30T14:11:36Z</time>
      </trkpt>
      <trkpt lat="48.42778" lon="-2.64583">
        <ele>67</ele>
        <time>2019-03-30T14:11:41Z</time>
      </trkpt>
      <trkpt lat="48.4276" lon="-2.64567">
        <ele>63</ele>
        <time>2019-03-30T14:11:56Z</time>
      </trkpt>
      <trkpt lat="48.42736" lon="-2.64539">
        <ele>58</ele>
        <time>2019-03-30T14:12:16Z</time>
      </trkpt>
      <trkpt lat="48.42732" lon="-2.64536">
        <ele>57</ele>
        <time>2019-03-30T14:12:20Z</time>
      </trkpt>
      <trkpt lat="48.42728" lon="-2.64531">
        <ele>58</ele>
        <time>2019-03-30T14:12:24Z</time>
      </trkpt>
      <trkpt lat="48.42725" lon="-2.64524">
        <ele>58</ele>
        <time>2019-03-30T14:12:29Z</time>
      </trkpt>
      <trkpt lat="48.42721" lon="-2.64529">
        <ele>58</ele>
        <time>2019-03-30T14:12:33Z</time>
      </trkpt>
      <trkpt lat="48.4272" lon="-2.64537">
        <ele>58</ele>
        <time>2019-03-30T14:12:37Z</time>
      </trkpt>
      <trkpt lat="48.42715" lon="-2.6454">
        <ele>58</ele>
        <time>2019-03-30T14:12:42Z</time>
      </trkpt>
      <trkpt lat="48.42689" lon="-2.64534">
        <ele>59</ele>
        <time>2019-03-30T14:12:57Z</time>
      </trkpt>
      <trkpt lat="48.42686" lon="-2.64529">
        <ele>59</ele>
        <time>2019-03-30T14:13:00Z</time>
      </trkpt>
      <trkpt lat="48.42676" lon="-2.64523">
        <ele>58</ele>
        <time>2019-03-30T14:13:07Z</time>
      </trkpt>
      <trkpt lat="48.4265" lon="-2.64524">
        <ele>60</ele>
        <time>2019-03-30T14:13:29Z</time>
      </trkpt>
      <trkpt lat="48.42645" lon="-2.64519">
        <ele>58</ele>
        <time>2019-03-30T14:13:33Z</time>
      </trkpt>
      <trkpt lat="48.42644" lon="-2.64511">
        <ele>56</ele>
        <time>2019-03-30T14:13:38Z</time>
      </trkpt>
      <trkpt lat="48.42643" lon="-2.64503">
        <ele>54</ele>
        <time>2019-03-30T14:13:42Z</time>
      </trkpt>
      <trkpt lat="48.42645" lon="-2.64462">
        <ele>56</ele>
        <time>2019-03-30T14:13:58Z</time>
      </trkpt>
      <trkpt lat="48.42645" lon="-2.64447">
        <ele>56</ele>
        <time>2019-03-30T14:14:05Z</time>
      </trkpt>
      <trkpt lat="48.42645" lon="-2.64432">
        <ele>56</ele>
        <time>2019-03-30T14:14:11Z</time>
      </trkpt>
      <trkpt lat="48.42645" lon="-2.64426">
        <ele>55</ele>
        <time>2019-03-30T14:14:14Z</time>
      </trkpt>
      <trkpt lat="48.42646" lon="-2.64394">
        <ele>57</ele>
        <time>2019-03-30T14:14:27Z</time>
      </trkpt>
      <trkpt lat="48.42644" lon="-2.64387">
        <ele>57</ele>
        <time>2019-03-30T14:14:30Z</time>
      </trkpt>
      <trkpt lat="48.4264" lon="-2.64381">
        <ele>58</ele>
        <time>2019-03-30T14:14:33Z</time>
      </trkpt>
      <trkpt lat="48.42637" lon="-2.64377">
        <ele>59</ele>
        <time>2019-03-30T14:14:36Z</time>
      </trkpt>
      <trkpt lat="48.42628" lon="-2.64367">
        <ele>61</ele>
        <time>2019-03-30T14:14:43Z</time>
      </trkpt>
      <trkpt lat="48.42614" lon="-2.64329">
        <ele>65</ele>
        <time>2019-03-30T14:15:01Z</time>
      </trkpt>
      <trkpt lat="48.42612" lon="-2.64322">
        <ele>65</ele>
        <time>2019-03-30T14:15:04Z</time>
      </trkpt>
      <trkpt lat="48.42609" lon="-2.64315">
        <ele>65</ele>
        <time>2019-03-30T14:15:08Z</time>
      </trkpt>
      <trkpt lat="48.42604" lon="-2.64309">
        <ele>65</ele>
        <time>2019-03-30T14:15:12Z</time>
      </trkpt>
      <trkpt lat="48.42602" lon="-2.64303">
        <ele>66</ele>
        <time>2019-03-30T14:15:15Z</time>
      </trkpt>
      <trkpt lat="48.42597" lon="-2.64303">
        <ele>65</ele>
        <time>2019-03-30T14:15:20Z</time>
      </trkpt>
      <trkpt lat="48.42592" lon="-2.64307">
        <ele>63</ele>
        <time>2019-03-30T14:15:23Z</time>
      </trkpt>
      <trkpt lat="48.42578" lon="-2.64335">
        <ele>64</ele>
        <time>2019-03-30T14:15:34Z</time>
      </trkpt>
      <trkpt lat="48.42563" lon="-2.64354">
        <ele>65</ele>
        <time>2019-03-30T14:15:40Z</time>
      </trkpt>
      <trkpt lat="48.42553" lon="-2.64368">
        <ele>65</ele>
        <time>2019-03-30T14:15:44Z</time>
      </trkpt>
      <trkpt lat="48.42551" lon="-2.64377">
        <ele>65</ele>
        <time>2019-03-30T14:15:46Z</time>
      </trkpt>
      <trkpt lat="48.42542" lon="-2.64394">
        <ele>66</ele>
        <time>2019-03-30T14:15:50Z</time>
      </trkpt>
      <trkpt lat="48.42524" lon="-2.64411">
        <ele>66</ele>
        <time>2019-03-30T14:15:56Z</time>
      </trkpt>
      <trkpt lat="48.42505" lon="-2.64418">
        <ele>65</ele>
        <time>2019-03-30T14:16:02Z</time>
      </trkpt>
      <trkpt lat="48.42498" lon="-2.6442">
        <ele>65</ele>
        <time>2019-03-30T14:16:04Z</time>
      </trkpt>
      <trkpt lat="48.42488" lon="-2.6443">
        <ele>64</ele>
        <time>2019-03-30T14:16:08Z</time>
      </trkpt>
      <trkpt lat="48.42482" lon="-2.64432">
        <ele>63</ele>
        <time>2019-03-30T14:16:10Z</time>
      </trkpt>
      <trkpt lat="48.42478" lon="-2.6443">
        <ele>62</ele>
        <time>2019-03-30T14:16:12Z</time>
      </trkpt>
      <trkpt lat="48.42466" lon="-2.6441">
        <ele>61</ele>
        <time>2019-03-30T14:16:20Z</time>
      </trkpt>
      <trkpt lat="48.42462" lon="-2.64393">
        <ele>59</ele>
        <time>2019-03-30T14:16:26Z</time>
      </trkpt>
      <trkpt lat="48.42461" lon="-2.64387">
        <ele>58</ele>
        <time>2019-03-30T14:16:29Z</time>
      </trkpt>
      <trkpt lat="48.4246" lon="-2.6438">
        <ele>59</ele>
        <time>2019-03-30T14:16:35Z</time>
      </trkpt>
      <trkpt lat="48.42455" lon="-2.64377">
        <ele>59</ele>
        <time>2019-03-30T14:16:40Z</time>
      </trkpt>
      <trkpt lat="48.42449" lon="-2.64377">
        <ele>60</ele>
        <time>2019-03-30T14:16:45Z</time>
      </trkpt>
      <trkpt lat="48.42441" lon="-2.64369">
        <ele>62</ele>
        <time>2019-03-30T14:16:53Z</time>
      </trkpt>
      <trkpt lat="48.4243" lon="-2.64367">
        <ele>64</ele>
        <time>2019-03-30T14:17:01Z</time>
      </trkpt>
      <trkpt lat="48.42395" lon="-2.64369">
        <ele>65</ele>
        <time>2019-03-30T14:17:12Z</time>
      </trkpt>
      <trkpt lat="48.42381" lon="-2.64368">
        <ele>65</ele>
        <time>2019-03-30T14:17:16Z</time>
      </trkpt>
      <trkpt lat="48.42374" lon="-2.64364">
        <ele>65</ele>
        <time>2019-03-30T14:17:18Z</time>
      </trkpt>
      <trkpt lat="48.42364" lon="-2.64352">
        <ele>64</ele>
        <time>2019-03-30T14:17:21Z</time>
      </trkpt>
      <trkpt lat="48.42356" lon="-2.64331">
        <ele>64</ele>
        <time>2019-03-30T14:17:25Z</time>
      </trkpt>
      <trkpt lat="48.42354" lon="-2.6432">
        <ele>64</ele>
        <time>2019-03-30T14:17:27Z</time>
      </trkpt>
      <trkpt lat="48.42351" lon="-2.6431">
        <ele>64</ele>
        <time>2019-03-30T14:17:29Z</time>
      </trkpt>
      <trkpt lat="48.42346" lon="-2.64307">
        <ele>64</ele>
        <time>2019-03-30T14:17:31Z</time>
      </trkpt>
      <trkpt lat="48.42331" lon="-2.64314">
        <ele>63</ele>
        <time>2019-03-30T14:17:34Z</time>
      </trkpt>
      <trkpt lat="48.42314" lon="-2.64343">
        <ele>65</ele>
        <time>2019-03-30T14:17:40Z</time>
      </trkpt>
      <trkpt lat="48.42299" lon="-2.64384">
        <ele>66</ele>
        <time>2019-03-30T14:17:50Z</time>
      </trkpt>
      <trkpt lat="48.42294" lon="-2.64418">
        <ele>63</ele>
        <time>2019-03-30T14:18:02Z</time>
      </trkpt>
      <trkpt lat="48.42294" lon="-2.64443">
        <ele>61</ele>
        <time>2019-03-30T14:18:15Z</time>
      </trkpt>
      <trkpt lat="48.42292" lon="-2.64459">
        <ele>61</ele>
        <time>2019-03-30T14:18:19Z</time>
      </trkpt>
      <trkpt lat="48.4229" lon="-2.64475">
        <ele>60</ele>
        <time>2019-03-30T14:18:23Z</time>
      </trkpt>
      <trkpt lat="48.42286" lon="-2.645">
        <ele>60</ele>
        <time>2019-03-30T14:18:29Z</time>
      </trkpt>
      <trkpt lat="48.42285" lon="-2.64524">
        <ele>61</ele>
        <time>2019-03-30T14:18:36Z</time>
      </trkpt>
      <trkpt lat="48.42286" lon="-2.64532">
        <ele>62</ele>
        <time>2019-03-30T14:18:40Z</time>
      </trkpt>
      <trkpt lat="48.42284" lon="-2.64549">
        <ele>62</ele>
        <time>2019-03-30T14:18:45Z</time>
      </trkpt>
      <trkpt lat="48.42285" lon="-2.64581">
        <ele>60</ele>
        <time>2019-03-30T14:18:51Z</time>
      </trkpt>
      <trkpt lat="48.42311" lon="-2.64673">
        <ele>64</ele>
        <time>2019-03-30T14:19:24Z</time>
      </trkpt>
      <trkpt lat="48.42313" lon="-2.6468">
        <ele>64</ele>
        <time>2019-03-30T14:19:28Z</time>
      </trkpt>
      <trkpt lat="48.42315" lon="-2.64687">
        <ele>65</ele>
        <time>2019-03-30T14:19:31Z</time>
      </trkpt>
      <trkpt lat="48.42314" lon="-2.64718">
        <ele>67</ele>
        <time>2019-03-30T14:19:46Z</time>
      </trkpt>
      <trkpt lat="48.42313" lon="-2.64725">
        <ele>67</ele>
        <time>2019-03-30T14:19:49Z</time>
      </trkpt>
      <trkpt lat="48.42311" lon="-2.64733">
        <ele>68</ele>
        <time>2019-03-30T14:19:53Z</time>
      </trkpt>
      <trkpt lat="48.42296" lon="-2.64755">
        <ele>68</ele>
        <time>2019-03-30T14:20:06Z</time>
      </trkpt>
      <trkpt lat="48.42273" lon="-2.64777">
        <ele>69</ele>
        <time>2019-03-30T14:20:22Z</time>
      </trkpt>
      <trkpt lat="48.42269" lon="-2.64781">
        <ele>69</ele>
        <time>2019-03-30T14:20:24Z</time>
      </trkpt>
      <trkpt lat="48.42251" lon="-2.6482">
        <ele>69</ele>
        <time>2019-03-30T14:20:34Z</time>
      </trkpt>
      <trkpt lat="48.42226" lon="-2.64928">
        <ele>69</ele>
        <time>2019-03-30T14:21:04Z</time>
      </trkpt>
      <trkpt lat="48.42224" lon="-2.64951">
        <ele>69</ele>
        <time>2019-03-30T14:21:15Z</time>
      </trkpt>
      <trkpt lat="48.42222" lon="-2.64958">
        <ele>67</ele>
        <time>2019-03-30T14:21:20Z</time>
      </trkpt>
      <trkpt lat="48.42216" lon="-2.6497">
        <ele>66</ele>
        <time>2019-03-30T14:21:27Z</time>
      </trkpt>
      <trkpt lat="48.42212" lon="-2.64976">
        <ele>66</ele>
        <time>2019-03-30T14:21:31Z</time>
      </trkpt>
      <trkpt lat="48.42192" lon="-2.64989">
        <ele>63</ele>
        <time>2019-03-30T14:21:45Z</time>
      </trkpt>
      <trkpt lat="48.42187" lon="-2.64992">
        <ele>63</ele>
        <time>2019-03-30T14:21:50Z</time>
      </trkpt>
      <trkpt lat="48.42182" lon="-2.64989">
        <ele>65</ele>
        <time>2019-03-30T14:21:54Z</time>
      </trkpt>
      <trkpt lat="48.42179" lon="-2.64983">
        <ele>66</ele>
        <time>2019-03-30T14:21:59Z</time>
      </trkpt>
      <trkpt lat="48.42151" lon="-2.64981">
        <ele>68</ele>
        <time>2019-03-30T14:22:20Z</time>
      </trkpt>
      <trkpt lat="48.42137" lon="-2.64982">
        <ele>69</ele>
        <time>2019-03-30T14:22:30Z</time>
      </trkpt>
      <trkpt lat="48.42121" lon="-2.64978">
        <ele>68</ele>
        <time>2019-03-30T14:22:40Z</time>
      </trkpt>
      <trkpt lat="48.42107" lon="-2.64985">
        <ele>68</ele>
        <time>2019-03-30T14:22:52Z</time>
      </trkpt>
      <trkpt lat="48.42101" lon="-2.64985">
        <ele>68</ele>
        <time>2019-03-30T14:22:56Z</time>
      </trkpt>
      <trkpt lat="48.42096" lon="-2.64983">
        <ele>69</ele>
        <time>2019-03-30T14:23:00Z</time>
      </trkpt>
      <trkpt lat="48.42066" lon="-2.64977">
        <ele>73</ele>
        <time>2019-03-30T14:23:20Z</time>
      </trkpt>
      <trkpt lat="48.42061" lon="-2.64977">
        <ele>74</ele>
        <time>2019-03-30T14:23:29Z</time>
      </trkpt>
      <trkpt lat="48.42051" lon="-2.6498">
        <ele>74</ele>
        <time>2019-03-30T14:23:35Z</time>
      </trkpt>
      <trkpt lat="48.42026" lon="-2.64993">
        <ele>75</ele>
        <time>2019-03-30T14:23:53Z</time>
      </trkpt>
      <trkpt lat="48.42022" lon="-2.64997">
        <ele>75</ele>
        <time>2019-03-30T14:23:56Z</time>
      </trkpt>
      <trkpt lat="48.42003" lon="-2.65013">
        <ele>79</ele>
        <time>2019-03-30T14:24:10Z</time>
      </trkpt>
      <trkpt lat="48.41999" lon="-2.65017">
        <ele>80</ele>
        <time>2019-03-30T14:24:14Z</time>
      </trkpt>
      <trkpt lat="48.41985" lon="-2.65027">
        <ele>82</ele>
        <time>2019-03-30T14:24:26Z</time>
      </trkpt>
      <trkpt lat="48.4198" lon="-2.65025">
        <ele>85</ele>
        <time>2019-03-30T14:24:31Z</time>
      </trkpt>
      <trkpt lat="48.41979" lon="-2.65018">
        <ele>86</ele>
        <time>2019-03-30T14:24:36Z</time>
      </trkpt>
      <trkpt lat="48.41981" lon="-2.6501">
        <ele>86</ele>
        <time>2019-03-30T14:24:39Z</time>
      </trkpt>
      <trkpt lat="48.4198" lon="-2.65002">
        <ele>86</ele>
        <time>2019-03-30T14:24:42Z</time>
      </trkpt>
      <trkpt lat="48.41979" lon="-2.64993">
        <ele>84</ele>
        <time>2019-03-30T14:24:45Z</time>
      </trkpt>
      <trkpt lat="48.41977" lon="-2.64977">
        <ele>81</ele>
        <time>2019-03-30T14:24:51Z</time>
      </trkpt>
      <trkpt lat="48.41977" lon="-2.6497">
        <ele>80</ele>
        <time>2019-03-30T14:24:54Z</time>
      </trkpt>
      <trkpt lat="48.41975" lon="-2.64963">
        <ele>80</ele>
        <time>2019-03-30T14:24:59Z</time>
      </trkpt>
      <trkpt lat="48.41975" lon="-2.64949">
        <ele>81</ele>
        <time>2019-03-30T14:25:09Z</time>
      </trkpt>
      <trkpt lat="48.41973" lon="-2.64935">
        <ele>82</ele>
        <time>2019-03-30T14:25:16Z</time>
      </trkpt>
      <trkpt lat="48.4197" lon="-2.64929">
        <ele>82</ele>
        <time>2019-03-30T14:25:19Z</time>
      </trkpt>
      <trkpt lat="48.41961" lon="-2.64919">
        <ele>82</ele>
        <time>2019-03-30T14:25:28Z</time>
      </trkpt>
      <trkpt lat="48.41957" lon="-2.64918">
        <ele>81</ele>
        <time>2019-03-30T14:25:31Z</time>
      </trkpt>
      <trkpt lat="48.41954" lon="-2.64904">
        <ele>78</ele>
        <time>2019-03-30T14:25:41Z</time>
      </trkpt>
      <trkpt lat="48.41938" lon="-2.64846">
        <ele>71</ele>
        <time>2019-03-30T14:26:10Z</time>
      </trkpt>
      <trkpt lat="48.41936" lon="-2.6484">
        <ele>70</ele>
        <time>2019-03-30T14:26:13Z</time>
      </trkpt>
      <trkpt lat="48.41932" lon="-2.64836">
        <ele>69</ele>
        <time>2019-03-30T14:26:19Z</time>
      </trkpt>
      <trkpt lat="48.41927" lon="-2.64837">
        <ele>70</ele>
        <time>2019-03-30T14:26:22Z</time>
      </trkpt>
      <trkpt lat="48.41921" lon="-2.64835">
        <ele>70</ele>
        <time>2019-03-30T14:26:25Z</time>
      </trkpt>
      <trkpt lat="48.41915" lon="-2.64835">
        <ele>70</ele>
        <time>2019-03-30T14:26:28Z</time>
      </trkpt>
      <trkpt lat="48.419" lon="-2.64839">
        <ele>70</ele>
        <time>2019-03-30T14:26:34Z</time>
      </trkpt>
      <trkpt lat="48.41896" lon="-2.64844">
        <ele>70</ele>
        <time>2019-03-30T14:26:36Z</time>
      </trkpt>
      <trkpt lat="48.41892" lon="-2.64847">
        <ele>69</ele>
        <time>2019-03-30T14:26:39Z</time>
      </trkpt>
      <trkpt lat="48.41887" lon="-2.64848">
        <ele>69</ele>
        <time>2019-03-30T14:26:42Z</time>
      </trkpt>
      <trkpt lat="48.41883" lon="-2.64853">
        <ele>69</ele>
        <time>2019-03-30T14:26:44Z</time>
      </trkpt>
      <trkpt lat="48.41864" lon="-2.64858">
        <ele>68</ele>
        <time>2019-03-30T14:26:50Z</time>
      </trkpt>
      <trkpt lat="48.41852" lon="-2.6487">
        <ele>69</ele>
        <time>2019-03-30T14:26:54Z</time>
      </trkpt>
      <trkpt lat="48.41846" lon="-2.64873">
        <ele>69</ele>
        <time>2019-03-30T14:26:57Z</time>
      </trkpt>
      <trkpt lat="48.4184" lon="-2.64874">
        <ele>69</ele>
        <time>2019-03-30T14:27:00Z</time>
      </trkpt>
      <trkpt lat="48.41834" lon="-2.64875">
        <ele>70</ele>
        <time>2019-03-30T14:27:03Z</time>
      </trkpt>
      <trkpt lat="48.41829" lon="-2.64874">
        <ele>71</ele>
        <time>2019-03-30T14:27:06Z</time>
      </trkpt>
      <trkpt lat="48.41823" lon="-2.64875">
        <ele>73</ele>
        <time>2019-03-30T14:27:11Z</time>
      </trkpt>
      <trkpt lat="48.41802" lon="-2.64892">
        <ele>75</ele>
        <time>2019-03-30T14:27:29Z</time>
      </trkpt>
      <trkpt lat="48.41797" lon="-2.6489">
        <ele>76</ele>
        <time>2019-03-30T14:27:32Z</time>
      </trkpt>
      <trkpt lat="48.41792" lon="-2.64891">
        <ele>79</ele>
        <time>2019-03-30T14:27:36Z</time>
      </trkpt>
      <trkpt lat="48.41788" lon="-2.64894">
        <ele>80</ele>
        <time>2019-03-30T14:27:39Z</time>
      </trkpt>
      <trkpt lat="48.41771" lon="-2.64906">
        <ele>83</ele>
        <time>2019-03-30T14:27:46Z</time>
      </trkpt>
      <trkpt lat="48.41766" lon="-2.64909">
        <ele>82</ele>
        <time>2019-03-30T14:27:48Z</time>
      </trkpt>
      <trkpt lat="48.41762" lon="-2.64913">
        <ele>81</ele>
        <time>2019-03-30T14:27:50Z</time>
      </trkpt>
      <trkpt lat="48.41757" lon="-2.64916">
        <ele>81</ele>
        <time>2019-03-30T14:27:52Z</time>
      </trkpt>
      <trkpt lat="48.41748" lon="-2.64917">
        <ele>82</ele>
        <time>2019-03-30T14:27:56Z</time>
      </trkpt>
      <trkpt lat="48.41736" lon="-2.6492">
        <ele>83</ele>
        <time>2019-03-30T14:28:01Z</time>
      </trkpt>
      <trkpt lat="48.41729" lon="-2.64931">
        <ele>85</ele>
        <time>2019-03-30T14:28:10Z</time>
      </trkpt>
      <trkpt lat="48.41724" lon="-2.64929">
        <ele>85</ele>
        <time>2019-03-30T14:28:13Z</time>
      </trkpt>
      <trkpt lat="48.41715" lon="-2.64932">
        <ele>85</ele>
        <time>2019-03-30T14:28:20Z</time>
      </trkpt>
      <trkpt lat="48.4171" lon="-2.64934">
        <ele>84</ele>
        <time>2019-03-30T14:28:22Z</time>
      </trkpt>
      <trkpt lat="48.41706" lon="-2.64938">
        <ele>84</ele>
        <time>2019-03-30T14:28:26Z</time>
      </trkpt>
      <trkpt lat="48.41693" lon="-2.64948">
        <ele>80</ele>
        <time>2019-03-30T14:28:31Z</time>
      </trkpt>
      <trkpt lat="48.41691" lon="-2.64954">
        <ele>79</ele>
        <time>2019-03-30T14:28:33Z</time>
      </trkpt>
      <trkpt lat="48.41683" lon="-2.64964">
        <ele>77</ele>
        <time>2019-03-30T14:28:40Z</time>
      </trkpt>
      <trkpt lat="48.41642" lon="-2.65003">
        <ele>77</ele>
        <time>2019-03-30T14:29:04Z</time>
      </trkpt>
      <trkpt lat="48.41637" lon="-2.6501">
        <ele>76</ele>
        <time>2019-03-30T14:29:06Z</time>
      </trkpt>
      <trkpt lat="48.41619" lon="-2.6503">
        <ele>76</ele>
        <time>2019-03-30T14:29:12Z</time>
      </trkpt>
      <trkpt lat="48.41574" lon="-2.65108">
        <ele>80</ele>
        <time>2019-03-30T14:29:38Z</time>
      </trkpt>
      <trkpt lat="48.41566" lon="-2.65119">
        <ele>81</ele>
        <time>2019-03-30T14:29:43Z</time>
      </trkpt>
      <trkpt lat="48.41561" lon="-2.65131">
        <ele>82</ele>
        <time>2019-03-30T14:29:48Z</time>
      </trkpt>
      <trkpt lat="48.41553" lon="-2.6515">
        <ele>84</ele>
        <time>2019-03-30T14:30:00Z</time>
      </trkpt>
      <trkpt lat="48.41548" lon="-2.65166">
        <ele>83</ele>
        <time>2019-03-30T14:30:08Z</time>
      </trkpt>
      <trkpt lat="48.41545" lon="-2.65172">
        <ele>83</ele>
        <time>2019-03-30T14:30:11Z</time>
      </trkpt>
      <trkpt lat="48.41541" lon="-2.65176">
        <ele>82</ele>
        <time>2019-03-30T14:30:16Z</time>
      </trkpt>
      <trkpt lat="48.41534" lon="-2.65186">
        <ele>82</ele>
        <time>2019-03-30T14:30:26Z</time>
      </trkpt>
      <trkpt lat="48.41529" lon="-2.6519">
        <ele>82</ele>
        <time>2019-03-30T14:30:30Z</time>
      </trkpt>
      <trkpt lat="48.41525" lon="-2.65195">
        <ele>82</ele>
        <time>2019-03-30T14:30:33Z</time>
      </trkpt>
      <trkpt lat="48.41505" lon="-2.65218">
        <ele>85</ele>
        <time>2019-03-30T14:30:48Z</time>
      </trkpt>
      <trkpt lat="48.41497" lon="-2.65226">
        <ele>86</ele>
        <time>2019-03-30T14:30:57Z</time>
      </trkpt>
      <trkpt lat="48.41473" lon="-2.65256">
        <ele>86</ele>
        <time>2019-03-30T14:31:21Z</time>
      </trkpt>
      <trkpt lat="48.41469" lon="-2.6526">
        <ele>86</ele>
        <time>2019-03-30T14:31:24Z</time>
      </trkpt>
      <trkpt lat="48.41464" lon="-2.65265">
        <ele>86</ele>
        <time>2019-03-30T14:31:28Z</time>
      </trkpt>
      <trkpt lat="48.41459" lon="-2.65268">
        <ele>85</ele>
        <time>2019-03-30T14:31:32Z</time>
      </trkpt>
      <trkpt lat="48.41453" lon="-2.65268">
        <ele>85</ele>
        <time>2019-03-30T14:31:36Z</time>
      </trkpt>
      <trkpt lat="48.41448" lon="-2.65265">
        <ele>85</ele>
        <time>2019-03-30T14:31:45Z</time>
      </trkpt>
      <trkpt lat="48.41437" lon="-2.65269">
        <ele>84</ele>
        <time>2019-03-30T14:31:50Z</time>
      </trkpt>
      <trkpt lat="48.41421" lon="-2.6527">
        <ele>81</ele>
        <time>2019-03-30T14:32:01Z</time>
      </trkpt>
      <trkpt lat="48.41416" lon="-2.65268">
        <ele>81</ele>
        <time>2019-03-30T14:32:06Z</time>
      </trkpt>
      <trkpt lat="48.41411" lon="-2.6527">
        <ele>80</ele>
        <time>2019-03-30T14:32:09Z</time>
      </trkpt>
      <trkpt lat="48.41408" lon="-2.65274">
        <ele>80</ele>
        <time>2019-03-30T14:32:12Z</time>
      </trkpt>
      <trkpt lat="48.41397" lon="-2.65291">
        <ele>78</ele>
        <time>2019-03-30T14:32:24Z</time>
      </trkpt>
      <trkpt lat="48.41395" lon="-2.65297">
        <ele>77</ele>
        <time>2019-03-30T14:32:29Z</time>
      </trkpt>
      <trkpt lat="48.41394" lon="-2.65305">
        <ele>75</ele>
        <time>2019-03-30T14:32:33Z</time>
      </trkpt>
      <trkpt lat="48.41391" lon="-2.65312">
        <ele>74</ele>
        <time>2019-03-30T14:32:37Z</time>
      </trkpt>
      <trkpt lat="48.4139" lon="-2.65319">
        <ele>72</ele>
        <time>2019-03-30T14:32:42Z</time>
      </trkpt>
      <trkpt lat="48.41382" lon="-2.65329">
        <ele>72</ele>
        <time>2019-03-30T14:32:50Z</time>
      </trkpt>
      <trkpt lat="48.41379" lon="-2.65336">
        <ele>71</ele>
        <time>2019-03-30T14:33:02Z</time>
      </trkpt>
      <trkpt lat="48.41374" lon="-2.65339">
        <ele>72</ele>
        <time>2019-03-30T14:33:05Z</time>
      </trkpt>
      <trkpt lat="48.41369" lon="-2.65341">
        <ele>73</ele>
        <time>2019-03-30T14:33:10Z</time>
      </trkpt>
      <trkpt lat="48.41354" lon="-2.65337">
        <ele>75</ele>
        <time>2019-03-30T14:33:20Z</time>
      </trkpt>
      <trkpt lat="48.41345" lon="-2.65339">
        <ele>74</ele>
        <time>2019-03-30T14:33:27Z</time>
      </trkpt>
      <trkpt lat="48.4134" lon="-2.6534">
        <ele>74</ele>
        <time>2019-03-30T14:33:31Z</time>
      </trkpt>
      <trkpt lat="48.41336" lon="-2.65344">
        <ele>74</ele>
        <time>2019-03-30T14:33:34Z</time>
      </trkpt>
      <trkpt lat="48.41325" lon="-2.65349">
        <ele>75</ele>
        <time>2019-03-30T14:33:39Z</time>
      </trkpt>
      <trkpt lat="48.41316" lon="-2.6536">
        <ele>75</ele>
        <time>2019-03-30T14:33:43Z</time>
      </trkpt>
      <trkpt lat="48.41297" lon="-2.65374">
        <ele>75</ele>
        <time>2019-03-30T14:33:48Z</time>
      </trkpt>
      <trkpt lat="48.41281" lon="-2.65385">
        <ele>76</ele>
        <time>2019-03-30T14:33:52Z</time>
      </trkpt>
      <trkpt lat="48.41262" lon="-2.654">
        <ele>76</ele>
        <time>2019-03-30T14:33:57Z</time>
      </trkpt>
      <trkpt lat="48.41245" lon="-2.65407">
        <ele>75</ele>
        <time>2019-03-30T14:34:00Z</time>
      </trkpt>
      <trkpt lat="48.41226" lon="-2.65423">
        <ele>75</ele>
        <time>2019-03-30T14:34:04Z</time>
      </trkpt>
      <trkpt lat="48.41187" lon="-2.65454">
        <ele>72</ele>
        <time>2019-03-30T14:34:13Z</time>
      </trkpt>
      <trkpt lat="48.41171" lon="-2.65483">
        <ele>72</ele>
        <time>2019-03-30T14:34:19Z</time>
      </trkpt>
      <trkpt lat="48.41165" lon="-2.65501">
        <ele>73</ele>
        <time>2019-03-30T14:34:26Z</time>
      </trkpt>
      <trkpt lat="48.41167" lon="-2.65509">
        <ele>74</ele>
        <time>2019-03-30T14:35:06Z</time>
      </trkpt>
      <trkpt lat="48.41172" lon="-2.65513">
        <ele>76</ele>
        <time>2019-03-30T14:35:18Z</time>
      </trkpt>
      <trkpt lat="48.41188" lon="-2.65521">
        <ele>82</ele>
        <time>2019-03-30T14:35:44Z</time>
      </trkpt>
      <trkpt lat="48.41204" lon="-2.65534">
        <ele>84</ele>
        <time>2019-03-30T14:35:59Z</time>
      </trkpt>
      <trkpt lat="48.41205" lon="-2.65541">
        <ele>85</ele>
        <time>2019-03-30T14:36:03Z</time>
      </trkpt>
      <trkpt lat="48.41203" lon="-2.65556">
        <ele>87</ele>
        <time>2019-03-30T14:36:13Z</time>
      </trkpt>
      <trkpt lat="48.41202" lon="-2.65564">
        <ele>88</ele>
        <time>2019-03-30T14:36:19Z</time>
      </trkpt>
      <trkpt lat="48.41202" lon="-2.65571">
        <ele>89</ele>
        <time>2019-03-30T14:36:24Z</time>
      </trkpt>
      <trkpt lat="48.41203" lon="-2.65578">
        <ele>90</ele>
        <time>2019-03-30T14:36:29Z</time>
      </trkpt>
      <trkpt lat="48.41204" lon="-2.65585">
        <ele>92</ele>
        <time>2019-03-30T14:36:56Z</time>
      </trkpt>
      <trkpt lat="48.41201" lon="-2.65595">
        <ele>92</ele>
        <time>2019-03-30T14:37:11Z</time>
      </trkpt>
      <trkpt lat="48.412" lon="-2.65601">
        <ele>94</ele>
        <time>2019-03-30T14:37:15Z</time>
      </trkpt>
      <trkpt lat="48.41219" lon="-2.65626">
        <ele>94</ele>
        <time>2019-03-30T14:37:31Z</time>
      </trkpt>
      <trkpt lat="48.41221" lon="-2.65635">
        <ele>94</ele>
        <time>2019-03-30T14:37:35Z</time>
      </trkpt>
      <trkpt lat="48.41222" lon="-2.65644">
        <ele>93</ele>
        <time>2019-03-30T14:37:39Z</time>
      </trkpt>
      <trkpt lat="48.41225" lon="-2.6565">
        <ele>93</ele>
        <time>2019-03-30T14:37:46Z</time>
      </trkpt>
      <trkpt lat="48.41228" lon="-2.65658">
        <ele>93</ele>
        <time>2019-03-30T14:37:50Z</time>
      </trkpt>
      <trkpt lat="48.4123" lon="-2.65665">
        <ele>93</ele>
        <time>2019-03-30T14:37:54Z</time>
      </trkpt>
      <trkpt lat="48.41231" lon="-2.65672">
        <ele>94</ele>
        <time>2019-03-30T14:37:57Z</time>
      </trkpt>
      <trkpt lat="48.41232" lon="-2.6568">
        <ele>94</ele>
        <time>2019-03-30T14:38:00Z</time>
      </trkpt>
      <trkpt lat="48.41226" lon="-2.65693">
        <ele>95</ele>
        <time>2019-03-30T14:38:09Z</time>
      </trkpt>
      <trkpt lat="48.41225" lon="-2.657">
        <ele>94</ele>
        <time>2019-03-30T14:38:12Z</time>
      </trkpt>
      <trkpt lat="48.41234" lon="-2.65732">
        <ele>91</ele>
        <time>2019-03-30T14:38:24Z</time>
      </trkpt>
      <trkpt lat="48.41233" lon="-2.6574">
        <ele>91</ele>
        <time>2019-03-30T14:38:30Z</time>
      </trkpt>
      <trkpt lat="48.41238" lon="-2.65753">
        <ele>93</ele>
        <time>2019-03-30T14:38:41Z</time>
      </trkpt>
      <trkpt lat="48.41239" lon="-2.65761">
        <ele>94</ele>
        <time>2019-03-30T14:38:44Z</time>
      </trkpt>
      <trkpt lat="48.41237" lon="-2.65769">
        <ele>94</ele>
        <time>2019-03-30T14:38:49Z</time>
      </trkpt>
      <trkpt lat="48.4123" lon="-2.65779">
        <ele>94</ele>
        <time>2019-03-30T14:38:57Z</time>
      </trkpt>
      <trkpt lat="48.41223" lon="-2.65799">
        <ele>96</ele>
        <time>2019-03-30T14:39:07Z</time>
      </trkpt>
      <trkpt lat="48.41222" lon="-2.65807">
        <ele>97</ele>
        <time>2019-03-30T14:39:13Z</time>
      </trkpt>
      <trkpt lat="48.41222" lon="-2.65823">
        <ele>96</ele>
        <time>2019-03-30T14:39:19Z</time>
      </trkpt>
      <trkpt lat="48.41216" lon="-2.65845">
        <ele>94</ele>
        <time>2019-03-30T14:39:31Z</time>
      </trkpt>
      <trkpt lat="48.41206" lon="-2.65859">
        <ele>92</ele>
        <time>2019-03-30T14:39:42Z</time>
      </trkpt>
      <trkpt lat="48.41206" lon="-2.65852">
        <ele>92</ele>
        <time>2019-03-30T14:40:12Z</time>
      </trkpt>
      <trkpt lat="48.4121" lon="-2.65839">
        <ele>93</ele>
        <time>2019-03-30T14:40:19Z</time>
      </trkpt>
      <trkpt lat="48.41218" lon="-2.65803">
        <ele>96</ele>
        <time>2019-03-30T14:40:35Z</time>
      </trkpt>
      <trkpt lat="48.41224" lon="-2.65791">
        <ele>96</ele>
        <time>2019-03-30T14:40:42Z</time>
      </trkpt>
      <trkpt lat="48.4123" lon="-2.65776">
        <ele>96</ele>
        <time>2019-03-30T14:40:50Z</time>
      </trkpt>
      <trkpt lat="48.41235" lon="-2.65771">
        <ele>97</ele>
        <time>2019-03-30T14:40:54Z</time>
      </trkpt>
      <trkpt lat="48.41272" lon="-2.65775">
        <ele>100</ele>
        <time>2019-03-30T14:41:03Z</time>
      </trkpt>
      <trkpt lat="48.4133" lon="-2.65763">
        <ele>99</ele>
        <time>2019-03-30T14:41:15Z</time>
      </trkpt>
      <trkpt lat="48.41335" lon="-2.65767">
        <ele>98</ele>
        <time>2019-03-30T14:41:26Z</time>
      </trkpt>
      <trkpt lat="48.41356" lon="-2.65762">
        <ele>97</ele>
        <time>2019-03-30T14:41:32Z</time>
      </trkpt>
      <trkpt lat="48.414" lon="-2.6577">
        <ele>97</ele>
        <time>2019-03-30T14:41:41Z</time>
      </trkpt>
      <trkpt lat="48.41415" lon="-2.65766">
        <ele>97</ele>
        <time>2019-03-30T14:41:44Z</time>
      </trkpt>
      <trkpt lat="48.41499" lon="-2.65713">
        <ele>96</ele>
        <time>2019-03-30T14:42:05Z</time>
      </trkpt>
      <trkpt lat="48.41512" lon="-2.65695">
        <ele>95</ele>
        <time>2019-03-30T14:42:12Z</time>
      </trkpt>
      <trkpt lat="48.41519" lon="-2.65668">
        <ele>96</ele>
        <time>2019-03-30T14:42:25Z</time>
      </trkpt>
      <trkpt lat="48.41527" lon="-2.65655">
        <ele>96</ele>
        <time>2019-03-30T14:42:33Z</time>
      </trkpt>
      <trkpt lat="48.41538" lon="-2.65652">
        <ele>97</ele>
        <time>2019-03-30T14:42:39Z</time>
      </trkpt>
      <trkpt lat="48.41553" lon="-2.65654">
        <ele>98</ele>
        <time>2019-03-30T14:42:48Z</time>
      </trkpt>
      <trkpt lat="48.41577" lon="-2.65666">
        <ele>98</ele>
        <time>2019-03-30T14:43:05Z</time>
      </trkpt>
      <trkpt lat="48.41581" lon="-2.65669">
        <ele>98</ele>
        <time>2019-03-30T14:43:09Z</time>
      </trkpt>
      <trkpt lat="48.41584" lon="-2.65676">
        <ele>98</ele>
        <time>2019-03-30T14:43:13Z</time>
      </trkpt>
      <trkpt lat="48.41589" lon="-2.6568">
        <ele>98</ele>
        <time>2019-03-30T14:43:17Z</time>
      </trkpt>
      <trkpt lat="48.41615" lon="-2.65703">
        <ele>96</ele>
        <time>2019-03-30T14:43:38Z</time>
      </trkpt>
      <trkpt lat="48.4162" lon="-2.65706">
        <ele>96</ele>
        <time>2019-03-30T14:43:41Z</time>
      </trkpt>
      <trkpt lat="48.4164" lon="-2.65722">
        <ele>95</ele>
        <time>2019-03-30T14:43:56Z</time>
      </trkpt>
      <trkpt lat="48.41676" lon="-2.6574">
        <ele>90</ele>
        <time>2019-03-30T14:44:23Z</time>
      </trkpt>
      <trkpt lat="48.41723" lon="-2.65748">
        <ele>95</ele>
        <time>2019-03-30T14:44:55Z</time>
      </trkpt>
      <trkpt lat="48.41743" lon="-2.65752">
        <ele>96</ele>
        <time>2019-03-30T14:45:10Z</time>
      </trkpt>
      <trkpt lat="48.41775" lon="-2.65762">
        <ele>98</ele>
        <time>2019-03-30T14:45:32Z</time>
      </trkpt>
      <trkpt lat="48.4178" lon="-2.65764">
        <ele>98</ele>
        <time>2019-03-30T14:45:36Z</time>
      </trkpt>
      <trkpt lat="48.418" lon="-2.65771">
        <ele>99</ele>
        <time>2019-03-30T14:45:49Z</time>
      </trkpt>
      <trkpt lat="48.41806" lon="-2.65772">
        <ele>98</ele>
        <time>2019-03-30T14:46:04Z</time>
      </trkpt>
      <trkpt lat="48.4181" lon="-2.65773">
        <ele>99</ele>
        <time>2019-03-30T14:46:07Z</time>
      </trkpt>
      <trkpt lat="48.41816" lon="-2.65775">
        <ele>98</ele>
        <time>2019-03-30T14:46:11Z</time>
      </trkpt>
      <trkpt lat="48.41832" lon="-2.65778">
        <ele>94</ele>
        <time>2019-03-30T14:46:24Z</time>
      </trkpt>
      <trkpt lat="48.41836" lon="-2.6578">
        <ele>95</ele>
        <time>2019-03-30T14:46:27Z</time>
      </trkpt>
      <trkpt lat="48.41856" lon="-2.65785">
        <ele>96</ele>
        <time>2019-03-30T14:46:41Z</time>
      </trkpt>
      <trkpt lat="48.41862" lon="-2.65785">
        <ele>96</ele>
        <time>2019-03-30T14:46:45Z</time>
      </trkpt>
      <trkpt lat="48.41867" lon="-2.65785">
        <ele>96</ele>
        <time>2019-03-30T14:46:48Z</time>
      </trkpt>
      <trkpt lat="48.41872" lon="-2.65789">
        <ele>97</ele>
        <time>2019-03-30T14:46:52Z</time>
      </trkpt>
      <trkpt lat="48.41874" lon="-2.65795">
        <ele>97</ele>
        <time>2019-03-30T14:46:57Z</time>
      </trkpt>
      <trkpt lat="48.41873" lon="-2.65809">
        <ele>95</ele>
        <time>2019-03-30T14:47:04Z</time>
      </trkpt>
      <trkpt lat="48.41877" lon="-2.65826">
        <ele>93</ele>
        <time>2019-03-30T14:47:12Z</time>
      </trkpt>
      <trkpt lat="48.41877" lon="-2.65834">
        <ele>94</ele>
        <time>2019-03-30T14:47:15Z</time>
      </trkpt>
      <trkpt lat="48.41878" lon="-2.65851">
        <ele>94</ele>
        <time>2019-03-30T14:47:24Z</time>
      </trkpt>
      <trkpt lat="48.41883" lon="-2.65871">
        <ele>96</ele>
        <time>2019-03-30T14:47:34Z</time>
      </trkpt>
      <trkpt lat="48.41885" lon="-2.6588">
        <ele>96</ele>
        <time>2019-03-30T14:47:38Z</time>
      </trkpt>
      <trkpt lat="48.4188" lon="-2.65882">
        <ele>96</ele>
        <time>2019-03-30T14:47:42Z</time>
      </trkpt>
      <trkpt lat="48.41877" lon="-2.65889">
        <ele>97</ele>
        <time>2019-03-30T14:47:48Z</time>
      </trkpt>
      <trkpt lat="48.41867" lon="-2.65891">
        <ele>97</ele>
        <time>2019-03-30T14:47:56Z</time>
      </trkpt>
      <trkpt lat="48.41862" lon="-2.65893">
        <ele>97</ele>
        <time>2019-03-30T14:48:00Z</time>
      </trkpt>
      <trkpt lat="48.41858" lon="-2.65894">
        <ele>97</ele>
        <time>2019-03-30T14:48:03Z</time>
      </trkpt>
      <trkpt lat="48.41853" lon="-2.65897">
        <ele>97</ele>
        <time>2019-03-30T14:48:08Z</time>
      </trkpt>
      <trkpt lat="48.4185" lon="-2.65902">
        <ele>97</ele>
        <time>2019-03-30T14:48:12Z</time>
      </trkpt>
      <trkpt lat="48.4185" lon="-2.6591">
        <ele>96</ele>
        <time>2019-03-30T14:48:15Z</time>
      </trkpt>
      <trkpt lat="48.4185" lon="-2.65917">
        <ele>95</ele>
        <time>2019-03-30T14:48:19Z</time>
      </trkpt>
      <trkpt lat="48.41848" lon="-2.65924">
        <ele>95</ele>
        <time>2019-03-30T14:48:25Z</time>
      </trkpt>
      <trkpt lat="48.41846" lon="-2.6593">
        <ele>95</ele>
        <time>2019-03-30T14:48:29Z</time>
      </trkpt>
      <trkpt lat="48.41844" lon="-2.65955">
        <ele>97</ele>
        <time>2019-03-30T14:48:39Z</time>
      </trkpt>
      <trkpt lat="48.4184" lon="-2.65962">
        <ele>97</ele>
        <time>2019-03-30T14:48:43Z</time>
      </trkpt>
      <trkpt lat="48.41836" lon="-2.65967">
        <ele>97</ele>
        <time>2019-03-30T14:48:47Z</time>
      </trkpt>
      <trkpt lat="48.41809" lon="-2.65967">
        <ele>95</ele>
        <time>2019-03-30T14:49:07Z</time>
      </trkpt>
      <trkpt lat="48.41805" lon="-2.65968">
        <ele>95</ele>
        <time>2019-03-30T14:49:11Z</time>
      </trkpt>
      <trkpt lat="48.41801" lon="-2.65974">
        <ele>95</ele>
        <time>2019-03-30T14:49:15Z</time>
      </trkpt>
      <trkpt lat="48.41781" lon="-2.66037">
        <ele>95</ele>
        <time>2019-03-30T14:49:47Z</time>
      </trkpt>
      <trkpt lat="48.41764" lon="-2.66101">
        <ele>101</ele>
        <time>2019-03-30T14:50:17Z</time>
      </trkpt>
      <trkpt lat="48.41761" lon="-2.66108">
        <ele>101</ele>
        <time>2019-03-30T14:50:21Z</time>
      </trkpt>
      <trkpt lat="48.41744" lon="-2.66161">
        <ele>98</ele>
        <time>2019-03-30T14:50:51Z</time>
      </trkpt>
      <trkpt lat="48.4174" lon="-2.66166">
        <ele>98</ele>
        <time>2019-03-30T14:51:00Z</time>
      </trkpt>
      <trkpt lat="48.41671" lon="-2.66207">
        <ele>99</ele>
        <time>2019-03-30T14:51:23Z</time>
      </trkpt>
      <trkpt lat="48.41633" lon="-2.66243">
        <ele>100</ele>
        <time>2019-03-30T14:51:35Z</time>
      </trkpt>
      <trkpt lat="48.41623" lon="-2.66263">
        <ele>100</ele>
        <time>2019-03-30T14:51:39Z</time>
      </trkpt>
      <trkpt lat="48.41616" lon="-2.66287">
        <ele>100</ele>
        <time>2019-03-30T14:51:43Z</time>
      </trkpt>
      <trkpt lat="48.41606" lon="-2.66355">
        <ele>97</ele>
        <time>2019-03-30T14:51:55Z</time>
      </trkpt>
      <trkpt lat="48.41601" lon="-2.66369">
        <ele>97</ele>
        <time>2019-03-30T14:51:59Z</time>
      </trkpt>
      <trkpt lat="48.41594" lon="-2.66383">
        <ele>97</ele>
        <time>2019-03-30T14:52:03Z</time>
      </trkpt>
      <trkpt lat="48.41571" lon="-2.66451">
        <ele>100</ele>
        <time>2019-03-30T14:52:17Z</time>
      </trkpt>
      <trkpt lat="48.41568" lon="-2.66459">
        <ele>101</ele>
        <time>2019-03-30T14:52:20Z</time>
      </trkpt>
      <trkpt lat="48.41556" lon="-2.66472">
        <ele>104</ele>
        <time>2019-03-30T14:52:29Z</time>
      </trkpt>
      <trkpt lat="48.41548" lon="-2.66483">
        <ele>106</ele>
        <time>2019-03-30T14:52:40Z</time>
      </trkpt>
      <trkpt lat="48.41549" lon="-2.66491">
        <ele>107</ele>
        <time>2019-03-30T14:52:47Z</time>
      </trkpt>
      <trkpt lat="48.41556" lon="-2.66501">
        <ele>110</ele>
        <time>2019-03-30T14:52:54Z</time>
      </trkpt>
      <trkpt lat="48.41562" lon="-2.66501">
        <ele>110</ele>
        <time>2019-03-30T14:52:58Z</time>
      </trkpt>
      <trkpt lat="48.41573" lon="-2.66514">
        <ele>110</ele>
        <time>2019-03-30T14:53:03Z</time>
      </trkpt>
      <trkpt lat="48.41579" lon="-2.66518">
        <ele>109</ele>
        <time>2019-03-30T14:53:05Z</time>
      </trkpt>
      <trkpt lat="48.41599" lon="-2.66513">
        <ele>109</ele>
        <time>2019-03-30T14:53:11Z</time>
      </trkpt>
      <trkpt lat="48.41603" lon="-2.66508">
        <ele>103</ele>
        <time>2019-03-30T14:53:38Z</time>
      </trkpt>
      <trkpt lat="48.41623" lon="-2.66508">
        <ele>102</ele>
        <time>2019-03-30T14:53:44Z</time>
      </trkpt>
      <trkpt lat="48.41637" lon="-2.66508">
        <ele>103</ele>
        <time>2019-03-30T14:53:48Z</time>
      </trkpt>
      <trkpt lat="48.41689" lon="-2.66485">
        <ele>102</ele>
        <time>2019-03-30T14:54:04Z</time>
      </trkpt>
      <trkpt lat="48.41705" lon="-2.66493">
        <ele>102</ele>
        <time>2019-03-30T14:54:10Z</time>
      </trkpt>
      <trkpt lat="48.41725" lon="-2.66496">
        <ele>102</ele>
        <time>2019-03-30T14:54:16Z</time>
      </trkpt>
      <trkpt lat="48.41732" lon="-2.66501">
        <ele>102</ele>
        <time>2019-03-30T14:54:18Z</time>
      </trkpt>
      <trkpt lat="48.41747" lon="-2.66505">
        <ele>101</ele>
        <time>2019-03-30T14:54:22Z</time>
      </trkpt>
      <trkpt lat="48.41794" lon="-2.66504">
        <ele>102</ele>
        <time>2019-03-30T14:54:36Z</time>
      </trkpt>
      <trkpt lat="48.41815" lon="-2.6651">
        <ele>103</ele>
        <time>2019-03-30T14:54:47Z</time>
      </trkpt>
      <trkpt lat="48.4182" lon="-2.66512">
        <ele>103</ele>
        <time>2019-03-30T14:54:51Z</time>
      </trkpt>
      <trkpt lat="48.41824" lon="-2.66514">
        <ele>103</ele>
        <time>2019-03-30T14:54:54Z</time>
      </trkpt>
      <trkpt lat="48.41858" lon="-2.66529">
        <ele>104</ele>
        <time>2019-03-30T14:55:15Z</time>
      </trkpt>
      <trkpt lat="48.41903" lon="-2.66544">
        <ele>104</ele>
        <time>2019-03-30T14:55:34Z</time>
      </trkpt>
      <trkpt lat="48.41907" lon="-2.66549">
        <ele>103</ele>
        <time>2019-03-30T14:56:48Z</time>
      </trkpt>
      <trkpt lat="48.41912" lon="-2.66548">
        <ele>99</ele>
        <time>2019-03-30T14:57:01Z</time>
      </trkpt>
      <trkpt lat="48.41911" lon="-2.66555">
        <ele>97</ele>
        <time>2019-03-30T14:58:52Z</time>
      </trkpt>
      <trkpt lat="48.41909" lon="-2.66563">
        <ele>97</ele>
        <time>2019-03-30T14:58:56Z</time>
      </trkpt>
      <trkpt lat="48.4188" lon="-2.66616">
        <ele>95</ele>
        <time>2019-03-30T14:59:13Z</time>
      </trkpt>
      <trkpt lat="48.41875" lon="-2.66622">
        <ele>96</ele>
        <time>2019-03-30T14:59:16Z</time>
      </trkpt>
      <trkpt lat="48.4186" lon="-2.66644">
        <ele>96</ele>
        <time>2019-03-30T14:59:21Z</time>
      </trkpt>
      <trkpt lat="48.41808" lon="-2.66699">
        <ele>94</ele>
        <time>2019-03-30T14:59:33Z</time>
      </trkpt>
      <trkpt lat="48.41764" lon="-2.66779">
        <ele>94</ele>
        <time>2019-03-30T14:59:47Z</time>
      </trkpt>
      <trkpt lat="48.41751" lon="-2.66793">
        <ele>95</ele>
        <time>2019-03-30T14:59:50Z</time>
      </trkpt>
      <trkpt lat="48.41747" lon="-2.66796">
        <ele>95</ele>
        <time>2019-03-30T14:59:51Z</time>
      </trkpt>
      <trkpt lat="48.41714" lon="-2.66818">
        <ele>96</ele>
        <time>2019-03-30T15:00:00Z</time>
      </trkpt>
      <trkpt lat="48.41681" lon="-2.66847">
        <ele>97</ele>
        <time>2019-03-30T15:00:07Z</time>
      </trkpt>
      <trkpt lat="48.41665" lon="-2.66867">
        <ele>98</ele>
        <time>2019-03-30T15:00:12Z</time>
      </trkpt>
      <trkpt lat="48.41651" lon="-2.66895">
        <ele>101</ele>
        <time>2019-03-30T15:00:20Z</time>
      </trkpt>
      <trkpt lat="48.41646" lon="-2.66902">
        <ele>102</ele>
        <time>2019-03-30T15:00:22Z</time>
      </trkpt>
      <trkpt lat="48.41641" lon="-2.66908">
        <ele>104</ele>
        <time>2019-03-30T15:00:24Z</time>
      </trkpt>
      <trkpt lat="48.41628" lon="-2.66909">
        <ele>106</ele>
        <time>2019-03-30T15:00:28Z</time>
      </trkpt>
      <trkpt lat="48.41609" lon="-2.66907">
        <ele>109</ele>
        <time>2019-03-30T15:00:34Z</time>
      </trkpt>
      <trkpt lat="48.41593" lon="-2.66899">
        <ele>111</ele>
        <time>2019-03-30T15:00:41Z</time>
      </trkpt>
      <trkpt lat="48.41588" lon="-2.66896">
        <ele>112</ele>
        <time>2019-03-30T15:00:55Z</time>
      </trkpt>
      <trkpt lat="48.41584" lon="-2.66899">
        <ele>114</ele>
        <time>2019-03-30T15:01:00Z</time>
      </trkpt>
      <trkpt lat="48.4158" lon="-2.66901">
        <ele>117</ele>
        <time>2019-03-30T15:02:04Z</time>
      </trkpt>
      <trkpt lat="48.41573" lon="-2.66963">
        <ele>113</ele>
        <time>2019-03-30T15:02:34Z</time>
      </trkpt>
      <trkpt lat="48.41573" lon="-2.66978">
        <ele>114</ele>
        <time>2019-03-30T15:02:41Z</time>
      </trkpt>
      <trkpt lat="48.41576" lon="-2.67002">
        <ele>114</ele>
        <time>2019-03-30T15:02:53Z</time>
      </trkpt>
      <trkpt lat="48.41577" lon="-2.6701">
        <ele>114</ele>
        <time>2019-03-30T15:02:57Z</time>
      </trkpt>
      <trkpt lat="48.4159" lon="-2.67078">
        <ele>115</ele>
        <time>2019-03-30T15:03:21Z</time>
      </trkpt>
      <trkpt lat="48.41588" lon="-2.67096">
        <ele>116</ele>
        <time>2019-03-30T15:03:25Z</time>
      </trkpt>
      <trkpt lat="48.41578" lon="-2.67145">
        <ele>117</ele>
        <time>2019-03-30T15:03:41Z</time>
      </trkpt>
      <trkpt lat="48.41573" lon="-2.67161">
        <ele>118</ele>
        <time>2019-03-30T15:03:49Z</time>
      </trkpt>
      <trkpt lat="48.4156" lon="-2.67183">
        <ele>117</ele>
        <time>2019-03-30T15:04:03Z</time>
      </trkpt>
      <trkpt lat="48.41553" lon="-2.67193">
        <ele>116</ele>
        <time>2019-03-30T15:04:11Z</time>
      </trkpt>
      <trkpt lat="48.41537" lon="-2.67211">
        <ele>117</ele>
        <time>2019-03-30T15:04:25Z</time>
      </trkpt>
      <trkpt lat="48.41534" lon="-2.67216">
        <ele>118</ele>
        <time>2019-03-30T15:04:29Z</time>
      </trkpt>
      <trkpt lat="48.41529" lon="-2.67218">
        <ele>118</ele>
        <time>2019-03-30T15:04:34Z</time>
      </trkpt>
      <trkpt lat="48.41524" lon="-2.6722">
        <ele>116</ele>
        <time>2019-03-30T15:04:39Z</time>
      </trkpt>
      <trkpt lat="48.41519" lon="-2.67218">
        <ele>116</ele>
        <time>2019-03-30T15:04:43Z</time>
      </trkpt>
      <trkpt lat="48.4144" lon="-2.67247">
        <ele>117</ele>
        <time>2019-03-30T15:05:14Z</time>
      </trkpt>
      <trkpt lat="48.41406" lon="-2.67245">
        <ele>117</ele>
        <time>2019-03-30T15:05:26Z</time>
      </trkpt>
      <trkpt lat="48.41384" lon="-2.67239">
        <ele>117</ele>
        <time>2019-03-30T15:05:34Z</time>
      </trkpt>
      <trkpt lat="48.41379" lon="-2.67241">
        <ele>117</ele>
        <time>2019-03-30T15:05:39Z</time>
      </trkpt>
      <trkpt lat="48.41374" lon="-2.67239">
        <ele>118</ele>
        <time>2019-03-30T15:05:43Z</time>
      </trkpt>
      <trkpt lat="48.41351" lon="-2.67229">
        <ele>118</ele>
        <time>2019-03-30T15:05:52Z</time>
      </trkpt>
      <trkpt lat="48.4126" lon="-2.67236">
        <ele>122</ele>
        <time>2019-03-30T15:06:20Z</time>
      </trkpt>
      <trkpt lat="48.412" lon="-2.67217">
        <ele>125</ele>
        <time>2019-03-30T15:06:51Z</time>
      </trkpt>
      <trkpt lat="48.41195" lon="-2.67215">
        <ele>124</ele>
        <time>2019-03-30T15:06:54Z</time>
      </trkpt>
      <trkpt lat="48.4119" lon="-2.67216">
        <ele>123</ele>
        <time>2019-03-30T15:06:58Z</time>
      </trkpt>
      <trkpt lat="48.41185" lon="-2.67219">
        <ele>123</ele>
        <time>2019-03-30T15:07:02Z</time>
      </trkpt>
      <trkpt lat="48.41181" lon="-2.67222">
        <ele>122</ele>
        <time>2019-03-30T15:07:05Z</time>
      </trkpt>
      <trkpt lat="48.4118" lon="-2.6723">
        <ele>124</ele>
        <time>2019-03-30T15:07:09Z</time>
      </trkpt>
      <trkpt lat="48.41182" lon="-2.67252">
        <ele>126</ele>
        <time>2019-03-30T15:07:20Z</time>
      </trkpt>
      <trkpt lat="48.41184" lon="-2.67259">
        <ele>127</ele>
        <time>2019-03-30T15:07:24Z</time>
      </trkpt>
      <trkpt lat="48.41184" lon="-2.67268">
        <ele>127</ele>
        <time>2019-03-30T15:07:29Z</time>
      </trkpt>
      <trkpt lat="48.41182" lon="-2.67321">
        <ele>131</ele>
        <time>2019-03-30T15:07:50Z</time>
      </trkpt>
      <trkpt lat="48.4118" lon="-2.67329">
        <ele>132</ele>
        <time>2019-03-30T15:07:53Z</time>
      </trkpt>
      <trkpt lat="48.41176" lon="-2.67397">
        <ele>138</ele>
        <time>2019-03-30T15:08:24Z</time>
      </trkpt>
      <trkpt lat="48.41178" lon="-2.67445">
        <ele>139</ele>
        <time>2019-03-30T15:08:46Z</time>
      </trkpt>
      <trkpt lat="48.4118" lon="-2.67487">
        <ele>141</ele>
        <time>2019-03-30T15:09:06Z</time>
      </trkpt>
      <trkpt lat="48.41193" lon="-2.6753">
        <ele>140</ele>
        <time>2019-03-30T15:09:30Z</time>
      </trkpt>
      <trkpt lat="48.41202" lon="-2.67547">
        <ele>139</ele>
        <time>2019-03-30T15:09:40Z</time>
      </trkpt>
      <trkpt lat="48.41206" lon="-2.67552">
        <ele>138</ele>
        <time>2019-03-30T15:09:53Z</time>
      </trkpt>
      <trkpt lat="48.41211" lon="-2.67555">
        <ele>137</ele>
        <time>2019-03-30T15:09:58Z</time>
      </trkpt>
      <trkpt lat="48.41219" lon="-2.67567">
        <ele>136</ele>
        <time>2019-03-30T15:10:07Z</time>
      </trkpt>
      <trkpt lat="48.41227" lon="-2.67596">
        <ele>136</ele>
        <time>2019-03-30T15:10:21Z</time>
      </trkpt>
      <trkpt lat="48.41228" lon="-2.6761">
        <ele>136</ele>
        <time>2019-03-30T15:10:27Z</time>
      </trkpt>
      <trkpt lat="48.41216" lon="-2.67659">
        <ele>134</ele>
        <time>2019-03-30T15:10:51Z</time>
      </trkpt>
      <trkpt lat="48.41212" lon="-2.67674">
        <ele>134</ele>
        <time>2019-03-30T15:10:58Z</time>
      </trkpt>
      <trkpt lat="48.41211" lon="-2.6769">
        <ele>135</ele>
        <time>2019-03-30T15:11:06Z</time>
      </trkpt>
      <trkpt lat="48.41212" lon="-2.67698">
        <ele>135</ele>
        <time>2019-03-30T15:11:09Z</time>
      </trkpt>
      <trkpt lat="48.41212" lon="-2.67714">
        <ele>135</ele>
        <time>2019-03-30T15:11:16Z</time>
      </trkpt>
      <trkpt lat="48.4122" lon="-2.67772">
        <ele>134</ele>
        <time>2019-03-30T15:11:49Z</time>
      </trkpt>
      <trkpt lat="48.41221" lon="-2.67779">
        <ele>135</ele>
        <time>2019-03-30T15:11:54Z</time>
      </trkpt>
      <trkpt lat="48.41221" lon="-2.67835">
        <ele>137</ele>
        <time>2019-03-30T15:12:24Z</time>
      </trkpt>
      <trkpt lat="48.41216" lon="-2.67907">
        <ele>139</ele>
        <time>2019-03-30T15:12:57Z</time>
      </trkpt>
      <trkpt lat="48.41213" lon="-2.67913">
        <ele>138</ele>
        <time>2019-03-30T15:13:00Z</time>
      </trkpt>
      <trkpt lat="48.41212" lon="-2.6792">
        <ele>138</ele>
        <time>2019-03-30T15:13:03Z</time>
      </trkpt>
      <trkpt lat="48.41212" lon="-2.67927">
        <ele>138</ele>
        <time>2019-03-30T15:13:06Z</time>
      </trkpt>
      <trkpt lat="48.41212" lon="-2.67936">
        <ele>138</ele>
        <time>2019-03-30T15:13:10Z</time>
      </trkpt>
      <trkpt lat="48.41212" lon="-2.67958">
        <ele>141</ele>
        <time>2019-03-30T15:13:21Z</time>
      </trkpt>
      <trkpt lat="48.41212" lon="-2.67965">
        <ele>141</ele>
        <time>2019-03-30T15:13:25Z</time>
      </trkpt>
      <trkpt lat="48.4121" lon="-2.67971">
        <ele>141</ele>
        <time>2019-03-30T15:13:30Z</time>
      </trkpt>
      <trkpt lat="48.412" lon="-2.68001">
        <ele>140</ele>
        <time>2019-03-30T15:13:43Z</time>
      </trkpt>
      <trkpt lat="48.41199" lon="-2.68009">
        <ele>140</ele>
        <time>2019-03-30T15:13:45Z</time>
      </trkpt>
      <trkpt lat="48.41201" lon="-2.68042">
        <ele>140</ele>
        <time>2019-03-30T15:13:51Z</time>
      </trkpt>
      <trkpt lat="48.41205" lon="-2.68063">
        <ele>140</ele>
        <time>2019-03-30T15:13:55Z</time>
      </trkpt>
      <trkpt lat="48.41205" lon="-2.68074">
        <ele>140</ele>
        <time>2019-03-30T15:13:57Z</time>
      </trkpt>
      <trkpt lat="48.41203" lon="-2.68085">
        <ele>140</ele>
        <time>2019-03-30T15:13:59Z</time>
      </trkpt>
      <trkpt lat="48.41149" lon="-2.68154">
        <ele>138</ele>
        <time>2019-03-30T15:14:16Z</time>
      </trkpt>
      <trkpt lat="48.41143" lon="-2.68159">
        <ele>137</ele>
        <time>2019-03-30T15:14:18Z</time>
      </trkpt>
      <trkpt lat="48.41137" lon="-2.68161">
        <ele>137</ele>
        <time>2019-03-30T15:14:20Z</time>
      </trkpt>
      <trkpt lat="48.41067" lon="-2.68148">
        <ele>135</ele>
        <time>2019-03-30T15:14:36Z</time>
      </trkpt>
      <trkpt lat="48.41027" lon="-2.68123">
        <ele>134</ele>
        <time>2019-03-30T15:14:45Z</time>
      </trkpt>
      <trkpt lat="48.41002" lon="-2.68097">
        <ele>136</ele>
        <time>2019-03-30T15:14:53Z</time>
      </trkpt>
      <trkpt lat="48.40904" lon="-2.68074">
        <ele>133</ele>
        <time>2019-03-30T15:15:24Z</time>
      </trkpt>
      <trkpt lat="48.40874" lon="-2.68065">
        <ele>133</ele>
        <time>2019-03-30T15:15:46Z</time>
      </trkpt>
      <trkpt lat="48.40867" lon="-2.68055">
        <ele>133</ele>
        <time>2019-03-30T15:15:53Z</time>
      </trkpt>
      <trkpt lat="48.40863" lon="-2.68049">
        <ele>134</ele>
        <time>2019-03-30T15:15:57Z</time>
      </trkpt>
      <trkpt lat="48.40861" lon="-2.68036">
        <ele>134</ele>
        <time>2019-03-30T15:16:03Z</time>
      </trkpt>
      <trkpt lat="48.40857" lon="-2.68029">
        <ele>134</ele>
        <time>2019-03-30T15:16:07Z</time>
      </trkpt>
      <trkpt lat="48.40853" lon="-2.68023">
        <ele>134</ele>
        <time>2019-03-30T15:16:11Z</time>
      </trkpt>
      <trkpt lat="48.40848" lon="-2.6802">
        <ele>134</ele>
        <time>2019-03-30T15:16:14Z</time>
      </trkpt>
      <trkpt lat="48.40821" lon="-2.68015">
        <ele>137</ele>
        <time>2019-03-30T15:16:30Z</time>
      </trkpt>
      <trkpt lat="48.40794" lon="-2.68019">
        <ele>136</ele>
        <time>2019-03-30T15:16:50Z</time>
      </trkpt>
      <trkpt lat="48.40789" lon="-2.68019">
        <ele>136</ele>
        <time>2019-03-30T15:16:54Z</time>
      </trkpt>
      <trkpt lat="48.40784" lon="-2.68018">
        <ele>137</ele>
        <time>2019-03-30T15:16:58Z</time>
      </trkpt>
      <trkpt lat="48.40779" lon="-2.68015">
        <ele>138</ele>
        <time>2019-03-30T15:17:03Z</time>
      </trkpt>
      <trkpt lat="48.40769" lon="-2.6801">
        <ele>138</ele>
        <time>2019-03-30T15:17:11Z</time>
      </trkpt>
      <trkpt lat="48.40763" lon="-2.68006">
        <ele>138</ele>
        <time>2019-03-30T15:17:14Z</time>
      </trkpt>
      <trkpt lat="48.40758" lon="-2.68003">
        <ele>139</ele>
        <time>2019-03-30T15:17:19Z</time>
      </trkpt>
      <trkpt lat="48.40753" lon="-2.68001">
        <ele>139</ele>
        <time>2019-03-30T15:17:23Z</time>
      </trkpt>
      <trkpt lat="48.40734" lon="-2.67963">
        <ele>139</ele>
        <time>2019-03-30T15:17:33Z</time>
      </trkpt>
      <trkpt lat="48.40733" lon="-2.67954">
        <ele>139</ele>
        <time>2019-03-30T15:17:35Z</time>
      </trkpt>
      <trkpt lat="48.40734" lon="-2.67945">
        <ele>138</ele>
        <time>2019-03-30T15:17:37Z</time>
      </trkpt>
      <trkpt lat="48.40735" lon="-2.67937">
        <ele>139</ele>
        <time>2019-03-30T15:17:40Z</time>
      </trkpt>
      <trkpt lat="48.40733" lon="-2.6793">
        <ele>140</ele>
        <time>2019-03-30T15:17:45Z</time>
      </trkpt>
      <trkpt lat="48.40727" lon="-2.67926">
        <ele>141</ele>
        <time>2019-03-30T15:17:48Z</time>
      </trkpt>
      <trkpt lat="48.40723" lon="-2.67922">
        <ele>142</ele>
        <time>2019-03-30T15:17:50Z</time>
      </trkpt>
      <trkpt lat="48.4071" lon="-2.67913">
        <ele>143</ele>
        <time>2019-03-30T15:17:58Z</time>
      </trkpt>
      <trkpt lat="48.40706" lon="-2.67909">
        <ele>143</ele>
        <time>2019-03-30T15:18:01Z</time>
      </trkpt>
      <trkpt lat="48.40701" lon="-2.67895">
        <ele>143</ele>
        <time>2019-03-30T15:18:07Z</time>
      </trkpt>
      <trkpt lat="48.40697" lon="-2.67887">
        <ele>144</ele>
        <time>2019-03-30T15:18:11Z</time>
      </trkpt>
      <trkpt lat="48.40693" lon="-2.67887">
        <ele>145</ele>
        <time>2019-03-30T15:18:15Z</time>
      </trkpt>
      <trkpt lat="48.40689" lon="-2.67891">
        <ele>148</ele>
        <time>2019-03-30T15:18:19Z</time>
      </trkpt>
      <trkpt lat="48.40688" lon="-2.6789">
        <ele>149</ele>
        <time>2019-03-30T15:18:30Z</time>
      </trkpt>
      <trkpt lat="48.40687" lon="-2.67883">
        <ele>149</ele>
        <time>2019-03-30T15:18:33Z</time>
      </trkpt>
      <trkpt lat="48.40682" lon="-2.67882">
        <ele>149</ele>
        <time>2019-03-30T15:18:36Z</time>
      </trkpt>
      <trkpt lat="48.40676" lon="-2.67882">
        <ele>145</ele>
        <time>2019-03-30T15:18:39Z</time>
      </trkpt>
      <trkpt lat="48.40671" lon="-2.67885">
        <ele>143</ele>
        <time>2019-03-30T15:18:43Z</time>
      </trkpt>
      <trkpt lat="48.4066" lon="-2.67884">
        <ele>141</ele>
        <time>2019-03-30T15:18:49Z</time>
      </trkpt>
      <trkpt lat="48.40655" lon="-2.67886">
        <ele>140</ele>
        <time>2019-03-30T15:18:52Z</time>
      </trkpt>
      <trkpt lat="48.40649" lon="-2.67887">
        <ele>138</ele>
        <time>2019-03-30T15:18:55Z</time>
      </trkpt>
      <trkpt lat="48.40643" lon="-2.67887">
        <ele>137</ele>
        <time>2019-03-30T15:18:59Z</time>
      </trkpt>
      <trkpt lat="48.4064" lon="-2.67882">
        <ele>136</ele>
        <time>2019-03-30T15:19:04Z</time>
      </trkpt>
      <trkpt lat="48.40642" lon="-2.67877">
        <ele>135</ele>
        <time>2019-03-30T15:19:08Z</time>
      </trkpt>
      <trkpt lat="48.40655" lon="-2.67823">
        <ele>132</ele>
        <time>2019-03-30T15:19:21Z</time>
      </trkpt>
      <trkpt lat="48.40655" lon="-2.67804">
        <ele>132</ele>
        <time>2019-03-30T15:19:25Z</time>
      </trkpt>
      <trkpt lat="48.40653" lon="-2.67796">
        <ele>132</ele>
        <time>2019-03-30T15:19:27Z</time>
      </trkpt>
      <trkpt lat="48.40634" lon="-2.67782">
        <ele>131</ele>
        <time>2019-03-30T15:19:33Z</time>
      </trkpt>
      <trkpt lat="48.40557" lon="-2.67765">
        <ele>132</ele>
        <time>2019-03-30T15:19:57Z</time>
      </trkpt>
      <trkpt lat="48.40544" lon="-2.67759">
        <ele>132</ele>
        <time>2019-03-30T15:20:01Z</time>
      </trkpt>
      <trkpt lat="48.40528" lon="-2.67753">
        <ele>129</ele>
        <time>2019-03-30T15:20:12Z</time>
      </trkpt>
      <trkpt lat="48.40473" lon="-2.67749">
        <ele>125</ele>
        <time>2019-03-30T15:20:32Z</time>
      </trkpt>
      <trkpt lat="48.40419" lon="-2.67714">
        <ele>129</ele>
        <time>2019-03-30T15:20:59Z</time>
      </trkpt>
      <trkpt lat="48.40409" lon="-2.67711">
        <ele>129</ele>
        <time>2019-03-30T15:21:05Z</time>
      </trkpt>
      <trkpt lat="48.40383" lon="-2.67716">
        <ele>125</ele>
        <time>2019-03-30T15:21:24Z</time>
      </trkpt>
      <trkpt lat="48.40377" lon="-2.67718">
        <ele>125</ele>
        <time>2019-03-30T15:21:28Z</time>
      </trkpt>
      <trkpt lat="48.40302" lon="-2.67729">
        <ele>123</ele>
        <time>2019-03-30T15:21:58Z</time>
      </trkpt>
      <trkpt lat="48.40291" lon="-2.67731">
        <ele>122</ele>
        <time>2019-03-30T15:22:05Z</time>
      </trkpt>
      <trkpt lat="48.40281" lon="-2.67729">
        <ele>120</ele>
        <time>2019-03-30T15:22:11Z</time>
      </trkpt>
      <trkpt lat="48.40277" lon="-2.67727">
        <ele>120</ele>
        <time>2019-03-30T15:22:14Z</time>
      </trkpt>
      <trkpt lat="48.40275" lon="-2.67712">
        <ele>122</ele>
        <time>2019-03-30T15:22:22Z</time>
      </trkpt>
      <trkpt lat="48.40275" lon="-2.67704">
        <ele>123</ele>
        <time>2019-03-30T15:22:27Z</time>
      </trkpt>
      <trkpt lat="48.40272" lon="-2.67699">
        <ele>126</ele>
        <time>2019-03-30T15:22:31Z</time>
      </trkpt>
      <trkpt lat="48.40275" lon="-2.67692">
        <ele>127</ele>
        <time>2019-03-30T15:22:35Z</time>
      </trkpt>
      <trkpt lat="48.40275" lon="-2.67685">
        <ele>128</ele>
        <time>2019-03-30T15:22:41Z</time>
      </trkpt>
      <trkpt lat="48.40322" lon="-2.67596">
        <ele>135</ele>
        <time>2019-03-30T15:23:10Z</time>
      </trkpt>
      <trkpt lat="48.4034" lon="-2.67531">
        <ele>137</ele>
        <time>2019-03-30T15:23:26Z</time>
      </trkpt>
      <trkpt lat="48.40344" lon="-2.67524">
        <ele>137</ele>
        <time>2019-03-30T15:23:29Z</time>
      </trkpt>
      <trkpt lat="48.40352" lon="-2.67501">
        <ele>139</ele>
        <time>2019-03-30T15:23:37Z</time>
      </trkpt>
      <trkpt lat="48.40354" lon="-2.67488">
        <ele>140</ele>
        <time>2019-03-30T15:23:42Z</time>
      </trkpt>
      <trkpt lat="48.40352" lon="-2.6748">
        <ele>141</ele>
        <time>2019-03-30T15:23:45Z</time>
      </trkpt>
      <trkpt lat="48.4036" lon="-2.67457">
        <ele>143</ele>
        <time>2019-03-30T15:23:54Z</time>
      </trkpt>
      <trkpt lat="48.40362" lon="-2.67449">
        <ele>144</ele>
        <time>2019-03-30T15:23:58Z</time>
      </trkpt>
      <trkpt lat="48.40366" lon="-2.6742">
        <ele>148</ele>
        <time>2019-03-30T15:24:13Z</time>
      </trkpt>
      <trkpt lat="48.40366" lon="-2.67401">
        <ele>152</ele>
        <time>2019-03-30T15:24:21Z</time>
      </trkpt>
      <trkpt lat="48.40368" lon="-2.67386">
        <ele>153</ele>
        <time>2019-03-30T15:24:29Z</time>
      </trkpt>
      <trkpt lat="48.40377" lon="-2.67374">
        <ele>152</ele>
        <time>2019-03-30T15:24:41Z</time>
      </trkpt>
      <trkpt lat="48.40382" lon="-2.67371">
        <ele>153</ele>
        <time>2019-03-30T15:24:59Z</time>
      </trkpt>
      <trkpt lat="48.40404" lon="-2.67381">
        <ele>152</ele>
        <time>2019-03-30T15:25:14Z</time>
      </trkpt>
      <trkpt lat="48.40407" lon="-2.67387">
        <ele>146</ele>
        <time>2019-03-30T15:25:24Z</time>
      </trkpt>
      <trkpt lat="48.40425" lon="-2.67392">
        <ele>136</ele>
        <time>2019-03-30T15:25:33Z</time>
      </trkpt>
      <trkpt lat="48.40429" lon="-2.67391">
        <ele>136</ele>
        <time>2019-03-30T15:25:35Z</time>
      </trkpt>
      <trkpt lat="48.40435" lon="-2.67393">
        <ele>136</ele>
        <time>2019-03-30T15:25:39Z</time>
      </trkpt>
      <trkpt lat="48.40439" lon="-2.67397">
        <ele>136</ele>
        <time>2019-03-30T15:25:43Z</time>
      </trkpt>
      <trkpt lat="48.40443" lon="-2.67399">
        <ele>136</ele>
        <time>2019-03-30T15:25:48Z</time>
      </trkpt>
      <trkpt lat="48.40446" lon="-2.67392">
        <ele>137</ele>
        <time>2019-03-30T15:25:53Z</time>
      </trkpt>
      <trkpt lat="48.40454" lon="-2.67369">
        <ele>135</ele>
        <time>2019-03-30T15:26:05Z</time>
      </trkpt>
      <trkpt lat="48.40454" lon="-2.67362">
        <ele>135</ele>
        <time>2019-03-30T15:26:08Z</time>
      </trkpt>
      <trkpt lat="48.40456" lon="-2.67354">
        <ele>135</ele>
        <time>2019-03-30T15:26:12Z</time>
      </trkpt>
      <trkpt lat="48.40463" lon="-2.67343">
        <ele>135</ele>
        <time>2019-03-30T15:26:18Z</time>
      </trkpt>
      <trkpt lat="48.40466" lon="-2.67338">
        <ele>136</ele>
        <time>2019-03-30T15:26:52Z</time>
      </trkpt>
      <trkpt lat="48.40468" lon="-2.67331">
        <ele>136</ele>
        <time>2019-03-30T15:26:56Z</time>
      </trkpt>
      <trkpt lat="48.40469" lon="-2.67322">
        <ele>137</ele>
        <time>2019-03-30T15:27:00Z</time>
      </trkpt>
      <trkpt lat="48.4047" lon="-2.67315">
        <ele>138</ele>
        <time>2019-03-30T15:27:03Z</time>
      </trkpt>
      <trkpt lat="48.40471" lon="-2.67306">
        <ele>139</ele>
        <time>2019-03-30T15:27:07Z</time>
      </trkpt>
      <trkpt lat="48.40479" lon="-2.67288">
        <ele>141</ele>
        <time>2019-03-30T15:27:18Z</time>
      </trkpt>
      <trkpt lat="48.40484" lon="-2.67284">
        <ele>141</ele>
        <time>2019-03-30T15:27:21Z</time>
      </trkpt>
      <trkpt lat="48.40498" lon="-2.67262">
        <ele>143</ele>
        <time>2019-03-30T15:27:34Z</time>
      </trkpt>
      <trkpt lat="48.40505" lon="-2.6725">
        <ele>144</ele>
        <time>2019-03-30T15:27:40Z</time>
      </trkpt>
      <trkpt lat="48.40512" lon="-2.67237">
        <ele>143</ele>
        <time>2019-03-30T15:27:47Z</time>
      </trkpt>
      <trkpt lat="48.40524" lon="-2.67225">
        <ele>138</ele>
        <time>2019-03-30T15:27:57Z</time>
      </trkpt>
      <trkpt lat="48.40528" lon="-2.67217">
        <ele>137</ele>
        <time>2019-03-30T15:28:00Z</time>
      </trkpt>
      <trkpt lat="48.40546" lon="-2.67192">
        <ele>136</ele>
        <time>2019-03-30T15:28:21Z</time>
      </trkpt>
      <trkpt lat="48.40546" lon="-2.67187">
        <ele>136</ele>
        <time>2019-03-30T15:28:33Z</time>
      </trkpt>
      <trkpt lat="48.40545" lon="-2.6718">
        <ele>136</ele>
        <time>2019-03-30T15:28:56Z</time>
      </trkpt>
      <trkpt lat="48.40537" lon="-2.67171">
        <ele>136</ele>
        <time>2019-03-30T15:29:04Z</time>
      </trkpt>
      <trkpt lat="48.40534" lon="-2.67165">
        <ele>137</ele>
        <time>2019-03-30T15:29:08Z</time>
      </trkpt>
      <trkpt lat="48.40517" lon="-2.6715">
        <ele>141</ele>
        <time>2019-03-30T15:29:21Z</time>
      </trkpt>
      <trkpt lat="48.40491" lon="-2.67117">
        <ele>141</ele>
        <time>2019-03-30T15:29:47Z</time>
      </trkpt>
      <trkpt lat="48.40478" lon="-2.67107">
        <ele>141</ele>
        <time>2019-03-30T15:29:57Z</time>
      </trkpt>
      <trkpt lat="48.40475" lon="-2.671">
        <ele>141</ele>
        <time>2019-03-30T15:30:04Z</time>
      </trkpt>
      <trkpt lat="48.4047" lon="-2.67098">
        <ele>140</ele>
        <time>2019-03-30T15:30:08Z</time>
      </trkpt>
      <trkpt lat="48.40446" lon="-2.67067">
        <ele>136</ele>
        <time>2019-03-30T15:30:40Z</time>
      </trkpt>
      <trkpt lat="48.40434" lon="-2.67054">
        <ele>136</ele>
        <time>2019-03-30T15:30:49Z</time>
      </trkpt>
      <trkpt lat="48.40429" lon="-2.6703">
        <ele>133</ele>
        <time>2019-03-30T15:31:05Z</time>
      </trkpt>
      <trkpt lat="48.40427" lon="-2.67022">
        <ele>133</ele>
        <time>2019-03-30T15:31:08Z</time>
      </trkpt>
      <trkpt lat="48.4043" lon="-2.67017">
        <ele>133</ele>
        <time>2019-03-30T15:31:11Z</time>
      </trkpt>
      <trkpt lat="48.40428" lon="-2.6701">
        <ele>133</ele>
        <time>2019-03-30T15:31:17Z</time>
      </trkpt>
      <trkpt lat="48.4043" lon="-2.67003">
        <ele>134</ele>
        <time>2019-03-30T15:31:24Z</time>
      </trkpt>
      <trkpt lat="48.40436" lon="-2.67">
        <ele>133</ele>
        <time>2019-03-30T15:31:27Z</time>
      </trkpt>
      <trkpt lat="48.40456" lon="-2.6698">
        <ele>129</ele>
        <time>2019-03-30T15:31:39Z</time>
      </trkpt>
      <trkpt lat="48.40467" lon="-2.66954">
        <ele>130</ele>
        <time>2019-03-30T15:31:56Z</time>
      </trkpt>
      <trkpt lat="48.40463" lon="-2.66948">
        <ele>130</ele>
        <time>2019-03-30T15:31:59Z</time>
      </trkpt>
      <trkpt lat="48.40461" lon="-2.6693">
        <ele>132</ele>
        <time>2019-03-30T15:32:06Z</time>
      </trkpt>
      <trkpt lat="48.40468" lon="-2.66793">
        <ele>129</ele>
        <time>2019-03-30T15:32:36Z</time>
      </trkpt>
      <trkpt lat="48.40481" lon="-2.66716">
        <ele>128</ele>
        <time>2019-03-30T15:32:55Z</time>
      </trkpt>
      <trkpt lat="48.40485" lon="-2.6671">
        <ele>128</ele>
        <time>2019-03-30T15:32:58Z</time>
      </trkpt>
      <trkpt lat="48.40489" lon="-2.66701">
        <ele>128</ele>
        <time>2019-03-30T15:33:01Z</time>
      </trkpt>
      <trkpt lat="48.4049" lon="-2.66693">
        <ele>128</ele>
        <time>2019-03-30T15:33:04Z</time>
      </trkpt>
      <trkpt lat="48.40491" lon="-2.66686">
        <ele>128</ele>
        <time>2019-03-30T15:33:09Z</time>
      </trkpt>
      <trkpt lat="48.40491" lon="-2.66678">
        <ele>128</ele>
        <time>2019-03-30T15:33:13Z</time>
      </trkpt>
      <trkpt lat="48.40489" lon="-2.66672">
        <ele>128</ele>
        <time>2019-03-30T15:33:16Z</time>
      </trkpt>
      <trkpt lat="48.40489" lon="-2.66663">
        <ele>128</ele>
        <time>2019-03-30T15:33:20Z</time>
      </trkpt>
      <trkpt lat="48.40492" lon="-2.66657">
        <ele>128</ele>
        <time>2019-03-30T15:33:23Z</time>
      </trkpt>
      <trkpt lat="48.40495" lon="-2.6665">
        <ele>128</ele>
        <time>2019-03-30T15:33:26Z</time>
      </trkpt>
      <trkpt lat="48.40497" lon="-2.66643">
        <ele>128</ele>
        <time>2019-03-30T15:33:29Z</time>
      </trkpt>
      <trkpt lat="48.40501" lon="-2.66639">
        <ele>128</ele>
        <time>2019-03-30T15:33:31Z</time>
      </trkpt>
      <trkpt lat="48.40504" lon="-2.66629">
        <ele>127</ele>
        <time>2019-03-30T15:33:34Z</time>
      </trkpt>
      <trkpt lat="48.40522" lon="-2.66597">
        <ele>125</ele>
        <time>2019-03-30T15:33:42Z</time>
      </trkpt>
      <trkpt lat="48.40526" lon="-2.6659">
        <ele>125</ele>
        <time>2019-03-30T15:33:44Z</time>
      </trkpt>
      <trkpt lat="48.40528" lon="-2.66583">
        <ele>126</ele>
        <time>2019-03-30T15:33:46Z</time>
      </trkpt>
      <trkpt lat="48.40529" lon="-2.66575">
        <ele>126</ele>
        <time>2019-03-30T15:33:48Z</time>
      </trkpt>
      <trkpt lat="48.40529" lon="-2.66565">
        <ele>127</ele>
        <time>2019-03-30T15:33:51Z</time>
      </trkpt>
      <trkpt lat="48.40537" lon="-2.66554">
        <ele>128</ele>
        <time>2019-03-30T15:33:57Z</time>
      </trkpt>
      <trkpt lat="48.40541" lon="-2.6655">
        <ele>128</ele>
        <time>2019-03-30T15:33:59Z</time>
      </trkpt>
      <trkpt lat="48.40546" lon="-2.66545">
        <ele>128</ele>
        <time>2019-03-30T15:34:02Z</time>
      </trkpt>
      <trkpt lat="48.40556" lon="-2.66527">
        <ele>127</ele>
        <time>2019-03-30T15:34:08Z</time>
      </trkpt>
      <trkpt lat="48.40558" lon="-2.6652">
        <ele>126</ele>
        <time>2019-03-30T15:34:11Z</time>
      </trkpt>
      <trkpt lat="48.40561" lon="-2.66514">
        <ele>124</ele>
        <time>2019-03-30T15:34:15Z</time>
      </trkpt>
      <trkpt lat="48.40563" lon="-2.66507">
        <ele>121</ele>
        <time>2019-03-30T15:34:20Z</time>
      </trkpt>
      <trkpt lat="48.40566" lon="-2.665">
        <ele>121</ele>
        <time>2019-03-30T15:34:24Z</time>
      </trkpt>
      <trkpt lat="48.40568" lon="-2.66494">
        <ele>120</ele>
        <time>2019-03-30T15:34:27Z</time>
      </trkpt>
      <trkpt lat="48.40571" lon="-2.66487">
        <ele>120</ele>
        <time>2019-03-30T15:34:30Z</time>
      </trkpt>
      <trkpt lat="48.4058" lon="-2.66467">
        <ele>119</ele>
        <time>2019-03-30T15:34:38Z</time>
      </trkpt>
      <trkpt lat="48.40589" lon="-2.66447">
        <ele>117</ele>
        <time>2019-03-30T15:34:48Z</time>
      </trkpt>
      <trkpt lat="48.40592" lon="-2.6644">
        <ele>117</ele>
        <time>2019-03-30T15:34:51Z</time>
      </trkpt>
      <trkpt lat="48.40592" lon="-2.66433">
        <ele>116</ele>
        <time>2019-03-30T15:34:55Z</time>
      </trkpt>
      <trkpt lat="48.40597" lon="-2.66419">
        <ele>115</ele>
        <time>2019-03-30T15:35:02Z</time>
      </trkpt>
      <trkpt lat="48.40604" lon="-2.66409">
        <ele>114</ele>
        <time>2019-03-30T15:35:06Z</time>
      </trkpt>
      <trkpt lat="48.40608" lon="-2.66404">
        <ele>113</ele>
        <time>2019-03-30T15:35:10Z</time>
      </trkpt>
      <trkpt lat="48.40609" lon="-2.66397">
        <ele>113</ele>
        <time>2019-03-30T15:35:14Z</time>
      </trkpt>
      <trkpt lat="48.40613" lon="-2.6639">
        <ele>113</ele>
        <time>2019-03-30T15:35:17Z</time>
      </trkpt>
      <trkpt lat="48.40622" lon="-2.66378">
        <ele>111</ele>
        <time>2019-03-30T15:35:24Z</time>
      </trkpt>
      <trkpt lat="48.40634" lon="-2.66371">
        <ele>110</ele>
        <time>2019-03-30T15:35:31Z</time>
      </trkpt>
      <trkpt lat="48.4064" lon="-2.66371">
        <ele>110</ele>
        <time>2019-03-30T15:35:34Z</time>
      </trkpt>
      <trkpt lat="48.40646" lon="-2.6637">
        <ele>110</ele>
        <time>2019-03-30T15:35:37Z</time>
      </trkpt>
      <trkpt lat="48.40659" lon="-2.66367">
        <ele>109</ele>
        <time>2019-03-30T15:35:42Z</time>
      </trkpt>
      <trkpt lat="48.4067" lon="-2.66361">
        <ele>109</ele>
        <time>2019-03-30T15:35:49Z</time>
      </trkpt>
      <trkpt lat="48.40672" lon="-2.66355">
        <ele>108</ele>
        <time>2019-03-30T15:35:52Z</time>
      </trkpt>
      <trkpt lat="48.40682" lon="-2.6635">
        <ele>109</ele>
        <time>2019-03-30T15:35:59Z</time>
      </trkpt>
      <trkpt lat="48.40688" lon="-2.66349">
        <ele>109</ele>
        <time>2019-03-30T15:36:03Z</time>
      </trkpt>
      <trkpt lat="48.40693" lon="-2.66348">
        <ele>110</ele>
        <time>2019-03-30T15:36:05Z</time>
      </trkpt>
      <trkpt lat="48.40694" lon="-2.66342">
        <ele>111</ele>
        <time>2019-03-30T15:36:19Z</time>
      </trkpt>
      <trkpt lat="48.40689" lon="-2.66339">
        <ele>111</ele>
        <time>2019-03-30T15:36:23Z</time>
      </trkpt>
      <trkpt lat="48.40674" lon="-2.66333">
        <ele>111</ele>
        <time>2019-03-30T15:36:32Z</time>
      </trkpt>
      <trkpt lat="48.40666" lon="-2.66324">
        <ele>109</ele>
        <time>2019-03-30T15:36:38Z</time>
      </trkpt>
      <trkpt lat="48.4066" lon="-2.66323">
        <ele>108</ele>
        <time>2019-03-30T15:36:43Z</time>
      </trkpt>
      <trkpt lat="48.40646" lon="-2.66323">
        <ele>105</ele>
        <time>2019-03-30T15:36:57Z</time>
      </trkpt>
      <trkpt lat="48.40639" lon="-2.66316">
        <ele>102</ele>
        <time>2019-03-30T15:37:11Z</time>
      </trkpt>
      <trkpt lat="48.40616" lon="-2.66316">
        <ele>99</ele>
        <time>2019-03-30T15:37:24Z</time>
      </trkpt>
      <trkpt lat="48.40611" lon="-2.66314">
        <ele>99</ele>
        <time>2019-03-30T15:37:28Z</time>
      </trkpt>
      <trkpt lat="48.40605" lon="-2.6631">
        <ele>99</ele>
        <time>2019-03-30T15:37:32Z</time>
      </trkpt>
      <trkpt lat="48.406" lon="-2.66305">
        <ele>99</ele>
        <time>2019-03-30T15:37:35Z</time>
      </trkpt>
      <trkpt lat="48.40586" lon="-2.66284">
        <ele>97</ele>
        <time>2019-03-30T15:37:48Z</time>
      </trkpt>
      <trkpt lat="48.40581" lon="-2.66285">
        <ele>97</ele>
        <time>2019-03-30T15:37:52Z</time>
      </trkpt>
      <trkpt lat="48.40571" lon="-2.66292">
        <ele>95</ele>
        <time>2019-03-30T15:37:59Z</time>
      </trkpt>
      <trkpt lat="48.40568" lon="-2.66299">
        <ele>94</ele>
        <time>2019-03-30T15:38:02Z</time>
      </trkpt>
      <trkpt lat="48.40565" lon="-2.66307">
        <ele>94</ele>
        <time>2019-03-30T15:38:05Z</time>
      </trkpt>
      <trkpt lat="48.40562" lon="-2.66316">
        <ele>93</ele>
        <time>2019-03-30T15:38:09Z</time>
      </trkpt>
      <trkpt lat="48.40556" lon="-2.66343">
        <ele>91</ele>
        <time>2019-03-30T15:38:17Z</time>
      </trkpt>
      <trkpt lat="48.40554" lon="-2.66351">
        <ele>91</ele>
        <time>2019-03-30T15:38:19Z</time>
      </trkpt>
      <trkpt lat="48.4055" lon="-2.6636">
        <ele>91</ele>
        <time>2019-03-30T15:38:22Z</time>
      </trkpt>
      <trkpt lat="48.40547" lon="-2.66369">
        <ele>91</ele>
        <time>2019-03-30T15:38:25Z</time>
      </trkpt>
      <trkpt lat="48.40545" lon="-2.66379">
        <ele>91</ele>
        <time>2019-03-30T15:38:26Z</time>
      </trkpt>
      <trkpt lat="48.40542" lon="-2.66386">
        <ele>92</ele>
        <time>2019-03-30T15:38:28Z</time>
      </trkpt>
      <trkpt lat="48.40538" lon="-2.6638">
        <ele>91</ele>
        <time>2019-03-30T15:38:33Z</time>
      </trkpt>
      <trkpt lat="48.40534" lon="-2.66375">
        <ele>90</ele>
        <time>2019-03-30T15:38:35Z</time>
      </trkpt>
      <trkpt lat="48.4051" lon="-2.66351">
        <ele>92</ele>
        <time>2019-03-30T15:38:42Z</time>
      </trkpt>
      <trkpt lat="48.40493" lon="-2.6632">
        <ele>92</ele>
        <time>2019-03-30T15:38:49Z</time>
      </trkpt>
      <trkpt lat="48.40486" lon="-2.66287">
        <ele>91</ele>
        <time>2019-03-30T15:38:53Z</time>
      </trkpt>
      <trkpt lat="48.4047" lon="-2.66108">
        <ele>84</ele>
        <time>2019-03-30T15:39:24Z</time>
      </trkpt>
      <trkpt lat="48.40464" lon="-2.66043">
        <ele>86</ele>
        <time>2019-03-30T15:39:38Z</time>
      </trkpt>
      <trkpt lat="48.40466" lon="-2.65999">
        <ele>86</ele>
        <time>2019-03-30T15:39:48Z</time>
      </trkpt>
      <trkpt lat="48.40471" lon="-2.65979">
        <ele>87</ele>
        <time>2019-03-30T15:39:52Z</time>
      </trkpt>
      <trkpt lat="48.4053" lon="-2.65857">
        <ele>93</ele>
        <time>2019-03-30T15:40:22Z</time>
      </trkpt>
      <trkpt lat="48.40539" lon="-2.65838">
        <ele>95</ele>
        <time>2019-03-30T15:40:30Z</time>
      </trkpt>
      <trkpt lat="48.40546" lon="-2.65825">
        <ele>95</ele>
        <time>2019-03-30T15:40:37Z</time>
      </trkpt>
      <trkpt lat="48.40547" lon="-2.65817">
        <ele>95</ele>
        <time>2019-03-30T15:40:41Z</time>
      </trkpt>
      <trkpt lat="48.4055" lon="-2.65802">
        <ele>93</ele>
        <time>2019-03-30T15:40:49Z</time>
      </trkpt>
      <trkpt lat="48.40551" lon="-2.65795">
        <ele>93</ele>
        <time>2019-03-30T15:40:53Z</time>
      </trkpt>
      <trkpt lat="48.40566" lon="-2.65752">
        <ele>92</ele>
        <time>2019-03-30T15:41:14Z</time>
      </trkpt>
      <trkpt lat="48.40578" lon="-2.65684">
        <ele>94</ele>
        <time>2019-03-30T15:41:48Z</time>
      </trkpt>
      <trkpt lat="48.40593" lon="-2.65615">
        <ele>87</ele>
        <time>2019-03-30T15:42:20Z</time>
      </trkpt>
      <trkpt lat="48.40598" lon="-2.6554">
        <ele>90</ele>
        <time>2019-03-30T15:42:50Z</time>
      </trkpt>
      <trkpt lat="48.40604" lon="-2.6552">
        <ele>88</ele>
        <time>2019-03-30T15:42:59Z</time>
      </trkpt>
      <trkpt lat="48.40612" lon="-2.65474">
        <ele>84</ele>
        <time>2019-03-30T15:43:20Z</time>
      </trkpt>
      <trkpt lat="48.40613" lon="-2.65458">
        <ele>84</ele>
        <time>2019-03-30T15:43:26Z</time>
      </trkpt>
      <trkpt lat="48.40617" lon="-2.65427">
        <ele>86</ele>
        <time>2019-03-30T15:43:38Z</time>
      </trkpt>
      <trkpt lat="48.40617" lon="-2.65419">
        <ele>86</ele>
        <time>2019-03-30T15:43:42Z</time>
      </trkpt>
      <trkpt lat="48.40618" lon="-2.65404">
        <ele>85</ele>
        <time>2019-03-30T15:43:49Z</time>
      </trkpt>
      <trkpt lat="48.40621" lon="-2.65397">
        <ele>84</ele>
        <time>2019-03-30T15:43:53Z</time>
      </trkpt>
      <trkpt lat="48.40621" lon="-2.65382">
        <ele>82</ele>
        <time>2019-03-30T15:44:00Z</time>
      </trkpt>
      <trkpt lat="48.40623" lon="-2.65366">
        <ele>81</ele>
        <time>2019-03-30T15:44:07Z</time>
      </trkpt>
      <trkpt lat="48.40621" lon="-2.65327">
        <ele>80</ele>
        <time>2019-03-30T15:44:23Z</time>
      </trkpt>
      <trkpt lat="48.40629" lon="-2.65278">
        <ele>80</ele>
        <time>2019-03-30T15:44:55Z</time>
      </trkpt>
      <trkpt lat="48.40634" lon="-2.6524">
        <ele>77</ele>
        <time>2019-03-30T15:45:12Z</time>
      </trkpt>
      <trkpt lat="48.40636" lon="-2.65231">
        <ele>77</ele>
        <time>2019-03-30T15:45:16Z</time>
      </trkpt>
      <trkpt lat="48.40638" lon="-2.65218">
        <ele>76</ele>
        <time>2019-03-30T15:45:22Z</time>
      </trkpt>
      <trkpt lat="48.40643" lon="-2.65196">
        <ele>75</ele>
        <time>2019-03-30T15:45:32Z</time>
      </trkpt>
      <trkpt lat="48.40645" lon="-2.65189">
        <ele>75</ele>
        <time>2019-03-30T15:45:36Z</time>
      </trkpt>
      <trkpt lat="48.40646" lon="-2.65181">
        <ele>75</ele>
        <time>2019-03-30T15:45:41Z</time>
      </trkpt>
      <trkpt lat="48.40647" lon="-2.65174">
        <ele>74</ele>
        <time>2019-03-30T15:45:44Z</time>
      </trkpt>
      <trkpt lat="48.40657" lon="-2.65135">
        <ele>72</ele>
        <time>2019-03-30T15:46:02Z</time>
      </trkpt>
      <trkpt lat="48.40676" lon="-2.65002">
        <ele>73</ele>
        <time>2019-03-30T15:46:32Z</time>
      </trkpt>
      <trkpt lat="48.40676" lon="-2.64995">
        <ele>74</ele>
        <time>2019-03-30T15:46:34Z</time>
      </trkpt>
      <trkpt lat="48.40677" lon="-2.64988">
        <ele>74</ele>
        <time>2019-03-30T15:46:36Z</time>
      </trkpt>
      <trkpt lat="48.40673" lon="-2.64932">
        <ele>72</ele>
        <time>2019-03-30T15:46:58Z</time>
      </trkpt>
      <trkpt lat="48.40673" lon="-2.64908">
        <ele>72</ele>
        <time>2019-03-30T15:47:07Z</time>
      </trkpt>
      <trkpt lat="48.40666" lon="-2.6476">
        <ele>70</ele>
        <time>2019-03-30T15:47:37Z</time>
      </trkpt>
      <trkpt lat="48.40652" lon="-2.64609">
        <ele>69</ele>
        <time>2019-03-30T15:48:07Z</time>
      </trkpt>
      <trkpt lat="48.40645" lon="-2.64545">
        <ele>68</ele>
        <time>2019-03-30T15:48:24Z</time>
      </trkpt>
      <trkpt lat="48.40638" lon="-2.6451">
        <ele>67</ele>
        <time>2019-03-30T15:48:38Z</time>
      </trkpt>
      <trkpt lat="48.40637" lon="-2.64503">
        <ele>67</ele>
        <time>2019-03-30T15:48:41Z</time>
      </trkpt>
      <trkpt lat="48.40635" lon="-2.64496">
        <ele>67</ele>
        <time>2019-03-30T15:48:45Z</time>
      </trkpt>
      <trkpt lat="48.40631" lon="-2.6448">
        <ele>66</ele>
        <time>2019-03-30T15:48:54Z</time>
      </trkpt>
      <trkpt lat="48.40626" lon="-2.64425">
        <ele>67</ele>
        <time>2019-03-30T15:49:16Z</time>
      </trkpt>
      <trkpt lat="48.40621" lon="-2.64393">
        <ele>68</ele>
        <time>2019-03-30T15:49:30Z</time>
      </trkpt>
      <trkpt lat="48.40622" lon="-2.64376">
        <ele>70</ele>
        <time>2019-03-30T15:49:36Z</time>
      </trkpt>
      <trkpt lat="48.40622" lon="-2.64353">
        <ele>74</ele>
        <time>2019-03-30T15:49:45Z</time>
      </trkpt>
      <trkpt lat="48.40621" lon="-2.64346">
        <ele>74</ele>
        <time>2019-03-30T15:49:49Z</time>
      </trkpt>
      <trkpt lat="48.40622" lon="-2.64337">
        <ele>75</ele>
        <time>2019-03-30T15:49:53Z</time>
      </trkpt>
      <trkpt lat="48.40623" lon="-2.64314">
        <ele>76</ele>
        <time>2019-03-30T15:50:05Z</time>
      </trkpt>
      <trkpt lat="48.40625" lon="-2.64305">
        <ele>76</ele>
        <time>2019-03-30T15:50:09Z</time>
      </trkpt>
      <trkpt lat="48.40626" lon="-2.64298">
        <ele>77</ele>
        <time>2019-03-30T15:50:12Z</time>
      </trkpt>
      <trkpt lat="48.40627" lon="-2.6429">
        <ele>77</ele>
        <time>2019-03-30T15:50:15Z</time>
      </trkpt>
      <trkpt lat="48.40628" lon="-2.64282">
        <ele>77</ele>
        <time>2019-03-30T15:50:19Z</time>
      </trkpt>
      <trkpt lat="48.40643" lon="-2.64214">
        <ele>76</ele>
        <time>2019-03-30T15:50:40Z</time>
      </trkpt>
      <trkpt lat="48.40651" lon="-2.6419">
        <ele>75</ele>
        <time>2019-03-30T15:50:46Z</time>
      </trkpt>
      <trkpt lat="48.4066" lon="-2.64132">
        <ele>74</ele>
        <time>2019-03-30T15:50:58Z</time>
      </trkpt>
      <trkpt lat="48.40668" lon="-2.64087">
        <ele>73</ele>
        <time>2019-03-30T15:51:08Z</time>
      </trkpt>
      <trkpt lat="48.4069" lon="-2.63968">
        <ele>73</ele>
        <time>2019-03-30T15:51:38Z</time>
      </trkpt>
      <trkpt lat="48.40691" lon="-2.63955">
        <ele>73</ele>
        <time>2019-03-30T15:51:44Z</time>
      </trkpt>
      <trkpt lat="48.40692" lon="-2.63946">
        <ele>73</ele>
        <time>2019-03-30T15:51:48Z</time>
      </trkpt>
      <trkpt lat="48.40697" lon="-2.63941">
        <ele>73</ele>
        <time>2019-03-30T15:51:52Z</time>
      </trkpt>
      <trkpt lat="48.40702" lon="-2.63943">
        <ele>73</ele>
        <time>2019-03-30T15:51:56Z</time>
      </trkpt>
      <trkpt lat="48.40783" lon="-2.64006">
        <ele>73</ele>
        <time>2019-03-30T15:52:22Z</time>
      </trkpt>
      <trkpt lat="48.40789" lon="-2.64009">
        <ele>73</ele>
        <time>2019-03-30T15:52:24Z</time>
      </trkpt>
      <trkpt lat="48.4091" lon="-2.64093">
        <ele>72</ele>
        <time>2019-03-30T15:52:55Z</time>
      </trkpt>
      <trkpt lat="48.40923" lon="-2.64102">
        <ele>71</ele>
        <time>2019-03-30T15:52:59Z</time>
      </trkpt>
      <trkpt lat="48.40927" lon="-2.64106">
        <ele>71</ele>
        <time>2019-03-30T15:53:01Z</time>
      </trkpt>
      <trkpt lat="48.40933" lon="-2.64111">
        <ele>70</ele>
        <time>2019-03-30T15:53:03Z</time>
      </trkpt>
      <trkpt lat="48.40939" lon="-2.64117">
        <ele>69</ele>
        <time>2019-03-30T15:53:05Z</time>
      </trkpt>
      <trkpt lat="48.40944" lon="-2.64126">
        <ele>68</ele>
        <time>2019-03-30T15:53:07Z</time>
      </trkpt>
      <trkpt lat="48.40947" lon="-2.64136">
        <ele>68</ele>
        <time>2019-03-30T15:53:09Z</time>
      </trkpt>
      <trkpt lat="48.40944" lon="-2.64171">
        <ele>67</ele>
        <time>2019-03-30T15:53:14Z</time>
      </trkpt>
      <trkpt lat="48.40947" lon="-2.64216">
        <ele>68</ele>
        <time>2019-03-30T15:53:19Z</time>
      </trkpt>
      <trkpt lat="48.40958" lon="-2.64357">
        <ele>66</ele>
        <time>2019-03-30T15:53:39Z</time>
      </trkpt>
      <trkpt lat="48.40959" lon="-2.64375">
        <ele>66</ele>
        <time>2019-03-30T15:53:43Z</time>
      </trkpt>
      <trkpt lat="48.40968" lon="-2.64394">
        <ele>66</ele>
        <time>2019-03-30T15:53:53Z</time>
      </trkpt>
      <trkpt lat="48.40969" lon="-2.64401">
        <ele>66</ele>
        <time>2019-03-30T15:53:56Z</time>
      </trkpt>
      <trkpt lat="48.40968" lon="-2.64409">
        <ele>68</ele>
        <time>2019-03-30T15:54:01Z</time>
      </trkpt>
      <trkpt lat="48.40968" lon="-2.64417">
        <ele>68</ele>
        <time>2019-03-30T15:54:05Z</time>
      </trkpt>
      <trkpt lat="48.4097" lon="-2.64441">
        <ele>68</ele>
        <time>2019-03-30T15:54:17Z</time>
      </trkpt>
      <trkpt lat="48.4098" lon="-2.64582">
        <ele>67</ele>
        <time>2019-03-30T15:54:48Z</time>
      </trkpt>
      <trkpt lat="48.40993" lon="-2.64741">
        <ele>72</ele>
        <time>2019-03-30T15:55:11Z</time>
      </trkpt>
      <trkpt lat="48.40995" lon="-2.6475">
        <ele>73</ele>
        <time>2019-03-30T15:55:13Z</time>
      </trkpt>
      <trkpt lat="48.41006" lon="-2.64758">
        <ele>73</ele>
        <time>2019-03-30T15:55:16Z</time>
      </trkpt>
      <trkpt lat="48.41111" lon="-2.6478">
        <ele>75</ele>
        <time>2019-03-30T15:55:38Z</time>
      </trkpt>
      <trkpt lat="48.41192" lon="-2.64755">
        <ele>81</ele>
        <time>2019-03-30T15:56:11Z</time>
      </trkpt>
      <trkpt lat="48.41197" lon="-2.64756">
        <ele>80</ele>
        <time>2019-03-30T15:56:16Z</time>
      </trkpt>
      <trkpt lat="48.41226" lon="-2.64754">
        <ele>80</ele>
        <time>2019-03-30T15:56:38Z</time>
      </trkpt>
      <trkpt lat="48.41268" lon="-2.64757">
        <ele>81</ele>
        <time>2019-03-30T15:57:06Z</time>
      </trkpt>
      <trkpt lat="48.41274" lon="-2.64758">
        <ele>81</ele>
        <time>2019-03-30T15:57:10Z</time>
      </trkpt>
      <trkpt lat="48.41279" lon="-2.64758">
        <ele>81</ele>
        <time>2019-03-30T15:57:14Z</time>
      </trkpt>
      <trkpt lat="48.41289" lon="-2.64756">
        <ele>81</ele>
        <time>2019-03-30T15:57:20Z</time>
      </trkpt>
      <trkpt lat="48.41315" lon="-2.64755">
        <ele>84</ele>
        <time>2019-03-30T15:57:38Z</time>
      </trkpt>
      <trkpt lat="48.41334" lon="-2.64748">
        <ele>81</ele>
        <time>2019-03-30T15:57:55Z</time>
      </trkpt>
      <trkpt lat="48.41344" lon="-2.64739">
        <ele>81</ele>
        <time>2019-03-30T15:58:01Z</time>
      </trkpt>
      <trkpt lat="48.41348" lon="-2.64737">
        <ele>81</ele>
        <time>2019-03-30T15:58:04Z</time>
      </trkpt>
      <trkpt lat="48.41362" lon="-2.64725">
        <ele>82</ele>
        <time>2019-03-30T15:58:16Z</time>
      </trkpt>
      <trkpt lat="48.41377" lon="-2.64717">
        <ele>82</ele>
        <time>2019-03-30T15:58:28Z</time>
      </trkpt>
      <trkpt lat="48.41382" lon="-2.64718">
        <ele>82</ele>
        <time>2019-03-30T15:58:33Z</time>
      </trkpt>
      <trkpt lat="48.41387" lon="-2.64716">
        <ele>83</ele>
        <time>2019-03-30T15:58:37Z</time>
      </trkpt>
      <trkpt lat="48.41391" lon="-2.64712">
        <ele>84</ele>
        <time>2019-03-30T15:58:47Z</time>
      </trkpt>
      <trkpt lat="48.41395" lon="-2.64706">
        <ele>85</ele>
        <time>2019-03-30T15:58:51Z</time>
      </trkpt>
      <trkpt lat="48.41405" lon="-2.64701">
        <ele>85</ele>
        <time>2019-03-30T15:58:57Z</time>
      </trkpt>
      <trkpt lat="48.4141" lon="-2.64699">
        <ele>85</ele>
        <time>2019-03-30T15:59:00Z</time>
      </trkpt>
      <trkpt lat="48.41419" lon="-2.64696">
        <ele>84</ele>
        <time>2019-03-30T15:59:06Z</time>
      </trkpt>
      <trkpt lat="48.41422" lon="-2.64689">
        <ele>84</ele>
        <time>2019-03-30T15:59:10Z</time>
      </trkpt>
      <trkpt lat="48.41442" lon="-2.64677">
        <ele>83</ele>
        <time>2019-03-30T15:59:24Z</time>
      </trkpt>
      <trkpt lat="48.41482" lon="-2.64643">
        <ele>84</ele>
        <time>2019-03-30T15:59:39Z</time>
      </trkpt>
      <trkpt lat="48.41511" lon="-2.64626">
        <ele>84</ele>
        <time>2019-03-30T15:59:49Z</time>
      </trkpt>
      <trkpt lat="48.41541" lon="-2.64581">
        <ele>80</ele>
        <time>2019-03-30T16:00:16Z</time>
      </trkpt>
      <trkpt lat="48.41554" lon="-2.64566">
        <ele>78</ele>
        <time>2019-03-30T16:00:27Z</time>
      </trkpt>
      <trkpt lat="48.41581" lon="-2.64531">
        <ele>78</ele>
        <time>2019-03-30T16:00:52Z</time>
      </trkpt>
      <trkpt lat="48.41585" lon="-2.64527">
        <ele>78</ele>
        <time>2019-03-30T16:00:55Z</time>
      </trkpt>
      <trkpt lat="48.41594" lon="-2.64524">
        <ele>78</ele>
        <time>2019-03-30T16:01:02Z</time>
      </trkpt>
      <trkpt lat="48.41661" lon="-2.64469">
        <ele>73</ele>
        <time>2019-03-30T16:01:34Z</time>
      </trkpt>
      <trkpt lat="48.41675" lon="-2.64454">
        <ele>71</ele>
        <time>2019-03-30T16:01:40Z</time>
      </trkpt>
      <trkpt lat="48.41735" lon="-2.64356">
        <ele>71</ele>
        <time>2019-03-30T16:02:08Z</time>
      </trkpt>
      <trkpt lat="48.41762" lon="-2.64326">
        <ele>72</ele>
        <time>2019-03-30T16:02:22Z</time>
      </trkpt>
      <trkpt lat="48.41768" lon="-2.64323">
        <ele>72</ele>
        <time>2019-03-30T16:02:26Z</time>
      </trkpt>
      <trkpt lat="48.41777" lon="-2.64314">
        <ele>75</ele>
        <time>2019-03-30T16:02:34Z</time>
      </trkpt>
      <trkpt lat="48.41791" lon="-2.64304">
        <ele>76</ele>
        <time>2019-03-30T16:02:43Z</time>
      </trkpt>
      <trkpt lat="48.41795" lon="-2.64301">
        <ele>77</ele>
        <time>2019-03-30T16:02:46Z</time>
      </trkpt>
      <trkpt lat="48.41823" lon="-2.64283">
        <ele>76</ele>
        <time>2019-03-30T16:03:08Z</time>
      </trkpt>
      <trkpt lat="48.41828" lon="-2.64281">
        <ele>75</ele>
        <time>2019-03-30T16:03:14Z</time>
      </trkpt>
      <trkpt lat="48.41829" lon="-2.64294">
        <ele>73</ele>
        <time>2019-03-30T16:03:43Z</time>
      </trkpt>
      <trkpt lat="48.41834" lon="-2.64292">
        <ele>74</ele>
        <time>2019-03-30T16:04:41Z</time>
      </trkpt>
      <trkpt lat="48.41838" lon="-2.64295">
        <ele>74</ele>
        <time>2019-03-30T16:04:45Z</time>
      </trkpt>
      <trkpt lat="48.41841" lon="-2.64301">
        <ele>76</ele>
        <time>2019-03-30T16:04:48Z</time>
      </trkpt>
      <trkpt lat="48.41844" lon="-2.64324">
        <ele>78</ele>
        <time>2019-03-30T16:05:00Z</time>
      </trkpt>
      <trkpt lat="48.41846" lon="-2.64331">
        <ele>78</ele>
        <time>2019-03-30T16:05:04Z</time>
      </trkpt>
      <trkpt lat="48.4185" lon="-2.64337">
        <ele>79</ele>
        <time>2019-03-30T16:05:07Z</time>
      </trkpt>
      <trkpt lat="48.41855" lon="-2.64337">
        <ele>78</ele>
        <time>2019-03-30T16:05:10Z</time>
      </trkpt>
      <trkpt lat="48.4186" lon="-2.64336">
        <ele>78</ele>
        <time>2019-03-30T16:05:14Z</time>
      </trkpt>
      <trkpt lat="48.41864" lon="-2.64332">
        <ele>78</ele>
        <time>2019-03-30T16:05:18Z</time>
      </trkpt>
      <trkpt lat="48.41868" lon="-2.64326">
        <ele>78</ele>
        <time>2019-03-30T16:05:22Z</time>
      </trkpt>
      <trkpt lat="48.41881" lon="-2.64276">
        <ele>76</ele>
        <time>2019-03-30T16:05:45Z</time>
      </trkpt>
      <trkpt lat="48.41884" lon="-2.64244">
        <ele>79</ele>
        <time>2019-03-30T16:05:56Z</time>
      </trkpt>
      <trkpt lat="48.41885" lon="-2.64238">
        <ele>79</ele>
        <time>2019-03-30T16:05:59Z</time>
      </trkpt>
      <trkpt lat="48.41891" lon="-2.64223">
        <ele>79</ele>
        <time>2019-03-30T16:06:07Z</time>
      </trkpt>
      <trkpt lat="48.41894" lon="-2.64217">
        <ele>79</ele>
        <time>2019-03-30T16:06:10Z</time>
      </trkpt>
      <trkpt lat="48.41896" lon="-2.64209">
        <ele>79</ele>
        <time>2019-03-30T16:06:14Z</time>
      </trkpt>
      <trkpt lat="48.41911" lon="-2.64144">
        <ele>78</ele>
        <time>2019-03-30T16:06:44Z</time>
      </trkpt>
      <trkpt lat="48.41915" lon="-2.64131">
        <ele>77</ele>
        <time>2019-03-30T16:06:50Z</time>
      </trkpt>
      <trkpt lat="48.41917" lon="-2.64116">
        <ele>78</ele>
        <time>2019-03-30T16:06:58Z</time>
      </trkpt>
      <trkpt lat="48.4192" lon="-2.64103">
        <ele>78</ele>
        <time>2019-03-30T16:07:05Z</time>
      </trkpt>
      <trkpt lat="48.41922" lon="-2.64096">
        <ele>78</ele>
        <time>2019-03-30T16:07:10Z</time>
      </trkpt>
      <trkpt lat="48.41924" lon="-2.64087">
        <ele>76</ele>
        <time>2019-03-30T16:07:14Z</time>
      </trkpt>
      <trkpt lat="48.41926" lon="-2.64072">
        <ele>75</ele>
        <time>2019-03-30T16:07:21Z</time>
      </trkpt>
      <trkpt lat="48.41928" lon="-2.64066">
        <ele>75</ele>
        <time>2019-03-30T16:07:26Z</time>
      </trkpt>
      <trkpt lat="48.41933" lon="-2.64063">
        <ele>76</ele>
        <time>2019-03-30T16:07:30Z</time>
      </trkpt>
      <trkpt lat="48.41943" lon="-2.64067">
        <ele>77</ele>
        <time>2019-03-30T16:07:37Z</time>
      </trkpt>
      <trkpt lat="48.41948" lon="-2.64071">
        <ele>76</ele>
        <time>2019-03-30T16:07:41Z</time>
      </trkpt>
      <trkpt lat="48.41953" lon="-2.64074">
        <ele>76</ele>
        <time>2019-03-30T16:07:45Z</time>
      </trkpt>
      <trkpt lat="48.41958" lon="-2.64077">
        <ele>76</ele>
        <time>2019-03-30T16:07:50Z</time>
      </trkpt>
      <trkpt lat="48.42001" lon="-2.64084">
        <ele>78</ele>
        <time>2019-03-30T16:08:20Z</time>
      </trkpt>
      <trkpt lat="48.42027" lon="-2.64086">
        <ele>80</ele>
        <time>2019-03-30T16:08:39Z</time>
      </trkpt>
      <trkpt lat="48.42031" lon="-2.64088">
        <ele>81</ele>
        <time>2019-03-30T16:08:43Z</time>
      </trkpt>
      <trkpt lat="48.42047" lon="-2.64089">
        <ele>83</ele>
        <time>2019-03-30T16:08:54Z</time>
      </trkpt>
      <trkpt lat="48.42053" lon="-2.64089">
        <ele>83</ele>
        <time>2019-03-30T16:08:58Z</time>
      </trkpt>
      <trkpt lat="48.42058" lon="-2.64091">
        <ele>82</ele>
        <time>2019-03-30T16:09:01Z</time>
      </trkpt>
      <trkpt lat="48.42104" lon="-2.64086">
        <ele>77</ele>
        <time>2019-03-30T16:09:33Z</time>
      </trkpt>
      <trkpt lat="48.42109" lon="-2.64088">
        <ele>75</ele>
        <time>2019-03-30T16:09:37Z</time>
      </trkpt>
      <trkpt lat="48.42124" lon="-2.64086">
        <ele>74</ele>
        <time>2019-03-30T16:09:48Z</time>
      </trkpt>
      <trkpt lat="48.4213" lon="-2.64086">
        <ele>73</ele>
        <time>2019-03-30T16:09:52Z</time>
      </trkpt>
      <trkpt lat="48.4215" lon="-2.64084">
        <ele>73</ele>
        <time>2019-03-30T16:10:06Z</time>
      </trkpt>
      <trkpt lat="48.42155" lon="-2.64084">
        <ele>72</ele>
        <time>2019-03-30T16:10:09Z</time>
      </trkpt>
      <trkpt lat="48.42204" lon="-2.64075">
        <ele>70</ele>
        <time>2019-03-30T16:10:40Z</time>
      </trkpt>
      <trkpt lat="48.42213" lon="-2.64074">
        <ele>70</ele>
        <time>2019-03-30T16:10:46Z</time>
      </trkpt>
      <trkpt lat="48.42265" lon="-2.64085">
        <ele>69</ele>
        <time>2019-03-30T16:11:18Z</time>
      </trkpt>
      <trkpt lat="48.42285" lon="-2.64091">
        <ele>70</ele>
        <time>2019-03-30T16:11:32Z</time>
      </trkpt>
      <trkpt lat="48.42305" lon="-2.64096">
        <ele>72</ele>
        <time>2019-03-30T16:11:45Z</time>
      </trkpt>
      <trkpt lat="48.4231" lon="-2.64094">
        <ele>72</ele>
        <time>2019-03-30T16:11:49Z</time>
      </trkpt>
      <trkpt lat="48.4233" lon="-2.641">
        <ele>70</ele>
        <time>2019-03-30T16:12:02Z</time>
      </trkpt>
      <trkpt lat="48.42334" lon="-2.64104">
        <ele>70</ele>
        <time>2019-03-30T16:12:05Z</time>
      </trkpt>
      <trkpt lat="48.42339" lon="-2.64118">
        <ele>70</ele>
        <time>2019-03-30T16:12:12Z</time>
      </trkpt>
      <trkpt lat="48.42344" lon="-2.642">
        <ele>68</ele>
        <time>2019-03-30T16:12:43Z</time>
      </trkpt>
      <trkpt lat="48.42344" lon="-2.64207">
        <ele>68</ele>
        <time>2019-03-30T16:12:46Z</time>
      </trkpt>
      <trkpt lat="48.42347" lon="-2.64237">
        <ele>68</ele>
        <time>2019-03-30T16:12:59Z</time>
      </trkpt>
      <trkpt lat="48.42348" lon="-2.64246">
        <ele>68</ele>
        <time>2019-03-30T16:13:03Z</time>
      </trkpt>
      <trkpt lat="48.42348" lon="-2.6427">
        <ele>69</ele>
        <time>2019-03-30T16:13:11Z</time>
      </trkpt>
      <trkpt lat="48.42348" lon="-2.64279">
        <ele>69</ele>
        <time>2019-03-30T16:13:15Z</time>
      </trkpt>
      <trkpt lat="48.42353" lon="-2.64305">
        <ele>70</ele>
        <time>2019-03-30T16:13:25Z</time>
      </trkpt>
      <trkpt lat="48.42364" lon="-2.64342">
        <ele>70</ele>
        <time>2019-03-30T16:13:40Z</time>
      </trkpt>
      <trkpt lat="48.42366" lon="-2.64349">
        <ele>69</ele>
        <time>2019-03-30T16:13:43Z</time>
      </trkpt>
      <trkpt lat="48.42367" lon="-2.64355">
        <ele>69</ele>
        <time>2019-03-30T16:13:46Z</time>
      </trkpt>
      <trkpt lat="48.4237" lon="-2.64361">
        <ele>69</ele>
        <time>2019-03-30T16:13:49Z</time>
      </trkpt>
      <trkpt lat="48.42375" lon="-2.64364">
        <ele>69</ele>
        <time>2019-03-30T16:13:52Z</time>
      </trkpt>
      <trkpt lat="48.4238" lon="-2.64368">
        <ele>69</ele>
        <time>2019-03-30T16:13:56Z</time>
      </trkpt>
      <trkpt lat="48.42422" lon="-2.64374">
        <ele>67</ele>
        <time>2019-03-30T16:14:26Z</time>
      </trkpt>
      <trkpt lat="48.42442" lon="-2.64372">
        <ele>65</ele>
        <time>2019-03-30T16:14:39Z</time>
      </trkpt>
      <trkpt lat="48.42443" lon="-2.64379">
        <ele>63</ele>
        <time>2019-03-30T16:14:51Z</time>
      </trkpt>
      <trkpt lat="48.42448" lon="-2.64382">
        <ele>62</ele>
        <time>2019-03-30T16:15:01Z</time>
      </trkpt>
      <trkpt lat="48.42453" lon="-2.64383">
        <ele>62</ele>
        <time>2019-03-30T16:15:05Z</time>
      </trkpt>
      <trkpt lat="48.42458" lon="-2.64388">
        <ele>62</ele>
        <time>2019-03-30T16:15:10Z</time>
      </trkpt>
      <trkpt lat="48.42462" lon="-2.64393">
        <ele>63</ele>
        <time>2019-03-30T16:15:13Z</time>
      </trkpt>
      <trkpt lat="48.42468" lon="-2.64406">
        <ele>65</ele>
        <time>2019-03-30T16:15:18Z</time>
      </trkpt>
      <trkpt lat="48.42475" lon="-2.64415">
        <ele>66</ele>
        <time>2019-03-30T16:15:22Z</time>
      </trkpt>
      <trkpt lat="48.42479" lon="-2.64425">
        <ele>66</ele>
        <time>2019-03-30T16:15:24Z</time>
      </trkpt>
      <trkpt lat="48.42484" lon="-2.64425">
        <ele>66</ele>
        <time>2019-03-30T16:15:27Z</time>
      </trkpt>
      <trkpt lat="48.42514" lon="-2.6441">
        <ele>67</ele>
        <time>2019-03-30T16:15:35Z</time>
      </trkpt>
      <trkpt lat="48.4252" lon="-2.64405">
        <ele>67</ele>
        <time>2019-03-30T16:15:37Z</time>
      </trkpt>
      <trkpt lat="48.42525" lon="-2.64399">
        <ele>67</ele>
        <time>2019-03-30T16:15:40Z</time>
      </trkpt>
      <trkpt lat="48.42543" lon="-2.64382">
        <ele>71</ele>
        <time>2019-03-30T16:15:49Z</time>
      </trkpt>
      <trkpt lat="48.42546" lon="-2.64373">
        <ele>71</ele>
        <time>2019-03-30T16:15:52Z</time>
      </trkpt>
      <trkpt lat="48.42554" lon="-2.64352">
        <ele>73</ele>
        <time>2019-03-30T16:16:02Z</time>
      </trkpt>
      <trkpt lat="48.42557" lon="-2.64346">
        <ele>74</ele>
        <time>2019-03-30T16:16:05Z</time>
      </trkpt>
      <trkpt lat="48.4256" lon="-2.64341">
        <ele>77</ele>
        <time>2019-03-30T16:16:09Z</time>
      </trkpt>
      <trkpt lat="48.4257" lon="-2.64335">
        <ele>80</ele>
        <time>2019-03-30T16:16:17Z</time>
      </trkpt>
      <trkpt lat="48.42589" lon="-2.64313">
        <ele>79</ele>
        <time>2019-03-30T16:16:31Z</time>
      </trkpt>
      <trkpt lat="48.42594" lon="-2.64309">
        <ele>79</ele>
        <time>2019-03-30T16:16:33Z</time>
      </trkpt>
      <trkpt lat="48.42602" lon="-2.64298">
        <ele>79</ele>
        <time>2019-03-30T16:16:38Z</time>
      </trkpt>
      <trkpt lat="48.42642" lon="-2.6427">
        <ele>75</ele>
        <time>2019-03-30T16:16:50Z</time>
      </trkpt>
      <trkpt lat="48.42666" lon="-2.64261">
        <ele>75</ele>
        <time>2019-03-30T16:16:55Z</time>
      </trkpt>
      <trkpt lat="48.42677" lon="-2.64256">
        <ele>75</ele>
        <time>2019-03-30T16:16:57Z</time>
      </trkpt>
      <trkpt lat="48.42681" lon="-2.64253">
        <ele>75</ele>
        <time>2019-03-30T16:16:58Z</time>
      </trkpt>
      <trkpt lat="48.42685" lon="-2.64249">
        <ele>75</ele>
        <time>2019-03-30T16:16:59Z</time>
      </trkpt>
      <trkpt lat="48.42694" lon="-2.64221">
        <ele>75</ele>
        <time>2019-03-30T16:17:03Z</time>
      </trkpt>
      <trkpt lat="48.42696" lon="-2.64212">
        <ele>75</ele>
        <time>2019-03-30T16:17:05Z</time>
      </trkpt>
      <trkpt lat="48.42723" lon="-2.64195">
        <ele>75</ele>
        <time>2019-03-30T16:17:16Z</time>
      </trkpt>
      <trkpt lat="48.42732" lon="-2.64185">
        <ele>75</ele>
        <time>2019-03-30T16:17:22Z</time>
      </trkpt>
      <trkpt lat="48.42734" lon="-2.64179">
        <ele>75</ele>
        <time>2019-03-30T16:17:25Z</time>
      </trkpt>
      <trkpt lat="48.42733" lon="-2.64171">
        <ele>75</ele>
        <time>2019-03-30T16:17:41Z</time>
      </trkpt>
      <trkpt lat="48.42733" lon="-2.64162">
        <ele>75</ele>
        <time>2019-03-30T16:17:45Z</time>
      </trkpt>
      <trkpt lat="48.42733" lon="-2.64153">
        <ele>74</ele>
        <time>2019-03-30T16:17:48Z</time>
      </trkpt>
      <trkpt lat="48.42733" lon="-2.64138">
        <ele>74</ele>
        <time>2019-03-30T16:17:52Z</time>
      </trkpt>
      <trkpt lat="48.42736" lon="-2.64115">
        <ele>72</ele>
        <time>2019-03-30T16:17:58Z</time>
      </trkpt>
      <trkpt lat="48.42733" lon="-2.64089">
        <ele>69</ele>
        <time>2019-03-30T16:18:03Z</time>
      </trkpt>
      <trkpt lat="48.42736" lon="-2.64057">
        <ele>66</ele>
        <time>2019-03-30T16:18:07Z</time>
      </trkpt>
      <trkpt lat="48.42745" lon="-2.63978">
        <ele>62</ele>
        <time>2019-03-30T16:18:18Z</time>
      </trkpt>
      <trkpt lat="48.42749" lon="-2.639">
        <ele>60</ele>
        <time>2019-03-30T16:18:30Z</time>
      </trkpt>
      <trkpt lat="48.42751" lon="-2.63874">
        <ele>60</ele>
        <time>2019-03-30T16:18:37Z</time>
      </trkpt>
      <trkpt lat="48.42749" lon="-2.63857">
        <ele>60</ele>
        <time>2019-03-30T16:18:42Z</time>
      </trkpt>
      <trkpt lat="48.42748" lon="-2.63848">
        <ele>61</ele>
        <time>2019-03-30T16:18:45Z</time>
      </trkpt>
      <trkpt lat="48.42749" lon="-2.63839">
        <ele>62</ele>
        <time>2019-03-30T16:18:49Z</time>
      </trkpt>
      <trkpt lat="48.42749" lon="-2.63832">
        <ele>62</ele>
        <time>2019-03-30T16:18:52Z</time>
      </trkpt>
      <trkpt lat="48.42752" lon="-2.63808">
        <ele>64</ele>
        <time>2019-03-30T16:19:02Z</time>
      </trkpt>
      <trkpt lat="48.42756" lon="-2.63803">
        <ele>65</ele>
        <time>2019-03-30T16:19:06Z</time>
      </trkpt>
      <trkpt lat="48.42762" lon="-2.63805">
        <ele>65</ele>
        <time>2019-03-30T16:19:10Z</time>
      </trkpt>
      <trkpt lat="48.42765" lon="-2.63811">
        <ele>65</ele>
        <time>2019-03-30T16:19:14Z</time>
      </trkpt>
      <trkpt lat="48.42779" lon="-2.63825">
        <ele>64</ele>
        <time>2019-03-30T16:19:25Z</time>
      </trkpt>
      <trkpt lat="48.42794" lon="-2.63836">
        <ele>63</ele>
        <time>2019-03-30T16:19:35Z</time>
      </trkpt>
      <trkpt lat="48.428" lon="-2.63839">
        <ele>63</ele>
        <time>2019-03-30T16:19:39Z</time>
      </trkpt>
      <trkpt lat="48.42836" lon="-2.63854">
        <ele>59</ele>
        <time>2019-03-30T16:20:09Z</time>
      </trkpt>
      <trkpt lat="48.42851" lon="-2.63859">
        <ele>59</ele>
        <time>2019-03-30T16:20:18Z</time>
      </trkpt>
      <trkpt lat="48.4286" lon="-2.63867">
        <ele>59</ele>
        <time>2019-03-30T16:20:25Z</time>
      </trkpt>
      <trkpt lat="48.42864" lon="-2.63872">
        <ele>59</ele>
        <time>2019-03-30T16:20:28Z</time>
      </trkpt>
      <trkpt lat="48.42869" lon="-2.63875">
        <ele>60</ele>
        <time>2019-03-30T16:20:31Z</time>
      </trkpt>
      <trkpt lat="48.42875" lon="-2.63878">
        <ele>61</ele>
        <time>2019-03-30T16:20:34Z</time>
      </trkpt>
      <trkpt lat="48.42879" lon="-2.6388">
        <ele>61</ele>
        <time>2019-03-30T16:20:44Z</time>
      </trkpt>
      <trkpt lat="48.42901" lon="-2.63879">
        <ele>63</ele>
        <time>2019-03-30T16:21:02Z</time>
      </trkpt>
      <trkpt lat="48.42906" lon="-2.6388">
        <ele>63</ele>
        <time>2019-03-30T16:21:06Z</time>
      </trkpt>
      <trkpt lat="48.42941" lon="-2.63894">
        <ele>61</ele>
        <time>2019-03-30T16:21:45Z</time>
      </trkpt>
      <trkpt lat="48.42946" lon="-2.63894">
        <ele>60</ele>
        <time>2019-03-30T16:21:49Z</time>
      </trkpt>
      <trkpt lat="48.42987" lon="-2.63889">
        <ele>60</ele>
        <time>2019-03-30T16:22:18Z</time>
      </trkpt>
      <trkpt lat="48.42992" lon="-2.63887">
        <ele>60</ele>
        <time>2019-03-30T16:22:21Z</time>
      </trkpt>
      <trkpt lat="48.42997" lon="-2.63885">
        <ele>60</ele>
        <time>2019-03-30T16:22:26Z</time>
      </trkpt>
      <trkpt lat="48.43026" lon="-2.63882">
        <ele>57</ele>
        <time>2019-03-30T16:22:48Z</time>
      </trkpt>
      <trkpt lat="48.43037" lon="-2.63879">
        <ele>56</ele>
        <time>2019-03-30T16:22:55Z</time>
      </trkpt>
      <trkpt lat="48.43041" lon="-2.63874">
        <ele>56</ele>
        <time>2019-03-30T16:22:59Z</time>
      </trkpt>
      <trkpt lat="48.43045" lon="-2.63869">
        <ele>57</ele>
        <time>2019-03-30T16:23:03Z</time>
      </trkpt>
      <trkpt lat="48.43049" lon="-2.63865">
        <ele>56</ele>
        <time>2019-03-30T16:23:09Z</time>
      </trkpt>
      <trkpt lat="48.43058" lon="-2.63858">
        <ele>57</ele>
        <time>2019-03-30T16:23:17Z</time>
      </trkpt>
      <trkpt lat="48.43063" lon="-2.63856">
        <ele>58</ele>
        <time>2019-03-30T16:23:21Z</time>
      </trkpt>
      <trkpt lat="48.43067" lon="-2.63859">
        <ele>59</ele>
        <time>2019-03-30T16:23:27Z</time>
      </trkpt>
      <trkpt lat="48.43073" lon="-2.63859">
        <ele>60</ele>
        <time>2019-03-30T16:23:31Z</time>
      </trkpt>
      <trkpt lat="48.43077" lon="-2.63864">
        <ele>60</ele>
        <time>2019-03-30T16:23:35Z</time>
      </trkpt>
      <trkpt lat="48.43082" lon="-2.63871">
        <ele>61</ele>
        <time>2019-03-30T16:23:38Z</time>
      </trkpt>
      <trkpt lat="48.43087" lon="-2.63876">
        <ele>61</ele>
        <time>2019-03-30T16:23:41Z</time>
      </trkpt>
      <trkpt lat="48.43088" lon="-2.63883">
        <ele>60</ele>
        <time>2019-03-30T16:23:44Z</time>
      </trkpt>
      <trkpt lat="48.43092" lon="-2.6389">
        <ele>60</ele>
        <time>2019-03-30T16:23:47Z</time>
      </trkpt>
      <trkpt lat="48.43097" lon="-2.63904">
        <ele>60</ele>
        <time>2019-03-30T16:23:54Z</time>
      </trkpt>
      <trkpt lat="48.43097" lon="-2.63911">
        <ele>60</ele>
        <time>2019-03-30T16:23:57Z</time>
      </trkpt>
      <trkpt lat="48.43097" lon="-2.63918">
        <ele>59</ele>
        <time>2019-03-30T16:24:00Z</time>
      </trkpt>
      <trkpt lat="48.43101" lon="-2.63942">
        <ele>58</ele>
        <time>2019-03-30T16:24:11Z</time>
      </trkpt>
      <trkpt lat="48.43105" lon="-2.64015">
        <ele>61</ele>
        <time>2019-03-30T16:24:42Z</time>
      </trkpt>
      <trkpt lat="48.43106" lon="-2.64023">
        <ele>61</ele>
        <time>2019-03-30T16:24:46Z</time>
      </trkpt>
      <trkpt lat="48.43108" lon="-2.64031">
        <ele>62</ele>
        <time>2019-03-30T16:24:50Z</time>
      </trkpt>
      <trkpt lat="48.43113" lon="-2.64056">
        <ele>64</ele>
        <time>2019-03-30T16:25:02Z</time>
      </trkpt>
      <trkpt lat="48.43114" lon="-2.64072">
        <ele>64</ele>
        <time>2019-03-30T16:25:09Z</time>
      </trkpt>
      <trkpt lat="48.43114" lon="-2.64081">
        <ele>64</ele>
        <time>2019-03-30T16:25:13Z</time>
      </trkpt>
      <trkpt lat="48.43118" lon="-2.64094">
        <ele>63</ele>
        <time>2019-03-30T16:25:21Z</time>
      </trkpt>
      <trkpt lat="48.43122" lon="-2.64099">
        <ele>62</ele>
        <time>2019-03-30T16:25:26Z</time>
      </trkpt>
      <trkpt lat="48.43126" lon="-2.64103">
        <ele>62</ele>
        <time>2019-03-30T16:25:31Z</time>
      </trkpt>
      <trkpt lat="48.4313" lon="-2.64107">
        <ele>62</ele>
        <time>2019-03-30T16:25:48Z</time>
      </trkpt>
      <trkpt lat="48.4314" lon="-2.64108">
        <ele>64</ele>
        <time>2019-03-30T16:25:55Z</time>
      </trkpt>
      <trkpt lat="48.43145" lon="-2.64111">
        <ele>65</ele>
        <time>2019-03-30T16:25:58Z</time>
      </trkpt>
      <trkpt lat="48.43159" lon="-2.64123">
        <ele>66</ele>
        <time>2019-03-30T16:26:07Z</time>
      </trkpt>
      <trkpt lat="48.43196" lon="-2.64151">
        <ele>68</ele>
        <time>2019-03-30T16:26:27Z</time>
      </trkpt>
      <trkpt lat="48.43223" lon="-2.64182">
        <ele>68</ele>
        <time>2019-03-30T16:26:39Z</time>
      </trkpt>
      <trkpt lat="48.43236" lon="-2.64198">
        <ele>69</ele>
        <time>2019-03-30T16:26:45Z</time>
      </trkpt>
      <trkpt lat="48.4325" lon="-2.64213">
        <ele>68</ele>
        <time>2019-03-30T16:26:51Z</time>
      </trkpt>
      <trkpt lat="48.43256" lon="-2.64218">
        <ele>68</ele>
        <time>2019-03-30T16:26:54Z</time>
      </trkpt>
      <trkpt lat="48.4326" lon="-2.64221">
        <ele>69</ele>
        <time>2019-03-30T16:26:57Z</time>
      </trkpt>
      <trkpt lat="48.43298" lon="-2.64265">
        <ele>68</ele>
        <time>2019-03-30T16:27:28Z</time>
      </trkpt>
      <trkpt lat="48.43315" lon="-2.64277">
        <ele>67</ele>
        <time>2019-03-30T16:27:43Z</time>
      </trkpt>
      <trkpt lat="48.43339" lon="-2.64295">
        <ele>67</ele>
        <time>2019-03-30T16:27:59Z</time>
      </trkpt>
      <trkpt lat="48.43381" lon="-2.64332">
        <ele>70</ele>
        <time>2019-03-30T16:28:31Z</time>
      </trkpt>
      <trkpt lat="48.43393" lon="-2.64345">
        <ele>72</ele>
        <time>2019-03-30T16:28:40Z</time>
      </trkpt>
      <trkpt lat="48.43402" lon="-2.64355">
        <ele>71</ele>
        <time>2019-03-30T16:28:49Z</time>
      </trkpt>
      <trkpt lat="48.43405" lon="-2.6436">
        <ele>70</ele>
        <time>2019-03-30T16:28:53Z</time>
      </trkpt>
      <trkpt lat="48.4341" lon="-2.64363">
        <ele>70</ele>
        <time>2019-03-30T16:28:57Z</time>
      </trkpt>
      <trkpt lat="48.43414" lon="-2.64358">
        <ele>70</ele>
        <time>2019-03-30T16:29:02Z</time>
      </trkpt>
      <trkpt lat="48.4341" lon="-2.64356">
        <ele>71</ele>
        <time>2019-03-30T16:29:27Z</time>
      </trkpt>
      <trkpt lat="48.43406" lon="-2.64311">
        <ele>71</ele>
        <time>2019-03-30T16:29:48Z</time>
      </trkpt>
      <trkpt lat="48.43408" lon="-2.64305">
        <ele>70</ele>
        <time>2019-03-30T16:29:51Z</time>
      </trkpt>
      <trkpt lat="48.43409" lon="-2.64297">
        <ele>70</ele>
        <time>2019-03-30T16:29:55Z</time>
      </trkpt>
      <trkpt lat="48.43432" lon="-2.64281">
        <ele>71</ele>
        <time>2019-03-30T16:30:08Z</time>
      </trkpt>
      <trkpt lat="48.43442" lon="-2.64277">
        <ele>71</ele>
        <time>2019-03-30T16:30:13Z</time>
      </trkpt>
      <trkpt lat="48.43461" lon="-2.64278">
        <ele>69</ele>
        <time>2019-03-30T16:30:19Z</time>
      </trkpt>
      <trkpt lat="48.4349" lon="-2.64284">
        <ele>67</ele>
        <time>2019-03-30T16:30:27Z</time>
      </trkpt>
      <trkpt lat="48.43498" lon="-2.64283">
        <ele>67</ele>
        <time>2019-03-30T16:30:29Z</time>
      </trkpt>
      <trkpt lat="48.43505" lon="-2.6428">
        <ele>67</ele>
        <time>2019-03-30T16:30:31Z</time>
      </trkpt>
      <trkpt lat="48.43516" lon="-2.64242">
        <ele>67</ele>
        <time>2019-03-30T16:30:37Z</time>
      </trkpt>
      <trkpt lat="48.43521" lon="-2.6419">
        <ele>65</ele>
        <time>2019-03-30T16:30:43Z</time>
      </trkpt>
      <trkpt lat="48.43527" lon="-2.64151">
        <ele>64</ele>
        <time>2019-03-30T16:30:50Z</time>
      </trkpt>
      <trkpt lat="48.43531" lon="-2.64143">
        <ele>64</ele>
        <time>2019-03-30T16:30:52Z</time>
      </trkpt>
      <trkpt lat="48.43587" lon="-2.64147">
        <ele>65</ele>
        <time>2019-03-30T16:31:05Z</time>
      </trkpt>
      <trkpt lat="48.43594" lon="-2.64146">
        <ele>65</ele>
        <time>2019-03-30T16:31:07Z</time>
      </trkpt>
      <trkpt lat="48.436" lon="-2.64146">
        <ele>65</ele>
        <time>2019-03-30T16:31:10Z</time>
      </trkpt>
      <trkpt lat="48.43619" lon="-2.64167">
        <ele>64</ele>
        <time>2019-03-30T16:31:18Z</time>
      </trkpt>
      <trkpt lat="48.43663" lon="-2.64168">
        <ele>63</ele>
        <time>2019-03-30T16:31:32Z</time>
      </trkpt>
      <trkpt lat="48.43687" lon="-2.64159">
        <ele>65</ele>
        <time>2019-03-30T16:31:42Z</time>
      </trkpt>
      <trkpt lat="48.43703" lon="-2.64161">
        <ele>69</ele>
        <time>2019-03-30T16:31:51Z</time>
      </trkpt>
      <trkpt lat="48.43728" lon="-2.64178">
        <ele>73</ele>
        <time>2019-03-30T16:32:12Z</time>
      </trkpt>
      <trkpt lat="48.43753" lon="-2.64194">
        <ele>74</ele>
        <time>2019-03-30T16:32:29Z</time>
      </trkpt>
      <trkpt lat="48.43757" lon="-2.64189">
        <ele>75</ele>
        <time>2019-03-30T16:32:34Z</time>
      </trkpt>
      <trkpt lat="48.43767" lon="-2.64183">
        <ele>76</ele>
        <time>2019-03-30T16:32:41Z</time>
      </trkpt>
      <trkpt lat="48.43772" lon="-2.64179">
        <ele>76</ele>
        <time>2019-03-30T16:32:45Z</time>
      </trkpt>
      <trkpt lat="48.43777" lon="-2.64179">
        <ele>76</ele>
        <time>2019-03-30T16:32:48Z</time>
      </trkpt>
      <trkpt lat="48.43841" lon="-2.64248">
        <ele>76</ele>
        <time>2019-03-30T16:33:19Z</time>
      </trkpt>
      <trkpt lat="48.43855" lon="-2.64266">
        <ele>77</ele>
        <time>2019-03-30T16:33:25Z</time>
      </trkpt>
      <trkpt lat="48.43862" lon="-2.64279">
        <ele>77</ele>
        <time>2019-03-30T16:33:29Z</time>
      </trkpt>
      <trkpt lat="48.43864" lon="-2.64288">
        <ele>78</ele>
        <time>2019-03-30T16:33:32Z</time>
      </trkpt>
      <trkpt lat="48.43879" lon="-2.64329">
        <ele>80</ele>
        <time>2019-03-30T16:33:52Z</time>
      </trkpt>
      <trkpt lat="48.43899" lon="-2.64354">
        <ele>83</ele>
        <time>2019-03-30T16:34:09Z</time>
      </trkpt>
      <trkpt lat="48.43906" lon="-2.64366">
        <ele>84</ele>
        <time>2019-03-30T16:34:15Z</time>
      </trkpt>
      <trkpt lat="48.43931" lon="-2.644">
        <ele>82</ele>
        <time>2019-03-30T16:34:38Z</time>
      </trkpt>
      <trkpt lat="48.43946" lon="-2.64409">
        <ele>82</ele>
        <time>2019-03-30T16:34:51Z</time>
      </trkpt>
      <trkpt lat="48.43973" lon="-2.6441">
        <ele>80</ele>
        <time>2019-03-30T16:35:07Z</time>
      </trkpt>
      <trkpt lat="48.43978" lon="-2.64411">
        <ele>79</ele>
        <time>2019-03-30T16:35:10Z</time>
      </trkpt>
      <trkpt lat="48.43995" lon="-2.64419">
        <ele>79</ele>
        <time>2019-03-30T16:35:19Z</time>
      </trkpt>
      <trkpt lat="48.44034" lon="-2.64445">
        <ele>77</ele>
        <time>2019-03-30T16:35:51Z</time>
      </trkpt>
      <trkpt lat="48.44042" lon="-2.64455">
        <ele>75</ele>
        <time>2019-03-30T16:35:58Z</time>
      </trkpt>
      <trkpt lat="48.44046" lon="-2.64468">
        <ele>74</ele>
        <time>2019-03-30T16:36:04Z</time>
      </trkpt>
      <trkpt lat="48.44045" lon="-2.64476">
        <ele>74</ele>
        <time>2019-03-30T16:37:09Z</time>
      </trkpt>
      <trkpt lat="48.44055" lon="-2.64513">
        <ele>72</ele>
        <time>2019-03-30T16:37:31Z</time>
      </trkpt>
      <trkpt lat="48.44059" lon="-2.64518">
        <ele>72</ele>
        <time>2019-03-30T16:37:35Z</time>
      </trkpt>
      <trkpt lat="48.44077" lon="-2.64548">
        <ele>74</ele>
        <time>2019-03-30T16:37:53Z</time>
      </trkpt>
      <trkpt lat="48.44098" lon="-2.64573">
        <ele>76</ele>
        <time>2019-03-30T16:38:13Z</time>
      </trkpt>
      <trkpt lat="48.44103" lon="-2.64585">
        <ele>75</ele>
        <time>2019-03-30T16:38:22Z</time>
      </trkpt>
      <trkpt lat="48.4411" lon="-2.64596">
        <ele>75</ele>
        <time>2019-03-30T16:38:31Z</time>
      </trkpt>
      <trkpt lat="48.44113" lon="-2.64604">
        <ele>75</ele>
        <time>2019-03-30T16:38:36Z</time>
      </trkpt>
      <trkpt lat="48.44111" lon="-2.64611">
        <ele>73</ele>
        <time>2019-03-30T16:38:42Z</time>
      </trkpt>
      <trkpt lat="48.44086" lon="-2.64625">
        <ele>70</ele>
        <time>2019-03-30T16:39:09Z</time>
      </trkpt>
      <trkpt lat="48.44071" lon="-2.64635">
        <ele>72</ele>
        <time>2019-03-30T16:39:20Z</time>
      </trkpt>
      <trkpt lat="48.44054" lon="-2.64658">
        <ele>75</ele>
        <time>2019-03-30T16:39:37Z</time>
      </trkpt>
      <trkpt lat="48.44051" lon="-2.64675">
        <ele>75</ele>
        <time>2019-03-30T16:39:55Z</time>
      </trkpt>
      <trkpt lat="48.44046" lon="-2.64758">
        <ele>74</ele>
        <time>2019-03-30T16:40:26Z</time>
      </trkpt>
      <trkpt lat="48.44046" lon="-2.64782">
        <ele>77</ele>
        <time>2019-03-30T16:40:37Z</time>
      </trkpt>
      <trkpt lat="48.44047" lon="-2.6479">
        <ele>77</ele>
        <time>2019-03-30T16:40:41Z</time>
      </trkpt>
      <trkpt lat="48.44049" lon="-2.64797">
        <ele>77</ele>
        <time>2019-03-30T16:40:44Z</time>
      </trkpt>
      <trkpt lat="48.44057" lon="-2.64807">
        <ele>77</ele>
        <time>2019-03-30T16:40:50Z</time>
      </trkpt>
      <trkpt lat="48.44061" lon="-2.64814">
        <ele>78</ele>
        <time>2019-03-30T16:40:54Z</time>
      </trkpt>
      <trkpt lat="48.44061" lon="-2.64821">
        <ele>78</ele>
        <time>2019-03-30T16:40:59Z</time>
      </trkpt>
      <trkpt lat="48.44065" lon="-2.64828">
        <ele>78</ele>
        <time>2019-03-30T16:41:03Z</time>
      </trkpt>
      <trkpt lat="48.44065" lon="-2.64835">
        <ele>78</ele>
        <time>2019-03-30T16:41:07Z</time>
      </trkpt>
      <trkpt lat="48.44066" lon="-2.64857">
        <ele>77</ele>
        <time>2019-03-30T16:41:17Z</time>
      </trkpt>
      <trkpt lat="48.44068" lon="-2.64864">
        <ele>77</ele>
        <time>2019-03-30T16:41:20Z</time>
      </trkpt>
      <trkpt lat="48.44068" lon="-2.64872">
        <ele>77</ele>
        <time>2019-03-30T16:41:24Z</time>
      </trkpt>
      <trkpt lat="48.4407" lon="-2.64879">
        <ele>78</ele>
        <time>2019-03-30T16:41:28Z</time>
      </trkpt>
      <trkpt lat="48.44068" lon="-2.64886">
        <ele>78</ele>
        <time>2019-03-30T16:41:32Z</time>
      </trkpt>
      <trkpt lat="48.4406" lon="-2.64896">
        <ele>77</ele>
        <time>2019-03-30T16:41:42Z</time>
      </trkpt>
      <trkpt lat="48.44055" lon="-2.64899">
        <ele>77</ele>
        <time>2019-03-30T16:41:45Z</time>
      </trkpt>
      <trkpt lat="48.4404" lon="-2.6492">
        <ele>79</ele>
        <time>2019-03-30T16:42:00Z</time>
      </trkpt>
      <trkpt lat="48.44035" lon="-2.64925">
        <ele>79</ele>
        <time>2019-03-30T16:42:04Z</time>
      </trkpt>
      <trkpt lat="48.44003" lon="-2.64964">
        <ele>84</ele>
        <time>2019-03-30T16:42:37Z</time>
      </trkpt>
      <trkpt lat="48.43999" lon="-2.64969">
        <ele>84</ele>
        <time>2019-03-30T16:42:40Z</time>
      </trkpt>
      <trkpt lat="48.43994" lon="-2.64975">
        <ele>84</ele>
        <time>2019-03-30T16:42:46Z</time>
      </trkpt>
      <trkpt lat="48.43985" lon="-2.64979">
        <ele>84</ele>
        <time>2019-03-30T16:42:55Z</time>
      </trkpt>
    </trkseg>
  </trk>
</gpx>